<?xml version='1.0' encoding='UTF-8'?><gpx version="1.1" creator="JPX - https://github.com/jenetics/jpx" xmlns="http://www.topografix.com/GPX/1/1"><trk><trkseg><trkpt lat="43.0608887" lon="11.6062442"><ele>400.99999999999994</ele><time>2026-04-04T11:08:51.358Z</time></trkpt><trkpt lat="43.0608215" lon="11.6061745"><ele>401.0</ele><time>2026-04-04T11:08:54.351Z</time></trkpt><trkpt lat="43.0607702" lon="11.6060244"><ele>401.0</ele><time>2026-04-04T11:08:56.36Z</time></trkpt><trkpt lat="43.0607663" lon="11.6059256"><ele>401.0</ele><time>2026-04-04T11:08:57.36Z</time></trkpt><trkpt lat="43.0607901" lon="11.6058241"><ele>400.99999999999994</ele><time>2026-04-04T11:08:58.36Z</time></trkpt><trkpt lat="43.0608362" lon="11.6057188"><ele>401.0</ele><time>2026-04-04T11:08:59.348Z</time></trkpt><trkpt lat="43.0608863" lon="11.6056033"><ele>401.5</ele><time>2026-04-04T11:09:00.352Z</time></trkpt><trkpt lat="43.0609365" lon="11.6054716"><ele>402.0</ele><time>2026-04-04T11:09:01.355Z</time></trkpt><trkpt lat="43.0609756" lon="11.6053213"><ele>402.5</ele><time>2026-04-04T11:09:02.362Z</time></trkpt><trkpt lat="43.0609939" lon="11.6051532"><ele>403.0</ele><time>2026-04-04T11:09:03.358Z</time></trkpt><trkpt lat="43.0609912" lon="11.6049739"><ele>404.5</ele><time>2026-04-04T11:09:04.359Z</time></trkpt><trkpt lat="43.0609859" lon="11.6047906"><ele>406.0</ele><time>2026-04-04T11:09:05.359Z</time></trkpt><trkpt lat="43.0609769" lon="11.6045989"><ele>407.5</ele><time>2026-04-04T11:09:06.36Z</time></trkpt><trkpt lat="43.0609701" lon="11.6044074"><ele>409.0</ele><time>2026-04-04T11:09:07.357Z</time></trkpt><trkpt lat="43.0609628" lon="11.6042151"><ele>409.0</ele><time>2026-04-04T11:09:08.353Z</time></trkpt><trkpt lat="43.0609633" lon="11.6040233"><ele>409.0</ele><time>2026-04-04T11:09:09.36Z</time></trkpt><trkpt lat="43.0609662" lon="11.6038331"><ele>409.0</ele><time>2026-04-04T11:09:10.36Z</time></trkpt><trkpt lat="43.0609714" lon="11.603642"><ele>409.0</ele><time>2026-04-04T11:09:11.353Z</time></trkpt><trkpt lat="43.0609731" lon="11.6034517"><ele>408.75</ele><time>2026-04-04T11:09:12.355Z</time></trkpt><trkpt lat="43.0609675" lon="11.6032653"><ele>408.5</ele><time>2026-04-04T11:09:13.361Z</time></trkpt><trkpt lat="43.0609597" lon="11.6030864"><ele>408.25</ele><time>2026-04-04T11:09:14.352Z</time></trkpt><trkpt lat="43.0609493" lon="11.6029133"><ele>408.0</ele><time>2026-04-04T11:09:15.353Z</time></trkpt><trkpt lat="43.0609284" lon="11.6027471"><ele>406.25</ele><time>2026-04-04T11:09:16.356Z</time></trkpt><trkpt lat="43.0609068" lon="11.6025866"><ele>404.5</ele><time>2026-04-04T11:09:17.35Z</time></trkpt><trkpt lat="43.0608832" lon="11.6024238"><ele>402.75</ele><time>2026-04-04T11:09:18.351Z</time></trkpt><trkpt lat="43.0608509" lon="11.6022653"><ele>401.0</ele><time>2026-04-04T11:09:19.349Z</time></trkpt><trkpt lat="43.0608063" lon="11.6021215"><ele>400.3333333333333</ele><time>2026-04-04T11:09:20.356Z</time></trkpt><trkpt lat="43.0607514" lon="11.6019949"><ele>399.66666666666663</ele><time>2026-04-04T11:09:21.361Z</time></trkpt><trkpt lat="43.0607016" lon="11.6018923"><ele>399.0</ele><time>2026-04-04T11:09:22.362Z</time></trkpt><trkpt lat="43.0606725" lon="11.6017919"><ele>398.33333333333337</ele><time>2026-04-04T11:09:23.353Z</time></trkpt><trkpt lat="43.060678" lon="11.6016903"><ele>397.6666666666667</ele><time>2026-04-04T11:09:24.361Z</time></trkpt><trkpt lat="43.0607265" lon="11.6015854"><ele>397.0</ele><time>2026-04-04T11:09:25.358Z</time></trkpt><trkpt lat="43.0608096" lon="11.6014858"><ele>396.0</ele><time>2026-04-04T11:09:26.356Z</time></trkpt><trkpt lat="43.0608971" lon="11.6013625"><ele>395.0</ele><time>2026-04-04T11:09:27.36Z</time></trkpt><trkpt lat="43.0609743" lon="11.6011965"><ele>394.0</ele><time>2026-04-04T11:09:28.354Z</time></trkpt><trkpt lat="43.061045" lon="11.6010155"><ele>393.0</ele><time>2026-04-04T11:09:29.36Z</time></trkpt><trkpt lat="43.0611175" lon="11.6008268"><ele>391.2</ele><time>2026-04-04T11:09:30.36Z</time></trkpt><trkpt lat="43.0611853" lon="11.6006579"><ele>389.4</ele><time>2026-04-04T11:09:31.36Z</time></trkpt><trkpt lat="43.0612409" lon="11.6005257"><ele>387.59999999999997</ele><time>2026-04-04T11:09:32.355Z</time></trkpt><trkpt lat="43.061289" lon="11.6004211"><ele>385.79999999999995</ele><time>2026-04-04T11:09:33.356Z</time></trkpt><trkpt lat="43.0613399" lon="11.6003618"><ele>384.0</ele><time>2026-04-04T11:09:34.353Z</time></trkpt><trkpt lat="43.0614542" lon="11.6003732"><ele>384.0</ele><time>2026-04-04T11:09:36.356Z</time></trkpt><trkpt lat="43.0615155" lon="11.6005301"><ele>384.0</ele><time>2026-04-04T11:09:38.352Z</time></trkpt><trkpt lat="43.0615184" lon="11.6006703"><ele>384.0</ele><time>2026-04-04T11:09:39.361Z</time></trkpt><trkpt lat="43.0615159" lon="11.6008381"><ele>384.0</ele><time>2026-04-04T11:09:40.351Z</time></trkpt><trkpt lat="43.0615168" lon="11.6010183"><ele>385.5</ele><time>2026-04-04T11:09:41.349Z</time></trkpt><trkpt lat="43.0615158" lon="11.6011793"><ele>387.0</ele><time>2026-04-04T11:09:42.35Z</time></trkpt><trkpt lat="43.0615269" lon="11.6013277"><ele>388.5</ele><time>2026-04-04T11:09:43.351Z</time></trkpt><trkpt lat="43.0615673" lon="11.6014714"><ele>390.0</ele><time>2026-04-04T11:09:44.353Z</time></trkpt><trkpt lat="43.0616484" lon="11.6015949"><ele>390.0</ele><time>2026-04-04T11:09:45.355Z</time></trkpt><trkpt lat="43.0617396" lon="11.6016956"><ele>390.0</ele><time>2026-04-04T11:09:46.351Z</time></trkpt><trkpt lat="43.0618129" lon="11.6018116"><ele>390.0</ele><time>2026-04-04T11:09:47.354Z</time></trkpt><trkpt lat="43.0618528" lon="11.6019499"><ele>390.0</ele><time>2026-04-04T11:09:48.351Z</time></trkpt><trkpt lat="43.0618457" lon="11.6020677"><ele>390.0</ele><time>2026-04-04T11:09:49.36Z</time></trkpt><trkpt lat="43.0618167" lon="11.6021575"><ele>390.4</ele><time>2026-04-04T11:09:50.358Z</time></trkpt><trkpt lat="43.0617404" lon="11.6022496"><ele>390.8</ele><time>2026-04-04T11:09:52.355Z</time></trkpt><trkpt lat="43.0616213" lon="11.6022417"><ele>391.20000000000005</ele><time>2026-04-04T11:09:54.354Z</time></trkpt><trkpt lat="43.0615496" lon="11.6021882"><ele>391.6</ele><time>2026-04-04T11:09:55.356Z</time></trkpt><trkpt lat="43.061491" lon="11.602093"><ele>392.0</ele><time>2026-04-04T11:09:56.36Z</time></trkpt><trkpt lat="43.0614434" lon="11.6019595"><ele>392.3333333333333</ele><time>2026-04-04T11:09:57.36Z</time></trkpt><trkpt lat="43.061382" lon="11.6017793"><ele>392.66666666666663</ele><time>2026-04-04T11:09:58.361Z</time></trkpt><trkpt lat="43.0613019" lon="11.6015825"><ele>393.0</ele><time>2026-04-04T11:09:59.361Z</time></trkpt><trkpt lat="43.0612091" lon="11.6013693"><ele>390.0</ele><time>2026-04-04T11:10:00.361Z</time></trkpt><trkpt lat="43.061103" lon="11.6011466"><ele>387.0</ele><time>2026-04-04T11:10:01.361Z</time></trkpt><trkpt lat="43.0609857" lon="11.600912"><ele>384.0</ele><time>2026-04-04T11:10:02.361Z</time></trkpt><trkpt lat="43.0608598" lon="11.6006505"><ele>385.0</ele><time>2026-04-04T11:10:03.361Z</time></trkpt><trkpt lat="43.0607369" lon="11.6003878"><ele>386.0</ele><time>2026-04-04T11:10:04.361Z</time></trkpt><trkpt lat="43.0606069" lon="11.6001143"><ele>381.5</ele><time>2026-04-04T11:10:05.36Z</time></trkpt><trkpt lat="43.060478" lon="11.5998316"><ele>377.0</ele><time>2026-04-04T11:10:06.36Z</time></trkpt><trkpt lat="43.0603567" lon="11.5995344"><ele>372.0</ele><time>2026-04-04T11:10:07.361Z</time></trkpt><trkpt lat="43.0602444" lon="11.599221"><ele>367.0</ele><time>2026-04-04T11:10:08.361Z</time></trkpt><trkpt lat="43.06014" lon="11.5988927"><ele>364.5</ele><time>2026-04-04T11:10:09.361Z</time></trkpt><trkpt lat="43.0600478" lon="11.5985508"><ele>362.0</ele><time>2026-04-04T11:10:10.36Z</time></trkpt><trkpt lat="43.0599733" lon="11.5981955"><ele>371.5</ele><time>2026-04-04T11:10:11.361Z</time></trkpt><trkpt lat="43.0599124" lon="11.5978298"><ele>381.0</ele><time>2026-04-04T11:10:12.361Z</time></trkpt><trkpt lat="43.0598708" lon="11.5974559"><ele>381.0</ele><time>2026-04-04T11:10:13.361Z</time></trkpt><trkpt lat="43.0598448" lon="11.5970778"><ele>381.0</ele><time>2026-04-04T11:10:14.36Z</time></trkpt><trkpt lat="43.0598344" lon="11.5966947"><ele>380.5</ele><time>2026-04-04T11:10:15.361Z</time></trkpt><trkpt lat="43.0598285" lon="11.5963072"><ele>380.0</ele><time>2026-04-04T11:10:16.361Z</time></trkpt><trkpt lat="43.0598232" lon="11.5959158"><ele>380.0</ele><time>2026-04-04T11:10:17.36Z</time></trkpt><trkpt lat="43.0598194" lon="11.5955298"><ele>380.0</ele><time>2026-04-04T11:10:18.36Z</time></trkpt><trkpt lat="43.0598227" lon="11.5951438"><ele>378.5</ele><time>2026-04-04T11:10:19.361Z</time></trkpt><trkpt lat="43.0598344" lon="11.5947593"><ele>377.0</ele><time>2026-04-04T11:10:20.361Z</time></trkpt><trkpt lat="43.0598662" lon="11.594379"><ele>373.0</ele><time>2026-04-04T11:10:21.361Z</time></trkpt><trkpt lat="43.0599147" lon="11.5940003"><ele>369.0</ele><time>2026-04-04T11:10:22.36Z</time></trkpt><trkpt lat="43.0599782" lon="11.5936251"><ele>361.0</ele><time>2026-04-04T11:10:23.361Z</time></trkpt><trkpt lat="43.0600601" lon="11.5932551"><ele>353.0</ele><time>2026-04-04T11:10:24.361Z</time></trkpt><trkpt lat="43.0601616" lon="11.5928911"><ele>349.5</ele><time>2026-04-04T11:10:25.361Z</time></trkpt><trkpt lat="43.0602832" lon="11.5925413"><ele>346.0</ele><time>2026-04-04T11:10:26.361Z</time></trkpt><trkpt lat="43.06042" lon="11.5922031"><ele>344.5</ele><time>2026-04-04T11:10:27.361Z</time></trkpt><trkpt lat="43.0605672" lon="11.5918725"><ele>343.0</ele><time>2026-04-04T11:10:28.361Z</time></trkpt><trkpt lat="43.0607249" lon="11.5915501"><ele>344.5</ele><time>2026-04-04T11:10:29.361Z</time></trkpt><trkpt lat="43.0608897" lon="11.5912364"><ele>346.0</ele><time>2026-04-04T11:10:30.361Z</time></trkpt><trkpt lat="43.0610587" lon="11.5909262"><ele>346.0</ele><time>2026-04-04T11:10:31.361Z</time></trkpt><trkpt lat="43.0612282" lon="11.5906122"><ele>346.0</ele><time>2026-04-04T11:10:32.361Z</time></trkpt><trkpt lat="43.0613929" lon="11.5902906"><ele>349.0</ele><time>2026-04-04T11:10:33.361Z</time></trkpt><trkpt lat="43.0615525" lon="11.5899579"><ele>352.0</ele><time>2026-04-04T11:10:34.361Z</time></trkpt><trkpt lat="43.0617006" lon="11.5896137"><ele>347.0</ele><time>2026-04-04T11:10:35.36Z</time></trkpt><trkpt lat="43.0618339" lon="11.589254"><ele>342.0</ele><time>2026-04-04T11:10:36.36Z</time></trkpt><trkpt lat="43.0619531" lon="11.5888847"><ele>341.0</ele><time>2026-04-04T11:10:37.361Z</time></trkpt><trkpt lat="43.0620686" lon="11.5885156"><ele>340.0</ele><time>2026-04-04T11:10:38.361Z</time></trkpt><trkpt lat="43.0621909" lon="11.588153"><ele>339.0</ele><time>2026-04-04T11:10:39.361Z</time></trkpt><trkpt lat="43.0623204" lon="11.5877998"><ele>338.0</ele><time>2026-04-04T11:10:40.36Z</time></trkpt><trkpt lat="43.062459" lon="11.5874566"><ele>332.5</ele><time>2026-04-04T11:10:41.361Z</time></trkpt><trkpt lat="43.0626107" lon="11.587128"><ele>327.0</ele><time>2026-04-04T11:10:42.36Z</time></trkpt><trkpt lat="43.0627723" lon="11.5868139"><ele>327.0</ele><time>2026-04-04T11:10:43.361Z</time></trkpt><trkpt lat="43.062945" lon="11.5865167"><ele>327.0</ele><time>2026-04-04T11:10:44.361Z</time></trkpt><trkpt lat="43.0631289" lon="11.5862358"><ele>323.5</ele><time>2026-04-04T11:10:45.361Z</time></trkpt><trkpt lat="43.063326" lon="11.585978"><ele>320.0</ele><time>2026-04-04T11:10:46.361Z</time></trkpt><trkpt lat="43.0635339" lon="11.5857419"><ele>320.0</ele><time>2026-04-04T11:10:47.361Z</time></trkpt><trkpt lat="43.0637507" lon="11.5855218"><ele>320.0</ele><time>2026-04-04T11:10:48.361Z</time></trkpt><trkpt lat="43.0639755" lon="11.5853164"><ele>320.0</ele><time>2026-04-04T11:10:49.36Z</time></trkpt><trkpt lat="43.0642101" lon="11.5851282"><ele>320.0</ele><time>2026-04-04T11:10:50.361Z</time></trkpt><trkpt lat="43.0644542" lon="11.5849616"><ele>320.0</ele><time>2026-04-04T11:10:51.361Z</time></trkpt><trkpt lat="43.064704" lon="11.5848112"><ele>320.0</ele><time>2026-04-04T11:10:52.36Z</time></trkpt><trkpt lat="43.0649528" lon="11.5846662"><ele>318.0</ele><time>2026-04-04T11:10:53.361Z</time></trkpt><trkpt lat="43.0652016" lon="11.5845213"><ele>316.0</ele><time>2026-04-04T11:10:54.36Z</time></trkpt><trkpt lat="43.0654504" lon="11.5843767"><ele>316.0</ele><time>2026-04-04T11:10:55.36Z</time></trkpt><trkpt lat="43.065698" lon="11.5842332"><ele>316.0</ele><time>2026-04-04T11:10:56.361Z</time></trkpt><trkpt lat="43.0659435" lon="11.5840907"><ele>311.5</ele><time>2026-04-04T11:10:57.361Z</time></trkpt><trkpt lat="43.066185" lon="11.5839509"><ele>307.0</ele><time>2026-04-04T11:10:58.361Z</time></trkpt><trkpt lat="43.0664119" lon="11.583815"><ele>308.0</ele><time>2026-04-04T11:10:59.361Z</time></trkpt><trkpt lat="43.0666243" lon="11.5836844"><ele>309.0</ele><time>2026-04-04T11:11:00.36Z</time></trkpt><trkpt lat="43.0668308" lon="11.583556"><ele>309.0</ele><time>2026-04-04T11:11:01.361Z</time></trkpt><trkpt lat="43.0670275" lon="11.583426"><ele>309.0</ele><time>2026-04-04T11:11:02.361Z</time></trkpt><trkpt lat="43.0672169" lon="11.5832967"><ele>309.0</ele><time>2026-04-04T11:11:03.361Z</time></trkpt><trkpt lat="43.0673963" lon="11.58317"><ele>308.0</ele><time>2026-04-04T11:11:04.361Z</time></trkpt><trkpt lat="43.0675627" lon="11.5830408"><ele>307.0</ele><time>2026-04-04T11:11:05.361Z</time></trkpt><trkpt lat="43.0677302" lon="11.5828946"><ele>306.0</ele><time>2026-04-04T11:11:06.361Z</time></trkpt><trkpt lat="43.0679025" lon="11.5827427"><ele>306.0</ele><time>2026-04-04T11:11:07.361Z</time></trkpt><trkpt lat="43.0680798" lon="11.5825796"><ele>306.0</ele><time>2026-04-04T11:11:08.361Z</time></trkpt><trkpt lat="43.0682551" lon="11.5824068"><ele>306.0</ele><time>2026-04-04T11:11:09.361Z</time></trkpt><trkpt lat="43.0684218" lon="11.5822326"><ele>303.3333333333333</ele><time>2026-04-04T11:11:10.361Z</time></trkpt><trkpt lat="43.0685789" lon="11.5820582"><ele>300.66666666666663</ele><time>2026-04-04T11:11:11.361Z</time></trkpt><trkpt lat="43.0687237" lon="11.5818854"><ele>298.0</ele><time>2026-04-04T11:11:12.361Z</time></trkpt><trkpt lat="43.0688588" lon="11.5817099"><ele>298.0</ele><time>2026-04-04T11:11:13.36Z</time></trkpt><trkpt lat="43.0689843" lon="11.5815332"><ele>298.0</ele><time>2026-04-04T11:11:14.361Z</time></trkpt><trkpt lat="43.0691058" lon="11.5813518"><ele>298.0</ele><time>2026-04-04T11:11:15.361Z</time></trkpt><trkpt lat="43.0692212" lon="11.5811663"><ele>294.66666666666663</ele><time>2026-04-04T11:11:16.361Z</time></trkpt><trkpt lat="43.069327" lon="11.5809797"><ele>291.3333333333333</ele><time>2026-04-04T11:11:17.361Z</time></trkpt><trkpt lat="43.0694267" lon="11.5807898"><ele>288.0</ele><time>2026-04-04T11:11:18.361Z</time></trkpt><trkpt lat="43.0695265" lon="11.5805836"><ele>288.0</ele><time>2026-04-04T11:11:19.361Z</time></trkpt><trkpt lat="43.0696199" lon="11.5803735"><ele>288.0</ele><time>2026-04-04T11:11:20.361Z</time></trkpt><trkpt lat="43.069702" lon="11.5801713"><ele>288.0</ele><time>2026-04-04T11:11:21.361Z</time></trkpt><trkpt lat="43.0697753" lon="11.5799694"><ele>287.0</ele><time>2026-04-04T11:11:22.36Z</time></trkpt><trkpt lat="43.0698471" lon="11.5797573"><ele>286.0</ele><time>2026-04-04T11:11:23.36Z</time></trkpt><trkpt lat="43.0699172" lon="11.5795423"><ele>285.0</ele><time>2026-04-04T11:11:24.358Z</time></trkpt><trkpt lat="43.0699812" lon="11.5793311"><ele>281.3333333333333</ele><time>2026-04-04T11:11:25.361Z</time></trkpt><trkpt lat="43.0700336" lon="11.5791225"><ele>277.66666666666663</ele><time>2026-04-04T11:11:26.361Z</time></trkpt><trkpt lat="43.0700788" lon="11.5789076"><ele>274.0</ele><time>2026-04-04T11:11:27.361Z</time></trkpt><trkpt lat="43.0701217" lon="11.5786864"><ele>271.0</ele><time>2026-04-04T11:11:28.361Z</time></trkpt><trkpt lat="43.0701599" lon="11.5784587"><ele>268.0</ele><time>2026-04-04T11:11:29.361Z</time></trkpt><trkpt lat="43.0701877" lon="11.5782219"><ele>265.0</ele><time>2026-04-04T11:11:30.361Z</time></trkpt><trkpt lat="43.0702095" lon="11.5779831"><ele>262.3333333333333</ele><time>2026-04-04T11:11:31.361Z</time></trkpt><trkpt lat="43.0702208" lon="11.5777169"><ele>259.6666666666667</ele><time>2026-04-04T11:11:32.361Z</time></trkpt><trkpt lat="43.0702247" lon="11.5774163"><ele>257.0</ele><time>2026-04-04T11:11:33.361Z</time></trkpt><trkpt lat="43.0702212" lon="11.5770911"><ele>253.5</ele><time>2026-04-04T11:11:34.361Z</time></trkpt><trkpt lat="43.0702166" lon="11.5767442"><ele>250.0</ele><time>2026-04-04T11:11:35.36Z</time></trkpt><trkpt lat="43.0702017" lon="11.5763927"><ele>249.0</ele><time>2026-04-04T11:11:36.361Z</time></trkpt><trkpt lat="43.0701572" lon="11.5760385"><ele>248.0</ele><time>2026-04-04T11:11:37.36Z</time></trkpt><trkpt lat="43.0700982" lon="11.5756959"><ele>248.0</ele><time>2026-04-04T11:11:38.361Z</time></trkpt><trkpt lat="43.0700247" lon="11.5753587"><ele>248.0</ele><time>2026-04-04T11:11:39.361Z</time></trkpt><trkpt lat="43.0699371" lon="11.5750305"><ele>246.5</ele><time>2026-04-04T11:11:40.36Z</time></trkpt><trkpt lat="43.0698298" lon="11.5747066"><ele>245.0</ele><time>2026-04-04T11:11:41.361Z</time></trkpt><trkpt lat="43.0697109" lon="11.5743839"><ele>244.5</ele><time>2026-04-04T11:11:42.361Z</time></trkpt><trkpt lat="43.069587" lon="11.57406"><ele>244.0</ele><time>2026-04-04T11:11:43.36Z</time></trkpt><trkpt lat="43.069466" lon="11.5737297"><ele>245.0</ele><time>2026-04-04T11:11:44.361Z</time></trkpt><trkpt lat="43.0693211" lon="11.5734081"><ele>246.0</ele><time>2026-04-04T11:11:45.36Z</time></trkpt><trkpt lat="43.0691591" lon="11.5730941"><ele>245.5</ele><time>2026-04-04T11:11:46.361Z</time></trkpt><trkpt lat="43.0689929" lon="11.5727816"><ele>245.0</ele><time>2026-04-04T11:11:47.361Z</time></trkpt><trkpt lat="43.0688163" lon="11.5724789"><ele>245.0</ele><time>2026-04-04T11:11:48.361Z</time></trkpt><trkpt lat="43.0686327" lon="11.5721881"><ele>245.0</ele><time>2026-04-04T11:11:49.36Z</time></trkpt><trkpt lat="43.0684484" lon="11.5719025"><ele>244.0</ele><time>2026-04-04T11:11:50.361Z</time></trkpt><trkpt lat="43.0682628" lon="11.5716202"><ele>243.0</ele><time>2026-04-04T11:11:51.361Z</time></trkpt><trkpt lat="43.0680762" lon="11.5713403"><ele>246.0</ele><time>2026-04-04T11:11:52.36Z</time></trkpt><trkpt lat="43.0678888" lon="11.5710631"><ele>249.0</ele><time>2026-04-04T11:11:53.36Z</time></trkpt><trkpt lat="43.0677006" lon="11.5707876"><ele>249.0</ele><time>2026-04-04T11:11:54.361Z</time></trkpt><trkpt lat="43.0675116" lon="11.5705157"><ele>249.0</ele><time>2026-04-04T11:11:55.361Z</time></trkpt><trkpt lat="43.0673217" lon="11.5702464"><ele>248.5</ele><time>2026-04-04T11:11:56.361Z</time></trkpt><trkpt lat="43.0671324" lon="11.5699799"><ele>248.0</ele><time>2026-04-04T11:11:57.361Z</time></trkpt><trkpt lat="43.0669425" lon="11.5697145"><ele>249.5</ele><time>2026-04-04T11:11:58.361Z</time></trkpt><trkpt lat="43.0667525" lon="11.569449"><ele>251.0</ele><time>2026-04-04T11:11:59.361Z</time></trkpt><trkpt lat="43.0665617" lon="11.5691839"><ele>247.5</ele><time>2026-04-04T11:12:00.361Z</time></trkpt><trkpt lat="43.0663724" lon="11.5689176"><ele>244.0</ele><time>2026-04-04T11:12:01.361Z</time></trkpt><trkpt lat="43.0661833" lon="11.5686526"><ele>244.0</ele><time>2026-04-04T11:12:02.361Z</time></trkpt><trkpt lat="43.065994" lon="11.5683885"><ele>244.0</ele><time>2026-04-04T11:12:03.36Z</time></trkpt><trkpt lat="43.0658088" lon="11.5681276"><ele>244.5</ele><time>2026-04-04T11:12:04.361Z</time></trkpt><trkpt lat="43.0656364" lon="11.567876"><ele>245.0</ele><time>2026-04-04T11:12:05.361Z</time></trkpt><trkpt lat="43.0654749" lon="11.567634"><ele>245.0</ele><time>2026-04-04T11:12:06.361Z</time></trkpt><trkpt lat="43.0653179" lon="11.5674014"><ele>245.0</ele><time>2026-04-04T11:12:07.361Z</time></trkpt><trkpt lat="43.06516" lon="11.5671705"><ele>246.0</ele><time>2026-04-04T11:12:08.361Z</time></trkpt><trkpt lat="43.0650028" lon="11.5669252"><ele>247.0</ele><time>2026-04-04T11:12:09.361Z</time></trkpt><trkpt lat="43.0648525" lon="11.5666619"><ele>247.0</ele><time>2026-04-04T11:12:10.361Z</time></trkpt><trkpt lat="43.0647062" lon="11.5663826"><ele>247.0</ele><time>2026-04-04T11:12:11.361Z</time></trkpt><trkpt lat="43.0645627" lon="11.566091"><ele>249.0</ele><time>2026-04-04T11:12:12.36Z</time></trkpt><trkpt lat="43.0644247" lon="11.5657914"><ele>251.0</ele><time>2026-04-04T11:12:13.361Z</time></trkpt><trkpt lat="43.064298" lon="11.5654836"><ele>252.0</ele><time>2026-04-04T11:12:14.361Z</time></trkpt><trkpt lat="43.0641854" lon="11.5651655"><ele>253.0</ele><time>2026-04-04T11:12:15.361Z</time></trkpt><trkpt lat="43.0640901" lon="11.5648386"><ele>248.5</ele><time>2026-04-04T11:12:16.361Z</time></trkpt><trkpt lat="43.0640101" lon="11.564504"><ele>244.0</ele><time>2026-04-04T11:12:17.361Z</time></trkpt><trkpt lat="43.0639423" lon="11.564164"><ele>244.0</ele><time>2026-04-04T11:12:18.36Z</time></trkpt><trkpt lat="43.0638878" lon="11.5638177"><ele>244.0</ele><time>2026-04-04T11:12:19.361Z</time></trkpt><trkpt lat="43.0638508" lon="11.5634671"><ele>243.5</ele><time>2026-04-04T11:12:20.36Z</time></trkpt><trkpt lat="43.0638267" lon="11.5631149"><ele>243.0</ele><time>2026-04-04T11:12:21.36Z</time></trkpt><trkpt lat="43.0638143" lon="11.5627591"><ele>244.5</ele><time>2026-04-04T11:12:22.36Z</time></trkpt><trkpt lat="43.0638145" lon="11.5624017"><ele>246.0</ele><time>2026-04-04T11:12:23.361Z</time></trkpt><trkpt lat="43.0638245" lon="11.5620437"><ele>249.5</ele><time>2026-04-04T11:12:24.361Z</time></trkpt><trkpt lat="43.0638406" lon="11.5616875"><ele>253.0</ele><time>2026-04-04T11:12:25.361Z</time></trkpt><trkpt lat="43.0638608" lon="11.5613344"><ele>257.5</ele><time>2026-04-04T11:12:26.361Z</time></trkpt><trkpt lat="43.0638839" lon="11.5609825"><ele>262.0</ele><time>2026-04-04T11:12:27.361Z</time></trkpt><trkpt lat="43.0639079" lon="11.5606334"><ele>260.5</ele><time>2026-04-04T11:12:28.361Z</time></trkpt><trkpt lat="43.0639301" lon="11.5602888"><ele>259.0</ele><time>2026-04-04T11:12:29.361Z</time></trkpt><trkpt lat="43.063951" lon="11.5599508"><ele>259.0</ele><time>2026-04-04T11:12:30.361Z</time></trkpt><trkpt lat="43.0639721" lon="11.5596184"><ele>259.0</ele><time>2026-04-04T11:12:31.36Z</time></trkpt><trkpt lat="43.0639923" lon="11.559291"><ele>255.5</ele><time>2026-04-04T11:12:32.361Z</time></trkpt><trkpt lat="43.0640158" lon="11.5589682"><ele>252.0</ele><time>2026-04-04T11:12:33.361Z</time></trkpt><trkpt lat="43.0640397" lon="11.5586572"><ele>250.66666666666669</ele><time>2026-04-04T11:12:34.361Z</time></trkpt><trkpt lat="43.0640622" lon="11.558363"><ele>249.33333333333334</ele><time>2026-04-04T11:12:35.361Z</time></trkpt><trkpt lat="43.0640816" lon="11.5580707"><ele>248.0</ele><time>2026-04-04T11:12:36.361Z</time></trkpt><trkpt lat="43.0641004" lon="11.557777"><ele>247.66666666666669</ele><time>2026-04-04T11:12:37.361Z</time></trkpt><trkpt lat="43.0641195" lon="11.55748"><ele>247.33333333333331</ele><time>2026-04-04T11:12:38.36Z</time></trkpt><trkpt lat="43.064139" lon="11.557181"><ele>247.0</ele><time>2026-04-04T11:12:39.361Z</time></trkpt><trkpt lat="43.0641586" lon="11.5568788"><ele>247.0</ele><time>2026-04-04T11:12:40.361Z</time></trkpt><trkpt lat="43.0641803" lon="11.5565706"><ele>247.0</ele><time>2026-04-04T11:12:41.361Z</time></trkpt><trkpt lat="43.0642027" lon="11.5562597"><ele>248.5</ele><time>2026-04-04T11:12:42.361Z</time></trkpt><trkpt lat="43.0642275" lon="11.5559501"><ele>250.0</ele><time>2026-04-04T11:12:43.361Z</time></trkpt><trkpt lat="43.0642652" lon="11.5556426"><ele>250.0</ele><time>2026-04-04T11:12:44.361Z</time></trkpt><trkpt lat="43.0643225" lon="11.5553333"><ele>250.0</ele><time>2026-04-04T11:12:45.36Z</time></trkpt><trkpt lat="43.064399" lon="11.5550251"><ele>250.0</ele><time>2026-04-04T11:12:46.361Z</time></trkpt><trkpt lat="43.0644902" lon="11.5547154"><ele>250.0</ele><time>2026-04-04T11:12:47.361Z</time></trkpt><trkpt lat="43.0645857" lon="11.5544001"><ele>245.5</ele><time>2026-04-04T11:12:48.361Z</time></trkpt><trkpt lat="43.0646852" lon="11.5540806"><ele>241.0</ele><time>2026-04-04T11:12:49.361Z</time></trkpt><trkpt lat="43.0647884" lon="11.5537563"><ele>240.5</ele><time>2026-04-04T11:12:50.361Z</time></trkpt><trkpt lat="43.0648921" lon="11.5534262"><ele>240.0</ele><time>2026-04-04T11:12:51.361Z</time></trkpt><trkpt lat="43.0649963" lon="11.5530937"><ele>237.5</ele><time>2026-04-04T11:12:52.361Z</time></trkpt><trkpt lat="43.0651028" lon="11.5527574"><ele>235.0</ele><time>2026-04-04T11:12:53.361Z</time></trkpt><trkpt lat="43.0652087" lon="11.5524173"><ele>235.0</ele><time>2026-04-04T11:12:54.361Z</time></trkpt><trkpt lat="43.0653146" lon="11.552074"><ele>235.0</ele><time>2026-04-04T11:12:55.361Z</time></trkpt><trkpt lat="43.0654228" lon="11.5517287"><ele>234.0</ele><time>2026-04-04T11:12:56.361Z</time></trkpt><trkpt lat="43.0655328" lon="11.5513833"><ele>233.0</ele><time>2026-04-04T11:12:57.361Z</time></trkpt><trkpt lat="43.0656427" lon="11.5510388"><ele>232.5</ele><time>2026-04-04T11:12:58.361Z</time></trkpt><trkpt lat="43.0657569" lon="11.5506965"><ele>232.0</ele><time>2026-04-04T11:12:59.361Z</time></trkpt><trkpt lat="43.0658784" lon="11.5503615"><ele>234.5</ele><time>2026-04-04T11:13:00.36Z</time></trkpt><trkpt lat="43.0660066" lon="11.550031"><ele>237.0</ele><time>2026-04-04T11:13:01.361Z</time></trkpt><trkpt lat="43.0661417" lon="11.5497079"><ele>237.5</ele><time>2026-04-04T11:13:02.361Z</time></trkpt><trkpt lat="43.0662863" lon="11.5493953"><ele>238.0</ele><time>2026-04-04T11:13:03.361Z</time></trkpt><trkpt lat="43.0664436" lon="11.5490959"><ele>238.5</ele><time>2026-04-04T11:13:04.361Z</time></trkpt><trkpt lat="43.0666148" lon="11.5488129"><ele>239.0</ele><time>2026-04-04T11:13:05.361Z</time></trkpt><trkpt lat="43.0667978" lon="11.5485464"><ele>240.0</ele><time>2026-04-04T11:13:06.361Z</time></trkpt><trkpt lat="43.0669919" lon="11.5482959"><ele>241.0</ele><time>2026-04-04T11:13:07.361Z</time></trkpt><trkpt lat="43.0671906" lon="11.5480694"><ele>240.5</ele><time>2026-04-04T11:13:08.361Z</time></trkpt><trkpt lat="43.0673943" lon="11.5478654"><ele>240.0</ele><time>2026-04-04T11:13:09.361Z</time></trkpt><trkpt lat="43.0676072" lon="11.5476817"><ele>239.5</ele><time>2026-04-04T11:13:10.361Z</time></trkpt><trkpt lat="43.0678237" lon="11.5475152"><ele>239.0</ele><time>2026-04-04T11:13:11.361Z</time></trkpt><trkpt lat="43.0680448" lon="11.5473682"><ele>239.0</ele><time>2026-04-04T11:13:12.361Z</time></trkpt><trkpt lat="43.0682683" lon="11.5472381"><ele>239.0</ele><time>2026-04-04T11:13:13.361Z</time></trkpt><trkpt lat="43.0684938" lon="11.5471317"><ele>240.5</ele><time>2026-04-04T11:13:14.361Z</time></trkpt><trkpt lat="43.0687214" lon="11.547047"><ele>242.0</ele><time>2026-04-04T11:13:15.361Z</time></trkpt><trkpt lat="43.0689492" lon="11.5469764"><ele>244.5</ele><time>2026-04-04T11:13:16.36Z</time></trkpt><trkpt lat="43.0691787" lon="11.5469234"><ele>247.0</ele><time>2026-04-04T11:13:17.361Z</time></trkpt><trkpt lat="43.0694096" lon="11.5468849"><ele>247.0</ele><time>2026-04-04T11:13:18.361Z</time></trkpt><trkpt lat="43.0696458" lon="11.5468642"><ele>247.0</ele><time>2026-04-04T11:13:19.361Z</time></trkpt><trkpt lat="43.0698834" lon="11.5468606"><ele>245.0</ele><time>2026-04-04T11:13:20.361Z</time></trkpt><trkpt lat="43.0701217" lon="11.5468753"><ele>243.0</ele><time>2026-04-04T11:13:21.361Z</time></trkpt><trkpt lat="43.0703611" lon="11.5469078"><ele>243.0</ele><time>2026-04-04T11:13:22.36Z</time></trkpt><trkpt lat="43.0706011" lon="11.5469568"><ele>243.0</ele><time>2026-04-04T11:13:23.361Z</time></trkpt><trkpt lat="43.0708408" lon="11.5470157"><ele>242.5</ele><time>2026-04-04T11:13:24.361Z</time></trkpt><trkpt lat="43.0710815" lon="11.5470801"><ele>242.0</ele><time>2026-04-04T11:13:25.361Z</time></trkpt><trkpt lat="43.0713229" lon="11.5471525"><ele>242.0</ele><time>2026-04-04T11:13:26.361Z</time></trkpt><trkpt lat="43.0715645" lon="11.5472267"><ele>242.0</ele><time>2026-04-04T11:13:27.361Z</time></trkpt><trkpt lat="43.0718066" lon="11.5473012"><ele>241.5</ele><time>2026-04-04T11:13:28.36Z</time></trkpt><trkpt lat="43.0720497" lon="11.5473704"><ele>241.0</ele><time>2026-04-04T11:13:29.36Z</time></trkpt><trkpt lat="43.0722957" lon="11.5474337"><ele>242.5</ele><time>2026-04-04T11:13:30.361Z</time></trkpt><trkpt lat="43.0725423" lon="11.5474864"><ele>244.0</ele><time>2026-04-04T11:13:31.361Z</time></trkpt><trkpt lat="43.0727916" lon="11.5475214"><ele>244.0</ele><time>2026-04-04T11:13:32.361Z</time></trkpt><trkpt lat="43.073043" lon="11.5475385"><ele>244.0</ele><time>2026-04-04T11:13:33.361Z</time></trkpt><trkpt lat="43.0732935" lon="11.547538"><ele>246.0</ele><time>2026-04-04T11:13:34.361Z</time></trkpt><trkpt lat="43.0735423" lon="11.5475169"><ele>248.0</ele><time>2026-04-04T11:13:35.36Z</time></trkpt><trkpt lat="43.0737919" lon="11.5474839"><ele>248.0</ele><time>2026-04-04T11:13:36.361Z</time></trkpt><trkpt lat="43.074042" lon="11.5474395"><ele>248.0</ele><time>2026-04-04T11:13:37.361Z</time></trkpt><trkpt lat="43.0742928" lon="11.547377"><ele>248.5</ele><time>2026-04-04T11:13:38.361Z</time></trkpt><trkpt lat="43.0745456" lon="11.5473071"><ele>249.0</ele><time>2026-04-04T11:13:39.361Z</time></trkpt><trkpt lat="43.0748033" lon="11.5472349"><ele>248.0</ele><time>2026-04-04T11:13:40.361Z</time></trkpt><trkpt lat="43.0750654" lon="11.547162"><ele>247.0</ele><time>2026-04-04T11:13:41.361Z</time></trkpt><trkpt lat="43.0753314" lon="11.5470893"><ele>248.5</ele><time>2026-04-04T11:13:42.361Z</time></trkpt><trkpt lat="43.0756004" lon="11.5470183"><ele>250.0</ele><time>2026-04-04T11:13:43.36Z</time></trkpt><trkpt lat="43.0758693" lon="11.5469532"><ele>250.0</ele><time>2026-04-04T11:13:44.361Z</time></trkpt><trkpt lat="43.0761409" lon="11.5468929"><ele>250.0</ele><time>2026-04-04T11:13:45.36Z</time></trkpt><trkpt lat="43.0764142" lon="11.5468351"><ele>248.0</ele><time>2026-04-04T11:13:46.36Z</time></trkpt><trkpt lat="43.0766843" lon="11.5467743"><ele>246.0</ele><time>2026-04-04T11:13:47.36Z</time></trkpt><trkpt lat="43.0769518" lon="11.5467093"><ele>246.0</ele><time>2026-04-04T11:13:48.361Z</time></trkpt><trkpt lat="43.0772197" lon="11.5466525"><ele>246.0</ele><time>2026-04-04T11:13:49.36Z</time></trkpt><trkpt lat="43.0774874" lon="11.5466059"><ele>244.5</ele><time>2026-04-04T11:13:50.36Z</time></trkpt><trkpt lat="43.0777325" lon="11.5465779"><ele>243.0</ele><time>2026-04-04T11:13:51.361Z</time></trkpt><trkpt lat="43.0779584" lon="11.5465772"><ele>243.0</ele><time>2026-04-04T11:13:52.361Z</time></trkpt><trkpt lat="43.0781861" lon="11.5466126"><ele>243.0</ele><time>2026-04-04T11:13:53.361Z</time></trkpt><trkpt lat="43.078412" lon="11.5466611"><ele>243.0</ele><time>2026-04-04T11:13:54.36Z</time></trkpt><trkpt lat="43.0786393" lon="11.5467036"><ele>243.0</ele><time>2026-04-04T11:13:55.361Z</time></trkpt><trkpt lat="43.0788641" lon="11.5467542"><ele>243.0</ele><time>2026-04-04T11:13:56.361Z</time></trkpt><trkpt lat="43.0790859" lon="11.5468153"><ele>243.0</ele><time>2026-04-04T11:13:57.36Z</time></trkpt><trkpt lat="43.079298" lon="11.5468811"><ele>243.0</ele><time>2026-04-04T11:13:58.361Z</time></trkpt><trkpt lat="43.0794978" lon="11.5469491"><ele>243.33333333333331</ele><time>2026-04-04T11:13:59.361Z</time></trkpt><trkpt lat="43.0796849" lon="11.5470244"><ele>243.66666666666666</ele><time>2026-04-04T11:14:00.361Z</time></trkpt><trkpt lat="43.0798591" lon="11.5471198"><ele>244.0</ele><time>2026-04-04T11:14:01.361Z</time></trkpt><trkpt lat="43.0800254" lon="11.5472508"><ele>244.0</ele><time>2026-04-04T11:14:02.361Z</time></trkpt><trkpt lat="43.0801715" lon="11.5474145"><ele>244.0</ele><time>2026-04-04T11:14:03.361Z</time></trkpt><trkpt lat="43.080316" lon="11.5475715"><ele>244.0</ele><time>2026-04-04T11:14:04.361Z</time></trkpt><trkpt lat="43.0804725" lon="11.5477033"><ele>244.0</ele><time>2026-04-04T11:14:05.361Z</time></trkpt><trkpt lat="43.0806333" lon="11.5478235"><ele>244.0</ele><time>2026-04-04T11:14:06.361Z</time></trkpt><trkpt lat="43.0808002" lon="11.5479331"><ele>244.0</ele><time>2026-04-04T11:14:07.361Z</time></trkpt><trkpt lat="43.0809754" lon="11.5480366"><ele>243.66666666666666</ele><time>2026-04-04T11:14:08.361Z</time></trkpt><trkpt lat="43.0811594" lon="11.548122"><ele>243.33333333333331</ele><time>2026-04-04T11:14:09.361Z</time></trkpt><trkpt lat="43.0813501" lon="11.5481857"><ele>243.0</ele><time>2026-04-04T11:14:10.361Z</time></trkpt><trkpt lat="43.0815421" lon="11.5482346"><ele>244.33333333333331</ele><time>2026-04-04T11:14:11.36Z</time></trkpt><trkpt lat="43.0817292" lon="11.5482727"><ele>245.66666666666666</ele><time>2026-04-04T11:14:12.361Z</time></trkpt><trkpt lat="43.0819129" lon="11.548306"><ele>247.0</ele><time>2026-04-04T11:14:13.361Z</time></trkpt><trkpt lat="43.0820928" lon="11.5483419"><ele>247.0</ele><time>2026-04-04T11:14:14.361Z</time></trkpt><trkpt lat="43.0822596" lon="11.548376"><ele>247.0</ele><time>2026-04-04T11:14:15.361Z</time></trkpt><trkpt lat="43.0824264" lon="11.5483984"><ele>247.0</ele><time>2026-04-04T11:14:16.361Z</time></trkpt><trkpt lat="43.0825964" lon="11.5484016"><ele>248.0</ele><time>2026-04-04T11:14:17.361Z</time></trkpt><trkpt lat="43.0827656" lon="11.5483956"><ele>249.0</ele><time>2026-04-04T11:14:18.361Z</time></trkpt><trkpt lat="43.082935" lon="11.5483881"><ele>250.0</ele><time>2026-04-04T11:14:19.36Z</time></trkpt><trkpt lat="43.0831042" lon="11.5483842"><ele>249.33333333333331</ele><time>2026-04-04T11:14:20.361Z</time></trkpt><trkpt lat="43.0832733" lon="11.5483797"><ele>248.66666666666669</ele><time>2026-04-04T11:14:21.361Z</time></trkpt><trkpt lat="43.0834388" lon="11.5483748"><ele>248.0</ele><time>2026-04-04T11:14:22.361Z</time></trkpt><trkpt lat="43.0836014" lon="11.548367"><ele>248.0</ele><time>2026-04-04T11:14:23.36Z</time></trkpt><trkpt lat="43.0837626" lon="11.5483569"><ele>248.0</ele><time>2026-04-04T11:14:24.361Z</time></trkpt><trkpt lat="43.0839211" lon="11.548347"><ele>248.0</ele><time>2026-04-04T11:14:25.361Z</time></trkpt><trkpt lat="43.0840786" lon="11.5483392"><ele>248.25</ele><time>2026-04-04T11:14:26.361Z</time></trkpt><trkpt lat="43.0842322" lon="11.5483336"><ele>248.5</ele><time>2026-04-04T11:14:27.361Z</time></trkpt><trkpt lat="43.0843811" lon="11.5483323"><ele>248.75</ele><time>2026-04-04T11:14:28.361Z</time></trkpt><trkpt lat="43.0845268" lon="11.5483426"><ele>249.0</ele><time>2026-04-04T11:14:29.361Z</time></trkpt><trkpt lat="43.0846654" lon="11.5483797"><ele>249.0</ele><time>2026-04-04T11:14:30.361Z</time></trkpt><trkpt lat="43.0847944" lon="11.5484475"><ele>249.0</ele><time>2026-04-04T11:14:31.361Z</time></trkpt><trkpt lat="43.0849155" lon="11.5485346"><ele>249.0</ele><time>2026-04-04T11:14:32.361Z</time></trkpt><trkpt lat="43.0850259" lon="11.5486399"><ele>249.0</ele><time>2026-04-04T11:14:33.361Z</time></trkpt><trkpt lat="43.0851333" lon="11.5487503"><ele>249.5</ele><time>2026-04-04T11:14:34.361Z</time></trkpt><trkpt lat="43.0852409" lon="11.548858"><ele>250.0</ele><time>2026-04-04T11:14:35.36Z</time></trkpt><trkpt lat="43.0853474" lon="11.5489631"><ele>250.5</ele><time>2026-04-04T11:14:36.361Z</time></trkpt><trkpt lat="43.0854542" lon="11.5490637"><ele>251.0</ele><time>2026-04-04T11:14:37.361Z</time></trkpt><trkpt lat="43.0855623" lon="11.5491507"><ele>251.0</ele><time>2026-04-04T11:14:38.361Z</time></trkpt><trkpt lat="43.0856693" lon="11.5492237"><ele>251.00000000000003</ele><time>2026-04-04T11:14:39.361Z</time></trkpt><trkpt lat="43.0857693" lon="11.5492805"><ele>251.00000000000003</ele><time>2026-04-04T11:14:40.361Z</time></trkpt><trkpt lat="43.0858408" lon="11.5493127"><ele>251.0</ele><time>2026-04-04T11:14:41.361Z</time></trkpt><trkpt lat="43.0859138" lon="11.5493473"><ele>251.0</ele><time>2026-04-04T11:14:43.361Z</time></trkpt><trkpt lat="43.0860016" lon="11.5493906"><ele>252.16666666666669</ele><time>2026-04-04T11:14:46.361Z</time></trkpt><trkpt lat="43.0860706" lon="11.5494054"><ele>253.33333333333334</ele><time>2026-04-04T11:14:47.36Z</time></trkpt><trkpt lat="43.0861417" lon="11.5494042"><ele>254.5</ele><time>2026-04-04T11:14:48.361Z</time></trkpt><trkpt lat="43.0862237" lon="11.5493989"><ele>255.66666666666669</ele><time>2026-04-04T11:14:49.36Z</time></trkpt><trkpt lat="43.0863113" lon="11.5493891"><ele>256.8333333333333</ele><time>2026-04-04T11:14:50.361Z</time></trkpt><trkpt lat="43.0864075" lon="11.5493827"><ele>258.0</ele><time>2026-04-04T11:14:51.36Z</time></trkpt><trkpt lat="43.0865126" lon="11.5493854"><ele>258.5</ele><time>2026-04-04T11:14:52.361Z</time></trkpt><trkpt lat="43.0866277" lon="11.5493909"><ele>259.0</ele><time>2026-04-04T11:14:53.361Z</time></trkpt><trkpt lat="43.0867505" lon="11.5493916"><ele>259.5</ele><time>2026-04-04T11:14:54.361Z</time></trkpt><trkpt lat="43.0868785" lon="11.5493938"><ele>260.0</ele><time>2026-04-04T11:14:55.361Z</time></trkpt><trkpt lat="43.0870143" lon="11.5493981"><ele>260.0</ele><time>2026-04-04T11:14:56.361Z</time></trkpt><trkpt lat="43.0871526" lon="11.5494028"><ele>260.0</ele><time>2026-04-04T11:14:57.361Z</time></trkpt><trkpt lat="43.0872847" lon="11.5494192"><ele>260.0</ele><time>2026-04-04T11:14:58.361Z</time></trkpt><trkpt lat="43.0874063" lon="11.5494658"><ele>260.0</ele><time>2026-04-04T11:14:59.361Z</time></trkpt><trkpt lat="43.0875159" lon="11.5495391"><ele>258.75</ele><time>2026-04-04T11:15:00.361Z</time></trkpt><trkpt lat="43.0876172" lon="11.5496424"><ele>257.5</ele><time>2026-04-04T11:15:01.361Z</time></trkpt><trkpt lat="43.0877271" lon="11.5497571"><ele>256.25</ele><time>2026-04-04T11:15:02.36Z</time></trkpt><trkpt lat="43.087847" lon="11.5498842"><ele>255.0</ele><time>2026-04-04T11:15:03.361Z</time></trkpt><trkpt lat="43.0879737" lon="11.5500199"><ele>255.0</ele><time>2026-04-04T11:15:04.361Z</time></trkpt><trkpt lat="43.0881066" lon="11.5501618"><ele>255.0</ele><time>2026-04-04T11:15:05.361Z</time></trkpt><trkpt lat="43.0882426" lon="11.5503138"><ele>255.0</ele><time>2026-04-04T11:15:06.36Z</time></trkpt><trkpt lat="43.0883801" lon="11.5504732"><ele>255.0</ele><time>2026-04-04T11:15:07.361Z</time></trkpt><trkpt lat="43.0885153" lon="11.5506406"><ele>255.0</ele><time>2026-04-04T11:15:08.361Z</time></trkpt><trkpt lat="43.0886503" lon="11.5508113"><ele>255.0</ele><time>2026-04-04T11:15:09.361Z</time></trkpt><trkpt lat="43.0887828" lon="11.5509855"><ele>255.0</ele><time>2026-04-04T11:15:10.361Z</time></trkpt><trkpt lat="43.0889122" lon="11.5511587"><ele>255.0</ele><time>2026-04-04T11:15:11.361Z</time></trkpt><trkpt lat="43.0890458" lon="11.5513276"><ele>255.0</ele><time>2026-04-04T11:15:12.361Z</time></trkpt><trkpt lat="43.0891868" lon="11.5514859"><ele>255.0</ele><time>2026-04-04T11:15:13.361Z</time></trkpt><trkpt lat="43.0893446" lon="11.5516237"><ele>255.0</ele><time>2026-04-04T11:15:14.361Z</time></trkpt><trkpt lat="43.0895071" lon="11.5517557"><ele>255.0</ele><time>2026-04-04T11:15:15.36Z</time></trkpt><trkpt lat="43.089646" lon="11.5519092"><ele>253.33333333333331</ele><time>2026-04-04T11:15:16.36Z</time></trkpt><trkpt lat="43.0897691" lon="11.5520959"><ele>251.66666666666666</ele><time>2026-04-04T11:15:17.361Z</time></trkpt><trkpt lat="43.0898407" lon="11.5523419"><ele>250.0</ele><time>2026-04-04T11:15:18.36Z</time></trkpt><trkpt lat="43.0898983" lon="11.552587"><ele>251.0</ele><time>2026-04-04T11:15:19.361Z</time></trkpt><trkpt lat="43.0899597" lon="11.5528259"><ele>252.0</ele><time>2026-04-04T11:15:20.361Z</time></trkpt><trkpt lat="43.0900321" lon="11.5530601"><ele>253.0</ele><time>2026-04-04T11:15:21.361Z</time></trkpt><trkpt lat="43.0901159" lon="11.5532947"><ele>253.0</ele><time>2026-04-04T11:15:22.36Z</time></trkpt><trkpt lat="43.0902164" lon="11.5535297"><ele>253.0</ele><time>2026-04-04T11:15:23.361Z</time></trkpt><trkpt lat="43.0903264" lon="11.5537668"><ele>253.0</ele><time>2026-04-04T11:15:24.36Z</time></trkpt><trkpt lat="43.0904392" lon="11.5540138"><ele>252.33333333333331</ele><time>2026-04-04T11:15:25.361Z</time></trkpt><trkpt lat="43.0905568" lon="11.5542702"><ele>251.66666666666669</ele><time>2026-04-04T11:15:26.361Z</time></trkpt><trkpt lat="43.0906819" lon="11.5545293"><ele>251.0</ele><time>2026-04-04T11:15:27.361Z</time></trkpt><trkpt lat="43.0908123" lon="11.5547878"><ele>251.0</ele><time>2026-04-04T11:15:28.361Z</time></trkpt><trkpt lat="43.0909435" lon="11.5550411"><ele>251.0</ele><time>2026-04-04T11:15:29.361Z</time></trkpt><trkpt lat="43.091093" lon="11.555284"><ele>249.5</ele><time>2026-04-04T11:15:30.361Z</time></trkpt><trkpt lat="43.0912576" lon="11.5555131"><ele>248.0</ele><time>2026-04-04T11:15:31.36Z</time></trkpt><trkpt lat="43.0914288" lon="11.555739"><ele>250.5</ele><time>2026-04-04T11:15:32.361Z</time></trkpt><trkpt lat="43.0916041" lon="11.5559641"><ele>253.0</ele><time>2026-04-04T11:15:33.361Z</time></trkpt><trkpt lat="43.0917811" lon="11.5561897"><ele>251.0</ele><time>2026-04-04T11:15:34.361Z</time></trkpt><trkpt lat="43.0919619" lon="11.5564089"><ele>249.0</ele><time>2026-04-04T11:15:35.361Z</time></trkpt><trkpt lat="43.0921476" lon="11.5566195"><ele>249.0</ele><time>2026-04-04T11:15:36.361Z</time></trkpt><trkpt lat="43.0923378" lon="11.5568258"><ele>249.0</ele><time>2026-04-04T11:15:37.361Z</time></trkpt><trkpt lat="43.0925284" lon="11.5570327"><ele>249.0</ele><time>2026-04-04T11:15:38.36Z</time></trkpt><trkpt lat="43.0927183" lon="11.5572406"><ele>249.0</ele><time>2026-04-04T11:15:39.361Z</time></trkpt><trkpt lat="43.0929114" lon="11.5574441"><ele>249.0</ele><time>2026-04-04T11:15:40.361Z</time></trkpt><trkpt lat="43.0931083" lon="11.5576408"><ele>249.0</ele><time>2026-04-04T11:15:41.36Z</time></trkpt><trkpt lat="43.0933063" lon="11.5578408"><ele>249.5</ele><time>2026-04-04T11:15:42.36Z</time></trkpt><trkpt lat="43.0935032" lon="11.5580404"><ele>250.0</ele><time>2026-04-04T11:15:43.36Z</time></trkpt><trkpt lat="43.0936955" lon="11.5582512"><ele>250.0</ele><time>2026-04-04T11:15:44.361Z</time></trkpt><trkpt lat="43.093878" lon="11.5584754"><ele>250.0</ele><time>2026-04-04T11:15:45.361Z</time></trkpt><trkpt lat="43.09405" lon="11.5587079"><ele>251.0</ele><time>2026-04-04T11:15:46.361Z</time></trkpt><trkpt lat="43.0942206" lon="11.5589387"><ele>252.0</ele><time>2026-04-04T11:15:47.361Z</time></trkpt><trkpt lat="43.0943891" lon="11.5591667"><ele>252.0</ele><time>2026-04-04T11:15:48.36Z</time></trkpt><trkpt lat="43.0945532" lon="11.5593924"><ele>252.0</ele><time>2026-04-04T11:15:49.36Z</time></trkpt><trkpt lat="43.0947147" lon="11.5596135"><ele>252.33333333333331</ele><time>2026-04-04T11:15:50.361Z</time></trkpt><trkpt lat="43.0948708" lon="11.5598303"><ele>252.66666666666666</ele><time>2026-04-04T11:15:51.361Z</time></trkpt><trkpt lat="43.0950214" lon="11.5600435"><ele>253.0</ele><time>2026-04-04T11:15:52.361Z</time></trkpt><trkpt lat="43.0951675" lon="11.5602443"><ele>252.0</ele><time>2026-04-04T11:15:53.361Z</time></trkpt><trkpt lat="43.0953112" lon="11.5604336"><ele>251.0</ele><time>2026-04-04T11:15:54.361Z</time></trkpt><trkpt lat="43.0954572" lon="11.5606109"><ele>250.0</ele><time>2026-04-04T11:15:55.361Z</time></trkpt><trkpt lat="43.0956058" lon="11.5607711"><ele>250.0</ele><time>2026-04-04T11:15:56.36Z</time></trkpt><trkpt lat="43.0957522" lon="11.5609188"><ele>250.0</ele><time>2026-04-04T11:15:57.36Z</time></trkpt><trkpt lat="43.0959006" lon="11.5610657"><ele>250.0</ele><time>2026-04-04T11:15:58.361Z</time></trkpt><trkpt lat="43.0960542" lon="11.5612102"><ele>250.0</ele><time>2026-04-04T11:15:59.36Z</time></trkpt><trkpt lat="43.0962276" lon="11.5613479"><ele>250.0</ele><time>2026-04-04T11:16:00.361Z</time></trkpt><trkpt lat="43.0964183" lon="11.5614764"><ele>250.0</ele><time>2026-04-04T11:16:01.361Z</time></trkpt><trkpt lat="43.0966183" lon="11.5616088"><ele>254.5</ele><time>2026-04-04T11:16:02.361Z</time></trkpt><trkpt lat="43.0968264" lon="11.5617501"><ele>259.0</ele><time>2026-04-04T11:16:03.36Z</time></trkpt><trkpt lat="43.0970403" lon="11.561901"><ele>256.0</ele><time>2026-04-04T11:16:04.36Z</time></trkpt><trkpt lat="43.0972607" lon="11.5620591"><ele>253.0</ele><time>2026-04-04T11:16:05.361Z</time></trkpt><trkpt lat="43.0974866" lon="11.5622129"><ele>253.0</ele><time>2026-04-04T11:16:06.361Z</time></trkpt><trkpt lat="43.097719" lon="11.5623637"><ele>253.0</ele><time>2026-04-04T11:16:07.361Z</time></trkpt><trkpt lat="43.0979531" lon="11.5625112"><ele>253.0</ele><time>2026-04-04T11:16:08.361Z</time></trkpt><trkpt lat="43.0981712" lon="11.562657"><ele>253.0</ele><time>2026-04-04T11:16:09.361Z</time></trkpt><trkpt lat="43.0983786" lon="11.562795"><ele>252.66666666666666</ele><time>2026-04-04T11:16:10.361Z</time></trkpt><trkpt lat="43.0985772" lon="11.5629223"><ele>252.33333333333331</ele><time>2026-04-04T11:16:11.361Z</time></trkpt><trkpt lat="43.0987769" lon="11.5630435"><ele>252.0</ele><time>2026-04-04T11:16:12.361Z</time></trkpt><trkpt lat="43.0989845" lon="11.5631523"><ele>254.0</ele><time>2026-04-04T11:16:13.361Z</time></trkpt><trkpt lat="43.0992001" lon="11.5632435"><ele>256.0</ele><time>2026-04-04T11:16:14.361Z</time></trkpt><trkpt lat="43.0994226" lon="11.563327"><ele>256.0</ele><time>2026-04-04T11:16:15.361Z</time></trkpt><trkpt lat="43.0996481" lon="11.5634131"><ele>256.0</ele><time>2026-04-04T11:16:16.361Z</time></trkpt><trkpt lat="43.0998771" lon="11.5635014"><ele>256.5</ele><time>2026-04-04T11:16:17.361Z</time></trkpt><trkpt lat="43.100108" lon="11.563592"><ele>257.0</ele><time>2026-04-04T11:16:18.36Z</time></trkpt><trkpt lat="43.1003388" lon="11.5636845"><ele>255.5</ele><time>2026-04-04T11:16:19.361Z</time></trkpt><trkpt lat="43.1005714" lon="11.5637739"><ele>254.0</ele><time>2026-04-04T11:16:20.361Z</time></trkpt><trkpt lat="43.1008031" lon="11.5638644"><ele>254.0</ele><time>2026-04-04T11:16:21.361Z</time></trkpt><trkpt lat="43.1010298" lon="11.5639644"><ele>254.0</ele><time>2026-04-04T11:16:22.361Z</time></trkpt><trkpt lat="43.1012456" lon="11.5640848"><ele>254.0</ele><time>2026-04-04T11:16:23.361Z</time></trkpt><trkpt lat="43.1014506" lon="11.5642309"><ele>254.0</ele><time>2026-04-04T11:16:24.361Z</time></trkpt><trkpt lat="43.1016449" lon="11.5643988"><ele>253.0</ele><time>2026-04-04T11:16:25.361Z</time></trkpt><trkpt lat="43.10183" lon="11.5645845"><ele>252.0</ele><time>2026-04-04T11:16:26.361Z</time></trkpt><trkpt lat="43.102003" lon="11.5647933"><ele>252.0</ele><time>2026-04-04T11:16:27.361Z</time></trkpt><trkpt lat="43.102167" lon="11.5650168"><ele>252.0</ele><time>2026-04-04T11:16:28.36Z</time></trkpt><trkpt lat="43.1023298" lon="11.5652448"><ele>252.0</ele><time>2026-04-04T11:16:29.361Z</time></trkpt><trkpt lat="43.1024893" lon="11.5654683"><ele>252.0</ele><time>2026-04-04T11:16:30.361Z</time></trkpt><trkpt lat="43.1026414" lon="11.565675"><ele>252.0</ele><time>2026-04-04T11:16:31.361Z</time></trkpt><trkpt lat="43.1027966" lon="11.565874"><ele>252.0</ele><time>2026-04-04T11:16:32.361Z</time></trkpt><trkpt lat="43.1029624" lon="11.5660581"><ele>252.0</ele><time>2026-04-04T11:16:33.361Z</time></trkpt><trkpt lat="43.1031454" lon="11.5662179"><ele>252.0</ele><time>2026-04-04T11:16:34.361Z</time></trkpt><trkpt lat="43.1033445" lon="11.5663533"><ele>252.0</ele><time>2026-04-04T11:16:35.361Z</time></trkpt><trkpt lat="43.1035531" lon="11.5664697"><ele>252.0</ele><time>2026-04-04T11:16:36.36Z</time></trkpt><trkpt lat="43.1037659" lon="11.5665755"><ele>252.0</ele><time>2026-04-04T11:16:37.361Z</time></trkpt><trkpt lat="43.1039808" lon="11.5666779"><ele>252.0</ele><time>2026-04-04T11:16:38.361Z</time></trkpt><trkpt lat="43.1041973" lon="11.5667833"><ele>253.0</ele><time>2026-04-04T11:16:39.361Z</time></trkpt><trkpt lat="43.1044156" lon="11.5668896"><ele>254.0</ele><time>2026-04-04T11:16:40.361Z</time></trkpt><trkpt lat="43.1046338" lon="11.5669968"><ele>254.0</ele><time>2026-04-04T11:16:41.361Z</time></trkpt><trkpt lat="43.1048532" lon="11.5671033"><ele>254.0</ele><time>2026-04-04T11:16:42.361Z</time></trkpt><trkpt lat="43.1050744" lon="11.5672051"><ele>254.0</ele><time>2026-04-04T11:16:43.361Z</time></trkpt><trkpt lat="43.1052925" lon="11.5673075"><ele>254.0</ele><time>2026-04-04T11:16:44.361Z</time></trkpt><trkpt lat="43.1055057" lon="11.5674103"><ele>254.0</ele><time>2026-04-04T11:16:45.361Z</time></trkpt><trkpt lat="43.1057141" lon="11.5675108"><ele>254.0</ele><time>2026-04-04T11:16:46.361Z</time></trkpt><trkpt lat="43.1059216" lon="11.5676099"><ele>254.0</ele><time>2026-04-04T11:16:47.361Z</time></trkpt><trkpt lat="43.1061271" lon="11.5677106"><ele>254.33333333333334</ele><time>2026-04-04T11:16:48.361Z</time></trkpt><trkpt lat="43.1063306" lon="11.5678095"><ele>254.66666666666669</ele><time>2026-04-04T11:16:49.36Z</time></trkpt><trkpt lat="43.1065332" lon="11.5679091"><ele>255.0</ele><time>2026-04-04T11:16:50.36Z</time></trkpt><trkpt lat="43.1067366" lon="11.5680056"><ele>254.33333333333331</ele><time>2026-04-04T11:16:51.361Z</time></trkpt><trkpt lat="43.1069403" lon="11.5681073"><ele>253.66666666666666</ele><time>2026-04-04T11:16:52.361Z</time></trkpt><trkpt lat="43.1071468" lon="11.5682092"><ele>253.0</ele><time>2026-04-04T11:16:53.361Z</time></trkpt><trkpt lat="43.1073546" lon="11.5683097"><ele>253.33333333333331</ele><time>2026-04-04T11:16:54.36Z</time></trkpt><trkpt lat="43.1075615" lon="11.5684115"><ele>253.66666666666669</ele><time>2026-04-04T11:16:55.361Z</time></trkpt><trkpt lat="43.1077704" lon="11.5685105"><ele>254.0</ele><time>2026-04-04T11:16:56.361Z</time></trkpt><trkpt lat="43.1079788" lon="11.5686096"><ele>253.0</ele><time>2026-04-04T11:16:57.361Z</time></trkpt><trkpt lat="43.1081853" lon="11.5687073"><ele>252.0</ele><time>2026-04-04T11:16:58.361Z</time></trkpt><trkpt lat="43.1083897" lon="11.5688036"><ele>251.0</ele><time>2026-04-04T11:16:59.361Z</time></trkpt><trkpt lat="43.1085933" lon="11.5689009"><ele>251.0</ele><time>2026-04-04T11:17:00.36Z</time></trkpt><trkpt lat="43.1087975" lon="11.5689957"><ele>251.0</ele><time>2026-04-04T11:17:01.361Z</time></trkpt><trkpt lat="43.1090017" lon="11.5690938"><ele>251.0</ele><time>2026-04-04T11:17:02.361Z</time></trkpt><trkpt lat="43.1092073" lon="11.5691952"><ele>251.0</ele><time>2026-04-04T11:17:03.361Z</time></trkpt><trkpt lat="43.1094124" lon="11.5692953"><ele>251.0</ele><time>2026-04-04T11:17:04.361Z</time></trkpt><trkpt lat="43.1096157" lon="11.5693949"><ele>251.0</ele><time>2026-04-04T11:17:05.361Z</time></trkpt><trkpt lat="43.1098175" lon="11.5694894"><ele>251.33333333333334</ele><time>2026-04-04T11:17:06.36Z</time></trkpt><trkpt lat="43.1100176" lon="11.5695854"><ele>251.66666666666669</ele><time>2026-04-04T11:17:07.361Z</time></trkpt><trkpt lat="43.1102176" lon="11.569683"><ele>252.0</ele><time>2026-04-04T11:17:08.361Z</time></trkpt><trkpt lat="43.1104172" lon="11.569782"><ele>252.0</ele><time>2026-04-04T11:17:09.361Z</time></trkpt><trkpt lat="43.1106165" lon="11.5698773"><ele>252.0</ele><time>2026-04-04T11:17:10.361Z</time></trkpt><trkpt lat="43.1108135" lon="11.569971"><ele>252.0</ele><time>2026-04-04T11:17:11.36Z</time></trkpt><trkpt lat="43.1110088" lon="11.5700648"><ele>253.66666666666669</ele><time>2026-04-04T11:17:12.361Z</time></trkpt><trkpt lat="43.1112072" lon="11.5701567"><ele>255.33333333333334</ele><time>2026-04-04T11:17:13.361Z</time></trkpt><trkpt lat="43.1114075" lon="11.570244"><ele>257.0</ele><time>2026-04-04T11:17:14.361Z</time></trkpt><trkpt lat="43.1116099" lon="11.570318"><ele>257.0</ele><time>2026-04-04T11:17:15.361Z</time></trkpt><trkpt lat="43.1118142" lon="11.5703777"><ele>257.0</ele><time>2026-04-04T11:17:16.361Z</time></trkpt><trkpt lat="43.1120188" lon="11.5704313"><ele>257.0</ele><time>2026-04-04T11:17:17.361Z</time></trkpt><trkpt lat="43.1122235" lon="11.570484"><ele>258.0</ele><time>2026-04-04T11:17:18.361Z</time></trkpt><trkpt lat="43.1124286" lon="11.5705387"><ele>259.0</ele><time>2026-04-04T11:17:19.361Z</time></trkpt><trkpt lat="43.1126341" lon="11.5705918"><ele>260.0</ele><time>2026-04-04T11:17:20.361Z</time></trkpt><trkpt lat="43.1128398" lon="11.5706416"><ele>260.0</ele><time>2026-04-04T11:17:21.361Z</time></trkpt><trkpt lat="43.1130458" lon="11.5706949"><ele>260.0</ele><time>2026-04-04T11:17:22.361Z</time></trkpt><trkpt lat="43.1132524" lon="11.5707446"><ele>260.0</ele><time>2026-04-04T11:17:23.361Z</time></trkpt><trkpt lat="43.1134626" lon="11.5707935"><ele>260.6666666666667</ele><time>2026-04-04T11:17:24.361Z</time></trkpt><trkpt lat="43.1136759" lon="11.5708444"><ele>261.3333333333333</ele><time>2026-04-04T11:17:25.361Z</time></trkpt><trkpt lat="43.1138912" lon="11.5708991"><ele>262.0</ele><time>2026-04-04T11:17:26.361Z</time></trkpt><trkpt lat="43.1141083" lon="11.5709578"><ele>263.66666666666663</ele><time>2026-04-04T11:17:27.361Z</time></trkpt><trkpt lat="43.114328" lon="11.5710227"><ele>265.3333333333333</ele><time>2026-04-04T11:17:28.361Z</time></trkpt><trkpt lat="43.1145462" lon="11.5710921"><ele>267.0</ele><time>2026-04-04T11:17:29.361Z</time></trkpt><trkpt lat="43.1147629" lon="11.5711693"><ele>265.6666666666667</ele><time>2026-04-04T11:17:30.36Z</time></trkpt><trkpt lat="43.1149771" lon="11.571256"><ele>264.33333333333337</ele><time>2026-04-04T11:17:31.361Z</time></trkpt><trkpt lat="43.1151901" lon="11.5713491"><ele>263.0</ele><time>2026-04-04T11:17:32.361Z</time></trkpt><trkpt lat="43.1153972" lon="11.5714409"><ele>263.0</ele><time>2026-04-04T11:17:33.361Z</time></trkpt><trkpt lat="43.1155934" lon="11.5715199"><ele>263.0</ele><time>2026-04-04T11:17:34.36Z</time></trkpt><trkpt lat="43.1157916" lon="11.5715818"><ele>263.0</ele><time>2026-04-04T11:17:35.361Z</time></trkpt><trkpt lat="43.1160048" lon="11.5716074"><ele>263.6666666666667</ele><time>2026-04-04T11:17:36.361Z</time></trkpt><trkpt lat="43.1162233" lon="11.5715931"><ele>264.3333333333333</ele><time>2026-04-04T11:17:37.361Z</time></trkpt><trkpt lat="43.1164412" lon="11.5715634"><ele>265.0</ele><time>2026-04-04T11:17:38.361Z</time></trkpt><trkpt lat="43.1166576" lon="11.5715331"><ele>265.0</ele><time>2026-04-04T11:17:39.361Z</time></trkpt><trkpt lat="43.1168704" lon="11.5715036"><ele>265.0</ele><time>2026-04-04T11:17:40.361Z</time></trkpt><trkpt lat="43.1170766" lon="11.5714724"><ele>265.0</ele><time>2026-04-04T11:17:41.361Z</time></trkpt><trkpt lat="43.1172816" lon="11.5714476"><ele>264.3333333333333</ele><time>2026-04-04T11:17:42.36Z</time></trkpt><trkpt lat="43.1174885" lon="11.5714493"><ele>263.6666666666667</ele><time>2026-04-04T11:17:43.361Z</time></trkpt><trkpt lat="43.1177032" lon="11.5715002"><ele>263.0</ele><time>2026-04-04T11:17:44.361Z</time></trkpt><trkpt lat="43.1179163" lon="11.5715917"><ele>263.0</ele><time>2026-04-04T11:17:45.361Z</time></trkpt><trkpt lat="43.1181253" lon="11.5717167"><ele>263.0</ele><time>2026-04-04T11:17:46.361Z</time></trkpt><trkpt lat="43.1183309" lon="11.5718618"><ele>262.5</ele><time>2026-04-04T11:17:47.361Z</time></trkpt><trkpt lat="43.1185368" lon="11.5720131"><ele>262.0</ele><time>2026-04-04T11:17:48.361Z</time></trkpt><trkpt lat="43.1187459" lon="11.5721578"><ele>261.0</ele><time>2026-04-04T11:17:49.361Z</time></trkpt><trkpt lat="43.1189519" lon="11.5723021"><ele>260.0</ele><time>2026-04-04T11:17:50.361Z</time></trkpt><trkpt lat="43.1191548" lon="11.5724507"><ele>260.0</ele><time>2026-04-04T11:17:51.361Z</time></trkpt><trkpt lat="43.1193532" lon="11.5726063"><ele>260.0</ele><time>2026-04-04T11:17:52.36Z</time></trkpt><trkpt lat="43.1195443" lon="11.5727721"><ele>260.0</ele><time>2026-04-04T11:17:53.361Z</time></trkpt><trkpt lat="43.1197286" lon="11.5729481"><ele>260.0</ele><time>2026-04-04T11:17:54.36Z</time></trkpt><trkpt lat="43.1199078" lon="11.5731307"><ele>260.0</ele><time>2026-04-04T11:17:55.361Z</time></trkpt><trkpt lat="43.1200857" lon="11.573315"><ele>260.33333333333337</ele><time>2026-04-04T11:17:56.36Z</time></trkpt><trkpt lat="43.1202636" lon="11.5734985"><ele>260.6666666666667</ele><time>2026-04-04T11:17:57.361Z</time></trkpt><trkpt lat="43.1204417" lon="11.5736781"><ele>261.0</ele><time>2026-04-04T11:17:58.361Z</time></trkpt><trkpt lat="43.120619" lon="11.5738586"><ele>261.6666666666667</ele><time>2026-04-04T11:17:59.361Z</time></trkpt><trkpt lat="43.1207994" lon="11.5740347"><ele>262.33333333333337</ele><time>2026-04-04T11:18:00.361Z</time></trkpt><trkpt lat="43.120988" lon="11.5741988"><ele>263.0</ele><time>2026-04-04T11:18:01.361Z</time></trkpt><trkpt lat="43.1211895" lon="11.5743436"><ele>263.0</ele><time>2026-04-04T11:18:02.361Z</time></trkpt><trkpt lat="43.1213986" lon="11.5744739"><ele>263.0</ele><time>2026-04-04T11:18:03.361Z</time></trkpt><trkpt lat="43.1216122" lon="11.5745976"><ele>262.5</ele><time>2026-04-04T11:18:04.36Z</time></trkpt><trkpt lat="43.1218276" lon="11.5747174"><ele>262.0</ele><time>2026-04-04T11:18:05.361Z</time></trkpt><trkpt lat="43.1220427" lon="11.5748343"><ele>262.0</ele><time>2026-04-04T11:18:06.361Z</time></trkpt><trkpt lat="43.1222565" lon="11.5749458"><ele>262.0</ele><time>2026-04-04T11:18:07.36Z</time></trkpt><trkpt lat="43.1224724" lon="11.5750401"><ele>264.0</ele><time>2026-04-04T11:18:08.361Z</time></trkpt><trkpt lat="43.122696" lon="11.5751082"><ele>266.0</ele><time>2026-04-04T11:18:09.361Z</time></trkpt><trkpt lat="43.1229227" lon="11.575158"><ele>266.0</ele><time>2026-04-04T11:18:10.361Z</time></trkpt><trkpt lat="43.1231519" lon="11.5751918"><ele>266.0</ele><time>2026-04-04T11:18:11.361Z</time></trkpt><trkpt lat="43.123383" lon="11.5752151"><ele>266.5</ele><time>2026-04-04T11:18:12.361Z</time></trkpt><trkpt lat="43.1236151" lon="11.575236"><ele>267.0</ele><time>2026-04-04T11:18:13.361Z</time></trkpt><trkpt lat="43.123847" lon="11.5752528"><ele>269.5</ele><time>2026-04-04T11:18:14.361Z</time></trkpt><trkpt lat="43.1240791" lon="11.5752679"><ele>272.0</ele><time>2026-04-04T11:18:15.361Z</time></trkpt><trkpt lat="43.1243105" lon="11.5752802"><ele>272.0</ele><time>2026-04-04T11:18:16.361Z</time></trkpt><trkpt lat="43.1245399" lon="11.5752823"><ele>272.0</ele><time>2026-04-04T11:18:17.361Z</time></trkpt><trkpt lat="43.1247686" lon="11.575271"><ele>271.5</ele><time>2026-04-04T11:18:18.361Z</time></trkpt><trkpt lat="43.1249973" lon="11.5752462"><ele>271.0</ele><time>2026-04-04T11:18:19.361Z</time></trkpt><trkpt lat="43.1252265" lon="11.5752128"><ele>271.0</ele><time>2026-04-04T11:18:20.36Z</time></trkpt><trkpt lat="43.1254575" lon="11.5751792"><ele>271.0</ele><time>2026-04-04T11:18:21.361Z</time></trkpt><trkpt lat="43.1256891" lon="11.5751443"><ele>268.0</ele><time>2026-04-04T11:18:22.361Z</time></trkpt><trkpt lat="43.1259204" lon="11.5751083"><ele>265.0</ele><time>2026-04-04T11:18:23.361Z</time></trkpt><trkpt lat="43.1261519" lon="11.5750735"><ele>265.0</ele><time>2026-04-04T11:18:24.361Z</time></trkpt><trkpt lat="43.1263832" lon="11.5750389"><ele>265.0</ele><time>2026-04-04T11:18:25.361Z</time></trkpt><trkpt lat="43.1266127" lon="11.5750025"><ele>263.5</ele><time>2026-04-04T11:18:26.361Z</time></trkpt><trkpt lat="43.1268407" lon="11.5749658"><ele>262.0</ele><time>2026-04-04T11:18:27.361Z</time></trkpt><trkpt lat="43.1270669" lon="11.5749288"><ele>262.0</ele><time>2026-04-04T11:18:28.361Z</time></trkpt><trkpt lat="43.1272913" lon="11.5748926"><ele>262.0</ele><time>2026-04-04T11:18:29.361Z</time></trkpt><trkpt lat="43.1275155" lon="11.5748571"><ele>263.0</ele><time>2026-04-04T11:18:30.361Z</time></trkpt><trkpt lat="43.1277397" lon="11.5748226"><ele>264.0</ele><time>2026-04-04T11:18:31.36Z</time></trkpt><trkpt lat="43.1279633" lon="11.5747901"><ele>264.0</ele><time>2026-04-04T11:18:32.361Z</time></trkpt><trkpt lat="43.1281867" lon="11.5747613"><ele>264.0</ele><time>2026-04-04T11:18:33.361Z</time></trkpt><trkpt lat="43.128409" lon="11.5747457"><ele>264.0</ele><time>2026-04-04T11:18:34.361Z</time></trkpt><trkpt lat="43.128633" lon="11.5747367"><ele>262.5</ele><time>2026-04-04T11:18:35.36Z</time></trkpt><trkpt lat="43.1288578" lon="11.5747389"><ele>261.0</ele><time>2026-04-04T11:18:36.361Z</time></trkpt><trkpt lat="43.1290851" lon="11.5747538"><ele>260.5</ele><time>2026-04-04T11:18:37.361Z</time></trkpt><trkpt lat="43.1293123" lon="11.5747803"><ele>260.0</ele><time>2026-04-04T11:18:38.361Z</time></trkpt><trkpt lat="43.1295399" lon="11.5748194"><ele>260.0</ele><time>2026-04-04T11:18:39.361Z</time></trkpt><trkpt lat="43.1297661" lon="11.5748688"><ele>260.0</ele><time>2026-04-04T11:18:40.36Z</time></trkpt><trkpt lat="43.1299942" lon="11.5749201"><ele>260.0</ele><time>2026-04-04T11:18:41.36Z</time></trkpt><trkpt lat="43.1302217" lon="11.5749776"><ele>260.0</ele><time>2026-04-04T11:18:42.361Z</time></trkpt><trkpt lat="43.1304487" lon="11.575036"><ele>260.0</ele><time>2026-04-04T11:18:43.361Z</time></trkpt><trkpt lat="43.1306728" lon="11.5750951"><ele>260.0</ele><time>2026-04-04T11:18:44.361Z</time></trkpt><trkpt lat="43.1308951" lon="11.5751562"><ele>260.33333333333337</ele><time>2026-04-04T11:18:45.361Z</time></trkpt><trkpt lat="43.1311158" lon="11.5752173"><ele>260.6666666666667</ele><time>2026-04-04T11:18:46.361Z</time></trkpt><trkpt lat="43.1313354" lon="11.5752769"><ele>261.0</ele><time>2026-04-04T11:18:47.361Z</time></trkpt><trkpt lat="43.131555" lon="11.5753343"><ele>261.6666666666667</ele><time>2026-04-04T11:18:48.36Z</time></trkpt><trkpt lat="43.1317731" lon="11.5753947"><ele>262.33333333333337</ele><time>2026-04-04T11:18:49.361Z</time></trkpt><trkpt lat="43.1319884" lon="11.5754577"><ele>263.0</ele><time>2026-04-04T11:18:50.361Z</time></trkpt><trkpt lat="43.1322033" lon="11.5755192"><ele>263.6666666666667</ele><time>2026-04-04T11:18:51.361Z</time></trkpt><trkpt lat="43.1324163" lon="11.5755828"><ele>264.3333333333333</ele><time>2026-04-04T11:18:52.361Z</time></trkpt><trkpt lat="43.1326277" lon="11.5756506"><ele>265.0</ele><time>2026-04-04T11:18:53.36Z</time></trkpt><trkpt lat="43.1328381" lon="11.5757197"><ele>265.0</ele><time>2026-04-04T11:18:54.361Z</time></trkpt><trkpt lat="43.1330505" lon="11.5757926"><ele>265.0</ele><time>2026-04-04T11:18:55.361Z</time></trkpt><trkpt lat="43.1332644" lon="11.5758645"><ele>265.0</ele><time>2026-04-04T11:18:56.361Z</time></trkpt><trkpt lat="43.1334808" lon="11.5759328"><ele>265.0</ele><time>2026-04-04T11:18:57.361Z</time></trkpt><trkpt lat="43.1337007" lon="11.5759973"><ele>265.0</ele><time>2026-04-04T11:18:58.361Z</time></trkpt><trkpt lat="43.1339217" lon="11.5760656"><ele>265.5</ele><time>2026-04-04T11:18:59.361Z</time></trkpt><trkpt lat="43.134142" lon="11.5761355"><ele>266.0</ele><time>2026-04-04T11:19:00.361Z</time></trkpt><trkpt lat="43.1343617" lon="11.5762068"><ele>263.5</ele><time>2026-04-04T11:19:01.361Z</time></trkpt><trkpt lat="43.1345798" lon="11.5762859"><ele>261.0</ele><time>2026-04-04T11:19:02.36Z</time></trkpt><trkpt lat="43.1347948" lon="11.5763776"><ele>261.6666666666667</ele><time>2026-04-04T11:19:03.36Z</time></trkpt><trkpt lat="43.1350015" lon="11.5764925"><ele>262.33333333333337</ele><time>2026-04-04T11:19:04.361Z</time></trkpt><trkpt lat="43.135197" lon="11.5766341"><ele>263.0</ele><time>2026-04-04T11:19:05.361Z</time></trkpt><trkpt lat="43.1353835" lon="11.5767939"><ele>263.0</ele><time>2026-04-04T11:19:06.361Z</time></trkpt><trkpt lat="43.1355672" lon="11.5769596"><ele>263.0</ele><time>2026-04-04T11:19:07.36Z</time></trkpt><trkpt lat="43.1357506" lon="11.5771246"><ele>263.0</ele><time>2026-04-04T11:19:08.361Z</time></trkpt><trkpt lat="43.1359346" lon="11.5772881"><ele>262.6666666666667</ele><time>2026-04-04T11:19:09.361Z</time></trkpt><trkpt lat="43.1361173" lon="11.5774505"><ele>262.3333333333333</ele><time>2026-04-04T11:19:10.361Z</time></trkpt><trkpt lat="43.1362978" lon="11.5776139"><ele>262.0</ele><time>2026-04-04T11:19:11.36Z</time></trkpt><trkpt lat="43.1364749" lon="11.5777785"><ele>262.66666666666663</ele><time>2026-04-04T11:19:12.361Z</time></trkpt><trkpt lat="43.1366534" lon="11.5779382"><ele>263.3333333333333</ele><time>2026-04-04T11:19:13.361Z</time></trkpt><trkpt lat="43.1368281" lon="11.5780864"><ele>264.0</ele><time>2026-04-04T11:19:14.361Z</time></trkpt><trkpt lat="43.1369943" lon="11.5782273"><ele>264.0</ele><time>2026-04-04T11:19:15.361Z</time></trkpt><trkpt lat="43.1371495" lon="11.5783586"><ele>264.0</ele><time>2026-04-04T11:19:16.361Z</time></trkpt><trkpt lat="43.1372977" lon="11.578482"><ele>264.0</ele><time>2026-04-04T11:19:17.361Z</time></trkpt><trkpt lat="43.1374449" lon="11.5786075"><ele>264.3333333333333</ele><time>2026-04-04T11:19:18.361Z</time></trkpt><trkpt lat="43.1375945" lon="11.5787447"><ele>264.66666666666663</ele><time>2026-04-04T11:19:19.361Z</time></trkpt><trkpt lat="43.1377472" lon="11.5789064"><ele>265.0</ele><time>2026-04-04T11:19:20.361Z</time></trkpt><trkpt lat="43.1379121" lon="11.5790696"><ele>265.0</ele><time>2026-04-04T11:19:21.361Z</time></trkpt><trkpt lat="43.1380854" lon="11.5792245"><ele>265.0</ele><time>2026-04-04T11:19:22.361Z</time></trkpt><trkpt lat="43.1382619" lon="11.5793853"><ele>265.0</ele><time>2026-04-04T11:19:23.361Z</time></trkpt><trkpt lat="43.1384467" lon="11.5795412"><ele>265.66666666666663</ele><time>2026-04-04T11:19:24.36Z</time></trkpt><trkpt lat="43.1386422" lon="11.5796846"><ele>266.3333333333333</ele><time>2026-04-04T11:19:25.361Z</time></trkpt><trkpt lat="43.1388465" lon="11.579816"><ele>267.0</ele><time>2026-04-04T11:19:26.361Z</time></trkpt><trkpt lat="43.1390558" lon="11.5799417"><ele>267.0</ele><time>2026-04-04T11:19:27.361Z</time></trkpt><trkpt lat="43.1392682" lon="11.5800661"><ele>267.0</ele><time>2026-04-04T11:19:28.361Z</time></trkpt><trkpt lat="43.1394799" lon="11.5801963"><ele>267.0</ele><time>2026-04-04T11:19:29.36Z</time></trkpt><trkpt lat="43.1396933" lon="11.5803285"><ele>267.0</ele><time>2026-04-04T11:19:30.36Z</time></trkpt><trkpt lat="43.139909" lon="11.5804603"><ele>267.0</ele><time>2026-04-04T11:19:31.361Z</time></trkpt><trkpt lat="43.1401253" lon="11.5805911"><ele>267.0</ele><time>2026-04-04T11:19:32.361Z</time></trkpt><trkpt lat="43.1403423" lon="11.5807219"><ele>267.0</ele><time>2026-04-04T11:19:33.361Z</time></trkpt><trkpt lat="43.1405613" lon="11.5808545"><ele>267.0</ele><time>2026-04-04T11:19:34.36Z</time></trkpt><trkpt lat="43.1407773" lon="11.580987"><ele>268.5</ele><time>2026-04-04T11:19:35.361Z</time></trkpt><trkpt lat="43.1409923" lon="11.5811188"><ele>270.0</ele><time>2026-04-04T11:19:36.36Z</time></trkpt><trkpt lat="43.1412052" lon="11.5812478"><ele>271.0</ele><time>2026-04-04T11:19:37.361Z</time></trkpt><trkpt lat="43.1414163" lon="11.5813764"><ele>272.0</ele><time>2026-04-04T11:19:38.361Z</time></trkpt><trkpt lat="43.1416274" lon="11.5814965"><ele>272.0</ele><time>2026-04-04T11:19:39.361Z</time></trkpt><trkpt lat="43.1418404" lon="11.5815995"><ele>272.0</ele><time>2026-04-04T11:19:40.361Z</time></trkpt><trkpt lat="43.1420564" lon="11.5816781"><ele>272.0</ele><time>2026-04-04T11:19:41.361Z</time></trkpt><trkpt lat="43.1422747" lon="11.5817357"><ele>274.33333333333337</ele><time>2026-04-04T11:19:42.361Z</time></trkpt><trkpt lat="43.1424937" lon="11.5817885"><ele>276.6666666666667</ele><time>2026-04-04T11:19:43.361Z</time></trkpt><trkpt lat="43.1427112" lon="11.5818487"><ele>279.0</ele><time>2026-04-04T11:19:44.361Z</time></trkpt><trkpt lat="43.1429269" lon="11.5819166"><ele>279.0</ele><time>2026-04-04T11:19:45.361Z</time></trkpt><trkpt lat="43.1431408" lon="11.5819972"><ele>279.0</ele><time>2026-04-04T11:19:46.361Z</time></trkpt><trkpt lat="43.1433535" lon="11.5820963"><ele>279.0</ele><time>2026-04-04T11:19:47.361Z</time></trkpt><trkpt lat="43.1435651" lon="11.5822074"><ele>274.5</ele><time>2026-04-04T11:19:48.361Z</time></trkpt><trkpt lat="43.1437762" lon="11.5823264"><ele>270.0</ele><time>2026-04-04T11:19:49.361Z</time></trkpt><trkpt lat="43.1439863" lon="11.5824491"><ele>270.5</ele><time>2026-04-04T11:19:50.361Z</time></trkpt><trkpt lat="43.1441969" lon="11.5825719"><ele>271.0</ele><time>2026-04-04T11:19:51.361Z</time></trkpt><trkpt lat="43.1444084" lon="11.5826962"><ele>271.0</ele><time>2026-04-04T11:19:52.361Z</time></trkpt><trkpt lat="43.1446212" lon="11.5828186"><ele>271.0</ele><time>2026-04-04T11:19:53.361Z</time></trkpt><trkpt lat="43.144836" lon="11.5829398"><ele>269.5</ele><time>2026-04-04T11:19:54.361Z</time></trkpt><trkpt lat="43.1450511" lon="11.5830611"><ele>268.0</ele><time>2026-04-04T11:19:55.36Z</time></trkpt><trkpt lat="43.1452734" lon="11.5831661"><ele>268.0</ele><time>2026-04-04T11:19:56.361Z</time></trkpt><trkpt lat="43.145503" lon="11.5832463"><ele>268.0</ele><time>2026-04-04T11:19:57.361Z</time></trkpt><trkpt lat="43.1457361" lon="11.5833096"><ele>269.5</ele><time>2026-04-04T11:19:58.36Z</time></trkpt><trkpt lat="43.1459718" lon="11.5833584"><ele>271.0</ele><time>2026-04-04T11:19:59.361Z</time></trkpt><trkpt lat="43.1462081" lon="11.5833997"><ele>271.0</ele><time>2026-04-04T11:20:00.36Z</time></trkpt><trkpt lat="43.146443" lon="11.5834396"><ele>271.0</ele><time>2026-04-04T11:20:01.361Z</time></trkpt><trkpt lat="43.1466776" lon="11.5834811"><ele>270.5</ele><time>2026-04-04T11:20:02.361Z</time></trkpt><trkpt lat="43.1469115" lon="11.583524"><ele>270.0</ele><time>2026-04-04T11:20:03.361Z</time></trkpt><trkpt lat="43.1471435" lon="11.5835663"><ele>270.0</ele><time>2026-04-04T11:20:04.361Z</time></trkpt><trkpt lat="43.1473732" lon="11.5836061"><ele>270.0</ele><time>2026-04-04T11:20:05.36Z</time></trkpt><trkpt lat="43.1475922" lon="11.5836471"><ele>269.3333333333333</ele><time>2026-04-04T11:20:06.361Z</time></trkpt><trkpt lat="43.1478017" lon="11.583687"><ele>268.66666666666663</ele><time>2026-04-04T11:20:07.361Z</time></trkpt><trkpt lat="43.1480019" lon="11.5837213"><ele>268.0</ele><time>2026-04-04T11:20:08.361Z</time></trkpt><trkpt lat="43.1481941" lon="11.5837316"><ele>268.3333333333333</ele><time>2026-04-04T11:20:09.361Z</time></trkpt><trkpt lat="43.1483851" lon="11.5837139"><ele>268.6666666666667</ele><time>2026-04-04T11:20:10.361Z</time></trkpt><trkpt lat="43.1485684" lon="11.5836592"><ele>269.0</ele><time>2026-04-04T11:20:11.361Z</time></trkpt><trkpt lat="43.1487389" lon="11.5835784"><ele>269.6666666666667</ele><time>2026-04-04T11:20:12.361Z</time></trkpt><trkpt lat="43.1489048" lon="11.5834961"><ele>270.3333333333333</ele><time>2026-04-04T11:20:13.36Z</time></trkpt><trkpt lat="43.1490701" lon="11.5834468"><ele>271.0</ele><time>2026-04-04T11:20:14.361Z</time></trkpt><trkpt lat="43.1492244" lon="11.583446"><ele>271.0</ele><time>2026-04-04T11:20:15.361Z</time></trkpt><trkpt lat="43.1493765" lon="11.5835034"><ele>271.0</ele><time>2026-04-04T11:20:16.361Z</time></trkpt><trkpt lat="43.1495206" lon="11.5836237"><ele>271.0</ele><time>2026-04-04T11:20:17.36Z</time></trkpt><trkpt lat="43.1496623" lon="11.5837771"><ele>270.66666666666663</ele><time>2026-04-04T11:20:18.36Z</time></trkpt><trkpt lat="43.1498094" lon="11.5839383"><ele>270.3333333333333</ele><time>2026-04-04T11:20:19.361Z</time></trkpt><trkpt lat="43.1499471" lon="11.584123"><ele>270.0</ele><time>2026-04-04T11:20:20.361Z</time></trkpt><trkpt lat="43.1500576" lon="11.5843537"><ele>270.6666666666667</ele><time>2026-04-04T11:20:21.361Z</time></trkpt><trkpt lat="43.1501477" lon="11.5845992"><ele>271.33333333333337</ele><time>2026-04-04T11:20:22.361Z</time></trkpt><trkpt lat="43.1502296" lon="11.5848514"><ele>272.0</ele><time>2026-04-04T11:20:23.361Z</time></trkpt><trkpt lat="43.1503123" lon="11.5851042"><ele>271.33333333333337</ele><time>2026-04-04T11:20:24.361Z</time></trkpt><trkpt lat="43.1503969" lon="11.5853545"><ele>270.6666666666667</ele><time>2026-04-04T11:20:25.36Z</time></trkpt><trkpt lat="43.1504804" lon="11.5856006"><ele>270.0</ele><time>2026-04-04T11:20:26.361Z</time></trkpt><trkpt lat="43.1505669" lon="11.5858367"><ele>270.0</ele><time>2026-04-04T11:20:27.361Z</time></trkpt><trkpt lat="43.1506601" lon="11.5860679"><ele>270.0</ele><time>2026-04-04T11:20:28.361Z</time></trkpt><trkpt lat="43.1507556" lon="11.5862977"><ele>270.0</ele><time>2026-04-04T11:20:29.361Z</time></trkpt><trkpt lat="43.1508498" lon="11.5865278"><ele>270.3333333333333</ele><time>2026-04-04T11:20:30.361Z</time></trkpt><trkpt lat="43.1509405" lon="11.5867539"><ele>270.66666666666663</ele><time>2026-04-04T11:20:31.361Z</time></trkpt><trkpt lat="43.1510305" lon="11.5869778"><ele>271.0</ele><time>2026-04-04T11:20:32.361Z</time></trkpt><trkpt lat="43.1511214" lon="11.5872003"><ele>271.0</ele><time>2026-04-04T11:20:33.361Z</time></trkpt><trkpt lat="43.1512136" lon="11.587419"><ele>271.0</ele><time>2026-04-04T11:20:34.361Z</time></trkpt><trkpt lat="43.1513042" lon="11.5876358"><ele>271.0</ele><time>2026-04-04T11:20:35.361Z</time></trkpt><trkpt lat="43.1513939" lon="11.5878478"><ele>271.3333333333333</ele><time>2026-04-04T11:20:36.361Z</time></trkpt><trkpt lat="43.1514838" lon="11.588056"><ele>271.6666666666667</ele><time>2026-04-04T11:20:37.361Z</time></trkpt><trkpt lat="43.1515708" lon="11.588255"><ele>272.0</ele><time>2026-04-04T11:20:38.361Z</time></trkpt><trkpt lat="43.1516415" lon="11.5884254"><ele>272.8</ele><time>2026-04-04T11:20:39.361Z</time></trkpt><trkpt lat="43.1516971" lon="11.5885744"><ele>273.6</ele><time>2026-04-04T11:20:40.361Z</time></trkpt><trkpt lat="43.1517403" lon="11.5886989"><ele>274.40000000000003</ele><time>2026-04-04T11:20:41.361Z</time></trkpt><trkpt lat="43.1517672" lon="11.5887866"><ele>275.2</ele><time>2026-04-04T11:20:42.36Z</time></trkpt><trkpt lat="43.1517876" lon="11.5888748"><ele>276.0</ele><time>2026-04-04T11:20:44.361Z</time></trkpt><trkpt lat="43.1518302" lon="11.5890253"><ele>276.2</ele><time>2026-04-04T11:20:54.361Z</time></trkpt><trkpt lat="43.1518679" lon="11.589104"><ele>276.40000000000003</ele><time>2026-04-04T11:20:55.36Z</time></trkpt><trkpt lat="43.1519055" lon="11.5892031"><ele>276.6</ele><time>2026-04-04T11:20:56.361Z</time></trkpt><trkpt lat="43.1519234" lon="11.5893528"><ele>276.8</ele><time>2026-04-04T11:20:57.361Z</time></trkpt><trkpt lat="43.1519137" lon="11.5895107"><ele>277.0</ele><time>2026-04-04T11:20:58.36Z</time></trkpt><trkpt lat="43.1518847" lon="11.5896842"><ele>277.5</ele><time>2026-04-04T11:20:59.361Z</time></trkpt><trkpt lat="43.1518511" lon="11.5898668"><ele>278.0</ele><time>2026-04-04T11:21:00.361Z</time></trkpt><trkpt lat="43.1518311" lon="11.5900542"><ele>278.5</ele><time>2026-04-04T11:21:01.361Z</time></trkpt><trkpt lat="43.1518381" lon="11.5902486"><ele>279.0</ele><time>2026-04-04T11:21:02.361Z</time></trkpt><trkpt lat="43.1518686" lon="11.5904313"><ele>279.0</ele><time>2026-04-04T11:21:03.361Z</time></trkpt><trkpt lat="43.1519164" lon="11.5905954"><ele>279.0</ele><time>2026-04-04T11:21:04.361Z</time></trkpt><trkpt lat="43.1519869" lon="11.5907237"><ele>279.0</ele><time>2026-04-04T11:21:05.361Z</time></trkpt><trkpt lat="43.1520807" lon="11.5908219"><ele>279.0</ele><time>2026-04-04T11:21:06.361Z</time></trkpt><trkpt lat="43.1521904" lon="11.5908888"><ele>279.0</ele><time>2026-04-04T11:21:07.361Z</time></trkpt><trkpt lat="43.1523138" lon="11.5909369"><ele>279.0</ele><time>2026-04-04T11:21:08.361Z</time></trkpt><trkpt lat="43.1524497" lon="11.5909659"><ele>279.0</ele><time>2026-04-04T11:21:09.36Z</time></trkpt><trkpt lat="43.1525918" lon="11.5909979"><ele>279.0</ele><time>2026-04-04T11:21:10.36Z</time></trkpt><trkpt lat="43.1527406" lon="11.5910278"><ele>286.3333333333333</ele><time>2026-04-04T11:21:11.361Z</time></trkpt><trkpt lat="43.1528991" lon="11.5910529"><ele>293.66666666666663</ele><time>2026-04-04T11:21:12.361Z</time></trkpt><trkpt lat="43.1530555" lon="11.5910822"><ele>301.0</ele><time>2026-04-04T11:21:13.361Z</time></trkpt><trkpt lat="43.153213" lon="11.5911048"><ele>302.5</ele><time>2026-04-04T11:21:14.361Z</time></trkpt><trkpt lat="43.1533542" lon="11.5911296"><ele>304.0</ele><time>2026-04-04T11:21:15.361Z</time></trkpt><trkpt lat="43.1534813" lon="11.591156"><ele>305.5</ele><time>2026-04-04T11:21:16.361Z</time></trkpt><trkpt lat="43.1535963" lon="11.5911685"><ele>307.0</ele><time>2026-04-04T11:21:17.36Z</time></trkpt><trkpt lat="43.153698" lon="11.5911622"><ele>307.0</ele><time>2026-04-04T11:21:18.361Z</time></trkpt><trkpt lat="43.1537733" lon="11.5911215"><ele>307.0</ele><time>2026-04-04T11:21:19.361Z</time></trkpt><trkpt lat="43.1538219" lon="11.5910461"><ele>307.0</ele><time>2026-04-04T11:21:20.36Z</time></trkpt><trkpt lat="43.1538478" lon="11.590933"><ele>307.0</ele><time>2026-04-04T11:21:21.361Z</time></trkpt><trkpt lat="43.1538572" lon="11.5907803"><ele>307.0</ele><time>2026-04-04T11:21:22.361Z</time></trkpt><trkpt lat="43.1538548" lon="11.5906298"><ele>307.0</ele><time>2026-04-04T11:21:23.361Z</time></trkpt><trkpt lat="43.1538158" lon="11.5904832"><ele>307.0</ele><time>2026-04-04T11:21:24.361Z</time></trkpt><trkpt lat="43.1537359" lon="11.5903476"><ele>307.0</ele><time>2026-04-04T11:21:25.361Z</time></trkpt><trkpt lat="43.1536422" lon="11.5902238"><ele>307.0</ele><time>2026-04-04T11:21:26.361Z</time></trkpt><trkpt lat="43.1535611" lon="11.5901096"><ele>308.66666666666663</ele><time>2026-04-04T11:21:27.361Z</time></trkpt><trkpt lat="43.1534967" lon="11.589998"><ele>310.3333333333333</ele><time>2026-04-04T11:21:28.361Z</time></trkpt><trkpt lat="43.1534517" lon="11.5898894"><ele>312.0</ele><time>2026-04-04T11:21:29.361Z</time></trkpt><trkpt lat="43.1534325" lon="11.5897818"><ele>313.6666666666667</ele><time>2026-04-04T11:21:30.361Z</time></trkpt><trkpt lat="43.1534499" lon="11.5896787"><ele>315.33333333333337</ele><time>2026-04-04T11:21:31.361Z</time></trkpt><trkpt lat="43.1535015" lon="11.5895862"><ele>317.0</ele><time>2026-04-04T11:21:32.361Z</time></trkpt><trkpt lat="43.1535737" lon="11.5895191"><ele>317.33333333333337</ele><time>2026-04-04T11:21:33.361Z</time></trkpt><trkpt lat="43.1537244" lon="11.589426"><ele>317.6666666666667</ele><time>2026-04-04T11:21:35.353Z</time></trkpt><trkpt lat="43.1539472" lon="11.5893699"><ele>318.0</ele><time>2026-04-04T11:21:37.353Z</time></trkpt><trkpt lat="43.1540601" lon="11.5893289"><ele>318.0</ele><time>2026-04-04T11:21:38.352Z</time></trkpt><trkpt lat="43.1541656" lon="11.5892784"><ele>318.0</ele><time>2026-04-04T11:21:39.352Z</time></trkpt><trkpt lat="43.15427" lon="11.589228"><ele>318.0</ele><time>2026-04-04T11:21:40.352Z</time></trkpt><trkpt lat="43.154378" lon="11.5891831"><ele>318.0</ele><time>2026-04-04T11:21:41.352Z</time></trkpt><trkpt lat="43.1544832" lon="11.5891293"><ele>318.0</ele><time>2026-04-04T11:21:42.352Z</time></trkpt><trkpt lat="43.1545896" lon="11.5890882"><ele>318.0</ele><time>2026-04-04T11:21:43.353Z</time></trkpt><trkpt lat="43.1546877" lon="11.5890413"><ele>318.0</ele><time>2026-04-04T11:21:44.352Z</time></trkpt><trkpt lat="43.1547859" lon="11.5889939"><ele>318.0</ele><time>2026-04-04T11:21:45.352Z</time></trkpt><trkpt lat="43.1548817" lon="11.5889261"><ele>318.0</ele><time>2026-04-04T11:21:46.353Z</time></trkpt><trkpt lat="43.1549721" lon="11.58884"><ele>318.0</ele><time>2026-04-04T11:21:47.352Z</time></trkpt><trkpt lat="43.1550507" lon="11.5887266"><ele>318.25</ele><time>2026-04-04T11:21:48.353Z</time></trkpt><trkpt lat="43.1551297" lon="11.5886118"><ele>318.5</ele><time>2026-04-04T11:21:49.352Z</time></trkpt><trkpt lat="43.1552072" lon="11.5884869"><ele>318.75</ele><time>2026-04-04T11:21:50.353Z</time></trkpt><trkpt lat="43.1552902" lon="11.5883477"><ele>319.0</ele><time>2026-04-04T11:21:51.353Z</time></trkpt><trkpt lat="43.1553776" lon="11.5881972"><ele>319.0</ele><time>2026-04-04T11:21:52.352Z</time></trkpt><trkpt lat="43.1554565" lon="11.5880599"><ele>319.0</ele><time>2026-04-04T11:21:53.353Z</time></trkpt><trkpt lat="43.1555359" lon="11.5879375"><ele>319.0</ele><time>2026-04-04T11:21:54.352Z</time></trkpt><trkpt lat="43.1556282" lon="11.5878312"><ele>319.0</ele><time>2026-04-04T11:21:55.353Z</time></trkpt><trkpt lat="43.1557484" lon="11.5877561"><ele>318.5</ele><time>2026-04-04T11:21:56.352Z</time></trkpt><trkpt lat="43.1558839" lon="11.5876978"><ele>318.0</ele><time>2026-04-04T11:21:57.353Z</time></trkpt><trkpt lat="43.1560296" lon="11.5876462"><ele>317.5</ele><time>2026-04-04T11:21:58.352Z</time></trkpt><trkpt lat="43.1561796" lon="11.5876059"><ele>317.0</ele><time>2026-04-04T11:21:59.352Z</time></trkpt><trkpt lat="43.1563336" lon="11.5876042"><ele>317.0</ele><time>2026-04-04T11:22:00.352Z</time></trkpt><trkpt lat="43.156488" lon="11.5876303"><ele>317.0</ele><time>2026-04-04T11:22:01.352Z</time></trkpt><trkpt lat="43.1566433" lon="11.5876695"><ele>317.0</ele><time>2026-04-04T11:22:02.353Z</time></trkpt><trkpt lat="43.1567996" lon="11.5877155"><ele>318.0</ele><time>2026-04-04T11:22:03.352Z</time></trkpt><trkpt lat="43.1569562" lon="11.5877718"><ele>319.0</ele><time>2026-04-04T11:22:04.353Z</time></trkpt><trkpt lat="43.1571138" lon="11.5878415"><ele>320.0</ele><time>2026-04-04T11:22:05.351Z</time></trkpt><trkpt lat="43.15727" lon="11.5879269"><ele>321.6666666666667</ele><time>2026-04-04T11:22:06.352Z</time></trkpt><trkpt lat="43.1574236" lon="11.5880201"><ele>323.3333333333333</ele><time>2026-04-04T11:22:07.351Z</time></trkpt><trkpt lat="43.1575729" lon="11.5881011"><ele>325.0</ele><time>2026-04-04T11:22:08.353Z</time></trkpt><trkpt lat="43.1577237" lon="11.5881489"><ele>325.0</ele><time>2026-04-04T11:22:09.352Z</time></trkpt><trkpt lat="43.1578734" lon="11.58815"><ele>325.0</ele><time>2026-04-04T11:22:10.353Z</time></trkpt><trkpt lat="43.1580264" lon="11.5881066"><ele>325.0</ele><time>2026-04-04T11:22:11.351Z</time></trkpt><trkpt lat="43.1581813" lon="11.5880253"><ele>324.66666666666663</ele><time>2026-04-04T11:22:12.352Z</time></trkpt><trkpt lat="43.1583335" lon="11.5879226"><ele>324.3333333333333</ele><time>2026-04-04T11:22:13.353Z</time></trkpt><trkpt lat="43.158471" lon="11.5877801"><ele>324.0</ele><time>2026-04-04T11:22:14.352Z</time></trkpt><trkpt lat="43.1585915" lon="11.587586"><ele>322.6666666666667</ele><time>2026-04-04T11:22:15.353Z</time></trkpt><trkpt lat="43.1586938" lon="11.58736"><ele>321.33333333333337</ele><time>2026-04-04T11:22:16.352Z</time></trkpt><trkpt lat="43.1588004" lon="11.5871351"><ele>320.0</ele><time>2026-04-04T11:22:17.352Z</time></trkpt><trkpt lat="43.1589145" lon="11.5869221"><ele>319.33333333333337</ele><time>2026-04-04T11:22:18.352Z</time></trkpt><trkpt lat="43.1590406" lon="11.5867385"><ele>318.6666666666667</ele><time>2026-04-04T11:22:19.351Z</time></trkpt><trkpt lat="43.1591849" lon="11.5865687"><ele>318.0</ele><time>2026-04-04T11:22:20.353Z</time></trkpt><trkpt lat="43.159339" lon="11.5864216"><ele>318.0</ele><time>2026-04-04T11:22:21.351Z</time></trkpt><trkpt lat="43.1595102" lon="11.5863084"><ele>318.0</ele><time>2026-04-04T11:22:22.353Z</time></trkpt><trkpt lat="43.1596922" lon="11.5862035"><ele>318.0</ele><time>2026-04-04T11:22:23.351Z</time></trkpt><trkpt lat="43.1598819" lon="11.5860962"><ele>319.3333333333333</ele><time>2026-04-04T11:22:24.352Z</time></trkpt><trkpt lat="43.1600787" lon="11.5859859"><ele>320.66666666666663</ele><time>2026-04-04T11:22:25.352Z</time></trkpt><trkpt lat="43.1602871" lon="11.5858877"><ele>322.0</ele><time>2026-04-04T11:22:26.353Z</time></trkpt><trkpt lat="43.1605059" lon="11.5858132"><ele>325.0</ele><time>2026-04-04T11:22:27.353Z</time></trkpt><trkpt lat="43.1607318" lon="11.5857587"><ele>328.0</ele><time>2026-04-04T11:22:28.353Z</time></trkpt><trkpt lat="43.1609572" lon="11.585726"><ele>328.0</ele><time>2026-04-04T11:22:29.351Z</time></trkpt><trkpt lat="43.1611584" lon="11.585713"><ele>328.0</ele><time>2026-04-04T11:22:30.352Z</time></trkpt><trkpt lat="43.1613408" lon="11.5857015"><ele>328.0</ele><time>2026-04-04T11:22:31.352Z</time></trkpt><trkpt lat="43.1615061" lon="11.5856704"><ele>331.66666666666663</ele><time>2026-04-04T11:22:32.352Z</time></trkpt><trkpt lat="43.1616569" lon="11.5855873"><ele>335.3333333333333</ele><time>2026-04-04T11:22:33.352Z</time></trkpt><trkpt lat="43.1617891" lon="11.5854642"><ele>339.0</ele><time>2026-04-04T11:22:34.353Z</time></trkpt><trkpt lat="43.1619262" lon="11.5853483"><ele>339.0</ele><time>2026-04-04T11:22:35.352Z</time></trkpt><trkpt lat="43.1620819" lon="11.5852554"><ele>339.0</ele><time>2026-04-04T11:22:36.353Z</time></trkpt><trkpt lat="43.1622446" lon="11.5851813"><ele>339.0</ele><time>2026-04-04T11:22:37.353Z</time></trkpt><trkpt lat="43.1624154" lon="11.5851201"><ele>340.6666666666667</ele><time>2026-04-04T11:22:38.351Z</time></trkpt><trkpt lat="43.1625949" lon="11.5850712"><ele>342.33333333333337</ele><time>2026-04-04T11:22:39.351Z</time></trkpt><trkpt lat="43.1627806" lon="11.5850356"><ele>344.0</ele><time>2026-04-04T11:22:40.352Z</time></trkpt><trkpt lat="43.1629731" lon="11.5850171"><ele>344.0</ele><time>2026-04-04T11:22:41.352Z</time></trkpt><trkpt lat="43.1631669" lon="11.5850138"><ele>344.0</ele><time>2026-04-04T11:22:42.352Z</time></trkpt><trkpt lat="43.1633624" lon="11.5850196"><ele>344.0</ele><time>2026-04-04T11:22:43.352Z</time></trkpt><trkpt lat="43.1635609" lon="11.5850251"><ele>345.33333333333337</ele><time>2026-04-04T11:22:44.351Z</time></trkpt><trkpt lat="43.1637607" lon="11.585028"><ele>346.6666666666667</ele><time>2026-04-04T11:22:45.352Z</time></trkpt><trkpt lat="43.1639606" lon="11.5850244"><ele>348.0</ele><time>2026-04-04T11:22:46.352Z</time></trkpt><trkpt lat="43.1641519" lon="11.5850068"><ele>348.3333333333333</ele><time>2026-04-04T11:22:47.352Z</time></trkpt><trkpt lat="43.1643335" lon="11.5849585"><ele>348.66666666666663</ele><time>2026-04-04T11:22:48.352Z</time></trkpt><trkpt lat="43.1644968" lon="11.5848766"><ele>349.0</ele><time>2026-04-04T11:22:49.353Z</time></trkpt><trkpt lat="43.1646509" lon="11.584817"><ele>349.0</ele><time>2026-04-04T11:22:50.352Z</time></trkpt><trkpt lat="43.1647953" lon="11.5848083"><ele>349.0</ele><time>2026-04-04T11:22:51.353Z</time></trkpt><trkpt lat="43.164949" lon="11.584873"><ele>349.0</ele><time>2026-04-04T11:22:52.352Z</time></trkpt><trkpt lat="43.1650968" lon="11.5849849"><ele>347.66666666666663</ele><time>2026-04-04T11:22:53.353Z</time></trkpt><trkpt lat="43.1652481" lon="11.5850906"><ele>346.3333333333333</ele><time>2026-04-04T11:22:54.352Z</time></trkpt><trkpt lat="43.1654029" lon="11.5851616"><ele>345.0</ele><time>2026-04-04T11:22:55.352Z</time></trkpt><trkpt lat="43.1655714" lon="11.5851841"><ele>346.3333333333333</ele><time>2026-04-04T11:22:56.352Z</time></trkpt><trkpt lat="43.1657552" lon="11.5851768"><ele>347.66666666666663</ele><time>2026-04-04T11:22:57.351Z</time></trkpt><trkpt lat="43.1659497" lon="11.5851539"><ele>349.0</ele><time>2026-04-04T11:22:58.353Z</time></trkpt><trkpt lat="43.1661486" lon="11.585125"><ele>349.0</ele><time>2026-04-04T11:22:59.352Z</time></trkpt><trkpt lat="43.166349" lon="11.5850858"><ele>349.0</ele><time>2026-04-04T11:23:00.352Z</time></trkpt><trkpt lat="43.1665482" lon="11.5850454"><ele>349.0</ele><time>2026-04-04T11:23:01.351Z</time></trkpt><trkpt lat="43.1667378" lon="11.585021"><ele>348.66666666666663</ele><time>2026-04-04T11:23:02.352Z</time></trkpt><trkpt lat="43.1669309" lon="11.5850365"><ele>348.3333333333333</ele><time>2026-04-04T11:23:03.353Z</time></trkpt><trkpt lat="43.1671152" lon="11.5850952"><ele>348.0</ele><time>2026-04-04T11:23:04.351Z</time></trkpt><trkpt lat="43.167285" lon="11.5851998"><ele>347.3333333333333</ele><time>2026-04-04T11:23:05.353Z</time></trkpt><trkpt lat="43.1674399" lon="11.5853501"><ele>346.66666666666663</ele><time>2026-04-04T11:23:06.353Z</time></trkpt><trkpt lat="43.1675803" lon="11.5855326"><ele>346.0</ele><time>2026-04-04T11:23:07.352Z</time></trkpt><trkpt lat="43.167712" lon="11.5857085"><ele>346.0</ele><time>2026-04-04T11:23:08.351Z</time></trkpt><trkpt lat="43.1678403" lon="11.5858534"><ele>346.0</ele><time>2026-04-04T11:23:09.351Z</time></trkpt><trkpt lat="43.167973" lon="11.585953"><ele>346.0</ele><time>2026-04-04T11:23:10.351Z</time></trkpt><trkpt lat="43.1681183" lon="11.5859941"><ele>349.0</ele><time>2026-04-04T11:23:11.352Z</time></trkpt><trkpt lat="43.1682818" lon="11.5859863"><ele>352.0</ele><time>2026-04-04T11:23:12.353Z</time></trkpt><trkpt lat="43.1684556" lon="11.585958"><ele>355.0</ele><time>2026-04-04T11:23:13.353Z</time></trkpt><trkpt lat="43.1686397" lon="11.5859168"><ele>355.0</ele><time>2026-04-04T11:23:14.352Z</time></trkpt><trkpt lat="43.1688325" lon="11.5858713"><ele>355.0</ele><time>2026-04-04T11:23:15.352Z</time></trkpt><trkpt lat="43.1690305" lon="11.5858331"><ele>355.0</ele><time>2026-04-04T11:23:16.353Z</time></trkpt><trkpt lat="43.1692337" lon="11.5857976"><ele>354.66666666666663</ele><time>2026-04-04T11:23:17.352Z</time></trkpt><trkpt lat="43.1694411" lon="11.5857618"><ele>354.3333333333333</ele><time>2026-04-04T11:23:18.353Z</time></trkpt><trkpt lat="43.1696488" lon="11.5857414"><ele>354.0</ele><time>2026-04-04T11:23:19.351Z</time></trkpt><trkpt lat="43.1698591" lon="11.5857477"><ele>354.0</ele><time>2026-04-04T11:23:20.352Z</time></trkpt><trkpt lat="43.1700643" lon="11.5857884"><ele>354.0</ele><time>2026-04-04T11:23:21.352Z</time></trkpt><trkpt lat="43.1702552" lon="11.5858317"><ele>354.0</ele><time>2026-04-04T11:23:22.352Z</time></trkpt><trkpt lat="43.1704429" lon="11.5858625"><ele>354.0</ele><time>2026-04-04T11:23:23.352Z</time></trkpt><trkpt lat="43.1706379" lon="11.585866"><ele>354.0</ele><time>2026-04-04T11:23:24.352Z</time></trkpt><trkpt lat="43.1708301" lon="11.5858263"><ele>354.0</ele><time>2026-04-04T11:23:25.351Z</time></trkpt><trkpt lat="43.171023" lon="11.5857755"><ele>355.6666666666667</ele><time>2026-04-04T11:23:26.352Z</time></trkpt><trkpt lat="43.171221" lon="11.5857439"><ele>357.33333333333337</ele><time>2026-04-04T11:23:27.352Z</time></trkpt><trkpt lat="43.1714297" lon="11.5857199"><ele>359.0</ele><time>2026-04-04T11:23:28.352Z</time></trkpt><trkpt lat="43.1716346" lon="11.5857077"><ele>359.0</ele><time>2026-04-04T11:23:29.352Z</time></trkpt><trkpt lat="43.1718285" lon="11.5856955"><ele>359.0</ele><time>2026-04-04T11:23:30.352Z</time></trkpt><trkpt lat="43.1720147" lon="11.5856792"><ele>359.0</ele><time>2026-04-04T11:23:31.353Z</time></trkpt><trkpt lat="43.1721983" lon="11.5856393"><ele>357.6666666666667</ele><time>2026-04-04T11:23:32.352Z</time></trkpt><trkpt lat="43.1723754" lon="11.5855575"><ele>356.3333333333333</ele><time>2026-04-04T11:23:33.352Z</time></trkpt><trkpt lat="43.1725472" lon="11.5854174"><ele>355.0</ele><time>2026-04-04T11:23:34.351Z</time></trkpt><trkpt lat="43.1727192" lon="11.5852399"><ele>355.0</ele><time>2026-04-04T11:23:35.351Z</time></trkpt><trkpt lat="43.1728989" lon="11.5850476"><ele>355.0</ele><time>2026-04-04T11:23:36.351Z</time></trkpt><trkpt lat="43.1730899" lon="11.5848489"><ele>355.5</ele><time>2026-04-04T11:23:37.352Z</time></trkpt><trkpt lat="43.1732834" lon="11.5846414"><ele>356.0</ele><time>2026-04-04T11:23:38.352Z</time></trkpt><trkpt lat="43.1734781" lon="11.5844331"><ele>357.0</ele><time>2026-04-04T11:23:39.353Z</time></trkpt><trkpt lat="43.1736715" lon="11.5842247"><ele>358.0</ele><time>2026-04-04T11:23:40.352Z</time></trkpt><trkpt lat="43.1738633" lon="11.5840227"><ele>358.5</ele><time>2026-04-04T11:23:41.353Z</time></trkpt><trkpt lat="43.1740508" lon="11.5838282"><ele>359.0</ele><time>2026-04-04T11:23:42.352Z</time></trkpt><trkpt lat="43.1742283" lon="11.583652"><ele>360.33333333333337</ele><time>2026-04-04T11:23:43.352Z</time></trkpt><trkpt lat="43.1744079" lon="11.583495"><ele>361.6666666666667</ele><time>2026-04-04T11:23:44.352Z</time></trkpt><trkpt lat="43.1745946" lon="11.5833588"><ele>363.0</ele><time>2026-04-04T11:23:45.351Z</time></trkpt><trkpt lat="43.1747933" lon="11.5832517"><ele>362.0</ele><time>2026-04-04T11:23:46.353Z</time></trkpt><trkpt lat="43.1749984" lon="11.5831645"><ele>361.0</ele><time>2026-04-04T11:23:47.352Z</time></trkpt><trkpt lat="43.1751968" lon="11.5830838"><ele>360.0</ele><time>2026-04-04T11:23:48.353Z</time></trkpt><trkpt lat="43.1753851" lon="11.5830095"><ele>360.0</ele><time>2026-04-04T11:23:49.352Z</time></trkpt><trkpt lat="43.175582" lon="11.5829618"><ele>360.0</ele><time>2026-04-04T11:23:50.352Z</time></trkpt><trkpt lat="43.175785" lon="11.5829482"><ele>360.0</ele><time>2026-04-04T11:23:51.352Z</time></trkpt><trkpt lat="43.17599" lon="11.5829655"><ele>360.0</ele><time>2026-04-04T11:23:52.352Z</time></trkpt><trkpt lat="43.1761987" lon="11.5829948"><ele>360.0</ele><time>2026-04-04T11:23:53.351Z</time></trkpt><trkpt lat="43.1764107" lon="11.5830257"><ele>360.0</ele><time>2026-04-04T11:23:54.351Z</time></trkpt><trkpt lat="43.1766249" lon="11.5830552"><ele>360.6666666666667</ele><time>2026-04-04T11:23:55.351Z</time></trkpt><trkpt lat="43.1768416" lon="11.5830966"><ele>361.33333333333337</ele><time>2026-04-04T11:23:56.351Z</time></trkpt><trkpt lat="43.1770579" lon="11.5831609"><ele>362.0</ele><time>2026-04-04T11:23:57.35Z</time></trkpt><trkpt lat="43.1772719" lon="11.5832374"><ele>363.33333333333337</ele><time>2026-04-04T11:23:58.35Z</time></trkpt><trkpt lat="43.1774818" lon="11.5833193"><ele>364.6666666666667</ele><time>2026-04-04T11:23:59.351Z</time></trkpt><trkpt lat="43.1776892" lon="11.5834013"><ele>366.0</ele><time>2026-04-04T11:24:00.35Z</time></trkpt><trkpt lat="43.1778958" lon="11.5834779"><ele>366.0</ele><time>2026-04-04T11:24:01.351Z</time></trkpt><trkpt lat="43.1781046" lon="11.583543"><ele>366.0</ele><time>2026-04-04T11:24:02.352Z</time></trkpt><trkpt lat="43.1783151" lon="11.5835957"><ele>366.0</ele><time>2026-04-04T11:24:03.351Z</time></trkpt><trkpt lat="43.1785246" lon="11.5836403"><ele>366.3333333333333</ele><time>2026-04-04T11:24:04.351Z</time></trkpt><trkpt lat="43.1787297" lon="11.5836867"><ele>366.66666666666663</ele><time>2026-04-04T11:24:05.352Z</time></trkpt><trkpt lat="43.1789317" lon="11.5837347"><ele>367.0</ele><time>2026-04-04T11:24:06.351Z</time></trkpt><trkpt lat="43.1791308" lon="11.5837712"><ele>367.0</ele><time>2026-04-04T11:24:07.351Z</time></trkpt><trkpt lat="43.1793289" lon="11.5837915"><ele>367.0</ele><time>2026-04-04T11:24:08.351Z</time></trkpt><trkpt lat="43.1795286" lon="11.5837818"><ele>367.0</ele><time>2026-04-04T11:24:09.352Z</time></trkpt><trkpt lat="43.1797328" lon="11.583731"><ele>369.0</ele><time>2026-04-04T11:24:10.352Z</time></trkpt><trkpt lat="43.1799372" lon="11.5836558"><ele>371.0</ele><time>2026-04-04T11:24:11.351Z</time></trkpt><trkpt lat="43.1801452" lon="11.5835684"><ele>373.0</ele><time>2026-04-04T11:24:12.352Z</time></trkpt><trkpt lat="43.1803559" lon="11.5834727"><ele>373.0</ele><time>2026-04-04T11:24:13.351Z</time></trkpt><trkpt lat="43.1805682" lon="11.5833676"><ele>373.0</ele><time>2026-04-04T11:24:14.351Z</time></trkpt><trkpt lat="43.1807801" lon="11.583252"><ele>370.0</ele><time>2026-04-04T11:24:15.352Z</time></trkpt><trkpt lat="43.1809931" lon="11.5831389"><ele>367.0</ele><time>2026-04-04T11:24:16.351Z</time></trkpt><trkpt lat="43.1812062" lon="11.5830205"><ele>367.0</ele><time>2026-04-04T11:24:17.352Z</time></trkpt><trkpt lat="43.181416" lon="11.5828935"><ele>367.0</ele><time>2026-04-04T11:24:18.351Z</time></trkpt><trkpt lat="43.1816218" lon="11.5827621"><ele>366.66666666666663</ele><time>2026-04-04T11:24:19.351Z</time></trkpt><trkpt lat="43.1818254" lon="11.5826333"><ele>366.3333333333333</ele><time>2026-04-04T11:24:20.352Z</time></trkpt><trkpt lat="43.1820201" lon="11.5825155"><ele>366.0</ele><time>2026-04-04T11:24:21.351Z</time></trkpt><trkpt lat="43.1822024" lon="11.5824051"><ele>367.0</ele><time>2026-04-04T11:24:22.352Z</time></trkpt><trkpt lat="43.1823742" lon="11.582296"><ele>368.0</ele><time>2026-04-04T11:24:23.351Z</time></trkpt><trkpt lat="43.1825328" lon="11.5821844"><ele>369.0</ele><time>2026-04-04T11:24:24.351Z</time></trkpt><trkpt lat="43.1826765" lon="11.5820664"><ele>369.3333333333333</ele><time>2026-04-04T11:24:25.351Z</time></trkpt><trkpt lat="43.1827985" lon="11.5819349"><ele>369.66666666666663</ele><time>2026-04-04T11:24:26.351Z</time></trkpt><trkpt lat="43.1828971" lon="11.5817763"><ele>370.0</ele><time>2026-04-04T11:24:27.351Z</time></trkpt><trkpt lat="43.1829666" lon="11.5815874"><ele>370.0</ele><time>2026-04-04T11:24:28.35Z</time></trkpt><trkpt lat="43.1830027" lon="11.5813598"><ele>370.0</ele><time>2026-04-04T11:24:29.352Z</time></trkpt><trkpt lat="43.183003" lon="11.5811068"><ele>370.0</ele><time>2026-04-04T11:24:30.351Z</time></trkpt><trkpt lat="43.1829848" lon="11.5808544"><ele>367.66666666666663</ele><time>2026-04-04T11:24:31.351Z</time></trkpt><trkpt lat="43.1829614" lon="11.5806146"><ele>365.3333333333333</ele><time>2026-04-04T11:24:32.351Z</time></trkpt><trkpt lat="43.18292" lon="11.5803832"><ele>363.0</ele><time>2026-04-04T11:24:33.352Z</time></trkpt><trkpt lat="43.1828422" lon="11.5801781"><ele>362.6666666666667</ele><time>2026-04-04T11:24:34.352Z</time></trkpt><trkpt lat="43.1827415" lon="11.5800001"><ele>362.33333333333337</ele><time>2026-04-04T11:24:35.352Z</time></trkpt><trkpt lat="43.1826558" lon="11.5798112"><ele>362.0</ele><time>2026-04-04T11:24:36.35Z</time></trkpt><trkpt lat="43.1825919" lon="11.5795924"><ele>361.6666666666667</ele><time>2026-04-04T11:24:37.351Z</time></trkpt><trkpt lat="43.1825536" lon="11.579357"><ele>361.3333333333333</ele><time>2026-04-04T11:24:38.352Z</time></trkpt><trkpt lat="43.1825381" lon="11.5791313"><ele>361.0</ele><time>2026-04-04T11:24:39.351Z</time></trkpt><trkpt lat="43.1825583" lon="11.578913"><ele>361.0</ele><time>2026-04-04T11:24:40.351Z</time></trkpt><trkpt lat="43.1826255" lon="11.5787082"><ele>361.0</ele><time>2026-04-04T11:24:41.35Z</time></trkpt><trkpt lat="43.1827319" lon="11.5785157"><ele>361.0</ele><time>2026-04-04T11:24:42.352Z</time></trkpt><trkpt lat="43.1828573" lon="11.5783267"><ele>361.25</ele><time>2026-04-04T11:24:43.351Z</time></trkpt><trkpt lat="43.1829753" lon="11.5781507"><ele>361.5</ele><time>2026-04-04T11:24:44.352Z</time></trkpt><trkpt lat="43.1830833" lon="11.5780205"><ele>361.75</ele><time>2026-04-04T11:24:45.351Z</time></trkpt><trkpt lat="43.1831868" lon="11.5779405"><ele>362.0</ele><time>2026-04-04T11:24:46.35Z</time></trkpt><trkpt lat="43.1833012" lon="11.5779199"><ele>362.0</ele><time>2026-04-04T11:24:47.351Z</time></trkpt><trkpt lat="43.1834242" lon="11.5779567"><ele>362.0</ele><time>2026-04-04T11:24:48.352Z</time></trkpt><trkpt lat="43.1835635" lon="11.5780151"><ele>362.0</ele><time>2026-04-04T11:24:49.352Z</time></trkpt><trkpt lat="43.1837158" lon="11.5780826"><ele>362.0</ele><time>2026-04-04T11:24:50.351Z</time></trkpt><trkpt lat="43.1838823" lon="11.5781486"><ele>361.33333333333337</ele><time>2026-04-04T11:24:51.351Z</time></trkpt><trkpt lat="43.1840543" lon="11.578221"><ele>360.6666666666667</ele><time>2026-04-04T11:24:52.352Z</time></trkpt><trkpt lat="43.1842056" lon="11.5783075"><ele>360.0</ele><time>2026-04-04T11:24:53.35Z</time></trkpt><trkpt lat="43.1843306" lon="11.578424"><ele>360.0</ele><time>2026-04-04T11:24:54.35Z</time></trkpt><trkpt lat="43.184416" lon="11.5785834"><ele>360.0</ele><time>2026-04-04T11:24:55.351Z</time></trkpt><trkpt lat="43.1844563" lon="11.5787821"><ele>360.0</ele><time>2026-04-04T11:24:56.351Z</time></trkpt><trkpt lat="43.1844421" lon="11.5790052"><ele>361.6666666666667</ele><time>2026-04-04T11:24:57.352Z</time></trkpt><trkpt lat="43.1844125" lon="11.5792412"><ele>363.33333333333337</ele><time>2026-04-04T11:24:58.352Z</time></trkpt><trkpt lat="43.1844105" lon="11.5794652"><ele>365.0</ele><time>2026-04-04T11:24:59.351Z</time></trkpt><trkpt lat="43.1844446" lon="11.5796844"><ele>367.33333333333337</ele><time>2026-04-04T11:25:00.351Z</time></trkpt><trkpt lat="43.1845197" lon="11.579903"><ele>369.6666666666667</ele><time>2026-04-04T11:25:01.352Z</time></trkpt><trkpt lat="43.1846135" lon="11.5801248"><ele>372.0</ele><time>2026-04-04T11:25:02.352Z</time></trkpt><trkpt lat="43.1847198" lon="11.5803236"><ele>368.6666666666667</ele><time>2026-04-04T11:25:03.352Z</time></trkpt><trkpt lat="43.1848573" lon="11.5804942"><ele>365.33333333333337</ele><time>2026-04-04T11:25:04.352Z</time></trkpt><trkpt lat="43.1850301" lon="11.5806259"><ele>362.0</ele><time>2026-04-04T11:25:05.351Z</time></trkpt><trkpt lat="43.1852125" lon="11.5807586"><ele>362.0</ele><time>2026-04-04T11:25:06.351Z</time></trkpt><trkpt lat="43.185382" lon="11.5809231"><ele>362.0</ele><time>2026-04-04T11:25:07.351Z</time></trkpt><trkpt lat="43.185532" lon="11.5811022"><ele>362.0</ele><time>2026-04-04T11:25:08.351Z</time></trkpt><trkpt lat="43.1856894" lon="11.5812725"><ele>360.0</ele><time>2026-04-04T11:25:09.351Z</time></trkpt><trkpt lat="43.1858579" lon="11.5814212"><ele>358.0</ele><time>2026-04-04T11:25:10.351Z</time></trkpt><trkpt lat="43.1860316" lon="11.5815445"><ele>356.0</ele><time>2026-04-04T11:25:11.352Z</time></trkpt><trkpt lat="43.1862032" lon="11.5816494"><ele>356.0</ele><time>2026-04-04T11:25:12.351Z</time></trkpt><trkpt lat="43.1863596" lon="11.5817429"><ele>356.0</ele><time>2026-04-04T11:25:13.351Z</time></trkpt><trkpt lat="43.1864852" lon="11.5818408"><ele>356.0</ele><time>2026-04-04T11:25:14.351Z</time></trkpt><trkpt lat="43.1865891" lon="11.5819799"><ele>353.33333333333337</ele><time>2026-04-04T11:25:15.351Z</time></trkpt><trkpt lat="43.1866623" lon="11.5821578"><ele>350.6666666666667</ele><time>2026-04-04T11:25:16.352Z</time></trkpt><trkpt lat="43.1866976" lon="11.5823653"><ele>348.0</ele><time>2026-04-04T11:25:17.351Z</time></trkpt><trkpt lat="43.1867306" lon="11.5825813"><ele>348.0</ele><time>2026-04-04T11:25:18.351Z</time></trkpt><trkpt lat="43.1867825" lon="11.5827936"><ele>348.0</ele><time>2026-04-04T11:25:19.351Z</time></trkpt><trkpt lat="43.1868551" lon="11.5829984"><ele>348.0</ele><time>2026-04-04T11:25:20.351Z</time></trkpt><trkpt lat="43.1869569" lon="11.583179"><ele>347.3333333333333</ele><time>2026-04-04T11:25:21.351Z</time></trkpt><trkpt lat="43.1870814" lon="11.5833186"><ele>346.66666666666663</ele><time>2026-04-04T11:25:22.351Z</time></trkpt><trkpt lat="43.1872336" lon="11.5834143"><ele>346.0</ele><time>2026-04-04T11:25:23.351Z</time></trkpt><trkpt lat="43.1874009" lon="11.5834653"><ele>343.3333333333333</ele><time>2026-04-04T11:25:24.352Z</time></trkpt><trkpt lat="43.1875806" lon="11.5834772"><ele>340.6666666666667</ele><time>2026-04-04T11:25:25.35Z</time></trkpt><trkpt lat="43.1877647" lon="11.5834808"><ele>338.0</ele><time>2026-04-04T11:25:26.351Z</time></trkpt><trkpt lat="43.187947" lon="11.5835059"><ele>338.0</ele><time>2026-04-04T11:25:27.352Z</time></trkpt><trkpt lat="43.1881233" lon="11.5835728"><ele>338.0</ele><time>2026-04-04T11:25:28.352Z</time></trkpt><trkpt lat="43.1882947" lon="11.5836795"><ele>338.0</ele><time>2026-04-04T11:25:29.351Z</time></trkpt><trkpt lat="43.1884543" lon="11.583818"><ele>338.0</ele><time>2026-04-04T11:25:30.351Z</time></trkpt><trkpt lat="43.1886087" lon="11.5839821"><ele>338.0</ele><time>2026-04-04T11:25:31.351Z</time></trkpt><trkpt lat="43.1887696" lon="11.5841536"><ele>338.0</ele><time>2026-04-04T11:25:32.35Z</time></trkpt><trkpt lat="43.1889318" lon="11.5843322"><ele>337.0</ele><time>2026-04-04T11:25:33.352Z</time></trkpt><trkpt lat="43.1890977" lon="11.5845151"><ele>336.0</ele><time>2026-04-04T11:25:34.351Z</time></trkpt><trkpt lat="43.1892627" lon="11.5847045"><ele>335.0</ele><time>2026-04-04T11:25:35.352Z</time></trkpt><trkpt lat="43.1894278" lon="11.5848998"><ele>335.0</ele><time>2026-04-04T11:25:36.35Z</time></trkpt><trkpt lat="43.189592" lon="11.5851005"><ele>335.0</ele><time>2026-04-04T11:25:37.351Z</time></trkpt><trkpt lat="43.1897532" lon="11.585307"><ele>335.0</ele><time>2026-04-04T11:25:38.351Z</time></trkpt><trkpt lat="43.1899134" lon="11.5855139"><ele>336.0</ele><time>2026-04-04T11:25:39.351Z</time></trkpt><trkpt lat="43.1900722" lon="11.5857169"><ele>337.0</ele><time>2026-04-04T11:25:40.352Z</time></trkpt><trkpt lat="43.1902239" lon="11.5859158"><ele>338.0</ele><time>2026-04-04T11:25:41.351Z</time></trkpt><trkpt lat="43.1903663" lon="11.5861046"><ele>338.6666666666667</ele><time>2026-04-04T11:25:42.351Z</time></trkpt><trkpt lat="43.1905095" lon="11.5862743"><ele>339.3333333333333</ele><time>2026-04-04T11:25:43.351Z</time></trkpt><trkpt lat="43.1906574" lon="11.5864175"><ele>340.0</ele><time>2026-04-04T11:25:44.35Z</time></trkpt><trkpt lat="43.1908193" lon="11.5865293"><ele>340.0</ele><time>2026-04-04T11:25:45.351Z</time></trkpt><trkpt lat="43.1909947" lon="11.5866114"><ele>340.0</ele><time>2026-04-04T11:25:46.351Z</time></trkpt><trkpt lat="43.1911816" lon="11.5866628"><ele>340.0</ele><time>2026-04-04T11:25:47.351Z</time></trkpt><trkpt lat="43.1913756" lon="11.5866842"><ele>340.0</ele><time>2026-04-04T11:25:48.351Z</time></trkpt><trkpt lat="43.1915749" lon="11.5866632"><ele>340.0</ele><time>2026-04-04T11:25:49.352Z</time></trkpt><trkpt lat="43.1917691" lon="11.5866074"><ele>340.0</ele><time>2026-04-04T11:25:50.352Z</time></trkpt><trkpt lat="43.1919516" lon="11.5865122"><ele>340.0</ele><time>2026-04-04T11:25:51.352Z</time></trkpt><trkpt lat="43.1921106" lon="11.5863729"><ele>340.0</ele><time>2026-04-04T11:25:52.35Z</time></trkpt><trkpt lat="43.192252" lon="11.5861906"><ele>340.0</ele><time>2026-04-04T11:25:53.351Z</time></trkpt><trkpt lat="43.1923804" lon="11.5859771"><ele>339.3333333333333</ele><time>2026-04-04T11:25:54.352Z</time></trkpt><trkpt lat="43.192507" lon="11.5857516"><ele>338.6666666666667</ele><time>2026-04-04T11:25:55.351Z</time></trkpt><trkpt lat="43.1926349" lon="11.5855189"><ele>338.0</ele><time>2026-04-04T11:25:56.351Z</time></trkpt><trkpt lat="43.1927645" lon="11.5852842"><ele>336.0</ele><time>2026-04-04T11:25:57.351Z</time></trkpt><trkpt lat="43.1928979" lon="11.585046"><ele>334.0</ele><time>2026-04-04T11:25:58.352Z</time></trkpt><trkpt lat="43.1930321" lon="11.584805"><ele>332.0</ele><time>2026-04-04T11:25:59.352Z</time></trkpt><trkpt lat="43.1931693" lon="11.584567"><ele>332.0</ele><time>2026-04-04T11:26:00.352Z</time></trkpt><trkpt lat="43.1933059" lon="11.5843265"><ele>332.0</ele><time>2026-04-04T11:26:01.35Z</time></trkpt><trkpt lat="43.193439" lon="11.5840863"><ele>332.0</ele><time>2026-04-04T11:26:02.352Z</time></trkpt><trkpt lat="43.1935624" lon="11.5838539"><ele>331.0</ele><time>2026-04-04T11:26:03.352Z</time></trkpt><trkpt lat="43.1936798" lon="11.5836313"><ele>330.0</ele><time>2026-04-04T11:26:04.352Z</time></trkpt><trkpt lat="43.1937921" lon="11.5834187"><ele>329.0</ele><time>2026-04-04T11:26:05.352Z</time></trkpt><trkpt lat="43.1939008" lon="11.5832182"><ele>330.33333333333337</ele><time>2026-04-04T11:26:06.351Z</time></trkpt><trkpt lat="43.1940142" lon="11.583039"><ele>331.6666666666667</ele><time>2026-04-04T11:26:07.352Z</time></trkpt><trkpt lat="43.1941469" lon="11.5828985"><ele>333.0</ele><time>2026-04-04T11:26:08.352Z</time></trkpt><trkpt lat="43.1942969" lon="11.5827969"><ele>333.0</ele><time>2026-04-04T11:26:09.35Z</time></trkpt><trkpt lat="43.194458" lon="11.5827532"><ele>333.0</ele><time>2026-04-04T11:26:10.352Z</time></trkpt><trkpt lat="43.1946084" lon="11.5827896"><ele>333.0</ele><time>2026-04-04T11:26:11.352Z</time></trkpt><trkpt lat="43.1947435" lon="11.5829006"><ele>332.6666666666667</ele><time>2026-04-04T11:26:12.35Z</time></trkpt><trkpt lat="43.1948657" lon="11.583073"><ele>332.33333333333337</ele><time>2026-04-04T11:26:13.351Z</time></trkpt><trkpt lat="43.1949926" lon="11.5832687"><ele>332.0</ele><time>2026-04-04T11:26:14.35Z</time></trkpt><trkpt lat="43.1951305" lon="11.5834736"><ele>330.6666666666667</ele><time>2026-04-04T11:26:15.351Z</time></trkpt><trkpt lat="43.1952731" lon="11.5836886"><ele>329.3333333333333</ele><time>2026-04-04T11:26:16.351Z</time></trkpt><trkpt lat="43.1954189" lon="11.5839135"><ele>328.0</ele><time>2026-04-04T11:26:17.351Z</time></trkpt><trkpt lat="43.1955669" lon="11.5841441"><ele>327.5</ele><time>2026-04-04T11:26:18.351Z</time></trkpt><trkpt lat="43.1957178" lon="11.5843746"><ele>327.0</ele><time>2026-04-04T11:26:19.351Z</time></trkpt><trkpt lat="43.1958686" lon="11.5846061"><ele>327.0</ele><time>2026-04-04T11:26:20.352Z</time></trkpt><trkpt lat="43.1960221" lon="11.5848361"><ele>327.0</ele><time>2026-04-04T11:26:21.351Z</time></trkpt><trkpt lat="43.1961795" lon="11.5850653"><ele>327.0</ele><time>2026-04-04T11:26:22.35Z</time></trkpt><trkpt lat="43.1963398" lon="11.585293"><ele>327.0</ele><time>2026-04-04T11:26:23.351Z</time></trkpt><trkpt lat="43.1965057" lon="11.5855167"><ele>328.5</ele><time>2026-04-04T11:26:24.35Z</time></trkpt><trkpt lat="43.1966775" lon="11.5857364"><ele>330.0</ele><time>2026-04-04T11:26:25.352Z</time></trkpt><trkpt lat="43.1968503" lon="11.58596"><ele>328.5</ele><time>2026-04-04T11:26:26.351Z</time></trkpt><trkpt lat="43.1970244" lon="11.5861847"><ele>327.0</ele><time>2026-04-04T11:26:27.352Z</time></trkpt><trkpt lat="43.1972006" lon="11.5864098"><ele>327.5</ele><time>2026-04-04T11:26:28.351Z</time></trkpt><trkpt lat="43.1973764" lon="11.5866357"><ele>328.0</ele><time>2026-04-04T11:26:29.352Z</time></trkpt><trkpt lat="43.1975498" lon="11.5868579"><ele>329.5</ele><time>2026-04-04T11:26:30.35Z</time></trkpt><trkpt lat="43.1977211" lon="11.5870758"><ele>331.0</ele><time>2026-04-04T11:26:31.351Z</time></trkpt><trkpt lat="43.1978877" lon="11.5872875"><ele>331.0</ele><time>2026-04-04T11:26:32.35Z</time></trkpt><trkpt lat="43.1980447" lon="11.5874874"><ele>331.0</ele><time>2026-04-04T11:26:33.351Z</time></trkpt><trkpt lat="43.1981955" lon="11.5876775"><ele>331.0</ele><time>2026-04-04T11:26:34.352Z</time></trkpt><trkpt lat="43.1983387" lon="11.5878596"><ele>332.3333333333333</ele><time>2026-04-04T11:26:35.351Z</time></trkpt><trkpt lat="43.1984743" lon="11.5880359"><ele>333.6666666666667</ele><time>2026-04-04T11:26:36.351Z</time></trkpt><trkpt lat="43.1986011" lon="11.5882074"><ele>335.0</ele><time>2026-04-04T11:26:37.35Z</time></trkpt><trkpt lat="43.1987192" lon="11.5883792"><ele>335.0</ele><time>2026-04-04T11:26:38.351Z</time></trkpt><trkpt lat="43.1988301" lon="11.5885548"><ele>335.0</ele><time>2026-04-04T11:26:39.352Z</time></trkpt><trkpt lat="43.1989366" lon="11.5887277"><ele>335.0</ele><time>2026-04-04T11:26:40.351Z</time></trkpt><trkpt lat="43.1990413" lon="11.5889026"><ele>333.6666666666667</ele><time>2026-04-04T11:26:41.351Z</time></trkpt><trkpt lat="43.1991425" lon="11.5890843"><ele>332.3333333333333</ele><time>2026-04-04T11:26:42.351Z</time></trkpt><trkpt lat="43.1992391" lon="11.5892716"><ele>331.0</ele><time>2026-04-04T11:26:43.352Z</time></trkpt><trkpt lat="43.1993364" lon="11.5894646"><ele>331.3333333333333</ele><time>2026-04-04T11:26:44.351Z</time></trkpt><trkpt lat="43.1994371" lon="11.5896553"><ele>331.6666666666667</ele><time>2026-04-04T11:26:45.351Z</time></trkpt><trkpt lat="43.1995418" lon="11.589827"><ele>332.0</ele><time>2026-04-04T11:26:46.351Z</time></trkpt><trkpt lat="43.199654" lon="11.5899707"><ele>332.0</ele><time>2026-04-04T11:26:47.351Z</time></trkpt><trkpt lat="43.1997921" lon="11.5900826"><ele>332.0</ele><time>2026-04-04T11:26:48.35Z</time></trkpt><trkpt lat="43.199954" lon="11.5901712"><ele>332.0</ele><time>2026-04-04T11:26:49.352Z</time></trkpt><trkpt lat="43.2001084" lon="11.5902554"><ele>328.6666666666667</ele><time>2026-04-04T11:26:50.351Z</time></trkpt><trkpt lat="43.2002537" lon="11.5903516"><ele>325.3333333333333</ele><time>2026-04-04T11:26:51.351Z</time></trkpt><trkpt lat="43.2003766" lon="11.5904627"><ele>322.0</ele><time>2026-04-04T11:26:52.352Z</time></trkpt><trkpt lat="43.2004778" lon="11.5906007"><ele>322.0</ele><time>2026-04-04T11:26:53.351Z</time></trkpt><trkpt lat="43.2005469" lon="11.5907712"><ele>322.0</ele><time>2026-04-04T11:26:54.35Z</time></trkpt><trkpt lat="43.2005753" lon="11.59098"><ele>322.0</ele><time>2026-04-04T11:26:55.35Z</time></trkpt><trkpt lat="43.2005701" lon="11.5912198"><ele>320.0</ele><time>2026-04-04T11:26:56.351Z</time></trkpt><trkpt lat="43.2005752" lon="11.591482"><ele>318.0</ele><time>2026-04-04T11:26:57.351Z</time></trkpt><trkpt lat="43.2006021" lon="11.5917597"><ele>316.0</ele><time>2026-04-04T11:26:58.351Z</time></trkpt><trkpt lat="43.2006383" lon="11.5920447"><ele>316.0</ele><time>2026-04-04T11:26:59.351Z</time></trkpt><trkpt lat="43.2006847" lon="11.5923335"><ele>316.0</ele><time>2026-04-04T11:27:00.351Z</time></trkpt><trkpt lat="43.200748" lon="11.5926168"><ele>316.0</ele><time>2026-04-04T11:27:01.351Z</time></trkpt><trkpt lat="43.2008314" lon="11.5928828"><ele>316.0</ele><time>2026-04-04T11:27:02.352Z</time></trkpt><trkpt lat="43.2009304" lon="11.5931165"><ele>316.0</ele><time>2026-04-04T11:27:03.352Z</time></trkpt><trkpt lat="43.2010284" lon="11.5933357"><ele>316.0</ele><time>2026-04-04T11:27:04.35Z</time></trkpt><trkpt lat="43.201102" lon="11.593566"><ele>317.66666666666663</ele><time>2026-04-04T11:27:05.352Z</time></trkpt><trkpt lat="43.2011517" lon="11.5938196"><ele>319.3333333333333</ele><time>2026-04-04T11:27:06.35Z</time></trkpt><trkpt lat="43.201201" lon="11.5940883"><ele>321.0</ele><time>2026-04-04T11:27:07.352Z</time></trkpt><trkpt lat="43.201261" lon="11.594362"><ele>323.0</ele><time>2026-04-04T11:27:08.352Z</time></trkpt><trkpt lat="43.2013178" lon="11.5946409"><ele>325.0</ele><time>2026-04-04T11:27:09.351Z</time></trkpt><trkpt lat="43.201376" lon="11.5949086"><ele>327.0</ele><time>2026-04-04T11:27:10.352Z</time></trkpt><trkpt lat="43.2014461" lon="11.5951556"><ele>323.0</ele><time>2026-04-04T11:27:11.351Z</time></trkpt><trkpt lat="43.2015333" lon="11.5953888"><ele>319.0</ele><time>2026-04-04T11:27:12.351Z</time></trkpt><trkpt lat="43.2016214" lon="11.5956181"><ele>315.0</ele><time>2026-04-04T11:27:13.352Z</time></trkpt><trkpt lat="43.2016772" lon="11.5958706"><ele>315.0</ele><time>2026-04-04T11:27:14.351Z</time></trkpt><trkpt lat="43.201707" lon="11.5961287"><ele>315.0</ele><time>2026-04-04T11:27:15.351Z</time></trkpt><trkpt lat="43.2017587" lon="11.5963862"><ele>315.0</ele><time>2026-04-04T11:27:16.351Z</time></trkpt><trkpt lat="43.2018415" lon="11.5966364"><ele>316.6666666666667</ele><time>2026-04-04T11:27:17.351Z</time></trkpt><trkpt lat="43.2019472" lon="11.5968811"><ele>318.33333333333337</ele><time>2026-04-04T11:27:18.352Z</time></trkpt><trkpt lat="43.2020478" lon="11.5971317"><ele>320.0</ele><time>2026-04-04T11:27:19.351Z</time></trkpt><trkpt lat="43.2021342" lon="11.5973751"><ele>321.0</ele><time>2026-04-04T11:27:20.351Z</time></trkpt><trkpt lat="43.202218" lon="11.5976089"><ele>322.0</ele><time>2026-04-04T11:27:21.351Z</time></trkpt><trkpt lat="43.2023157" lon="11.5978303"><ele>323.0</ele><time>2026-04-04T11:27:22.352Z</time></trkpt><trkpt lat="43.2024354" lon="11.5980364"><ele>320.0</ele><time>2026-04-04T11:27:23.352Z</time></trkpt><trkpt lat="43.2025654" lon="11.5982255"><ele>317.0</ele><time>2026-04-04T11:27:24.35Z</time></trkpt><trkpt lat="43.2026994" lon="11.5983775"><ele>314.0</ele><time>2026-04-04T11:27:25.351Z</time></trkpt><trkpt lat="43.2028448" lon="11.5984891"><ele>314.0</ele><time>2026-04-04T11:27:26.352Z</time></trkpt><trkpt lat="43.2030134" lon="11.5985435"><ele>314.0</ele><time>2026-04-04T11:27:27.352Z</time></trkpt><trkpt lat="43.2031928" lon="11.5985545"><ele>314.0</ele><time>2026-04-04T11:27:28.351Z</time></trkpt><trkpt lat="43.2033719" lon="11.5985822"><ele>314.0</ele><time>2026-04-04T11:27:29.351Z</time></trkpt><trkpt lat="43.2035544" lon="11.5986463"><ele>314.0</ele><time>2026-04-04T11:27:30.352Z</time></trkpt><trkpt lat="43.2037314" lon="11.5987523"><ele>314.0</ele><time>2026-04-04T11:27:31.351Z</time></trkpt><trkpt lat="43.2038992" lon="11.598886"><ele>311.33333333333337</ele><time>2026-04-04T11:27:32.351Z</time></trkpt><trkpt lat="43.204059" lon="11.5990174"><ele>308.6666666666667</ele><time>2026-04-04T11:27:33.351Z</time></trkpt><trkpt lat="43.2042188" lon="11.5991276"><ele>306.0</ele><time>2026-04-04T11:27:34.351Z</time></trkpt><trkpt lat="43.2043719" lon="11.5991918"><ele>306.0</ele><time>2026-04-04T11:27:35.352Z</time></trkpt><trkpt lat="43.2045417" lon="11.5991991"><ele>306.0</ele><time>2026-04-04T11:27:36.352Z</time></trkpt><trkpt lat="43.2047164" lon="11.5991856"><ele>306.0</ele><time>2026-04-04T11:27:37.351Z</time></trkpt><trkpt lat="43.2048968" lon="11.5992289"><ele>305.3333333333333</ele><time>2026-04-04T11:27:38.35Z</time></trkpt><trkpt lat="43.2050627" lon="11.5993188"><ele>304.66666666666663</ele><time>2026-04-04T11:27:39.351Z</time></trkpt><trkpt lat="43.2051857" lon="11.5994338"><ele>304.0</ele><time>2026-04-04T11:27:40.351Z</time></trkpt><trkpt lat="43.2052758" lon="11.5995494"><ele>304.0</ele><time>2026-04-04T11:27:41.35Z</time></trkpt><trkpt lat="43.2053564" lon="11.5996279"><ele>304.0</ele><time>2026-04-04T11:27:42.351Z</time></trkpt><trkpt lat="43.2054429" lon="11.5996525"><ele>304.0</ele><time>2026-04-04T11:27:43.351Z</time></trkpt><trkpt lat="43.2055172" lon="11.5996121"><ele>304.0</ele><time>2026-04-04T11:27:44.351Z</time></trkpt><trkpt lat="43.205554" lon="11.5995149"><ele>304.0</ele><time>2026-04-04T11:27:45.351Z</time></trkpt><trkpt lat="43.2055399" lon="11.5993725"><ele>300.66666666666663</ele><time>2026-04-04T11:27:46.352Z</time></trkpt><trkpt lat="43.2054878" lon="11.5991988"><ele>297.3333333333333</ele><time>2026-04-04T11:27:47.351Z</time></trkpt><trkpt lat="43.2054128" lon="11.599"><ele>294.0</ele><time>2026-04-04T11:27:48.351Z</time></trkpt><trkpt lat="43.2053334" lon="11.5988097"><ele>290.75</ele><time>2026-04-04T11:27:49.351Z</time></trkpt><trkpt lat="43.2052568" lon="11.5986325"><ele>287.5</ele><time>2026-04-04T11:27:50.352Z</time></trkpt><trkpt lat="43.2052087" lon="11.5984469"><ele>284.25</ele><time>2026-04-04T11:27:51.351Z</time></trkpt><trkpt lat="43.2052091" lon="11.5982627"><ele>281.0</ele><time>2026-04-04T11:27:52.352Z</time></trkpt><trkpt lat="43.2052691" lon="11.5980873"><ele>281.0</ele><time>2026-04-04T11:27:53.35Z</time></trkpt><trkpt lat="43.2053809" lon="11.5979479"><ele>281.0</ele><time>2026-04-04T11:27:54.351Z</time></trkpt><trkpt lat="43.2055208" lon="11.597833"><ele>281.0</ele><time>2026-04-04T11:27:55.351Z</time></trkpt><trkpt lat="43.2056729" lon="11.5976735"><ele>277.6666666666667</ele><time>2026-04-04T11:27:56.352Z</time></trkpt><trkpt lat="43.2058215" lon="11.5974674"><ele>274.3333333333333</ele><time>2026-04-04T11:27:57.351Z</time></trkpt><trkpt lat="43.2059741" lon="11.5972525"><ele>271.0</ele><time>2026-04-04T11:27:58.35Z</time></trkpt><trkpt lat="43.2061346" lon="11.5970384"><ele>265.0</ele><time>2026-04-04T11:27:59.352Z</time></trkpt><trkpt lat="43.2062967" lon="11.5968227"><ele>259.0</ele><time>2026-04-04T11:28:00.351Z</time></trkpt><trkpt lat="43.2064625" lon="11.5966111"><ele>259.3333333333333</ele><time>2026-04-04T11:28:01.352Z</time></trkpt><trkpt lat="43.2066255" lon="11.5964071"><ele>259.6666666666667</ele><time>2026-04-04T11:28:02.352Z</time></trkpt><trkpt lat="43.206777" lon="11.5962035"><ele>260.0</ele><time>2026-04-04T11:28:03.35Z</time></trkpt><trkpt lat="43.2069167" lon="11.5959753"><ele>260.0</ele><time>2026-04-04T11:28:04.351Z</time></trkpt><trkpt lat="43.2070489" lon="11.595738"><ele>260.0</ele><time>2026-04-04T11:28:05.352Z</time></trkpt><trkpt lat="43.2071823" lon="11.5954982"><ele>260.0</ele><time>2026-04-04T11:28:06.351Z</time></trkpt><trkpt lat="43.2073169" lon="11.5952583"><ele>260.33333333333337</ele><time>2026-04-04T11:28:07.352Z</time></trkpt><trkpt lat="43.2074504" lon="11.5950182"><ele>260.6666666666667</ele><time>2026-04-04T11:28:08.351Z</time></trkpt><trkpt lat="43.2075795" lon="11.5947758"><ele>261.0</ele><time>2026-04-04T11:28:09.351Z</time></trkpt><trkpt lat="43.2076987" lon="11.5945204"><ele>257.5</ele><time>2026-04-04T11:28:10.351Z</time></trkpt><trkpt lat="43.2078034" lon="11.5942426"><ele>254.0</ele><time>2026-04-04T11:28:11.351Z</time></trkpt><trkpt lat="43.2078956" lon="11.593947"><ele>251.5</ele><time>2026-04-04T11:28:12.351Z</time></trkpt><trkpt lat="43.2079779" lon="11.5936453"><ele>249.0</ele><time>2026-04-04T11:28:13.352Z</time></trkpt><trkpt lat="43.2080598" lon="11.5933445"><ele>249.0</ele><time>2026-04-04T11:28:14.351Z</time></trkpt><trkpt lat="43.2081489" lon="11.5930497"><ele>249.0</ele><time>2026-04-04T11:28:15.351Z</time></trkpt><trkpt lat="43.2082454" lon="11.5927639"><ele>249.66666666666669</ele><time>2026-04-04T11:28:16.351Z</time></trkpt><trkpt lat="43.2083433" lon="11.5924851"><ele>250.33333333333334</ele><time>2026-04-04T11:28:17.351Z</time></trkpt><trkpt lat="43.2084437" lon="11.5922117"><ele>251.0</ele><time>2026-04-04T11:28:18.351Z</time></trkpt><trkpt lat="43.2085465" lon="11.5919446"><ele>251.0</ele><time>2026-04-04T11:28:19.352Z</time></trkpt><trkpt lat="43.2086527" lon="11.5916823"><ele>251.0</ele><time>2026-04-04T11:28:20.351Z</time></trkpt><trkpt lat="43.2087663" lon="11.5914265"><ele>251.0</ele><time>2026-04-04T11:28:21.352Z</time></trkpt><trkpt lat="43.2088889" lon="11.5911784"><ele>250.66666666666669</ele><time>2026-04-04T11:28:22.351Z</time></trkpt><trkpt lat="43.2090133" lon="11.5909438"><ele>250.33333333333331</ele><time>2026-04-04T11:28:23.351Z</time></trkpt><trkpt lat="43.2091332" lon="11.5907105"><ele>250.0</ele><time>2026-04-04T11:28:24.351Z</time></trkpt><trkpt lat="43.209264" lon="11.5904865"><ele>250.0</ele><time>2026-04-04T11:28:25.35Z</time></trkpt><trkpt lat="43.2094139" lon="11.5902823"><ele>250.0</ele><time>2026-04-04T11:28:26.351Z</time></trkpt><trkpt lat="43.2095745" lon="11.5900938"><ele>250.0</ele><time>2026-04-04T11:28:27.351Z</time></trkpt><trkpt lat="43.2097407" lon="11.5899098"><ele>249.0</ele><time>2026-04-04T11:28:28.35Z</time></trkpt><trkpt lat="43.2099178" lon="11.5897335"><ele>248.0</ele><time>2026-04-04T11:28:29.351Z</time></trkpt><trkpt lat="43.2101072" lon="11.5895726"><ele>247.0</ele><time>2026-04-04T11:28:30.351Z</time></trkpt><trkpt lat="43.2102931" lon="11.5893976"><ele>247.0</ele><time>2026-04-04T11:28:31.352Z</time></trkpt><trkpt lat="43.210466" lon="11.5892094"><ele>247.0</ele><time>2026-04-04T11:28:32.351Z</time></trkpt><trkpt lat="43.2106327" lon="11.589025"><ele>247.0</ele><time>2026-04-04T11:28:33.352Z</time></trkpt><trkpt lat="43.2107981" lon="11.5888622"><ele>245.0</ele><time>2026-04-04T11:28:34.351Z</time></trkpt><trkpt lat="43.2109607" lon="11.5887345"><ele>243.0</ele><time>2026-04-04T11:28:35.351Z</time></trkpt><trkpt lat="43.211139" lon="11.5886399"><ele>241.0</ele><time>2026-04-04T11:28:36.351Z</time></trkpt><trkpt lat="43.2113365" lon="11.5885795"><ele>239.66666666666666</ele><time>2026-04-04T11:28:37.351Z</time></trkpt><trkpt lat="43.2115406" lon="11.5885262"><ele>238.33333333333331</ele><time>2026-04-04T11:28:38.35Z</time></trkpt><trkpt lat="43.2117393" lon="11.5884686"><ele>237.0</ele><time>2026-04-04T11:28:39.351Z</time></trkpt><trkpt lat="43.2119331" lon="11.5884129"><ele>237.0</ele><time>2026-04-04T11:28:40.352Z</time></trkpt><trkpt lat="43.2121167" lon="11.5883527"><ele>237.0</ele><time>2026-04-04T11:28:41.351Z</time></trkpt><trkpt lat="43.21228" lon="11.5882821"><ele>237.0</ele><time>2026-04-04T11:28:42.351Z</time></trkpt><trkpt lat="43.2124419" lon="11.5881555"><ele>236.33333333333331</ele><time>2026-04-04T11:28:43.351Z</time></trkpt><trkpt lat="43.2125898" lon="11.5879783"><ele>235.66666666666666</ele><time>2026-04-04T11:28:44.351Z</time></trkpt><trkpt lat="43.2127323" lon="11.5877763"><ele>235.0</ele><time>2026-04-04T11:28:45.351Z</time></trkpt><trkpt lat="43.2128811" lon="11.587569"><ele>235.0</ele><time>2026-04-04T11:28:46.35Z</time></trkpt><trkpt lat="43.2130367" lon="11.5873812"><ele>235.0</ele><time>2026-04-04T11:28:47.352Z</time></trkpt><trkpt lat="43.213198" lon="11.5872205"><ele>235.0</ele><time>2026-04-04T11:28:48.351Z</time></trkpt><trkpt lat="43.2133626" lon="11.5870875"><ele>233.66666666666666</ele><time>2026-04-04T11:28:49.35Z</time></trkpt><trkpt lat="43.2135196" lon="11.5869568"><ele>232.33333333333331</ele><time>2026-04-04T11:28:50.352Z</time></trkpt><trkpt lat="43.2136574" lon="11.5868016"><ele>231.0</ele><time>2026-04-04T11:28:51.35Z</time></trkpt><trkpt lat="43.2137719" lon="11.5866021"><ele>231.0</ele><time>2026-04-04T11:28:52.351Z</time></trkpt><trkpt lat="43.2138685" lon="11.5863653"><ele>231.0</ele><time>2026-04-04T11:28:53.352Z</time></trkpt><trkpt lat="43.2139591" lon="11.5861194"><ele>231.0</ele><time>2026-04-04T11:28:54.351Z</time></trkpt><trkpt lat="43.2140436" lon="11.5858863"><ele>226.0</ele><time>2026-04-04T11:28:55.35Z</time></trkpt><trkpt lat="43.2141196" lon="11.5856567"><ele>221.0</ele><time>2026-04-04T11:28:56.351Z</time></trkpt><trkpt lat="43.2141796" lon="11.5854239"><ele>216.0</ele><time>2026-04-04T11:28:57.351Z</time></trkpt><trkpt lat="43.2142077" lon="11.5851622"><ele>215.66666666666669</ele><time>2026-04-04T11:28:58.35Z</time></trkpt><trkpt lat="43.2142084" lon="11.5848831"><ele>215.33333333333334</ele><time>2026-04-04T11:28:59.35Z</time></trkpt><trkpt lat="43.2142004" lon="11.5846031"><ele>215.0</ele><time>2026-04-04T11:29:00.351Z</time></trkpt><trkpt lat="43.2141885" lon="11.5843269"><ele>214.0</ele><time>2026-04-04T11:29:01.351Z</time></trkpt><trkpt lat="43.2141835" lon="11.5840502"><ele>213.0</ele><time>2026-04-04T11:29:02.349Z</time></trkpt><trkpt lat="43.2142073" lon="11.5837673"><ele>212.0</ele><time>2026-04-04T11:29:03.35Z</time></trkpt><trkpt lat="43.2142521" lon="11.5834728"><ele>212.0</ele><time>2026-04-04T11:29:04.351Z</time></trkpt><trkpt lat="43.2143127" lon="11.5831764"><ele>212.0</ele><time>2026-04-04T11:29:05.35Z</time></trkpt><trkpt lat="43.2143762" lon="11.5828709"><ele>211.5</ele><time>2026-04-04T11:29:06.35Z</time></trkpt><trkpt lat="43.2144365" lon="11.5825567"><ele>211.0</ele><time>2026-04-04T11:29:07.35Z</time></trkpt><trkpt lat="43.2144956" lon="11.5822367"><ele>210.0</ele><time>2026-04-04T11:29:08.35Z</time></trkpt><trkpt lat="43.2145509" lon="11.5819102"><ele>209.0</ele><time>2026-04-04T11:29:09.351Z</time></trkpt><trkpt lat="43.2145983" lon="11.5815783"><ele>209.0</ele><time>2026-04-04T11:29:10.35Z</time></trkpt><trkpt lat="43.2146342" lon="11.5812412"><ele>209.0</ele><time>2026-04-04T11:29:11.349Z</time></trkpt><trkpt lat="43.2146665" lon="11.5809038"><ele>209.0</ele><time>2026-04-04T11:29:12.351Z</time></trkpt><trkpt lat="43.2146991" lon="11.5805685"><ele>209.0</ele><time>2026-04-04T11:29:13.35Z</time></trkpt><trkpt lat="43.2147273" lon="11.5802403"><ele>208.5</ele><time>2026-04-04T11:29:14.351Z</time></trkpt><trkpt lat="43.2147468" lon="11.5799233"><ele>208.0</ele><time>2026-04-04T11:29:15.35Z</time></trkpt><trkpt lat="43.2147614" lon="11.5796197"><ele>207.33333333333331</ele><time>2026-04-04T11:29:16.351Z</time></trkpt><trkpt lat="43.2147807" lon="11.579334"><ele>206.66666666666669</ele><time>2026-04-04T11:29:17.349Z</time></trkpt><trkpt lat="43.2148066" lon="11.5790732"><ele>206.0</ele><time>2026-04-04T11:29:18.351Z</time></trkpt><trkpt lat="43.2148526" lon="11.5788383"><ele>200.66666666666669</ele><time>2026-04-04T11:29:19.351Z</time></trkpt><trkpt lat="43.2149293" lon="11.5786235"><ele>195.33333333333334</ele><time>2026-04-04T11:29:20.35Z</time></trkpt><trkpt lat="43.2150504" lon="11.5784517"><ele>190.0</ele><time>2026-04-04T11:29:21.35Z</time></trkpt><trkpt lat="43.2152134" lon="11.5783438"><ele>190.0</ele><time>2026-04-04T11:29:22.349Z</time></trkpt><trkpt lat="43.215399" lon="11.5782493"><ele>190.0</ele><time>2026-04-04T11:29:23.35Z</time></trkpt><trkpt lat="43.2155821" lon="11.578105"><ele>190.0</ele><time>2026-04-04T11:29:24.351Z</time></trkpt><trkpt lat="43.2157488" lon="11.5779108"><ele>189.66666666666669</ele><time>2026-04-04T11:29:25.351Z</time></trkpt><trkpt lat="43.2158879" lon="11.5776914"><ele>189.33333333333334</ele><time>2026-04-04T11:29:26.35Z</time></trkpt><trkpt lat="43.2160333" lon="11.5774976"><ele>189.0</ele><time>2026-04-04T11:29:27.351Z</time></trkpt><trkpt lat="43.2161919" lon="11.5773255"><ele>189.0</ele><time>2026-04-04T11:29:28.35Z</time></trkpt><trkpt lat="43.2163668" lon="11.5771641"><ele>189.0</ele><time>2026-04-04T11:29:29.35Z</time></trkpt><trkpt lat="43.2165478" lon="11.5770197"><ele>189.0</ele><time>2026-04-04T11:29:30.35Z</time></trkpt><trkpt lat="43.2167381" lon="11.5769132"><ele>190.0</ele><time>2026-04-04T11:29:31.35Z</time></trkpt><trkpt lat="43.2169379" lon="11.5768477"><ele>191.0</ele><time>2026-04-04T11:29:32.351Z</time></trkpt><trkpt lat="43.2171416" lon="11.5768066"><ele>192.0</ele><time>2026-04-04T11:29:33.35Z</time></trkpt><trkpt lat="43.2173482" lon="11.5767755"><ele>192.66666666666669</ele><time>2026-04-04T11:29:34.35Z</time></trkpt><trkpt lat="43.2175591" lon="11.5767558"><ele>193.33333333333334</ele><time>2026-04-04T11:29:35.35Z</time></trkpt><trkpt lat="43.2177731" lon="11.5767391"><ele>194.0</ele><time>2026-04-04T11:29:36.35Z</time></trkpt><trkpt lat="43.2179882" lon="11.5767243"><ele>194.33333333333334</ele><time>2026-04-04T11:29:37.35Z</time></trkpt><trkpt lat="43.218194" lon="11.576714"><ele>194.66666666666669</ele><time>2026-04-04T11:29:38.35Z</time></trkpt><trkpt lat="43.2183889" lon="11.5767006"><ele>195.0</ele><time>2026-04-04T11:29:39.351Z</time></trkpt><trkpt lat="43.2185834" lon="11.5766657"><ele>195.0</ele><time>2026-04-04T11:29:40.35Z</time></trkpt><trkpt lat="43.2187794" lon="11.5766114"><ele>195.0</ele><time>2026-04-04T11:29:41.35Z</time></trkpt><trkpt lat="43.2189813" lon="11.5765481"><ele>195.0</ele><time>2026-04-04T11:29:42.349Z</time></trkpt><trkpt lat="43.2191898" lon="11.5764844"><ele>195.66666666666669</ele><time>2026-04-04T11:29:43.35Z</time></trkpt><trkpt lat="43.2193988" lon="11.5764271"><ele>196.33333333333334</ele><time>2026-04-04T11:29:44.349Z</time></trkpt><trkpt lat="43.2195979" lon="11.5763759"><ele>197.0</ele><time>2026-04-04T11:29:45.35Z</time></trkpt><trkpt lat="43.2197876" lon="11.5763192"><ele>197.0</ele><time>2026-04-04T11:29:46.351Z</time></trkpt><trkpt lat="43.2199648" lon="11.5762395"><ele>197.0</ele><time>2026-04-04T11:29:47.35Z</time></trkpt><trkpt lat="43.2201325" lon="11.5761115"><ele>197.0</ele><time>2026-04-04T11:29:48.35Z</time></trkpt><trkpt lat="43.2202845" lon="11.5759394"><ele>195.66666666666669</ele><time>2026-04-04T11:29:49.351Z</time></trkpt><trkpt lat="43.2204304" lon="11.5757442"><ele>194.33333333333331</ele><time>2026-04-04T11:29:50.349Z</time></trkpt><trkpt lat="43.2205773" lon="11.5755411"><ele>193.0</ele><time>2026-04-04T11:29:51.351Z</time></trkpt><trkpt lat="43.2207201" lon="11.5753385"><ele>193.0</ele><time>2026-04-04T11:29:52.35Z</time></trkpt><trkpt lat="43.2208602" lon="11.5751387"><ele>193.0</ele><time>2026-04-04T11:29:53.35Z</time></trkpt><trkpt lat="43.2209923" lon="11.574937"><ele>193.0</ele><time>2026-04-04T11:29:54.35Z</time></trkpt><trkpt lat="43.2211162" lon="11.5747313"><ele>193.0</ele><time>2026-04-04T11:29:55.351Z</time></trkpt><trkpt lat="43.2212425" lon="11.5745284"><ele>193.0</ele><time>2026-04-04T11:29:56.351Z</time></trkpt><trkpt lat="43.2213767" lon="11.5743309"><ele>193.0</ele><time>2026-04-04T11:29:57.35Z</time></trkpt><trkpt lat="43.2215149" lon="11.5741306"><ele>193.66666666666666</ele><time>2026-04-04T11:29:58.35Z</time></trkpt><trkpt lat="43.2216518" lon="11.5739231"><ele>194.33333333333331</ele><time>2026-04-04T11:29:59.35Z</time></trkpt><trkpt lat="43.2217799" lon="11.5737137"><ele>195.0</ele><time>2026-04-04T11:30:00.35Z</time></trkpt><trkpt lat="43.2219006" lon="11.5735061"><ele>192.33333333333334</ele><time>2026-04-04T11:30:01.35Z</time></trkpt><trkpt lat="43.2220194" lon="11.5733183"><ele>189.66666666666669</ele><time>2026-04-04T11:30:02.351Z</time></trkpt><trkpt lat="43.2221496" lon="11.5731606"><ele>187.0</ele><time>2026-04-04T11:30:03.349Z</time></trkpt><trkpt lat="43.2223039" lon="11.5730287"><ele>186.33333333333334</ele><time>2026-04-04T11:30:04.351Z</time></trkpt><trkpt lat="43.2224728" lon="11.5729216"><ele>185.66666666666666</ele><time>2026-04-04T11:30:05.351Z</time></trkpt><trkpt lat="43.2226404" lon="11.5728308"><ele>185.0</ele><time>2026-04-04T11:30:06.35Z</time></trkpt><trkpt lat="43.222799" lon="11.5727463"><ele>185.0</ele><time>2026-04-04T11:30:07.35Z</time></trkpt><trkpt lat="43.2229481" lon="11.5726475"><ele>185.0</ele><time>2026-04-04T11:30:08.351Z</time></trkpt><trkpt lat="43.223086" lon="11.5725045"><ele>185.0</ele><time>2026-04-04T11:30:09.351Z</time></trkpt><trkpt lat="43.2232016" lon="11.572321"><ele>185.66666666666666</ele><time>2026-04-04T11:30:10.351Z</time></trkpt><trkpt lat="43.2232815" lon="11.5721022"><ele>186.33333333333334</ele><time>2026-04-04T11:30:11.35Z</time></trkpt><trkpt lat="43.2233367" lon="11.5718575"><ele>187.0</ele><time>2026-04-04T11:30:12.351Z</time></trkpt><trkpt lat="43.2233807" lon="11.5715977"><ele>187.33333333333334</ele><time>2026-04-04T11:30:13.35Z</time></trkpt><trkpt lat="43.223419" lon="11.5713261"><ele>187.66666666666666</ele><time>2026-04-04T11:30:14.35Z</time></trkpt><trkpt lat="43.2234508" lon="11.5710448"><ele>188.0</ele><time>2026-04-04T11:30:15.351Z</time></trkpt><trkpt lat="43.2234748" lon="11.5707569"><ele>187.66666666666666</ele><time>2026-04-04T11:30:16.35Z</time></trkpt><trkpt lat="43.2234948" lon="11.5704765"><ele>187.33333333333334</ele><time>2026-04-04T11:30:17.351Z</time></trkpt><trkpt lat="43.2235175" lon="11.5702031"><ele>187.0</ele><time>2026-04-04T11:30:18.349Z</time></trkpt><trkpt lat="43.22355" lon="11.5699353"><ele>187.0</ele><time>2026-04-04T11:30:19.349Z</time></trkpt><trkpt lat="43.2236055" lon="11.5696705"><ele>187.0</ele><time>2026-04-04T11:30:20.35Z</time></trkpt><trkpt lat="43.2236825" lon="11.569412"><ele>187.0</ele><time>2026-04-04T11:30:21.351Z</time></trkpt><trkpt lat="43.2237664" lon="11.5691478"><ele>186.33333333333334</ele><time>2026-04-04T11:30:22.35Z</time></trkpt><trkpt lat="43.2238536" lon="11.5688813"><ele>185.66666666666666</ele><time>2026-04-04T11:30:23.35Z</time></trkpt><trkpt lat="43.2239419" lon="11.5686104"><ele>185.0</ele><time>2026-04-04T11:30:24.351Z</time></trkpt><trkpt lat="43.2240308" lon="11.5683391"><ele>186.0</ele><time>2026-04-04T11:30:25.35Z</time></trkpt><trkpt lat="43.2241206" lon="11.5680705"><ele>187.0</ele><time>2026-04-04T11:30:26.35Z</time></trkpt><trkpt lat="43.2242125" lon="11.5678189"><ele>188.0</ele><time>2026-04-04T11:30:27.35Z</time></trkpt><trkpt lat="43.2243227" lon="11.5675797"><ele>188.0</ele><time>2026-04-04T11:30:28.35Z</time></trkpt><trkpt lat="43.2244547" lon="11.5673477"><ele>188.0</ele><time>2026-04-04T11:30:29.35Z</time></trkpt><trkpt lat="43.2245953" lon="11.5671116"><ele>188.0</ele><time>2026-04-04T11:30:30.35Z</time></trkpt><trkpt lat="43.2247411" lon="11.5668719"><ele>191.5</ele><time>2026-04-04T11:30:31.35Z</time></trkpt><trkpt lat="43.2248908" lon="11.5666298"><ele>195.0</ele><time>2026-04-04T11:30:32.35Z</time></trkpt><trkpt lat="43.2250437" lon="11.5663905"><ele>190.0</ele><time>2026-04-04T11:30:33.351Z</time></trkpt><trkpt lat="43.2252022" lon="11.5661547"><ele>185.0</ele><time>2026-04-04T11:30:34.351Z</time></trkpt><trkpt lat="43.2253659" lon="11.5659226"><ele>185.0</ele><time>2026-04-04T11:30:35.35Z</time></trkpt><trkpt lat="43.2255335" lon="11.5656941"><ele>185.0</ele><time>2026-04-04T11:30:36.35Z</time></trkpt><trkpt lat="43.225698" lon="11.5654678"><ele>187.0</ele><time>2026-04-04T11:30:37.35Z</time></trkpt><trkpt lat="43.2258571" lon="11.5652455"><ele>189.0</ele><time>2026-04-04T11:30:38.35Z</time></trkpt><trkpt lat="43.2260194" lon="11.5650356"><ele>189.0</ele><time>2026-04-04T11:30:39.35Z</time></trkpt><trkpt lat="43.2261905" lon="11.5648473"><ele>189.0</ele><time>2026-04-04T11:30:40.349Z</time></trkpt><trkpt lat="43.2263699" lon="11.5646755"><ele>189.0</ele><time>2026-04-04T11:30:41.35Z</time></trkpt><trkpt lat="43.2265552" lon="11.5645217"><ele>189.0</ele><time>2026-04-04T11:30:42.349Z</time></trkpt><trkpt lat="43.2267435" lon="11.5643757"><ele>189.0</ele><time>2026-04-04T11:30:43.35Z</time></trkpt><trkpt lat="43.2269327" lon="11.564232"><ele>189.0</ele><time>2026-04-04T11:30:44.351Z</time></trkpt><trkpt lat="43.2271188" lon="11.5640808"><ele>189.0</ele><time>2026-04-04T11:30:45.351Z</time></trkpt><trkpt lat="43.2272998" lon="11.5639154"><ele>189.0</ele><time>2026-04-04T11:30:46.35Z</time></trkpt><trkpt lat="43.2274721" lon="11.5637295"><ele>189.0</ele><time>2026-04-04T11:30:47.35Z</time></trkpt><trkpt lat="43.2276386" lon="11.5635295"><ele>188.33333333333334</ele><time>2026-04-04T11:30:48.349Z</time></trkpt><trkpt lat="43.2277993" lon="11.5633164"><ele>187.66666666666669</ele><time>2026-04-04T11:30:49.349Z</time></trkpt><trkpt lat="43.2279509" lon="11.56309"><ele>187.0</ele><time>2026-04-04T11:30:50.351Z</time></trkpt><trkpt lat="43.2280926" lon="11.5628571"><ele>189.0</ele><time>2026-04-04T11:30:51.35Z</time></trkpt><trkpt lat="43.2282308" lon="11.562629"><ele>191.0</ele><time>2026-04-04T11:30:52.35Z</time></trkpt><trkpt lat="43.2283685" lon="11.5624105"><ele>193.0</ele><time>2026-04-04T11:30:53.349Z</time></trkpt><trkpt lat="43.2285092" lon="11.5621987"><ele>189.66666666666666</ele><time>2026-04-04T11:30:54.351Z</time></trkpt><trkpt lat="43.2286583" lon="11.561997"><ele>186.33333333333331</ele><time>2026-04-04T11:30:55.351Z</time></trkpt><trkpt lat="43.2288135" lon="11.5618008"><ele>183.0</ele><time>2026-04-04T11:30:56.349Z</time></trkpt><trkpt lat="43.2289682" lon="11.5616121"><ele>182.66666666666666</ele><time>2026-04-04T11:30:57.35Z</time></trkpt><trkpt lat="43.2291161" lon="11.5614364"><ele>182.33333333333331</ele><time>2026-04-04T11:30:58.35Z</time></trkpt><trkpt lat="43.2292561" lon="11.5612709"><ele>182.0</ele><time>2026-04-04T11:30:59.349Z</time></trkpt><trkpt lat="43.2293901" lon="11.5611228"><ele>182.0</ele><time>2026-04-04T11:31:00.35Z</time></trkpt><trkpt lat="43.2295219" lon="11.5610079"><ele>182.0</ele><time>2026-04-04T11:31:01.351Z</time></trkpt><trkpt lat="43.2296573" lon="11.5609304"><ele>182.0</ele><time>2026-04-04T11:31:02.35Z</time></trkpt><trkpt lat="43.2298016" lon="11.5608998"><ele>182.0</ele><time>2026-04-04T11:31:03.35Z</time></trkpt><trkpt lat="43.2299576" lon="11.5608853"><ele>185.0</ele><time>2026-04-04T11:31:04.35Z</time></trkpt><trkpt lat="43.2301202" lon="11.5608597"><ele>188.0</ele><time>2026-04-04T11:31:05.35Z</time></trkpt><trkpt lat="43.2302887" lon="11.560818"><ele>191.0</ele><time>2026-04-04T11:31:06.349Z</time></trkpt><trkpt lat="43.230458" lon="11.5607697"><ele>191.0</ele><time>2026-04-04T11:31:07.35Z</time></trkpt><trkpt lat="43.2306152" lon="11.5607105"><ele>191.0</ele><time>2026-04-04T11:31:08.35Z</time></trkpt><trkpt lat="43.2307625" lon="11.5606444"><ele>191.0</ele><time>2026-04-04T11:31:09.351Z</time></trkpt><trkpt lat="43.2309167" lon="11.5605663"><ele>189.0</ele><time>2026-04-04T11:31:10.351Z</time></trkpt><trkpt lat="43.2310634" lon="11.5604749"><ele>187.0</ele><time>2026-04-04T11:31:11.35Z</time></trkpt><trkpt lat="43.2312087" lon="11.5603711"><ele>185.0</ele><time>2026-04-04T11:31:12.349Z</time></trkpt><trkpt lat="43.231351" lon="11.560258"><ele>189.33333333333331</ele><time>2026-04-04T11:31:13.351Z</time></trkpt><trkpt lat="43.2314911" lon="11.560137"><ele>193.66666666666666</ele><time>2026-04-04T11:31:14.35Z</time></trkpt><trkpt lat="43.2316282" lon="11.5600171"><ele>198.0</ele><time>2026-04-04T11:31:15.351Z</time></trkpt><trkpt lat="43.2317599" lon="11.5599013"><ele>198.0</ele><time>2026-04-04T11:31:16.35Z</time></trkpt><trkpt lat="43.2318822" lon="11.5598006"><ele>198.0</ele><time>2026-04-04T11:31:17.35Z</time></trkpt><trkpt lat="43.2319994" lon="11.559708"><ele>198.0</ele><time>2026-04-04T11:31:18.35Z</time></trkpt><trkpt lat="43.2321132" lon="11.5596305"><ele>198.0</ele><time>2026-04-04T11:31:19.351Z</time></trkpt><trkpt lat="43.2322281" lon="11.5595736"><ele>196.8</ele><time>2026-04-04T11:31:20.351Z</time></trkpt><trkpt lat="43.2323444" lon="11.5595437"><ele>195.60000000000002</ele><time>2026-04-04T11:31:21.35Z</time></trkpt><trkpt lat="43.2324589" lon="11.5595316"><ele>194.39999999999998</ele><time>2026-04-04T11:31:22.349Z</time></trkpt><trkpt lat="43.2325705" lon="11.5595312"><ele>193.2</ele><time>2026-04-04T11:31:23.35Z</time></trkpt><trkpt lat="43.2326744" lon="11.5595409"><ele>192.0</ele><time>2026-04-04T11:31:24.351Z</time></trkpt><trkpt lat="43.2327692" lon="11.5595612"><ele>194.0</ele><time>2026-04-04T11:31:25.35Z</time></trkpt><trkpt lat="43.2328644" lon="11.5595928"><ele>196.0</ele><time>2026-04-04T11:31:26.351Z</time></trkpt><trkpt lat="43.2329653" lon="11.5596506"><ele>198.0</ele><time>2026-04-04T11:31:27.351Z</time></trkpt><trkpt lat="43.2330656" lon="11.5597422"><ele>200.0</ele><time>2026-04-04T11:31:28.35Z</time></trkpt><trkpt lat="43.2331611" lon="11.5598585"><ele>200.0</ele><time>2026-04-04T11:31:29.35Z</time></trkpt><trkpt lat="43.2332614" lon="11.5599826"><ele>200.0</ele><time>2026-04-04T11:31:30.351Z</time></trkpt><trkpt lat="43.2333554" lon="11.5600927"><ele>200.0</ele><time>2026-04-04T11:31:31.35Z</time></trkpt><trkpt lat="43.2334397" lon="11.5602009"><ele>200.0</ele><time>2026-04-04T11:31:32.351Z</time></trkpt><trkpt lat="43.2335225" lon="11.560295"><ele>201.0</ele><time>2026-04-04T11:31:33.35Z</time></trkpt><trkpt lat="43.2336098" lon="11.5603759"><ele>202.0</ele><time>2026-04-04T11:31:34.35Z</time></trkpt><trkpt lat="43.2337009" lon="11.5604493"><ele>203.0</ele><time>2026-04-04T11:31:35.35Z</time></trkpt><trkpt lat="43.2337858" lon="11.5605286"><ele>204.0</ele><time>2026-04-04T11:31:36.35Z</time></trkpt><trkpt lat="43.2338624" lon="11.5606082"><ele>205.0</ele><time>2026-04-04T11:31:37.349Z</time></trkpt><trkpt lat="43.2339191" lon="11.5606932"><ele>205.0</ele><time>2026-04-04T11:31:38.35Z</time></trkpt><trkpt lat="43.2339517" lon="11.5607717"><ele>205.0</ele><time>2026-04-04T11:31:39.349Z</time></trkpt><trkpt lat="43.2339735" lon="11.5608577"><ele>205.0</ele><time>2026-04-04T11:31:40.351Z</time></trkpt><trkpt lat="43.2339212" lon="11.5610278"><ele>205.0</ele><time>2026-04-04T11:31:42.351Z</time></trkpt><trkpt lat="43.2338728" lon="11.5611362"><ele>205.0</ele><time>2026-04-04T11:31:43.35Z</time></trkpt><trkpt lat="43.2338145" lon="11.5612596"><ele>205.25</ele><time>2026-04-04T11:31:44.35Z</time></trkpt><trkpt lat="43.2337458" lon="11.5613941"><ele>205.5</ele><time>2026-04-04T11:31:45.35Z</time></trkpt><trkpt lat="43.2336725" lon="11.5615393"><ele>205.75</ele><time>2026-04-04T11:31:46.349Z</time></trkpt><trkpt lat="43.2335944" lon="11.5616879"><ele>206.0</ele><time>2026-04-04T11:31:47.349Z</time></trkpt><trkpt lat="43.2335128" lon="11.5618254"><ele>206.0</ele><time>2026-04-04T11:31:48.35Z</time></trkpt><trkpt lat="43.2334317" lon="11.5619507"><ele>206.0</ele><time>2026-04-04T11:31:49.349Z</time></trkpt><trkpt lat="43.2333486" lon="11.5620706"><ele>206.0</ele><time>2026-04-04T11:31:50.349Z</time></trkpt><trkpt lat="43.2332639" lon="11.5621931"><ele>206.0</ele><time>2026-04-04T11:31:51.349Z</time></trkpt><trkpt lat="43.2331787" lon="11.5623183"><ele>208.25</ele><time>2026-04-04T11:31:52.351Z</time></trkpt><trkpt lat="43.2330936" lon="11.5624381"><ele>210.5</ele><time>2026-04-04T11:31:53.35Z</time></trkpt><trkpt lat="43.2330039" lon="11.5625393"><ele>212.75</ele><time>2026-04-04T11:31:54.35Z</time></trkpt><trkpt lat="43.2328998" lon="11.5626263"><ele>215.0</ele><time>2026-04-04T11:31:55.35Z</time></trkpt><trkpt lat="43.2327763" lon="11.5626994"><ele>215.0</ele><time>2026-04-04T11:31:56.351Z</time></trkpt><trkpt lat="43.2326351" lon="11.5627596"><ele>215.0</ele><time>2026-04-04T11:31:57.351Z</time></trkpt><trkpt lat="43.2324845" lon="11.5628207"><ele>215.0</ele><time>2026-04-04T11:31:58.35Z</time></trkpt><trkpt lat="43.2323328" lon="11.5628887"><ele>216.5</ele><time>2026-04-04T11:31:59.351Z</time></trkpt><trkpt lat="43.2321827" lon="11.5629535"><ele>218.0</ele><time>2026-04-04T11:32:00.35Z</time></trkpt><trkpt lat="43.2320398" lon="11.5630177"><ele>219.5</ele><time>2026-04-04T11:32:01.35Z</time></trkpt><trkpt lat="43.2319089" lon="11.5630776"><ele>221.0</ele><time>2026-04-04T11:32:02.35Z</time></trkpt><trkpt lat="43.2317739" lon="11.5631271"><ele>221.0</ele><time>2026-04-04T11:32:03.351Z</time></trkpt><trkpt lat="43.2316441" lon="11.563173"><ele>221.0</ele><time>2026-04-04T11:32:04.351Z</time></trkpt><trkpt lat="43.2315234" lon="11.5632231"><ele>221.0</ele><time>2026-04-04T11:32:05.35Z</time></trkpt><trkpt lat="43.2314106" lon="11.5632779"><ele>221.0</ele><time>2026-04-04T11:32:06.35Z</time></trkpt><trkpt lat="43.2313101" lon="11.5633386"><ele>222.5</ele><time>2026-04-04T11:32:07.351Z</time></trkpt><trkpt lat="43.2312188" lon="11.5634083"><ele>224.0</ele><time>2026-04-04T11:32:08.35Z</time></trkpt><trkpt lat="43.2311365" lon="11.5634903"><ele>225.5</ele><time>2026-04-04T11:32:09.35Z</time></trkpt><trkpt lat="43.2310634" lon="11.563605"><ele>227.0</ele><time>2026-04-04T11:32:10.351Z</time></trkpt><trkpt lat="43.2309879" lon="11.5637564"><ele>227.0</ele><time>2026-04-04T11:32:11.35Z</time></trkpt><trkpt lat="43.2309063" lon="11.5639319"><ele>227.0</ele><time>2026-04-04T11:32:12.35Z</time></trkpt><trkpt lat="43.2308172" lon="11.5641279"><ele>227.0</ele><time>2026-04-04T11:32:13.349Z</time></trkpt><trkpt lat="43.2307288" lon="11.5643461"><ele>229.33333333333334</ele><time>2026-04-04T11:32:14.35Z</time></trkpt><trkpt lat="43.230641" lon="11.5645714"><ele>231.66666666666669</ele><time>2026-04-04T11:32:15.35Z</time></trkpt><trkpt lat="43.2305569" lon="11.5647965"><ele>234.0</ele><time>2026-04-04T11:32:16.35Z</time></trkpt><trkpt lat="43.2304817" lon="11.5650003"><ele>234.0</ele><time>2026-04-04T11:32:17.35Z</time></trkpt><trkpt lat="43.2304064" lon="11.5651979"><ele>234.0</ele><time>2026-04-04T11:32:18.35Z</time></trkpt><trkpt lat="43.2303381" lon="11.5653918"><ele>234.0</ele><time>2026-04-04T11:32:19.351Z</time></trkpt><trkpt lat="43.2302704" lon="11.565582"><ele>234.33333333333331</ele><time>2026-04-04T11:32:20.349Z</time></trkpt><trkpt lat="43.2301995" lon="11.5657732"><ele>234.66666666666666</ele><time>2026-04-04T11:32:21.35Z</time></trkpt><trkpt lat="43.2301245" lon="11.5659658"><ele>235.0</ele><time>2026-04-04T11:32:22.35Z</time></trkpt><trkpt lat="43.2300447" lon="11.5661602"><ele>234.66666666666666</ele><time>2026-04-04T11:32:23.349Z</time></trkpt><trkpt lat="43.2299616" lon="11.566359"><ele>234.33333333333331</ele><time>2026-04-04T11:32:24.35Z</time></trkpt><trkpt lat="43.2298782" lon="11.5665593"><ele>234.0</ele><time>2026-04-04T11:32:25.351Z</time></trkpt><trkpt lat="43.2297965" lon="11.566757"><ele>234.5</ele><time>2026-04-04T11:32:26.351Z</time></trkpt><trkpt lat="43.2297213" lon="11.5669422"><ele>235.0</ele><time>2026-04-04T11:32:27.35Z</time></trkpt><trkpt lat="43.229651" lon="11.5671119"><ele>235.5</ele><time>2026-04-04T11:32:28.351Z</time></trkpt><trkpt lat="43.2295897" lon="11.5672585"><ele>236.0</ele><time>2026-04-04T11:32:29.351Z</time></trkpt><trkpt lat="43.2295347" lon="11.5673874"><ele>236.0</ele><time>2026-04-04T11:32:30.35Z</time></trkpt><trkpt lat="43.2294702" lon="11.5675293"><ele>236.0</ele><time>2026-04-04T11:32:31.35Z</time></trkpt><trkpt lat="43.229395" lon="11.5676817"><ele>236.0</ele><time>2026-04-04T11:32:32.35Z</time></trkpt><trkpt lat="43.229315" lon="11.5678385"><ele>236.0</ele><time>2026-04-04T11:32:33.35Z</time></trkpt><trkpt lat="43.2292415" lon="11.5679838"><ele>236.25</ele><time>2026-04-04T11:32:34.35Z</time></trkpt><trkpt lat="43.2291798" lon="11.5681252"><ele>236.5</ele><time>2026-04-04T11:32:35.35Z</time></trkpt><trkpt lat="43.2291346" lon="11.5682771"><ele>236.75</ele><time>2026-04-04T11:32:36.35Z</time></trkpt><trkpt lat="43.2291221" lon="11.5684548"><ele>237.0</ele><time>2026-04-04T11:32:37.35Z</time></trkpt><trkpt lat="43.2291422" lon="11.5686447"><ele>237.33333333333331</ele><time>2026-04-04T11:32:38.35Z</time></trkpt><trkpt lat="43.229181" lon="11.5688439"><ele>237.66666666666666</ele><time>2026-04-04T11:32:39.351Z</time></trkpt><trkpt lat="43.2292197" lon="11.5690506"><ele>238.0</ele><time>2026-04-04T11:32:40.351Z</time></trkpt><trkpt lat="43.2292597" lon="11.5692538"><ele>238.0</ele><time>2026-04-04T11:32:41.351Z</time></trkpt><trkpt lat="43.2293181" lon="11.569447"><ele>238.0</ele><time>2026-04-04T11:32:42.35Z</time></trkpt><trkpt lat="43.2294008" lon="11.5696306"><ele>238.0</ele><time>2026-04-04T11:32:43.35Z</time></trkpt><trkpt lat="43.2295041" lon="11.5697971"><ele>238.0</ele><time>2026-04-04T11:32:44.35Z</time></trkpt><trkpt lat="43.2296106" lon="11.5699452"><ele>238.0</ele><time>2026-04-04T11:32:45.35Z</time></trkpt><trkpt lat="43.2297093" lon="11.5700833"><ele>238.0</ele><time>2026-04-04T11:32:46.351Z</time></trkpt><trkpt lat="43.2298185" lon="11.5702273"><ele>238.0</ele><time>2026-04-04T11:32:47.35Z</time></trkpt><trkpt lat="43.2299336" lon="11.5703779"><ele>238.66666666666666</ele><time>2026-04-04T11:32:48.35Z</time></trkpt><trkpt lat="43.2300349" lon="11.5705308"><ele>239.33333333333331</ele><time>2026-04-04T11:32:49.351Z</time></trkpt><trkpt lat="43.2301239" lon="11.5707003"><ele>240.0</ele><time>2026-04-04T11:32:50.351Z</time></trkpt><trkpt lat="43.2301983" lon="11.5708871"><ele>240.0</ele><time>2026-04-04T11:32:51.351Z</time></trkpt><trkpt lat="43.2302603" lon="11.5710889"><ele>240.0</ele><time>2026-04-04T11:32:52.35Z</time></trkpt><trkpt lat="43.2303158" lon="11.5712983"><ele>240.0</ele><time>2026-04-04T11:32:53.35Z</time></trkpt><trkpt lat="43.2303716" lon="11.5715078"><ele>240.25</ele><time>2026-04-04T11:32:54.351Z</time></trkpt><trkpt lat="43.2304249" lon="11.571712"><ele>240.5</ele><time>2026-04-04T11:32:55.351Z</time></trkpt><trkpt lat="43.2304617" lon="11.5718812"><ele>240.75</ele><time>2026-04-04T11:32:56.35Z</time></trkpt><trkpt lat="43.2304844" lon="11.5720279"><ele>241.0</ele><time>2026-04-04T11:32:57.35Z</time></trkpt><trkpt lat="43.2305158" lon="11.5721412"><ele>241.0</ele><time>2026-04-04T11:32:58.35Z</time></trkpt><trkpt lat="43.2305775" lon="11.5722197"><ele>241.0</ele><time>2026-04-04T11:32:59.351Z</time></trkpt><trkpt lat="43.2306706" lon="11.5722792"><ele>241.0</ele><time>2026-04-04T11:33:00.349Z</time></trkpt><trkpt lat="43.2307884" lon="11.5723446"><ele>241.0</ele><time>2026-04-04T11:33:01.35Z</time></trkpt><trkpt lat="43.2309262" lon="11.5724278"><ele>241.0</ele><time>2026-04-04T11:33:02.35Z</time></trkpt><trkpt lat="43.2310787" lon="11.5725097"><ele>241.0</ele><time>2026-04-04T11:33:03.349Z</time></trkpt><trkpt lat="43.231235" lon="11.5725771"><ele>241.0</ele><time>2026-04-04T11:33:04.35Z</time></trkpt><trkpt lat="43.2314079" lon="11.5726157"><ele>241.5</ele><time>2026-04-04T11:33:05.349Z</time></trkpt><trkpt lat="43.2317662" lon="11.5726259"><ele>242.0</ele><time>2026-04-04T11:33:07.35Z</time></trkpt><trkpt lat="43.2319404" lon="11.572623"><ele>242.0</ele><time>2026-04-04T11:33:08.351Z</time></trkpt><trkpt lat="43.2321064" lon="11.572625"><ele>242.0</ele><time>2026-04-04T11:33:09.35Z</time></trkpt><trkpt lat="43.2322633" lon="11.5726334"><ele>242.0</ele><time>2026-04-04T11:33:10.35Z</time></trkpt><trkpt lat="43.2324292" lon="11.5726395"><ele>242.0</ele><time>2026-04-04T11:33:11.349Z</time></trkpt><trkpt lat="43.2325966" lon="11.5726487"><ele>242.0</ele><time>2026-04-04T11:33:12.35Z</time></trkpt><trkpt lat="43.2327633" lon="11.5726672"><ele>242.0</ele><time>2026-04-04T11:33:13.351Z</time></trkpt><trkpt lat="43.2329378" lon="11.5726953"><ele>242.0</ele><time>2026-04-04T11:33:14.351Z</time></trkpt><trkpt lat="43.2331134" lon="11.5727246"><ele>242.0</ele><time>2026-04-04T11:33:15.351Z</time></trkpt><trkpt lat="43.2332908" lon="11.5727556"><ele>242.0</ele><time>2026-04-04T11:33:16.35Z</time></trkpt><trkpt lat="43.2334695" lon="11.5727769"><ele>242.33333333333334</ele><time>2026-04-04T11:33:17.35Z</time></trkpt><trkpt lat="43.2336463" lon="11.572787"><ele>242.66666666666669</ele><time>2026-04-04T11:33:18.351Z</time></trkpt><trkpt lat="43.2338212" lon="11.5727902"><ele>243.0</ele><time>2026-04-04T11:33:19.35Z</time></trkpt><trkpt lat="43.2339931" lon="11.5727932"><ele>243.33333333333331</ele><time>2026-04-04T11:33:20.35Z</time></trkpt><trkpt lat="43.2341609" lon="11.5727982"><ele>243.66666666666666</ele><time>2026-04-04T11:33:21.35Z</time></trkpt><trkpt lat="43.2343242" lon="11.5728182"><ele>244.0</ele><time>2026-04-04T11:33:22.35Z</time></trkpt><trkpt lat="43.2344808" lon="11.5728583"><ele>244.33333333333331</ele><time>2026-04-04T11:33:23.349Z</time></trkpt><trkpt lat="43.2346323" lon="11.5729127"><ele>244.66666666666669</ele><time>2026-04-04T11:33:24.35Z</time></trkpt><trkpt lat="43.2347819" lon="11.5729754"><ele>245.0</ele><time>2026-04-04T11:33:25.351Z</time></trkpt><trkpt lat="43.2349332" lon="11.5730548"><ele>245.33333333333334</ele><time>2026-04-04T11:33:26.35Z</time></trkpt><trkpt lat="43.2350867" lon="11.573152"><ele>245.66666666666669</ele><time>2026-04-04T11:33:27.35Z</time></trkpt><trkpt lat="43.2352389" lon="11.5732512"><ele>246.0</ele><time>2026-04-04T11:33:28.35Z</time></trkpt><trkpt lat="43.2353883" lon="11.5733528"><ele>246.0</ele><time>2026-04-04T11:33:29.351Z</time></trkpt><trkpt lat="43.2355344" lon="11.5734589"><ele>246.0</ele><time>2026-04-04T11:33:30.35Z</time></trkpt><trkpt lat="43.2356788" lon="11.5735754"><ele>246.0</ele><time>2026-04-04T11:33:31.351Z</time></trkpt><trkpt lat="43.2358188" lon="11.5737089"><ele>246.33333333333331</ele><time>2026-04-04T11:33:32.351Z</time></trkpt><trkpt lat="43.2359548" lon="11.5738547"><ele>246.66666666666666</ele><time>2026-04-04T11:33:33.35Z</time></trkpt><trkpt lat="43.2360961" lon="11.5740051"><ele>247.0</ele><time>2026-04-04T11:33:34.35Z</time></trkpt><trkpt lat="43.2362452" lon="11.5741591"><ele>247.0</ele><time>2026-04-04T11:33:35.35Z</time></trkpt><trkpt lat="43.236404" lon="11.574315"><ele>247.0</ele><time>2026-04-04T11:33:36.35Z</time></trkpt><trkpt lat="43.2365723" lon="11.5744605"><ele>247.0</ele><time>2026-04-04T11:33:37.351Z</time></trkpt><trkpt lat="43.2367503" lon="11.5746033"><ele>246.33333333333331</ele><time>2026-04-04T11:33:38.351Z</time></trkpt><trkpt lat="43.2369298" lon="11.5747441"><ele>245.66666666666669</ele><time>2026-04-04T11:33:39.351Z</time></trkpt><trkpt lat="43.2371081" lon="11.5748875"><ele>245.0</ele><time>2026-04-04T11:33:40.35Z</time></trkpt><trkpt lat="43.2372809" lon="11.5750446"><ele>245.0</ele><time>2026-04-04T11:33:41.35Z</time></trkpt><trkpt lat="43.2374386" lon="11.5752199"><ele>245.0</ele><time>2026-04-04T11:33:42.349Z</time></trkpt><trkpt lat="43.237575" lon="11.5754296"><ele>245.0</ele><time>2026-04-04T11:33:43.35Z</time></trkpt><trkpt lat="43.2376987" lon="11.5756709"><ele>245.0</ele><time>2026-04-04T11:33:44.351Z</time></trkpt><trkpt lat="43.237802" lon="11.575941"><ele>245.0</ele><time>2026-04-04T11:33:45.35Z</time></trkpt><trkpt lat="43.2378986" lon="11.5762214"><ele>245.0</ele><time>2026-04-04T11:33:46.35Z</time></trkpt><trkpt lat="43.2380002" lon="11.5765079"><ele>245.0</ele><time>2026-04-04T11:33:47.35Z</time></trkpt><trkpt lat="43.2381021" lon="11.5768014"><ele>245.0</ele><time>2026-04-04T11:33:48.351Z</time></trkpt><trkpt lat="43.2382044" lon="11.5770998"><ele>246.0</ele><time>2026-04-04T11:33:49.35Z</time></trkpt><trkpt lat="43.2383082" lon="11.5774022"><ele>247.0</ele><time>2026-04-04T11:33:50.351Z</time></trkpt><trkpt lat="43.2384162" lon="11.5777039"><ele>247.5</ele><time>2026-04-04T11:33:51.35Z</time></trkpt><trkpt lat="43.2385303" lon="11.5780014"><ele>248.0</ele><time>2026-04-04T11:33:52.349Z</time></trkpt><trkpt lat="43.2386601" lon="11.5782878"><ele>248.0</ele><time>2026-04-04T11:33:53.35Z</time></trkpt><trkpt lat="43.2388014" lon="11.5785633"><ele>248.0</ele><time>2026-04-04T11:33:54.35Z</time></trkpt><trkpt lat="43.2389465" lon="11.5788363"><ele>249.5</ele><time>2026-04-04T11:33:55.35Z</time></trkpt><trkpt lat="43.2390938" lon="11.5791098"><ele>251.0</ele><time>2026-04-04T11:33:56.35Z</time></trkpt><trkpt lat="43.2392411" lon="11.5793823"><ele>251.5</ele><time>2026-04-04T11:33:57.35Z</time></trkpt><trkpt lat="43.2393882" lon="11.5796531"><ele>252.0</ele><time>2026-04-04T11:33:58.35Z</time></trkpt><trkpt lat="43.2395363" lon="11.57992"><ele>252.0</ele><time>2026-04-04T11:33:59.351Z</time></trkpt><trkpt lat="43.2396829" lon="11.5801815"><ele>252.0</ele><time>2026-04-04T11:34:00.35Z</time></trkpt><trkpt lat="43.2398243" lon="11.5804394"><ele>252.5</ele><time>2026-04-04T11:34:01.351Z</time></trkpt><trkpt lat="43.2399648" lon="11.5806951"><ele>253.0</ele><time>2026-04-04T11:34:02.35Z</time></trkpt><trkpt lat="43.2401065" lon="11.5809537"><ele>253.5</ele><time>2026-04-04T11:34:03.35Z</time></trkpt><trkpt lat="43.2402497" lon="11.5812174"><ele>254.0</ele><time>2026-04-04T11:34:04.35Z</time></trkpt><trkpt lat="43.240395" lon="11.5814864"><ele>254.0</ele><time>2026-04-04T11:34:05.35Z</time></trkpt><trkpt lat="43.240544" lon="11.5817604"><ele>254.0</ele><time>2026-04-04T11:34:06.35Z</time></trkpt><trkpt lat="43.2406973" lon="11.5820393"><ele>254.5</ele><time>2026-04-04T11:34:07.351Z</time></trkpt><trkpt lat="43.2408535" lon="11.5823209"><ele>255.0</ele><time>2026-04-04T11:34:08.35Z</time></trkpt><trkpt lat="43.2410118" lon="11.5826041"><ele>256.5</ele><time>2026-04-04T11:34:09.35Z</time></trkpt><trkpt lat="43.241171" lon="11.5828876"><ele>258.0</ele><time>2026-04-04T11:34:10.35Z</time></trkpt><trkpt lat="43.2413296" lon="11.5831698"><ele>258.0</ele><time>2026-04-04T11:34:11.35Z</time></trkpt><trkpt lat="43.2414803" lon="11.5834404"><ele>258.0</ele><time>2026-04-04T11:34:12.35Z</time></trkpt><trkpt lat="43.2416237" lon="11.5836944"><ele>258.0</ele><time>2026-04-04T11:34:13.351Z</time></trkpt><trkpt lat="43.2417569" lon="11.5839372"><ele>258.0</ele><time>2026-04-04T11:34:14.35Z</time></trkpt><trkpt lat="43.2418768" lon="11.5841758"><ele>258.0</ele><time>2026-04-04T11:34:15.351Z</time></trkpt><trkpt lat="43.241983" lon="11.5844257"><ele>258.6666666666667</ele><time>2026-04-04T11:34:16.35Z</time></trkpt><trkpt lat="43.2420684" lon="11.5846926"><ele>259.33333333333337</ele><time>2026-04-04T11:34:17.35Z</time></trkpt><trkpt lat="43.2421363" lon="11.5849727"><ele>260.0</ele><time>2026-04-04T11:34:18.351Z</time></trkpt><trkpt lat="43.2421944" lon="11.5852597"><ele>260.33333333333337</ele><time>2026-04-04T11:34:19.349Z</time></trkpt><trkpt lat="43.2422504" lon="11.5855522"><ele>260.6666666666667</ele><time>2026-04-04T11:34:20.35Z</time></trkpt><trkpt lat="43.2423096" lon="11.5858477"><ele>261.0</ele><time>2026-04-04T11:34:21.351Z</time></trkpt><trkpt lat="43.2423667" lon="11.5861454"><ele>261.0</ele><time>2026-04-04T11:34:22.35Z</time></trkpt><trkpt lat="43.2424235" lon="11.5864459"><ele>261.0</ele><time>2026-04-04T11:34:23.35Z</time></trkpt><trkpt lat="43.2424806" lon="11.5867493"><ele>260.5</ele><time>2026-04-04T11:34:24.35Z</time></trkpt><trkpt lat="43.2425407" lon="11.5870628"><ele>260.0</ele><time>2026-04-04T11:34:25.35Z</time></trkpt><trkpt lat="43.2426006" lon="11.5873801"><ele>260.0</ele><time>2026-04-04T11:34:26.351Z</time></trkpt><trkpt lat="43.2426608" lon="11.587704"><ele>260.0</ele><time>2026-04-04T11:34:27.35Z</time></trkpt><trkpt lat="43.2427233" lon="11.5880306"><ele>260.0</ele><time>2026-04-04T11:34:28.349Z</time></trkpt><trkpt lat="43.242793" lon="11.5883597"><ele>260.0</ele><time>2026-04-04T11:34:29.35Z</time></trkpt><trkpt lat="43.2428673" lon="11.5886896"><ele>259.5</ele><time>2026-04-04T11:34:30.351Z</time></trkpt><trkpt lat="43.2429467" lon="11.5890185"><ele>259.0</ele><time>2026-04-04T11:34:31.35Z</time></trkpt><trkpt lat="43.2430315" lon="11.5893477"><ele>259.0</ele><time>2026-04-04T11:34:32.351Z</time></trkpt><trkpt lat="43.2431199" lon="11.5896738"><ele>259.0</ele><time>2026-04-04T11:34:33.351Z</time></trkpt><trkpt lat="43.2432107" lon="11.5899989"><ele>259.0</ele><time>2026-04-04T11:34:34.35Z</time></trkpt><trkpt lat="43.2433054" lon="11.5903203"><ele>259.0</ele><time>2026-04-04T11:34:35.351Z</time></trkpt><trkpt lat="43.2433984" lon="11.590631"><ele>259.0</ele><time>2026-04-04T11:34:36.35Z</time></trkpt><trkpt lat="43.2434883" lon="11.5909228"><ele>259.0</ele><time>2026-04-04T11:34:37.351Z</time></trkpt><trkpt lat="43.243592" lon="11.5911922"><ele>259.5</ele><time>2026-04-04T11:34:38.35Z</time></trkpt><trkpt lat="43.2437309" lon="11.5914452"><ele>260.0</ele><time>2026-04-04T11:34:39.35Z</time></trkpt><trkpt lat="43.2438933" lon="11.5916784"><ele>260.5</ele><time>2026-04-04T11:34:40.35Z</time></trkpt><trkpt lat="43.2440711" lon="11.5918983"><ele>261.0</ele><time>2026-04-04T11:34:41.349Z</time></trkpt><trkpt lat="43.2442543" lon="11.592116"><ele>261.0</ele><time>2026-04-04T11:34:42.35Z</time></trkpt><trkpt lat="43.2444414" lon="11.5923379"><ele>261.0</ele><time>2026-04-04T11:34:43.35Z</time></trkpt><trkpt lat="43.2446298" lon="11.5925623"><ele>262.0</ele><time>2026-04-04T11:34:44.351Z</time></trkpt><trkpt lat="43.2448193" lon="11.5927824"><ele>263.0</ele><time>2026-04-04T11:34:45.35Z</time></trkpt><trkpt lat="43.2450095" lon="11.5930021"><ele>263.5</ele><time>2026-04-04T11:34:46.351Z</time></trkpt><trkpt lat="43.2451974" lon="11.5932236"><ele>264.0</ele><time>2026-04-04T11:34:47.35Z</time></trkpt><trkpt lat="43.2453847" lon="11.5934465"><ele>264.0</ele><time>2026-04-04T11:34:48.351Z</time></trkpt><trkpt lat="43.2455707" lon="11.593667"><ele>264.0</ele><time>2026-04-04T11:34:49.35Z</time></trkpt><trkpt lat="43.2457552" lon="11.5938872"><ele>266.0</ele><time>2026-04-04T11:34:50.35Z</time></trkpt><trkpt lat="43.2459363" lon="11.5941047"><ele>268.0</ele><time>2026-04-04T11:34:51.35Z</time></trkpt><trkpt lat="43.2461153" lon="11.5943206"><ele>269.0</ele><time>2026-04-04T11:34:52.35Z</time></trkpt><trkpt lat="43.2462926" lon="11.5945321"><ele>270.0</ele><time>2026-04-04T11:34:53.35Z</time></trkpt><trkpt lat="43.2464684" lon="11.5947419"><ele>272.0</ele><time>2026-04-04T11:34:54.35Z</time></trkpt><trkpt lat="43.2466439" lon="11.5949511"><ele>274.0</ele><time>2026-04-04T11:34:55.35Z</time></trkpt><trkpt lat="43.2468196" lon="11.5951585"><ele>274.0</ele><time>2026-04-04T11:34:56.351Z</time></trkpt><trkpt lat="43.246995" lon="11.5953645"><ele>274.0</ele><time>2026-04-04T11:34:57.35Z</time></trkpt><trkpt lat="43.2471704" lon="11.5955712"><ele>275.5</ele><time>2026-04-04T11:34:58.35Z</time></trkpt><trkpt lat="43.2473451" lon="11.59578"><ele>277.0</ele><time>2026-04-04T11:34:59.351Z</time></trkpt><trkpt lat="43.2475203" lon="11.5959895"><ele>277.0</ele><time>2026-04-04T11:35:00.35Z</time></trkpt><trkpt lat="43.2476971" lon="11.5961989"><ele>277.0</ele><time>2026-04-04T11:35:01.35Z</time></trkpt><trkpt lat="43.2478757" lon="11.5964098"><ele>277.0</ele><time>2026-04-04T11:35:02.351Z</time></trkpt><trkpt lat="43.2480523" lon="11.5966198"><ele>277.0</ele><time>2026-04-04T11:35:03.35Z</time></trkpt><trkpt lat="43.2482195" lon="11.5968177"><ele>276.0</ele><time>2026-04-04T11:35:04.351Z</time></trkpt><trkpt lat="43.2483842" lon="11.5970034"><ele>275.0</ele><time>2026-04-04T11:35:05.35Z</time></trkpt><trkpt lat="43.2485573" lon="11.5971848"><ele>274.0</ele><time>2026-04-04T11:35:06.351Z</time></trkpt><trkpt lat="43.2487507" lon="11.5973405"><ele>275.0</ele><time>2026-04-04T11:35:07.35Z</time></trkpt><trkpt lat="43.2489607" lon="11.5974741"><ele>276.0</ele><time>2026-04-04T11:35:08.351Z</time></trkpt><trkpt lat="43.2491795" lon="11.5976009"><ele>276.0</ele><time>2026-04-04T11:35:09.351Z</time></trkpt><trkpt lat="43.249402" lon="11.597731"><ele>276.0</ele><time>2026-04-04T11:35:10.35Z</time></trkpt><trkpt lat="43.2496238" lon="11.5978666"><ele>276.0</ele><time>2026-04-04T11:35:11.35Z</time></trkpt><trkpt lat="43.2498413" lon="11.5980004"><ele>276.0</ele><time>2026-04-04T11:35:12.35Z</time></trkpt><trkpt lat="43.2500535" lon="11.598123"><ele>276.0</ele><time>2026-04-04T11:35:13.35Z</time></trkpt><trkpt lat="43.2502662" lon="11.5982185"><ele>276.0</ele><time>2026-04-04T11:35:14.35Z</time></trkpt><trkpt lat="43.2504841" lon="11.5982769"><ele>276.0</ele><time>2026-04-04T11:35:15.351Z</time></trkpt><trkpt lat="43.2507061" lon="11.5982963"><ele>277.0</ele><time>2026-04-04T11:35:16.351Z</time></trkpt><trkpt lat="43.2509312" lon="11.5982714"><ele>278.0</ele><time>2026-04-04T11:35:17.35Z</time></trkpt><trkpt lat="43.2511589" lon="11.5982232"><ele>278.0</ele><time>2026-04-04T11:35:18.35Z</time></trkpt><trkpt lat="43.2513895" lon="11.5981723"><ele>278.0</ele><time>2026-04-04T11:35:19.349Z</time></trkpt><trkpt lat="43.2516225" lon="11.5981204"><ele>278.5</ele><time>2026-04-04T11:35:20.351Z</time></trkpt><trkpt lat="43.2518578" lon="11.5980702"><ele>279.0</ele><time>2026-04-04T11:35:21.35Z</time></trkpt><trkpt lat="43.2520915" lon="11.59802"><ele>279.0</ele><time>2026-04-04T11:35:22.35Z</time></trkpt><trkpt lat="43.2523207" lon="11.5979673"><ele>279.0</ele><time>2026-04-04T11:35:23.351Z</time></trkpt><trkpt lat="43.2525452" lon="11.5979174"><ele>279.0</ele><time>2026-04-04T11:35:24.35Z</time></trkpt><trkpt lat="43.2527634" lon="11.597868"><ele>279.0</ele><time>2026-04-04T11:35:25.35Z</time></trkpt><trkpt lat="43.2529668" lon="11.5978162"><ele>279.0</ele><time>2026-04-04T11:35:26.35Z</time></trkpt><trkpt lat="43.2531634" lon="11.597752"><ele>280.3333333333333</ele><time>2026-04-04T11:35:27.35Z</time></trkpt><trkpt lat="43.2533552" lon="11.5976628"><ele>281.66666666666663</ele><time>2026-04-04T11:35:28.35Z</time></trkpt><trkpt lat="43.2535408" lon="11.5975405"><ele>283.0</ele><time>2026-04-04T11:35:29.349Z</time></trkpt><trkpt lat="43.2537168" lon="11.5973803"><ele>283.0</ele><time>2026-04-04T11:35:30.35Z</time></trkpt><trkpt lat="43.2538815" lon="11.5971827"><ele>283.0</ele><time>2026-04-04T11:35:31.351Z</time></trkpt><trkpt lat="43.2540393" lon="11.5969625"><ele>283.0</ele><time>2026-04-04T11:35:32.351Z</time></trkpt><trkpt lat="43.2542001" lon="11.5967346"><ele>284.5</ele><time>2026-04-04T11:35:33.349Z</time></trkpt><trkpt lat="43.2543639" lon="11.5965073"><ele>286.0</ele><time>2026-04-04T11:35:34.351Z</time></trkpt><trkpt lat="43.2545216" lon="11.5962839"><ele>285.66666666666663</ele><time>2026-04-04T11:35:35.35Z</time></trkpt><trkpt lat="43.2546682" lon="11.5960729"><ele>285.3333333333333</ele><time>2026-04-04T11:35:36.351Z</time></trkpt><trkpt lat="43.2548087" lon="11.5958738"><ele>285.0</ele><time>2026-04-04T11:35:37.35Z</time></trkpt><trkpt lat="43.2549437" lon="11.5956915"><ele>285.0</ele><time>2026-04-04T11:35:38.351Z</time></trkpt><trkpt lat="43.25509" lon="11.5955304"><ele>285.0</ele><time>2026-04-04T11:35:39.349Z</time></trkpt><trkpt lat="43.2552609" lon="11.5954159"><ele>285.0</ele><time>2026-04-04T11:35:40.35Z</time></trkpt><trkpt lat="43.2554464" lon="11.5953522"><ele>285.3333333333333</ele><time>2026-04-04T11:35:41.351Z</time></trkpt><trkpt lat="43.2556385" lon="11.5953361"><ele>285.66666666666663</ele><time>2026-04-04T11:35:42.351Z</time></trkpt><trkpt lat="43.2558338" lon="11.5953943"><ele>286.0</ele><time>2026-04-04T11:35:43.351Z</time></trkpt><trkpt lat="43.2560278" lon="11.5955072"><ele>286.0</ele><time>2026-04-04T11:35:44.351Z</time></trkpt><trkpt lat="43.2562167" lon="11.5956516"><ele>286.0</ele><time>2026-04-04T11:35:45.351Z</time></trkpt><trkpt lat="43.2564051" lon="11.5958093"><ele>286.0</ele><time>2026-04-04T11:35:46.35Z</time></trkpt><trkpt lat="43.2565934" lon="11.5959748"><ele>285.0</ele><time>2026-04-04T11:35:47.351Z</time></trkpt><trkpt lat="43.2567805" lon="11.5961519"><ele>284.0</ele><time>2026-04-04T11:35:48.349Z</time></trkpt><trkpt lat="43.2569673" lon="11.5963301"><ele>283.5</ele><time>2026-04-04T11:35:49.351Z</time></trkpt><trkpt lat="43.2571592" lon="11.5964977"><ele>283.0</ele><time>2026-04-04T11:35:50.35Z</time></trkpt><trkpt lat="43.2573536" lon="11.5966546"><ele>283.0</ele><time>2026-04-04T11:35:51.351Z</time></trkpt><trkpt lat="43.2575458" lon="11.5968025"><ele>283.0</ele><time>2026-04-04T11:35:52.35Z</time></trkpt><trkpt lat="43.257736" lon="11.5969436"><ele>283.0</ele><time>2026-04-04T11:35:53.351Z</time></trkpt><trkpt lat="43.2579257" lon="11.5970806"><ele>285.0</ele><time>2026-04-04T11:35:54.35Z</time></trkpt><trkpt lat="43.2581187" lon="11.5972092"><ele>287.0</ele><time>2026-04-04T11:35:55.35Z</time></trkpt><trkpt lat="43.258319" lon="11.597322"><ele>289.0</ele><time>2026-04-04T11:35:56.35Z</time></trkpt><trkpt lat="43.2585232" lon="11.5974268"><ele>289.0</ele><time>2026-04-04T11:35:57.35Z</time></trkpt><trkpt lat="43.2587309" lon="11.5975257"><ele>289.0</ele><time>2026-04-04T11:35:58.351Z</time></trkpt><trkpt lat="43.2589436" lon="11.5976166"><ele>289.0</ele><time>2026-04-04T11:35:59.35Z</time></trkpt><trkpt lat="43.2591578" lon="11.597683"><ele>291.5</ele><time>2026-04-04T11:36:00.351Z</time></trkpt><trkpt lat="43.259378" lon="11.5977329"><ele>294.0</ele><time>2026-04-04T11:36:01.351Z</time></trkpt><trkpt lat="43.2596057" lon="11.5977808"><ele>292.5</ele><time>2026-04-04T11:36:02.35Z</time></trkpt><trkpt lat="43.2598373" lon="11.5978331"><ele>291.0</ele><time>2026-04-04T11:36:03.35Z</time></trkpt><trkpt lat="43.2600689" lon="11.5979051"><ele>291.0</ele><time>2026-04-04T11:36:04.349Z</time></trkpt><trkpt lat="43.2602977" lon="11.5979882"><ele>291.0</ele><time>2026-04-04T11:36:05.349Z</time></trkpt><trkpt lat="43.2605106" lon="11.5980742"><ele>291.0</ele><time>2026-04-04T11:36:06.351Z</time></trkpt><trkpt lat="43.2607098" lon="11.5981722"><ele>291.0</ele><time>2026-04-04T11:36:07.351Z</time></trkpt><trkpt lat="43.2608936" lon="11.5982971"><ele>291.0</ele><time>2026-04-04T11:36:08.349Z</time></trkpt><trkpt lat="43.2610631" lon="11.5984653"><ele>291.0</ele><time>2026-04-04T11:36:09.35Z</time></trkpt><trkpt lat="43.2612066" lon="11.5986765"><ele>291.0</ele><time>2026-04-04T11:36:10.351Z</time></trkpt><trkpt lat="43.2613422" lon="11.5988921"><ele>291.0</ele><time>2026-04-04T11:36:11.35Z</time></trkpt><trkpt lat="43.2614813" lon="11.5990817"><ele>291.0</ele><time>2026-04-04T11:36:12.351Z</time></trkpt><trkpt lat="43.2616331" lon="11.5992403"><ele>291.0</ele><time>2026-04-04T11:36:13.348Z</time></trkpt><trkpt lat="43.2618165" lon="11.5993624"><ele>291.0</ele><time>2026-04-04T11:36:14.349Z</time></trkpt><trkpt lat="43.2620125" lon="11.5994679"><ele>291.0</ele><time>2026-04-04T11:36:15.349Z</time></trkpt><trkpt lat="43.2622164" lon="11.5995702"><ele>291.0</ele><time>2026-04-04T11:36:16.349Z</time></trkpt><trkpt lat="43.2624264" lon="11.5996709"><ele>291.0</ele><time>2026-04-04T11:36:17.35Z</time></trkpt><trkpt lat="43.2626426" lon="11.5997551"><ele>293.0</ele><time>2026-04-04T11:36:18.349Z</time></trkpt><trkpt lat="43.2628688" lon="11.5998059"><ele>295.0</ele><time>2026-04-04T11:36:19.349Z</time></trkpt><trkpt lat="43.2630865" lon="11.5998339"><ele>297.0</ele><time>2026-04-04T11:36:20.349Z</time></trkpt><trkpt lat="43.2632749" lon="11.5998601"><ele>297.3333333333333</ele><time>2026-04-04T11:36:21.349Z</time></trkpt><trkpt lat="43.2634419" lon="11.599913"><ele>297.66666666666663</ele><time>2026-04-04T11:36:22.349Z</time></trkpt><trkpt lat="43.2636002" lon="11.600027"><ele>298.0</ele><time>2026-04-04T11:36:23.349Z</time></trkpt><trkpt lat="43.2637296" lon="11.6002107"><ele>297.0</ele><time>2026-04-04T11:36:24.349Z</time></trkpt><trkpt lat="43.2638489" lon="11.6004295"><ele>296.0</ele><time>2026-04-04T11:36:25.35Z</time></trkpt><trkpt lat="43.2639715" lon="11.6006606"><ele>295.0</ele><time>2026-04-04T11:36:26.349Z</time></trkpt><trkpt lat="43.2641017" lon="11.6008925"><ele>295.0</ele><time>2026-04-04T11:36:27.348Z</time></trkpt><trkpt lat="43.2642329" lon="11.601119"><ele>295.0</ele><time>2026-04-04T11:36:28.35Z</time></trkpt><trkpt lat="43.2643663" lon="11.6013267"><ele>295.0</ele><time>2026-04-04T11:36:29.349Z</time></trkpt><trkpt lat="43.2645037" lon="11.6015109"><ele>294.66666666666663</ele><time>2026-04-04T11:36:30.35Z</time></trkpt><trkpt lat="43.2646521" lon="11.601664"><ele>294.3333333333333</ele><time>2026-04-04T11:36:31.35Z</time></trkpt><trkpt lat="43.264824" lon="11.601769"><ele>294.0</ele><time>2026-04-04T11:36:32.35Z</time></trkpt><trkpt lat="43.2650184" lon="11.6018311"><ele>294.0</ele><time>2026-04-04T11:36:33.35Z</time></trkpt><trkpt lat="43.2652274" lon="11.601879"><ele>294.0</ele><time>2026-04-04T11:36:34.349Z</time></trkpt><trkpt lat="43.2656689" lon="11.6020089"><ele>293.5</ele><time>2026-04-04T11:36:36.349Z</time></trkpt><trkpt lat="43.2660672" lon="11.6022326"><ele>293.0</ele><time>2026-04-04T11:36:38.35Z</time></trkpt><trkpt lat="43.2662513" lon="11.6023861"><ele>293.0</ele><time>2026-04-04T11:36:39.349Z</time></trkpt><trkpt lat="43.2664275" lon="11.6025588"><ele>293.0</ele><time>2026-04-04T11:36:40.349Z</time></trkpt><trkpt lat="43.2666031" lon="11.6027376"><ele>293.0</ele><time>2026-04-04T11:36:41.35Z</time></trkpt><trkpt lat="43.2667699" lon="11.6029092"><ele>292.6666666666667</ele><time>2026-04-04T11:36:42.349Z</time></trkpt><trkpt lat="43.2669284" lon="11.6030756"><ele>292.3333333333333</ele><time>2026-04-04T11:36:43.349Z</time></trkpt><trkpt lat="43.2670934" lon="11.6032239"><ele>292.0</ele><time>2026-04-04T11:36:44.349Z</time></trkpt><trkpt lat="43.2672844" lon="11.6033417"><ele>292.0</ele><time>2026-04-04T11:36:45.35Z</time></trkpt><trkpt lat="43.2674937" lon="11.6034261"><ele>292.0</ele><time>2026-04-04T11:36:46.35Z</time></trkpt><trkpt lat="43.2677123" lon="11.6034992"><ele>292.0</ele><time>2026-04-04T11:36:47.349Z</time></trkpt><trkpt lat="43.2679304" lon="11.6035932"><ele>294.0</ele><time>2026-04-04T11:36:48.349Z</time></trkpt><trkpt lat="43.2681451" lon="11.6037058"><ele>296.0</ele><time>2026-04-04T11:36:49.349Z</time></trkpt><trkpt lat="43.2683524" lon="11.6038364"><ele>296.0</ele><time>2026-04-04T11:36:50.35Z</time></trkpt><trkpt lat="43.2685535" lon="11.6039805"><ele>296.0</ele><time>2026-04-04T11:36:51.348Z</time></trkpt><trkpt lat="43.2687548" lon="11.6041236"><ele>295.5</ele><time>2026-04-04T11:36:52.349Z</time></trkpt><trkpt lat="43.2689559" lon="11.6042644"><ele>295.0</ele><time>2026-04-04T11:36:53.348Z</time></trkpt><trkpt lat="43.2691625" lon="11.6043883"><ele>295.0</ele><time>2026-04-04T11:36:54.349Z</time></trkpt><trkpt lat="43.2693809" lon="11.6044723"><ele>295.0</ele><time>2026-04-04T11:36:55.349Z</time></trkpt><trkpt lat="43.2696088" lon="11.6045113"><ele>296.0</ele><time>2026-04-04T11:36:56.349Z</time></trkpt><trkpt lat="43.2698382" lon="11.6045443"><ele>297.0</ele><time>2026-04-04T11:36:57.349Z</time></trkpt><trkpt lat="43.2700644" lon="11.6046079"><ele>297.0</ele><time>2026-04-04T11:36:58.35Z</time></trkpt><trkpt lat="43.2702825" lon="11.6047017"><ele>297.0</ele><time>2026-04-04T11:36:59.349Z</time></trkpt><trkpt lat="43.2704906" lon="11.60482"><ele>297.6666666666667</ele><time>2026-04-04T11:37:00.349Z</time></trkpt><trkpt lat="43.270697" lon="11.6049363"><ele>298.33333333333337</ele><time>2026-04-04T11:37:01.349Z</time></trkpt><trkpt lat="43.2709097" lon="11.605033"><ele>299.0</ele><time>2026-04-04T11:37:02.349Z</time></trkpt><trkpt lat="43.2711132" lon="11.6051224"><ele>299.0</ele><time>2026-04-04T11:37:03.349Z</time></trkpt><trkpt lat="43.2713047" lon="11.6051977"><ele>299.0</ele><time>2026-04-04T11:37:04.35Z</time></trkpt><trkpt lat="43.2714787" lon="11.605254"><ele>299.0</ele><time>2026-04-04T11:37:05.349Z</time></trkpt><trkpt lat="43.2716521" lon="11.6052864"><ele>300.33333333333337</ele><time>2026-04-04T11:37:06.349Z</time></trkpt><trkpt lat="43.2718439" lon="11.6052882"><ele>301.6666666666667</ele><time>2026-04-04T11:37:07.35Z</time></trkpt><trkpt lat="43.2720452" lon="11.6052635"><ele>303.0</ele><time>2026-04-04T11:37:08.349Z</time></trkpt><trkpt lat="43.2722559" lon="11.6052255"><ele>300.0</ele><time>2026-04-04T11:37:09.35Z</time></trkpt><trkpt lat="43.272476" lon="11.6051839"><ele>297.0</ele><time>2026-04-04T11:37:10.349Z</time></trkpt><trkpt lat="43.2727063" lon="11.6051405"><ele>297.0</ele><time>2026-04-04T11:37:11.348Z</time></trkpt><trkpt lat="43.2727994" lon="11.6051211"><ele>297.0</ele><time>2026-04-04T11:37:12.263Z</time></trkpt><trkpt lat="43.2730165" lon="11.6050828"><ele>297.0</ele><time>2026-04-04T11:37:13.179Z</time></trkpt><trkpt lat="43.273424" lon="11.6050132"><ele>295.0</ele><time>2026-04-04T11:37:14.35Z</time></trkpt><trkpt lat="43.2735171" lon="11.6049985"><ele>293.0</ele><time>2026-04-04T11:37:15.254Z</time></trkpt><trkpt lat="43.2739104" lon="11.6049223"><ele>292.0</ele><time>2026-04-04T11:37:16.348Z</time></trkpt><trkpt lat="43.2741573" lon="11.6048716"><ele>291.0</ele><time>2026-04-04T11:37:17.349Z</time></trkpt><trkpt lat="43.274406" lon="11.604819"><ele>291.0</ele><time>2026-04-04T11:37:18.348Z</time></trkpt><trkpt lat="43.2746545" lon="11.6047681"><ele>291.0</ele><time>2026-04-04T11:37:19.349Z</time></trkpt><trkpt lat="43.2749019" lon="11.6047159"><ele>291.5</ele><time>2026-04-04T11:37:20.348Z</time></trkpt><trkpt lat="43.2751406" lon="11.6046591"><ele>292.0</ele><time>2026-04-04T11:37:21.347Z</time></trkpt><trkpt lat="43.2753621" lon="11.6045994"><ele>292.0</ele><time>2026-04-04T11:37:22.348Z</time></trkpt><trkpt lat="43.2755554" lon="11.6045558"><ele>292.0</ele><time>2026-04-04T11:37:23.348Z</time></trkpt><trkpt lat="43.2757128" lon="11.6045413"><ele>292.0</ele><time>2026-04-04T11:37:24.349Z</time></trkpt><trkpt lat="43.2758664" lon="11.6045713"><ele>292.0</ele><time>2026-04-04T11:37:25.348Z</time></trkpt><trkpt lat="43.2760031" lon="11.6046633"><ele>292.0</ele><time>2026-04-04T11:37:26.348Z</time></trkpt><trkpt lat="43.2761055" lon="11.6048204"><ele>292.0</ele><time>2026-04-04T11:37:27.348Z</time></trkpt><trkpt lat="43.2761721" lon="11.6050293"><ele>292.0</ele><time>2026-04-04T11:37:28.349Z</time></trkpt><trkpt lat="43.2762276" lon="11.6052674"><ele>292.0</ele><time>2026-04-04T11:37:29.349Z</time></trkpt><trkpt lat="43.2762826" lon="11.6055181"><ele>292.0</ele><time>2026-04-04T11:37:30.348Z</time></trkpt><trkpt lat="43.2763341" lon="11.6057716"><ele>294.3333333333333</ele><time>2026-04-04T11:37:31.348Z</time></trkpt><trkpt lat="43.2764038" lon="11.6060119"><ele>296.6666666666667</ele><time>2026-04-04T11:37:32.347Z</time></trkpt><trkpt lat="43.2765013" lon="11.6062442"><ele>299.0</ele><time>2026-04-04T11:37:33.348Z</time></trkpt><trkpt lat="43.2766283" lon="11.6064529"><ele>301.33333333333337</ele><time>2026-04-04T11:37:34.348Z</time></trkpt><trkpt lat="43.2767737" lon="11.6066465"><ele>303.6666666666667</ele><time>2026-04-04T11:37:35.347Z</time></trkpt><trkpt lat="43.2769217" lon="11.6068435"><ele>306.0</ele><time>2026-04-04T11:37:36.348Z</time></trkpt><trkpt lat="43.2770696" lon="11.6070405"><ele>308.0</ele><time>2026-04-04T11:37:37.348Z</time></trkpt><trkpt lat="43.2772106" lon="11.6072192"><ele>310.0</ele><time>2026-04-04T11:37:38.349Z</time></trkpt><trkpt lat="43.2773451" lon="11.607374"><ele>312.0</ele><time>2026-04-04T11:37:39.348Z</time></trkpt><trkpt lat="43.2774832" lon="11.6074805"><ele>312.3333333333333</ele><time>2026-04-04T11:37:40.349Z</time></trkpt><trkpt lat="43.2776272" lon="11.6075246"><ele>312.66666666666663</ele><time>2026-04-04T11:37:41.349Z</time></trkpt><trkpt lat="43.2777889" lon="11.6075143"><ele>313.0</ele><time>2026-04-04T11:37:42.349Z</time></trkpt><trkpt lat="43.2779532" lon="11.6074316"><ele>312.66666666666663</ele><time>2026-04-04T11:37:43.348Z</time></trkpt><trkpt lat="43.2781121" lon="11.6072936"><ele>312.3333333333333</ele><time>2026-04-04T11:37:44.348Z</time></trkpt><trkpt lat="43.2782742" lon="11.6071397"><ele>312.0</ele><time>2026-04-04T11:37:45.348Z</time></trkpt><trkpt lat="43.2784417" lon="11.6069878"><ele>312.0</ele><time>2026-04-04T11:37:46.347Z</time></trkpt><trkpt lat="43.2786089" lon="11.606839"><ele>312.0</ele><time>2026-04-04T11:37:47.348Z</time></trkpt><trkpt lat="43.2787651" lon="11.6067004"><ele>312.0</ele><time>2026-04-04T11:37:48.348Z</time></trkpt><trkpt lat="43.2789009" lon="11.6065526"><ele>313.0</ele><time>2026-04-04T11:37:49.348Z</time></trkpt><trkpt lat="43.279012" lon="11.6063912"><ele>314.0</ele><time>2026-04-04T11:37:50.348Z</time></trkpt><trkpt lat="43.2791065" lon="11.6062336"><ele>315.0</ele><time>2026-04-04T11:37:51.348Z</time></trkpt><trkpt lat="43.2791945" lon="11.606095"><ele>316.0</ele><time>2026-04-04T11:37:52.348Z</time></trkpt><trkpt lat="43.2792986" lon="11.6059981"><ele>316.0</ele><time>2026-04-04T11:37:53.349Z</time></trkpt><trkpt lat="43.2794104" lon="11.6059383"><ele>316.0</ele><time>2026-04-04T11:37:54.348Z</time></trkpt><trkpt lat="43.279527" lon="11.6059203"><ele>316.0</ele><time>2026-04-04T11:37:55.347Z</time></trkpt><trkpt lat="43.2796509" lon="11.6059298"><ele>316.0</ele><time>2026-04-04T11:37:56.349Z</time></trkpt><trkpt lat="43.2797893" lon="11.6059443"><ele>315.3333333333333</ele><time>2026-04-04T11:37:57.349Z</time></trkpt><trkpt lat="43.2799407" lon="11.6059595"><ele>314.6666666666667</ele><time>2026-04-04T11:37:58.348Z</time></trkpt><trkpt lat="43.2801005" lon="11.6059707"><ele>314.0</ele><time>2026-04-04T11:37:59.348Z</time></trkpt><trkpt lat="43.280264" lon="11.6059828"><ele>314.0</ele><time>2026-04-04T11:38:00.348Z</time></trkpt><trkpt lat="43.2804315" lon="11.6059932"><ele>314.0</ele><time>2026-04-04T11:38:01.348Z</time></trkpt><trkpt lat="43.2805985" lon="11.6059904"><ele>314.0</ele><time>2026-04-04T11:38:02.348Z</time></trkpt><trkpt lat="43.280764" lon="11.6059693"><ele>314.0</ele><time>2026-04-04T11:38:03.348Z</time></trkpt><trkpt lat="43.2809283" lon="11.6059285"><ele>314.0</ele><time>2026-04-04T11:38:04.348Z</time></trkpt><trkpt lat="43.2810906" lon="11.6058772"><ele>314.0</ele><time>2026-04-04T11:38:05.349Z</time></trkpt><trkpt lat="43.2812522" lon="11.60583"><ele>314.0</ele><time>2026-04-04T11:38:06.349Z</time></trkpt><trkpt lat="43.2814116" lon="11.6057873"><ele>314.0</ele><time>2026-04-04T11:38:07.347Z</time></trkpt><trkpt lat="43.2815662" lon="11.6057527"><ele>314.0</ele><time>2026-04-04T11:38:08.349Z</time></trkpt><trkpt lat="43.2817148" lon="11.6057219"><ele>315.0</ele><time>2026-04-04T11:38:09.348Z</time></trkpt><trkpt lat="43.2818581" lon="11.6056777"><ele>316.0</ele><time>2026-04-04T11:38:10.348Z</time></trkpt><trkpt lat="43.2819966" lon="11.6056096"><ele>317.0</ele><time>2026-04-04T11:38:11.348Z</time></trkpt><trkpt lat="43.2821269" lon="11.6055179"><ele>318.0</ele><time>2026-04-04T11:38:12.347Z</time></trkpt><trkpt lat="43.2822511" lon="11.6054099"><ele>317.75</ele><time>2026-04-04T11:38:13.349Z</time></trkpt><trkpt lat="43.2823702" lon="11.6053127"><ele>317.5</ele><time>2026-04-04T11:38:14.348Z</time></trkpt><trkpt lat="43.2824863" lon="11.6052365"><ele>317.25</ele><time>2026-04-04T11:38:15.348Z</time></trkpt><trkpt lat="43.2825986" lon="11.6051823"><ele>317.0</ele><time>2026-04-04T11:38:16.348Z</time></trkpt><trkpt lat="43.2826919" lon="11.605185"><ele>317.0</ele><time>2026-04-04T11:38:17.347Z</time></trkpt><trkpt lat="43.2827826" lon="11.6052199"><ele>317.0</ele><time>2026-04-04T11:38:18.348Z</time></trkpt><trkpt lat="43.282858" lon="11.6052742"><ele>317.0</ele><time>2026-04-04T11:38:19.349Z</time></trkpt><trkpt lat="43.2829308" lon="11.6053217"><ele>317.0</ele><time>2026-04-04T11:38:20.348Z</time></trkpt><trkpt lat="43.283002" lon="11.6053547"><ele>317.0</ele><time>2026-04-04T11:38:21.349Z</time></trkpt><trkpt lat="43.2830787" lon="11.6053645"><ele>317.0</ele><time>2026-04-04T11:38:22.349Z</time></trkpt><trkpt lat="43.2831689" lon="11.6053477"><ele>316.75</ele><time>2026-04-04T11:38:23.349Z</time></trkpt><trkpt lat="43.2832656" lon="11.6053066"><ele>316.5</ele><time>2026-04-04T11:38:24.348Z</time></trkpt><trkpt lat="43.283372" lon="11.6052603"><ele>316.25</ele><time>2026-04-04T11:38:25.348Z</time></trkpt><trkpt lat="43.2834893" lon="11.6052219"><ele>316.0</ele><time>2026-04-04T11:38:26.348Z</time></trkpt><trkpt lat="43.2836164" lon="11.6051986"><ele>316.0</ele><time>2026-04-04T11:38:27.348Z</time></trkpt><trkpt lat="43.2837489" lon="11.6051676"><ele>316.0</ele><time>2026-04-04T11:38:28.349Z</time></trkpt><trkpt lat="43.2838795" lon="11.6051268"><ele>316.0</ele><time>2026-04-04T11:38:29.347Z</time></trkpt><trkpt lat="43.2840062" lon="11.6050885"><ele>316.0</ele><time>2026-04-04T11:38:30.348Z</time></trkpt><trkpt lat="43.2841263" lon="11.6050497"><ele>315.75</ele><time>2026-04-04T11:38:31.348Z</time></trkpt><trkpt lat="43.284249" lon="11.6050094"><ele>315.5</ele><time>2026-04-04T11:38:32.348Z</time></trkpt><trkpt lat="43.2843723" lon="11.6049668"><ele>315.25</ele><time>2026-04-04T11:38:33.349Z</time></trkpt><trkpt lat="43.2844959" lon="11.6049233"><ele>315.0</ele><time>2026-04-04T11:38:34.349Z</time></trkpt><trkpt lat="43.2846202" lon="11.6048822"><ele>315.0</ele><time>2026-04-04T11:38:35.348Z</time></trkpt><trkpt lat="43.2847366" lon="11.6048433"><ele>315.0</ele><time>2026-04-04T11:38:36.349Z</time></trkpt><trkpt lat="43.2848525" lon="11.6047968"><ele>315.0</ele><time>2026-04-04T11:38:37.349Z</time></trkpt><trkpt lat="43.2849788" lon="11.6047504"><ele>315.0</ele><time>2026-04-04T11:38:38.349Z</time></trkpt><trkpt lat="43.2851201" lon="11.6047124"><ele>315.0</ele><time>2026-04-04T11:38:39.348Z</time></trkpt><trkpt lat="43.2852519" lon="11.604676"><ele>315.0</ele><time>2026-04-04T11:38:40.348Z</time></trkpt><trkpt lat="43.2853795" lon="11.6046351"><ele>315.0</ele><time>2026-04-04T11:38:41.347Z</time></trkpt><trkpt lat="43.2854955" lon="11.6046"><ele>315.0</ele><time>2026-04-04T11:38:42.348Z</time></trkpt><trkpt lat="43.285605" lon="11.6045692"><ele>315.0</ele><time>2026-04-04T11:38:43.349Z</time></trkpt><trkpt lat="43.2857086" lon="11.6045286"><ele>315.0</ele><time>2026-04-04T11:38:44.349Z</time></trkpt><trkpt lat="43.2858323" lon="11.6044647"><ele>315.0</ele><time>2026-04-04T11:38:45.349Z</time></trkpt><trkpt lat="43.2859722" lon="11.6044165"><ele>315.0</ele><time>2026-04-04T11:38:46.349Z</time></trkpt><trkpt lat="43.2861113" lon="11.6043825"><ele>314.75</ele><time>2026-04-04T11:38:47.349Z</time></trkpt><trkpt lat="43.2862454" lon="11.604357"><ele>314.5</ele><time>2026-04-04T11:38:48.349Z</time></trkpt><trkpt lat="43.2863782" lon="11.6043495"><ele>314.25</ele><time>2026-04-04T11:38:49.347Z</time></trkpt><trkpt lat="43.2865217" lon="11.604355"><ele>314.0</ele><time>2026-04-04T11:38:50.348Z</time></trkpt><trkpt lat="43.286666" lon="11.6043729"><ele>315.25</ele><time>2026-04-04T11:38:51.348Z</time></trkpt><trkpt lat="43.2868025" lon="11.604404"><ele>316.5</ele><time>2026-04-04T11:38:52.348Z</time></trkpt><trkpt lat="43.2869306" lon="11.6044462"><ele>317.75</ele><time>2026-04-04T11:38:53.348Z</time></trkpt><trkpt lat="43.2870466" lon="11.6044949"><ele>319.0</ele><time>2026-04-04T11:38:54.349Z</time></trkpt><trkpt lat="43.2871548" lon="11.6045362"><ele>320.5</ele><time>2026-04-04T11:38:55.348Z</time></trkpt><trkpt lat="43.2872722" lon="11.6045552"><ele>322.0</ele><time>2026-04-04T11:38:56.348Z</time></trkpt><trkpt lat="43.2873997" lon="11.6045521"><ele>323.5</ele><time>2026-04-04T11:38:57.349Z</time></trkpt><trkpt lat="43.2875356" lon="11.604536"><ele>325.0</ele><time>2026-04-04T11:38:58.349Z</time></trkpt><trkpt lat="43.2876775" lon="11.6045077"><ele>325.0</ele><time>2026-04-04T11:38:59.349Z</time></trkpt><trkpt lat="43.2878279" lon="11.6044929"><ele>325.0</ele><time>2026-04-04T11:39:00.348Z</time></trkpt><trkpt lat="43.2879828" lon="11.6045058"><ele>325.0</ele><time>2026-04-04T11:39:01.348Z</time></trkpt><trkpt lat="43.2881309" lon="11.6045194"><ele>324.4</ele><time>2026-04-04T11:39:02.348Z</time></trkpt><trkpt lat="43.2882627" lon="11.6045323"><ele>323.8</ele><time>2026-04-04T11:39:03.348Z</time></trkpt><trkpt lat="43.28837" lon="11.6045467"><ele>323.20000000000005</ele><time>2026-04-04T11:39:04.348Z</time></trkpt><trkpt lat="43.288477" lon="11.6045649"><ele>322.6</ele><time>2026-04-04T11:39:05.349Z</time></trkpt><trkpt lat="43.2885708" lon="11.6045746"><ele>322.0</ele><time>2026-04-04T11:39:06.348Z</time></trkpt><trkpt lat="43.2886551" lon="11.6045763"><ele>322.0</ele><time>2026-04-04T11:39:07.348Z</time></trkpt><trkpt lat="43.2887533" lon="11.6045802"><ele>322.0</ele><time>2026-04-04T11:39:08.349Z</time></trkpt><trkpt lat="43.2888808" lon="11.6046164"><ele>322.0</ele><time>2026-04-04T11:39:09.348Z</time></trkpt><trkpt lat="43.2890254" lon="11.6046659"><ele>322.0</ele><time>2026-04-04T11:39:10.348Z</time></trkpt><trkpt lat="43.2891644" lon="11.6046867"><ele>321.75</ele><time>2026-04-04T11:39:11.348Z</time></trkpt><trkpt lat="43.2893003" lon="11.6047105"><ele>321.5</ele><time>2026-04-04T11:39:12.348Z</time></trkpt><trkpt lat="43.2894266" lon="11.6047398"><ele>321.25</ele><time>2026-04-04T11:39:13.348Z</time></trkpt><trkpt lat="43.289528" lon="11.6047797"><ele>321.0</ele><time>2026-04-04T11:39:14.348Z</time></trkpt><trkpt lat="43.2896295" lon="11.6048321"><ele>321.0</ele><time>2026-04-04T11:39:15.349Z</time></trkpt><trkpt lat="43.2897496" lon="11.6048708"><ele>321.0</ele><time>2026-04-04T11:39:16.348Z</time></trkpt><trkpt lat="43.2898841" lon="11.6048879"><ele>321.0</ele><time>2026-04-04T11:39:17.349Z</time></trkpt><trkpt lat="43.2900305" lon="11.6048938"><ele>321.0</ele><time>2026-04-04T11:39:18.349Z</time></trkpt><trkpt lat="43.2901798" lon="11.6048702"><ele>318.6666666666667</ele><time>2026-04-04T11:39:19.349Z</time></trkpt><trkpt lat="43.290332" lon="11.6048315"><ele>316.33333333333337</ele><time>2026-04-04T11:39:20.349Z</time></trkpt><trkpt lat="43.2904822" lon="11.6047768"><ele>314.0</ele><time>2026-04-04T11:39:21.349Z</time></trkpt><trkpt lat="43.2906294" lon="11.6047209"><ele>311.33333333333337</ele><time>2026-04-04T11:39:22.349Z</time></trkpt><trkpt lat="43.2907778" lon="11.6046676"><ele>308.6666666666667</ele><time>2026-04-04T11:39:23.348Z</time></trkpt><trkpt lat="43.2909268" lon="11.6046108"><ele>306.0</ele><time>2026-04-04T11:39:24.348Z</time></trkpt><trkpt lat="43.291074" lon="11.6045556"><ele>306.0</ele><time>2026-04-04T11:39:25.348Z</time></trkpt><trkpt lat="43.2912156" lon="11.6045014"><ele>306.0</ele><time>2026-04-04T11:39:26.348Z</time></trkpt><trkpt lat="43.2913535" lon="11.604452"><ele>306.0</ele><time>2026-04-04T11:39:27.348Z</time></trkpt><trkpt lat="43.2914887" lon="11.604396"><ele>306.0</ele><time>2026-04-04T11:39:28.347Z</time></trkpt><trkpt lat="43.2916218" lon="11.604344"><ele>306.0</ele><time>2026-04-04T11:39:29.348Z</time></trkpt><trkpt lat="43.2917705" lon="11.6042848"><ele>306.0</ele><time>2026-04-04T11:39:30.347Z</time></trkpt><trkpt lat="43.2919094" lon="11.6042314"><ele>306.0</ele><time>2026-04-04T11:39:31.348Z</time></trkpt><trkpt lat="43.2920445" lon="11.6041784"><ele>306.0</ele><time>2026-04-04T11:39:32.349Z</time></trkpt><trkpt lat="43.2921818" lon="11.6041224"><ele>306.0</ele><time>2026-04-04T11:39:33.348Z</time></trkpt><trkpt lat="43.2923159" lon="11.6040697"><ele>306.0</ele><time>2026-04-04T11:39:34.348Z</time></trkpt><trkpt lat="43.2924516" lon="11.6040153"><ele>306.0</ele><time>2026-04-04T11:39:35.349Z</time></trkpt><trkpt lat="43.2925905" lon="11.6039651"><ele>306.0</ele><time>2026-04-04T11:39:36.349Z</time></trkpt><trkpt lat="43.2927297" lon="11.6039144"><ele>306.0</ele><time>2026-04-04T11:39:37.347Z</time></trkpt><trkpt lat="43.2928684" lon="11.6038642"><ele>306.0</ele><time>2026-04-04T11:39:38.348Z</time></trkpt><trkpt lat="43.2930044" lon="11.60381"><ele>306.0</ele><time>2026-04-04T11:39:39.349Z</time></trkpt><trkpt lat="43.2931356" lon="11.6037527"><ele>306.0</ele><time>2026-04-04T11:39:40.347Z</time></trkpt><trkpt lat="43.2932586" lon="11.6037025"><ele>305.25</ele><time>2026-04-04T11:39:41.349Z</time></trkpt><trkpt lat="43.2933676" lon="11.6036338"><ele>304.5</ele><time>2026-04-04T11:39:42.348Z</time></trkpt><trkpt lat="43.2934755" lon="11.6035361"><ele>303.75</ele><time>2026-04-04T11:39:43.348Z</time></trkpt><trkpt lat="43.2935845" lon="11.6034009"><ele>303.0</ele><time>2026-04-04T11:39:44.348Z</time></trkpt><trkpt lat="43.2936807" lon="11.6032324"><ele>303.0</ele><time>2026-04-04T11:39:45.349Z</time></trkpt><trkpt lat="43.2937664" lon="11.6030513"><ele>303.0</ele><time>2026-04-04T11:39:46.348Z</time></trkpt><trkpt lat="43.293845" lon="11.602864"><ele>303.0</ele><time>2026-04-04T11:39:47.348Z</time></trkpt><trkpt lat="43.2939247" lon="11.6026788"><ele>302.6666666666667</ele><time>2026-04-04T11:39:48.349Z</time></trkpt><trkpt lat="43.2940034" lon="11.6024966"><ele>302.33333333333337</ele><time>2026-04-04T11:39:49.347Z</time></trkpt><trkpt lat="43.2940808" lon="11.6023206"><ele>302.0</ele><time>2026-04-04T11:39:50.348Z</time></trkpt><trkpt lat="43.2941552" lon="11.6021458"><ele>301.6666666666667</ele><time>2026-04-04T11:39:51.348Z</time></trkpt><trkpt lat="43.2942309" lon="11.6019694"><ele>301.3333333333333</ele><time>2026-04-04T11:39:52.349Z</time></trkpt><trkpt lat="43.2943194" lon="11.6018015"><ele>301.0</ele><time>2026-04-04T11:39:53.347Z</time></trkpt><trkpt lat="43.2944236" lon="11.6016259"><ele>301.0</ele><time>2026-04-04T11:39:54.348Z</time></trkpt><trkpt lat="43.294537" lon="11.6014576"><ele>301.0</ele><time>2026-04-04T11:39:55.348Z</time></trkpt><trkpt lat="43.2946554" lon="11.6012892"><ele>301.0</ele><time>2026-04-04T11:39:56.348Z</time></trkpt><trkpt lat="43.294771" lon="11.601121"><ele>299.66666666666663</ele><time>2026-04-04T11:39:57.349Z</time></trkpt><trkpt lat="43.294888" lon="11.6009565"><ele>298.3333333333333</ele><time>2026-04-04T11:39:58.349Z</time></trkpt><trkpt lat="43.2950032" lon="11.6007928"><ele>297.0</ele><time>2026-04-04T11:39:59.348Z</time></trkpt><trkpt lat="43.2951158" lon="11.6006308"><ele>297.0</ele><time>2026-04-04T11:40:00.347Z</time></trkpt><trkpt lat="43.2952268" lon="11.6004722"><ele>297.0</ele><time>2026-04-04T11:40:01.348Z</time></trkpt><trkpt lat="43.2953326" lon="11.6003083"><ele>297.0</ele><time>2026-04-04T11:40:02.348Z</time></trkpt><trkpt lat="43.2954363" lon="11.6001469"><ele>297.0</ele><time>2026-04-04T11:40:03.348Z</time></trkpt><trkpt lat="43.2955385" lon="11.5999899"><ele>297.0</ele><time>2026-04-04T11:40:04.349Z</time></trkpt><trkpt lat="43.2956436" lon="11.5998335"><ele>297.0</ele><time>2026-04-04T11:40:05.347Z</time></trkpt><trkpt lat="43.2957597" lon="11.5996586"><ele>295.6666666666667</ele><time>2026-04-04T11:40:06.348Z</time></trkpt><trkpt lat="43.2958815" lon="11.5994761"><ele>294.33333333333337</ele><time>2026-04-04T11:40:07.348Z</time></trkpt><trkpt lat="43.2960041" lon="11.5992984"><ele>293.0</ele><time>2026-04-04T11:40:08.349Z</time></trkpt><trkpt lat="43.2961267" lon="11.5991175"><ele>293.0</ele><time>2026-04-04T11:40:09.349Z</time></trkpt><trkpt lat="43.2962549" lon="11.5989312"><ele>293.0</ele><time>2026-04-04T11:40:10.348Z</time></trkpt><trkpt lat="43.2963832" lon="11.5987434"><ele>293.0</ele><time>2026-04-04T11:40:11.347Z</time></trkpt><trkpt lat="43.2965046" lon="11.5985625"><ele>292.0</ele><time>2026-04-04T11:40:12.348Z</time></trkpt><trkpt lat="43.2966268" lon="11.5983775"><ele>291.0</ele><time>2026-04-04T11:40:13.348Z</time></trkpt><trkpt lat="43.296749" lon="11.5981934"><ele>290.0</ele><time>2026-04-04T11:40:14.348Z</time></trkpt><trkpt lat="43.2968747" lon="11.5980122"><ele>290.0</ele><time>2026-04-04T11:40:15.349Z</time></trkpt><trkpt lat="43.2970038" lon="11.597836"><ele>290.0</ele><time>2026-04-04T11:40:16.349Z</time></trkpt><trkpt lat="43.297143" lon="11.5976811"><ele>290.0</ele><time>2026-04-04T11:40:17.348Z</time></trkpt><trkpt lat="43.2972904" lon="11.5975583"><ele>288.6666666666667</ele><time>2026-04-04T11:40:18.349Z</time></trkpt><trkpt lat="43.297448" lon="11.5974633"><ele>287.3333333333333</ele><time>2026-04-04T11:40:19.348Z</time></trkpt><trkpt lat="43.2976151" lon="11.5973961"><ele>286.0</ele><time>2026-04-04T11:40:20.349Z</time></trkpt><trkpt lat="43.2977926" lon="11.5973544"><ele>286.0</ele><time>2026-04-04T11:40:21.349Z</time></trkpt><trkpt lat="43.297968" lon="11.5973526"><ele>286.0</ele><time>2026-04-04T11:40:22.348Z</time></trkpt><trkpt lat="43.2981423" lon="11.5973828"><ele>286.0</ele><time>2026-04-04T11:40:23.347Z</time></trkpt><trkpt lat="43.2983093" lon="11.597443"><ele>283.66666666666663</ele><time>2026-04-04T11:40:24.348Z</time></trkpt><trkpt lat="43.2984665" lon="11.5975356"><ele>281.3333333333333</ele><time>2026-04-04T11:40:25.348Z</time></trkpt><trkpt lat="43.2986055" lon="11.597649"><ele>279.0</ele><time>2026-04-04T11:40:26.348Z</time></trkpt><trkpt lat="43.2987212" lon="11.5977812"><ele>278.75</ele><time>2026-04-04T11:40:27.348Z</time></trkpt><trkpt lat="43.2988134" lon="11.597913"><ele>278.5</ele><time>2026-04-04T11:40:28.348Z</time></trkpt><trkpt lat="43.2988992" lon="11.5980377"><ele>278.25</ele><time>2026-04-04T11:40:29.348Z</time></trkpt><trkpt lat="43.298992" lon="11.5981285"><ele>278.0</ele><time>2026-04-04T11:40:30.347Z</time></trkpt><trkpt lat="43.2990869" lon="11.5981996"><ele>278.0</ele><time>2026-04-04T11:40:31.348Z</time></trkpt><trkpt lat="43.2991684" lon="11.5982607"><ele>278.0</ele><time>2026-04-04T11:40:32.348Z</time></trkpt><trkpt lat="43.2992227" lon="11.5983162"><ele>278.0</ele><time>2026-04-04T11:40:33.347Z</time></trkpt><trkpt lat="43.2993301" lon="11.5983635"><ele>278.0</ele><time>2026-04-04T11:40:35.348Z</time></trkpt><trkpt lat="43.299408" lon="11.5983257"><ele>278.0</ele><time>2026-04-04T11:40:36.349Z</time></trkpt><trkpt lat="43.2994868" lon="11.5982373"><ele>278.0</ele><time>2026-04-04T11:40:37.348Z</time></trkpt><trkpt lat="43.2995718" lon="11.5980962"><ele>278.0</ele><time>2026-04-04T11:40:38.348Z</time></trkpt><trkpt lat="43.2996637" lon="11.5979345"><ele>278.0</ele><time>2026-04-04T11:40:39.348Z</time></trkpt><trkpt lat="43.2997591" lon="11.5978026"><ele>278.0</ele><time>2026-04-04T11:40:40.349Z</time></trkpt><trkpt lat="43.2998684" lon="11.5976815"><ele>275.33333333333337</ele><time>2026-04-04T11:40:41.348Z</time></trkpt><trkpt lat="43.3000005" lon="11.5975839"><ele>272.6666666666667</ele><time>2026-04-04T11:40:42.349Z</time></trkpt><trkpt lat="43.3001534" lon="11.5975224"><ele>270.0</ele><time>2026-04-04T11:40:43.348Z</time></trkpt><trkpt lat="43.3003224" lon="11.5974857"><ele>270.0</ele><time>2026-04-04T11:40:44.349Z</time></trkpt><trkpt lat="43.3004983" lon="11.597455"><ele>270.0</ele><time>2026-04-04T11:40:45.348Z</time></trkpt><trkpt lat="43.3006766" lon="11.5974255"><ele>270.0</ele><time>2026-04-04T11:40:46.349Z</time></trkpt><trkpt lat="43.3008573" lon="11.5973969"><ele>269.6666666666667</ele><time>2026-04-04T11:40:47.348Z</time></trkpt><trkpt lat="43.3010411" lon="11.597369"><ele>269.33333333333337</ele><time>2026-04-04T11:40:48.349Z</time></trkpt><trkpt lat="43.3012265" lon="11.5973399"><ele>269.0</ele><time>2026-04-04T11:40:49.348Z</time></trkpt><trkpt lat="43.301409" lon="11.5973079"><ele>266.6666666666667</ele><time>2026-04-04T11:40:50.348Z</time></trkpt><trkpt lat="43.3015838" lon="11.5972807"><ele>264.3333333333333</ele><time>2026-04-04T11:40:51.347Z</time></trkpt><trkpt lat="43.3017536" lon="11.5972529"><ele>262.0</ele><time>2026-04-04T11:40:52.349Z</time></trkpt><trkpt lat="43.3019164" lon="11.5972197"><ele>262.0</ele><time>2026-04-04T11:40:53.348Z</time></trkpt><trkpt lat="43.3020687" lon="11.5971701"><ele>262.0</ele><time>2026-04-04T11:40:54.348Z</time></trkpt><trkpt lat="43.3021963" lon="11.5970941"><ele>262.0</ele><time>2026-04-04T11:40:55.349Z</time></trkpt><trkpt lat="43.3023167" lon="11.5969784"><ele>262.0</ele><time>2026-04-04T11:40:56.348Z</time></trkpt><trkpt lat="43.3024329" lon="11.5968376"><ele>259.0</ele><time>2026-04-04T11:40:57.348Z</time></trkpt><trkpt lat="43.3025507" lon="11.5966725"><ele>256.0</ele><time>2026-04-04T11:40:58.348Z</time></trkpt><trkpt lat="43.3026701" lon="11.5964793"><ele>253.0</ele><time>2026-04-04T11:40:59.348Z</time></trkpt><trkpt lat="43.3027852" lon="11.596282"><ele>252.33333333333331</ele><time>2026-04-04T11:41:00.348Z</time></trkpt><trkpt lat="43.3029005" lon="11.5960806"><ele>251.66666666666669</ele><time>2026-04-04T11:41:01.349Z</time></trkpt><trkpt lat="43.303008" lon="11.595888"><ele>251.0</ele><time>2026-04-04T11:41:02.349Z</time></trkpt><trkpt lat="43.3031015" lon="11.5957074"><ele>251.0</ele><time>2026-04-04T11:41:03.348Z</time></trkpt><trkpt lat="43.303181" lon="11.595532"><ele>251.0</ele><time>2026-04-04T11:41:04.348Z</time></trkpt><trkpt lat="43.3032391" lon="11.5953559"><ele>251.0</ele><time>2026-04-04T11:41:05.349Z</time></trkpt><trkpt lat="43.3032704" lon="11.5951728"><ele>251.0</ele><time>2026-04-04T11:41:06.349Z</time></trkpt><trkpt lat="43.303287" lon="11.5949699"><ele>249.66666666666669</ele><time>2026-04-04T11:41:07.349Z</time></trkpt><trkpt lat="43.3032822" lon="11.5947481"><ele>248.33333333333331</ele><time>2026-04-04T11:41:08.348Z</time></trkpt><trkpt lat="43.3032651" lon="11.5945079"><ele>247.0</ele><time>2026-04-04T11:41:09.348Z</time></trkpt><trkpt lat="43.3032431" lon="11.5942586"><ele>246.33333333333331</ele><time>2026-04-04T11:41:10.348Z</time></trkpt><trkpt lat="43.3032224" lon="11.5940187"><ele>245.66666666666669</ele><time>2026-04-04T11:41:11.348Z</time></trkpt><trkpt lat="43.3031806" lon="11.5937885"><ele>245.0</ele><time>2026-04-04T11:41:12.348Z</time></trkpt><trkpt lat="43.3031101" lon="11.5935732"><ele>241.0</ele><time>2026-04-04T11:41:13.349Z</time></trkpt><trkpt lat="43.303013" lon="11.5933851"><ele>237.0</ele><time>2026-04-04T11:41:14.349Z</time></trkpt><trkpt lat="43.3029176" lon="11.5932033"><ele>233.0</ele><time>2026-04-04T11:41:15.348Z</time></trkpt><trkpt lat="43.3028438" lon="11.593012"><ele>232.33333333333334</ele><time>2026-04-04T11:41:16.348Z</time></trkpt><trkpt lat="43.3028008" lon="11.5928121"><ele>231.66666666666669</ele><time>2026-04-04T11:41:17.349Z</time></trkpt><trkpt lat="43.3027931" lon="11.5925876"><ele>231.0</ele><time>2026-04-04T11:41:18.348Z</time></trkpt><trkpt lat="43.3028041" lon="11.5923452"><ele>231.0</ele><time>2026-04-04T11:41:19.349Z</time></trkpt><trkpt lat="43.3028073" lon="11.5920967"><ele>231.0</ele><time>2026-04-04T11:41:20.349Z</time></trkpt><trkpt lat="43.3027904" lon="11.5918399"><ele>231.0</ele><time>2026-04-04T11:41:21.348Z</time></trkpt><trkpt lat="43.3027474" lon="11.5915828"><ele>231.0</ele><time>2026-04-04T11:41:22.349Z</time></trkpt><trkpt lat="43.3026806" lon="11.5913306"><ele>231.0</ele><time>2026-04-04T11:41:23.348Z</time></trkpt><trkpt lat="43.302581" lon="11.5910931"><ele>231.0</ele><time>2026-04-04T11:41:24.348Z</time></trkpt><trkpt lat="43.3024677" lon="11.5908824"><ele>231.0</ele><time>2026-04-04T11:41:25.349Z</time></trkpt><trkpt lat="43.3023581" lon="11.5906736"><ele>231.0</ele><time>2026-04-04T11:41:26.348Z</time></trkpt><trkpt lat="43.3022563" lon="11.5904477"><ele>231.0</ele><time>2026-04-04T11:41:27.348Z</time></trkpt><trkpt lat="43.3021749" lon="11.5901968"><ele>227.0</ele><time>2026-04-04T11:41:28.349Z</time></trkpt><trkpt lat="43.3021146" lon="11.5899385"><ele>223.0</ele><time>2026-04-04T11:41:29.349Z</time></trkpt><trkpt lat="43.3020792" lon="11.5896742"><ele>219.0</ele><time>2026-04-04T11:41:30.348Z</time></trkpt><trkpt lat="43.3020687" lon="11.5894166"><ele>218.0</ele><time>2026-04-04T11:41:31.348Z</time></trkpt><trkpt lat="43.3020894" lon="11.5891816"><ele>217.0</ele><time>2026-04-04T11:41:32.348Z</time></trkpt><trkpt lat="43.3021505" lon="11.5889578"><ele>216.0</ele><time>2026-04-04T11:41:33.347Z</time></trkpt><trkpt lat="43.3022492" lon="11.5887574"><ele>216.66666666666669</ele><time>2026-04-04T11:41:34.349Z</time></trkpt><trkpt lat="43.30238" lon="11.5885838"><ele>217.33333333333334</ele><time>2026-04-04T11:41:35.348Z</time></trkpt><trkpt lat="43.3025302" lon="11.5884238"><ele>218.0</ele><time>2026-04-04T11:41:36.348Z</time></trkpt><trkpt lat="43.3026765" lon="11.588271"><ele>218.0</ele><time>2026-04-04T11:41:37.347Z</time></trkpt><trkpt lat="43.3028147" lon="11.5881417"><ele>218.0</ele><time>2026-04-04T11:41:38.348Z</time></trkpt><trkpt lat="43.3029463" lon="11.588041"><ele>218.0</ele><time>2026-04-04T11:41:39.348Z</time></trkpt><trkpt lat="43.3030818" lon="11.5879637"><ele>217.75</ele><time>2026-04-04T11:41:40.348Z</time></trkpt><trkpt lat="43.3032177" lon="11.587923"><ele>217.5</ele><time>2026-04-04T11:41:41.349Z</time></trkpt><trkpt lat="43.3033576" lon="11.5879196"><ele>217.25</ele><time>2026-04-04T11:41:42.347Z</time></trkpt><trkpt lat="43.3035087" lon="11.5879434"><ele>217.0</ele><time>2026-04-04T11:41:43.349Z</time></trkpt><trkpt lat="43.3036702" lon="11.5879687"><ele>217.0</ele><time>2026-04-04T11:41:44.348Z</time></trkpt><trkpt lat="43.3038467" lon="11.5879687"><ele>217.0</ele><time>2026-04-04T11:41:45.349Z</time></trkpt><trkpt lat="43.3040379" lon="11.5879506"><ele>217.0</ele><time>2026-04-04T11:41:46.349Z</time></trkpt><trkpt lat="43.3042386" lon="11.5879295"><ele>215.66666666666666</ele><time>2026-04-04T11:41:47.348Z</time></trkpt><trkpt lat="43.304447" lon="11.5879101"><ele>214.33333333333331</ele><time>2026-04-04T11:41:48.348Z</time></trkpt><trkpt lat="43.3046504" lon="11.5878882"><ele>213.0</ele><time>2026-04-04T11:41:49.349Z</time></trkpt><trkpt lat="43.3048424" lon="11.587866"><ele>211.66666666666669</ele><time>2026-04-04T11:41:50.348Z</time></trkpt><trkpt lat="43.3050236" lon="11.5878327"><ele>210.33333333333334</ele><time>2026-04-04T11:41:51.348Z</time></trkpt><trkpt lat="43.3051838" lon="11.5877821"><ele>209.0</ele><time>2026-04-04T11:41:52.349Z</time></trkpt><trkpt lat="43.3053361" lon="11.5876837"><ele>209.0</ele><time>2026-04-04T11:41:53.347Z</time></trkpt><trkpt lat="43.3054758" lon="11.5875406"><ele>209.0</ele><time>2026-04-04T11:41:54.348Z</time></trkpt><trkpt lat="43.3056101" lon="11.5873829"><ele>209.0</ele><time>2026-04-04T11:41:55.348Z</time></trkpt><trkpt lat="43.3057522" lon="11.5872391"><ele>209.0</ele><time>2026-04-04T11:41:56.348Z</time></trkpt><trkpt lat="43.3059033" lon="11.5871161"><ele>209.0</ele><time>2026-04-04T11:41:57.348Z</time></trkpt><trkpt lat="43.3060524" lon="11.587027"><ele>209.0</ele><time>2026-04-04T11:41:58.348Z</time></trkpt><trkpt lat="43.3062061" lon="11.5869743"><ele>209.0</ele><time>2026-04-04T11:41:59.349Z</time></trkpt><trkpt lat="43.3063734" lon="11.5869571"><ele>209.0</ele><time>2026-04-04T11:42:00.348Z</time></trkpt><trkpt lat="43.3065451" lon="11.5869729"><ele>209.0</ele><time>2026-04-04T11:42:01.348Z</time></trkpt><trkpt lat="43.3067151" lon="11.5870219"><ele>211.66666666666669</ele><time>2026-04-04T11:42:02.349Z</time></trkpt><trkpt lat="43.3068697" lon="11.5871088"><ele>214.33333333333331</ele><time>2026-04-04T11:42:03.348Z</time></trkpt><trkpt lat="43.3070085" lon="11.5872103"><ele>217.0</ele><time>2026-04-04T11:42:04.349Z</time></trkpt><trkpt lat="43.3071434" lon="11.5873013"><ele>216.5</ele><time>2026-04-04T11:42:05.349Z</time></trkpt><trkpt lat="43.3072793" lon="11.5873601"><ele>216.0</ele><time>2026-04-04T11:42:06.348Z</time></trkpt><trkpt lat="43.3074252" lon="11.5873724"><ele>215.5</ele><time>2026-04-04T11:42:07.347Z</time></trkpt><trkpt lat="43.3075693" lon="11.5873388"><ele>215.0</ele><time>2026-04-04T11:42:08.349Z</time></trkpt><trkpt lat="43.3077062" lon="11.5872603"><ele>215.0</ele><time>2026-04-04T11:42:09.348Z</time></trkpt><trkpt lat="43.3078351" lon="11.5871357"><ele>215.0</ele><time>2026-04-04T11:42:10.348Z</time></trkpt><trkpt lat="43.3079578" lon="11.5869786"><ele>215.0</ele><time>2026-04-04T11:42:11.348Z</time></trkpt><trkpt lat="43.3080865" lon="11.5868044"><ele>215.0</ele><time>2026-04-04T11:42:12.347Z</time></trkpt><trkpt lat="43.3082277" lon="11.5866219"><ele>215.0</ele><time>2026-04-04T11:42:13.346Z</time></trkpt><trkpt lat="43.3083733" lon="11.5864357"><ele>215.0</ele><time>2026-04-04T11:42:14.348Z</time></trkpt><trkpt lat="43.3085254" lon="11.5862418"><ele>215.33333333333334</ele><time>2026-04-04T11:42:15.346Z</time></trkpt><trkpt lat="43.3086843" lon="11.5860423"><ele>215.66666666666669</ele><time>2026-04-04T11:42:16.348Z</time></trkpt><trkpt lat="43.3088449" lon="11.5858397"><ele>216.0</ele><time>2026-04-04T11:42:17.347Z</time></trkpt><trkpt lat="43.3090069" lon="11.5856366"><ele>217.0</ele><time>2026-04-04T11:42:18.347Z</time></trkpt><trkpt lat="43.3091592" lon="11.5854478"><ele>218.0</ele><time>2026-04-04T11:42:19.348Z</time></trkpt><trkpt lat="43.3092974" lon="11.5852668"><ele>219.0</ele><time>2026-04-04T11:42:20.347Z</time></trkpt><trkpt lat="43.3094297" lon="11.585077"><ele>220.0</ele><time>2026-04-04T11:42:21.347Z</time></trkpt><trkpt lat="43.3095459" lon="11.5848631"><ele>221.0</ele><time>2026-04-04T11:42:22.348Z</time></trkpt><trkpt lat="43.3096469" lon="11.584632"><ele>222.0</ele><time>2026-04-04T11:42:23.347Z</time></trkpt><trkpt lat="43.3097419" lon="11.5843926"><ele>222.66666666666669</ele><time>2026-04-04T11:42:24.347Z</time></trkpt><trkpt lat="43.3098297" lon="11.5841544"><ele>223.33333333333334</ele><time>2026-04-04T11:42:25.347Z</time></trkpt><trkpt lat="43.3099108" lon="11.5839205"><ele>224.0</ele><time>2026-04-04T11:42:26.348Z</time></trkpt><trkpt lat="43.30998" lon="11.5836826"><ele>222.33333333333334</ele><time>2026-04-04T11:42:27.347Z</time></trkpt><trkpt lat="43.3100417" lon="11.583438"><ele>220.66666666666669</ele><time>2026-04-04T11:42:28.348Z</time></trkpt><trkpt lat="43.3101139" lon="11.583192"><ele>219.0</ele><time>2026-04-04T11:42:29.347Z</time></trkpt><trkpt lat="43.3101954" lon="11.5829391"><ele>217.66666666666669</ele><time>2026-04-04T11:42:30.347Z</time></trkpt><trkpt lat="43.3102796" lon="11.5826755"><ele>216.33333333333334</ele><time>2026-04-04T11:42:31.347Z</time></trkpt><trkpt lat="43.3103699" lon="11.5824043"><ele>215.0</ele><time>2026-04-04T11:42:32.347Z</time></trkpt><trkpt lat="43.3104611" lon="11.5821285"><ele>215.33333333333334</ele><time>2026-04-04T11:42:33.348Z</time></trkpt><trkpt lat="43.3105481" lon="11.5818474"><ele>215.66666666666669</ele><time>2026-04-04T11:42:34.347Z</time></trkpt><trkpt lat="43.310635" lon="11.5815682"><ele>216.0</ele><time>2026-04-04T11:42:35.348Z</time></trkpt><trkpt lat="43.3107207" lon="11.5813021"><ele>213.66666666666669</ele><time>2026-04-04T11:42:36.348Z</time></trkpt><trkpt lat="43.3108038" lon="11.581048"><ele>211.33333333333334</ele><time>2026-04-04T11:42:37.347Z</time></trkpt><trkpt lat="43.3108897" lon="11.5808116"><ele>209.0</ele><time>2026-04-04T11:42:38.348Z</time></trkpt><trkpt lat="43.31097" lon="11.580611"><ele>209.0</ele><time>2026-04-04T11:42:39.347Z</time></trkpt><trkpt lat="43.3110553" lon="11.5804596"><ele>209.0</ele><time>2026-04-04T11:42:40.348Z</time></trkpt><trkpt lat="43.3111581" lon="11.5803627"><ele>209.0</ele><time>2026-04-04T11:42:41.347Z</time></trkpt><trkpt lat="43.3112883" lon="11.5803216"><ele>209.0</ele><time>2026-04-04T11:42:42.347Z</time></trkpt><trkpt lat="43.3114269" lon="11.5803372"><ele>210.25</ele><time>2026-04-04T11:42:43.347Z</time></trkpt><trkpt lat="43.3115423" lon="11.5803881"><ele>211.5</ele><time>2026-04-04T11:42:44.347Z</time></trkpt><trkpt lat="43.3116388" lon="11.5804755"><ele>212.75</ele><time>2026-04-04T11:42:45.347Z</time></trkpt><trkpt lat="43.3117227" lon="11.5805973"><ele>214.0</ele><time>2026-04-04T11:42:46.348Z</time></trkpt><trkpt lat="43.3118155" lon="11.580709"><ele>214.0</ele><time>2026-04-04T11:42:47.347Z</time></trkpt><trkpt lat="43.3119237" lon="11.5807886"><ele>214.0</ele><time>2026-04-04T11:42:48.347Z</time></trkpt><trkpt lat="43.3120404" lon="11.5808195"><ele>214.0</ele><time>2026-04-04T11:42:49.347Z</time></trkpt><trkpt lat="43.3121561" lon="11.5808059"><ele>214.0</ele><time>2026-04-04T11:42:50.347Z</time></trkpt><trkpt lat="43.3122648" lon="11.5807496"><ele>214.33333333333331</ele><time>2026-04-04T11:42:51.346Z</time></trkpt><trkpt lat="43.3123873" lon="11.5806423"><ele>214.66666666666669</ele><time>2026-04-04T11:42:52.347Z</time></trkpt><trkpt lat="43.3125228" lon="11.5804878"><ele>215.0</ele><time>2026-04-04T11:42:53.348Z</time></trkpt><trkpt lat="43.3126727" lon="11.5803136"><ele>213.0</ele><time>2026-04-04T11:42:54.348Z</time></trkpt><trkpt lat="43.3128452" lon="11.5801375"><ele>211.0</ele><time>2026-04-04T11:42:55.347Z</time></trkpt><trkpt lat="43.3130246" lon="11.5799729"><ele>209.0</ele><time>2026-04-04T11:42:56.346Z</time></trkpt><trkpt lat="43.3132123" lon="11.57986"><ele>207.66666666666669</ele><time>2026-04-04T11:42:57.347Z</time></trkpt><trkpt lat="43.3134016" lon="11.5797826"><ele>206.33333333333331</ele><time>2026-04-04T11:42:58.347Z</time></trkpt><trkpt lat="43.3135812" lon="11.5797092"><ele>205.0</ele><time>2026-04-04T11:42:59.346Z</time></trkpt><trkpt lat="43.3137516" lon="11.5796389"><ele>204.0</ele><time>2026-04-04T11:43:00.347Z</time></trkpt><trkpt lat="43.3139095" lon="11.5795534"><ele>203.0</ele><time>2026-04-04T11:43:01.347Z</time></trkpt><trkpt lat="43.3140518" lon="11.5794455"><ele>202.0</ele><time>2026-04-04T11:43:02.347Z</time></trkpt><trkpt lat="43.3141705" lon="11.5793024"><ele>201.33333333333331</ele><time>2026-04-04T11:43:03.347Z</time></trkpt><trkpt lat="43.3142667" lon="11.5791307"><ele>200.66666666666669</ele><time>2026-04-04T11:43:04.347Z</time></trkpt><trkpt lat="43.314349" lon="11.5789329"><ele>200.0</ele><time>2026-04-04T11:43:05.347Z</time></trkpt><trkpt lat="43.3144231" lon="11.5787109"><ele>200.33333333333334</ele><time>2026-04-04T11:43:06.347Z</time></trkpt><trkpt lat="43.3144998" lon="11.5784794"><ele>200.66666666666669</ele><time>2026-04-04T11:43:07.347Z</time></trkpt><trkpt lat="43.3145758" lon="11.5782366"><ele>201.0</ele><time>2026-04-04T11:43:08.348Z</time></trkpt><trkpt lat="43.314655" lon="11.5779891"><ele>201.33333333333331</ele><time>2026-04-04T11:43:09.347Z</time></trkpt><trkpt lat="43.3147434" lon="11.5777431"><ele>201.66666666666666</ele><time>2026-04-04T11:43:10.348Z</time></trkpt><trkpt lat="43.3148401" lon="11.5775008"><ele>202.0</ele><time>2026-04-04T11:43:11.347Z</time></trkpt><trkpt lat="43.3149438" lon="11.5772667"><ele>202.0</ele><time>2026-04-04T11:43:12.347Z</time></trkpt><trkpt lat="43.3150549" lon="11.5770383"><ele>202.0</ele><time>2026-04-04T11:43:13.348Z</time></trkpt><trkpt lat="43.3151758" lon="11.5768117"><ele>202.0</ele><time>2026-04-04T11:43:14.346Z</time></trkpt><trkpt lat="43.3153157" lon="11.5765897"><ele>202.0</ele><time>2026-04-04T11:43:15.348Z</time></trkpt><trkpt lat="43.3154726" lon="11.5763811"><ele>202.0</ele><time>2026-04-04T11:43:16.346Z</time></trkpt><trkpt lat="43.3156406" lon="11.5761759"><ele>202.0</ele><time>2026-04-04T11:43:17.346Z</time></trkpt><trkpt lat="43.3158155" lon="11.5759649"><ele>202.5</ele><time>2026-04-04T11:43:18.348Z</time></trkpt><trkpt lat="43.3159919" lon="11.5757473"><ele>203.0</ele><time>2026-04-04T11:43:19.347Z</time></trkpt><trkpt lat="43.3161722" lon="11.5755298"><ele>204.0</ele><time>2026-04-04T11:43:20.348Z</time></trkpt><trkpt lat="43.3163537" lon="11.5753119"><ele>205.0</ele><time>2026-04-04T11:43:21.348Z</time></trkpt><trkpt lat="43.316533" lon="11.5750911"><ele>210.5</ele><time>2026-04-04T11:43:22.347Z</time></trkpt><trkpt lat="43.3167083" lon="11.5748711"><ele>216.0</ele><time>2026-04-04T11:43:23.346Z</time></trkpt><trkpt lat="43.3168709" lon="11.5746672"><ele>216.66666666666669</ele><time>2026-04-04T11:43:24.348Z</time></trkpt><trkpt lat="43.3170203" lon="11.5744855"><ele>217.33333333333334</ele><time>2026-04-04T11:43:25.347Z</time></trkpt><trkpt lat="43.3171496" lon="11.5743308"><ele>218.0</ele><time>2026-04-04T11:43:26.347Z</time></trkpt><trkpt lat="43.3172516" lon="11.5742042"><ele>218.0</ele><time>2026-04-04T11:43:27.348Z</time></trkpt><trkpt lat="43.317356" lon="11.5740704"><ele>218.0</ele><time>2026-04-04T11:43:28.347Z</time></trkpt><trkpt lat="43.3174784" lon="11.5739174"><ele>218.0</ele><time>2026-04-04T11:43:29.347Z</time></trkpt><trkpt lat="43.3176177" lon="11.5737463"><ele>215.0</ele><time>2026-04-04T11:43:30.347Z</time></trkpt><trkpt lat="43.3177611" lon="11.5735625"><ele>212.0</ele><time>2026-04-04T11:43:31.347Z</time></trkpt><trkpt lat="43.3179004" lon="11.5733806"><ele>209.0</ele><time>2026-04-04T11:43:32.347Z</time></trkpt><trkpt lat="43.3180394" lon="11.5732024"><ele>209.33333333333334</ele><time>2026-04-04T11:43:33.347Z</time></trkpt><trkpt lat="43.3181777" lon="11.5730272"><ele>209.66666666666669</ele><time>2026-04-04T11:43:34.347Z</time></trkpt><trkpt lat="43.3183103" lon="11.5728553"><ele>210.0</ele><time>2026-04-04T11:43:35.348Z</time></trkpt><trkpt lat="43.3184423" lon="11.5727061"><ele>209.0</ele><time>2026-04-04T11:43:36.346Z</time></trkpt><trkpt lat="43.3186003" lon="11.5725924"><ele>208.0</ele><time>2026-04-04T11:43:37.348Z</time></trkpt><trkpt lat="43.3187721" lon="11.5725219"><ele>207.0</ele><time>2026-04-04T11:43:38.346Z</time></trkpt><trkpt lat="43.3189484" lon="11.5724546"><ele>206.33333333333331</ele><time>2026-04-04T11:43:39.346Z</time></trkpt><trkpt lat="43.3191229" lon="11.5723632"><ele>205.66666666666666</ele><time>2026-04-04T11:43:40.348Z</time></trkpt><trkpt lat="43.3192912" lon="11.5722386"><ele>205.0</ele><time>2026-04-04T11:43:41.347Z</time></trkpt><trkpt lat="43.3194509" lon="11.5720667"><ele>204.66666666666666</ele><time>2026-04-04T11:43:42.348Z</time></trkpt><trkpt lat="43.3196135" lon="11.5718711"><ele>204.33333333333331</ele><time>2026-04-04T11:43:43.347Z</time></trkpt><trkpt lat="43.3197795" lon="11.5716617"><ele>204.0</ele><time>2026-04-04T11:43:44.347Z</time></trkpt><trkpt lat="43.319951" lon="11.5714404"><ele>205.0</ele><time>2026-04-04T11:43:45.347Z</time></trkpt><trkpt lat="43.3201236" lon="11.5712126"><ele>206.0</ele><time>2026-04-04T11:43:46.348Z</time></trkpt><trkpt lat="43.3202978" lon="11.5709844"><ele>206.0</ele><time>2026-04-04T11:43:47.348Z</time></trkpt><trkpt lat="43.3204756" lon="11.5707582"><ele>206.0</ele><time>2026-04-04T11:43:48.348Z</time></trkpt><trkpt lat="43.3206536" lon="11.5705297"><ele>206.0</ele><time>2026-04-04T11:43:49.348Z</time></trkpt><trkpt lat="43.320825" lon="11.5703063"><ele>206.0</ele><time>2026-04-04T11:43:50.347Z</time></trkpt><trkpt lat="43.320989" lon="11.5700941"><ele>206.0</ele><time>2026-04-04T11:43:51.348Z</time></trkpt><trkpt lat="43.3211448" lon="11.5699019"><ele>206.0</ele><time>2026-04-04T11:43:52.347Z</time></trkpt><trkpt lat="43.3212883" lon="11.5697425"><ele>206.0</ele><time>2026-04-04T11:43:53.347Z</time></trkpt><trkpt lat="43.3214342" lon="11.5696209"><ele>206.0</ele><time>2026-04-04T11:43:54.346Z</time></trkpt><trkpt lat="43.3215944" lon="11.5695509"><ele>206.0</ele><time>2026-04-04T11:43:55.347Z</time></trkpt><trkpt lat="43.3217702" lon="11.569509"><ele>206.0</ele><time>2026-04-04T11:43:56.346Z</time></trkpt><trkpt lat="43.3219557" lon="11.5694627"><ele>206.0</ele><time>2026-04-04T11:43:57.347Z</time></trkpt><trkpt lat="43.322148" lon="11.5694194"><ele>206.0</ele><time>2026-04-04T11:43:58.347Z</time></trkpt><trkpt lat="43.3223457" lon="11.5693793"><ele>206.0</ele><time>2026-04-04T11:43:59.348Z</time></trkpt><trkpt lat="43.3225445" lon="11.5693417"><ele>206.33333333333334</ele><time>2026-04-04T11:44:00.348Z</time></trkpt><trkpt lat="43.3227438" lon="11.569302"><ele>206.66666666666669</ele><time>2026-04-04T11:44:01.347Z</time></trkpt><trkpt lat="43.3229293" lon="11.5692599"><ele>207.0</ele><time>2026-04-04T11:44:02.347Z</time></trkpt><trkpt lat="43.3231039" lon="11.5692142"><ele>208.33333333333331</ele><time>2026-04-04T11:44:03.347Z</time></trkpt><trkpt lat="43.3232722" lon="11.5691484"><ele>209.66666666666666</ele><time>2026-04-04T11:44:04.347Z</time></trkpt><trkpt lat="43.323444" lon="11.569041"><ele>211.0</ele><time>2026-04-04T11:44:05.348Z</time></trkpt><trkpt lat="43.3236139" lon="11.5689061"><ele>211.0</ele><time>2026-04-04T11:44:06.348Z</time></trkpt><trkpt lat="43.3237862" lon="11.568766"><ele>211.0</ele><time>2026-04-04T11:44:07.347Z</time></trkpt><trkpt lat="43.3239569" lon="11.5686298"><ele>211.0</ele><time>2026-04-04T11:44:08.346Z</time></trkpt><trkpt lat="43.3241219" lon="11.5684959"><ele>211.0</ele><time>2026-04-04T11:44:09.347Z</time></trkpt><trkpt lat="43.3242734" lon="11.5683643"><ele>211.0</ele><time>2026-04-04T11:44:10.346Z</time></trkpt><trkpt lat="43.3244126" lon="11.5682332"><ele>211.0</ele><time>2026-04-04T11:44:11.346Z</time></trkpt><trkpt lat="43.3245332" lon="11.5680678"><ele>212.0</ele><time>2026-04-04T11:44:12.347Z</time></trkpt><trkpt lat="43.3246292" lon="11.5678597"><ele>213.0</ele><time>2026-04-04T11:44:13.347Z</time></trkpt><trkpt lat="43.324713" lon="11.5676258"><ele>214.0</ele><time>2026-04-04T11:44:14.347Z</time></trkpt><trkpt lat="43.3247983" lon="11.5673805"><ele>215.66666666666666</ele><time>2026-04-04T11:44:15.348Z</time></trkpt><trkpt lat="43.324884" lon="11.5671329"><ele>217.33333333333331</ele><time>2026-04-04T11:44:16.347Z</time></trkpt><trkpt lat="43.3249659" lon="11.5668847"><ele>219.0</ele><time>2026-04-04T11:44:17.347Z</time></trkpt><trkpt lat="43.3250402" lon="11.5666361"><ele>220.33333333333331</ele><time>2026-04-04T11:44:18.347Z</time></trkpt><trkpt lat="43.3250945" lon="11.5663733"><ele>221.66666666666666</ele><time>2026-04-04T11:44:19.347Z</time></trkpt><trkpt lat="43.3251297" lon="11.5660995"><ele>223.0</ele><time>2026-04-04T11:44:20.347Z</time></trkpt><trkpt lat="43.325152" lon="11.5658235"><ele>223.33333333333331</ele><time>2026-04-04T11:44:21.348Z</time></trkpt><trkpt lat="43.3251736" lon="11.5655627"><ele>223.66666666666669</ele><time>2026-04-04T11:44:22.347Z</time></trkpt><trkpt lat="43.3251965" lon="11.5653207"><ele>224.0</ele><time>2026-04-04T11:44:23.347Z</time></trkpt><trkpt lat="43.3252246" lon="11.565095"><ele>223.33333333333334</ele><time>2026-04-04T11:44:24.347Z</time></trkpt><trkpt lat="43.3252731" lon="11.5648807"><ele>222.66666666666669</ele><time>2026-04-04T11:44:25.347Z</time></trkpt><trkpt lat="43.3253494" lon="11.5646662"><ele>222.0</ele><time>2026-04-04T11:44:26.347Z</time></trkpt><trkpt lat="43.325449" lon="11.5644622"><ele>223.0</ele><time>2026-04-04T11:44:27.347Z</time></trkpt><trkpt lat="43.3255624" lon="11.5642639"><ele>224.0</ele><time>2026-04-04T11:44:28.347Z</time></trkpt><trkpt lat="43.3256775" lon="11.5640753"><ele>225.0</ele><time>2026-04-04T11:44:29.346Z</time></trkpt><trkpt lat="43.3258028" lon="11.5639083"><ele>225.0</ele><time>2026-04-04T11:44:30.347Z</time></trkpt><trkpt lat="43.3259362" lon="11.5637783"><ele>225.0</ele><time>2026-04-04T11:44:31.347Z</time></trkpt><trkpt lat="43.3260891" lon="11.5636896"><ele>225.0</ele><time>2026-04-04T11:44:32.348Z</time></trkpt><trkpt lat="43.3262593" lon="11.5636212"><ele>223.0</ele><time>2026-04-04T11:44:33.348Z</time></trkpt><trkpt lat="43.3264392" lon="11.5635567"><ele>221.0</ele><time>2026-04-04T11:44:34.347Z</time></trkpt><trkpt lat="43.3266261" lon="11.5634948"><ele>219.0</ele><time>2026-04-04T11:44:35.347Z</time></trkpt><trkpt lat="43.3268148" lon="11.5634338"><ele>219.0</ele><time>2026-04-04T11:44:36.347Z</time></trkpt><trkpt lat="43.3269953" lon="11.5633805"><ele>219.0</ele><time>2026-04-04T11:44:37.347Z</time></trkpt><trkpt lat="43.3271667" lon="11.5633347"><ele>219.0</ele><time>2026-04-04T11:44:38.348Z</time></trkpt><trkpt lat="43.3273178" lon="11.5632916"><ele>219.75</ele><time>2026-04-04T11:44:39.347Z</time></trkpt><trkpt lat="43.3274516" lon="11.5632406"><ele>220.5</ele><time>2026-04-04T11:44:40.347Z</time></trkpt><trkpt lat="43.3275726" lon="11.5631736"><ele>221.25</ele><time>2026-04-04T11:44:41.347Z</time></trkpt><trkpt lat="43.3276671" lon="11.5630851"><ele>222.0</ele><time>2026-04-04T11:44:42.348Z</time></trkpt><trkpt lat="43.3277394" lon="11.5630148"><ele>222.0</ele><time>2026-04-04T11:44:43.348Z</time></trkpt><trkpt lat="43.3278256" lon="11.562965"><ele>222.0</ele><time>2026-04-04T11:44:45.346Z</time></trkpt><trkpt lat="43.3279174" lon="11.5630238"><ele>222.0</ele><time>2026-04-04T11:44:48.347Z</time></trkpt><trkpt lat="43.3279639" lon="11.5631119"><ele>222.0</ele><time>2026-04-04T11:44:49.347Z</time></trkpt><trkpt lat="43.3280356" lon="11.563218"><ele>222.0</ele><time>2026-04-04T11:44:50.347Z</time></trkpt><trkpt lat="43.3281373" lon="11.5633531"><ele>222.33333333333331</ele><time>2026-04-04T11:44:51.347Z</time></trkpt><trkpt lat="43.328265" lon="11.5634882"><ele>222.66666666666666</ele><time>2026-04-04T11:44:52.347Z</time></trkpt><trkpt lat="43.3284209" lon="11.5636177"><ele>223.0</ele><time>2026-04-04T11:44:53.348Z</time></trkpt><trkpt lat="43.3285869" lon="11.5637425"><ele>225.0</ele><time>2026-04-04T11:44:54.347Z</time></trkpt><trkpt lat="43.3287379" lon="11.5638583"><ele>227.0</ele><time>2026-04-04T11:44:55.346Z</time></trkpt><trkpt lat="43.3288634" lon="11.5639929"><ele>229.0</ele><time>2026-04-04T11:44:56.347Z</time></trkpt><trkpt lat="43.328938" lon="11.5641677"><ele>229.0</ele><time>2026-04-04T11:44:57.348Z</time></trkpt><trkpt lat="43.328948" lon="11.5643621"><ele>229.0</ele><time>2026-04-04T11:44:58.347Z</time></trkpt><trkpt lat="43.3289184" lon="11.56458"><ele>229.0</ele><time>2026-04-04T11:44:59.347Z</time></trkpt><trkpt lat="43.328878" lon="11.5648091"><ele>230.33333333333331</ele><time>2026-04-04T11:45:00.347Z</time></trkpt><trkpt lat="43.328813" lon="11.564995"><ele>231.66666666666669</ele><time>2026-04-04T11:45:01.347Z</time></trkpt><trkpt lat="43.328694" lon="11.5651218"><ele>233.0</ele><time>2026-04-04T11:45:02.348Z</time></trkpt><trkpt lat="43.328542" lon="11.5652177"><ele>233.0</ele><time>2026-04-04T11:45:03.347Z</time></trkpt><trkpt lat="43.3283738" lon="11.5653181"><ele>233.0</ele><time>2026-04-04T11:45:04.347Z</time></trkpt><trkpt lat="43.328194" lon="11.5654179"><ele>233.0</ele><time>2026-04-04T11:45:05.347Z</time></trkpt><trkpt lat="43.3280032" lon="11.5655251"><ele>235.33333333333334</ele><time>2026-04-04T11:45:06.347Z</time></trkpt><trkpt lat="43.3278035" lon="11.5656355"><ele>237.66666666666669</ele><time>2026-04-04T11:45:07.348Z</time></trkpt><trkpt lat="43.3276812" lon="11.5656972"><ele>240.0</ele><time>2026-04-04T11:45:08.505Z</time></trkpt><trkpt lat="43.3272864" lon="11.5659014"><ele>240.0</ele><time>2026-04-04T11:45:10.348Z</time></trkpt><trkpt lat="43.3271571" lon="11.5659836"><ele>240.0</ele><time>2026-04-04T11:45:11.347Z</time></trkpt><trkpt lat="43.3270588" lon="11.5660823"><ele>240.0</ele><time>2026-04-04T11:45:12.348Z</time></trkpt><trkpt lat="43.3270056" lon="11.5662073"><ele>240.0</ele><time>2026-04-04T11:45:13.346Z</time></trkpt><trkpt lat="43.3270029" lon="11.5663593"><ele>240.0</ele><time>2026-04-04T11:45:14.347Z</time></trkpt><trkpt lat="43.3270556" lon="11.5665092"><ele>240.0</ele><time>2026-04-04T11:45:15.347Z</time></trkpt><trkpt lat="43.3271445" lon="11.5666716"><ele>240.0</ele><time>2026-04-04T11:45:16.347Z</time></trkpt><trkpt lat="43.3272471" lon="11.5668515"><ele>240.0</ele><time>2026-04-04T11:45:17.347Z</time></trkpt><trkpt lat="43.3273711" lon="11.5670404"><ele>241.66666666666669</ele><time>2026-04-04T11:45:18.348Z</time></trkpt><trkpt lat="43.327523" lon="11.5672301"><ele>243.33333333333334</ele><time>2026-04-04T11:45:19.347Z</time></trkpt><trkpt lat="43.3276953" lon="11.5674292"><ele>245.0</ele><time>2026-04-04T11:45:20.348Z</time></trkpt><trkpt lat="43.3278803" lon="11.5676432"><ele>250.0</ele><time>2026-04-04T11:45:21.347Z</time></trkpt><trkpt lat="43.3280735" lon="11.5678605"><ele>255.0</ele><time>2026-04-04T11:45:22.347Z</time></trkpt><trkpt lat="43.3282743" lon="11.5680758"><ele>255.0</ele><time>2026-04-04T11:45:23.347Z</time></trkpt><trkpt lat="43.3284832" lon="11.5682914"><ele>255.0</ele><time>2026-04-04T11:45:24.346Z</time></trkpt><trkpt lat="43.3287003" lon="11.5684889"><ele>257.5</ele><time>2026-04-04T11:45:25.346Z</time></trkpt><trkpt lat="43.328917" lon="11.5686847"><ele>260.0</ele><time>2026-04-04T11:45:26.347Z</time></trkpt><trkpt lat="43.329115" lon="11.5689118"><ele>260.0</ele><time>2026-04-04T11:45:27.347Z</time></trkpt><trkpt lat="43.3292842" lon="11.5691631"><ele>260.0</ele><time>2026-04-04T11:45:28.347Z</time></trkpt><trkpt lat="43.3294458" lon="11.5693993"><ele>262.6666666666667</ele><time>2026-04-04T11:45:29.347Z</time></trkpt><trkpt lat="43.3295957" lon="11.5696191"><ele>265.3333333333333</ele><time>2026-04-04T11:45:30.347Z</time></trkpt><trkpt lat="43.3297371" lon="11.5698265"><ele>268.0</ele><time>2026-04-04T11:45:31.347Z</time></trkpt><trkpt lat="43.3298873" lon="11.5700289"><ele>268.0</ele><time>2026-04-04T11:45:32.348Z</time></trkpt><trkpt lat="43.3300512" lon="11.5702081"><ele>268.0</ele><time>2026-04-04T11:45:33.348Z</time></trkpt><trkpt lat="43.3302269" lon="11.5703559"><ele>268.0</ele><time>2026-04-04T11:45:34.348Z</time></trkpt><trkpt lat="43.3304109" lon="11.570468"><ele>268.3333333333333</ele><time>2026-04-04T11:45:35.348Z</time></trkpt><trkpt lat="43.3306011" lon="11.5705433"><ele>268.6666666666667</ele><time>2026-04-04T11:45:36.346Z</time></trkpt><trkpt lat="43.3308011" lon="11.5705933"><ele>269.0</ele><time>2026-04-04T11:45:37.346Z</time></trkpt><trkpt lat="43.3310089" lon="11.5706104"><ele>269.0</ele><time>2026-04-04T11:45:38.347Z</time></trkpt><trkpt lat="43.3312188" lon="11.5706015"><ele>269.0</ele><time>2026-04-04T11:45:39.346Z</time></trkpt><trkpt lat="43.3314307" lon="11.5705974"><ele>269.0</ele><time>2026-04-04T11:45:40.347Z</time></trkpt><trkpt lat="43.3316266" lon="11.5706181"><ele>272.33333333333337</ele><time>2026-04-04T11:45:41.346Z</time></trkpt><trkpt lat="43.3318039" lon="11.5706798"><ele>275.6666666666667</ele><time>2026-04-04T11:45:42.348Z</time></trkpt><trkpt lat="43.3319586" lon="11.5708013"><ele>279.0</ele><time>2026-04-04T11:45:43.348Z</time></trkpt><trkpt lat="43.3320986" lon="11.570978"><ele>278.6666666666667</ele><time>2026-04-04T11:45:44.347Z</time></trkpt><trkpt lat="43.3322472" lon="11.571168"><ele>278.33333333333337</ele><time>2026-04-04T11:45:45.348Z</time></trkpt><trkpt lat="43.3324017" lon="11.5713691"><ele>278.0</ele><time>2026-04-04T11:45:46.347Z</time></trkpt><trkpt lat="43.3325518" lon="11.5715683"><ele>277.6666666666667</ele><time>2026-04-04T11:45:47.346Z</time></trkpt><trkpt lat="43.3327054" lon="11.5717482"><ele>277.3333333333333</ele><time>2026-04-04T11:45:48.348Z</time></trkpt><trkpt lat="43.3328826" lon="11.5719057"><ele>277.0</ele><time>2026-04-04T11:45:49.347Z</time></trkpt><trkpt lat="43.3330787" lon="11.5720357"><ele>277.0</ele><time>2026-04-04T11:45:50.346Z</time></trkpt><trkpt lat="43.3332933" lon="11.5721277"><ele>277.0</ele><time>2026-04-04T11:45:51.347Z</time></trkpt><trkpt lat="43.3335233" lon="11.5721948"><ele>277.0</ele><time>2026-04-04T11:45:52.347Z</time></trkpt><trkpt lat="43.3337642" lon="11.5722534"><ele>277.0</ele><time>2026-04-04T11:45:53.347Z</time></trkpt><trkpt lat="43.3340112" lon="11.5723136"><ele>278.0</ele><time>2026-04-04T11:45:54.348Z</time></trkpt><trkpt lat="43.3342544" lon="11.5723733"><ele>279.0</ele><time>2026-04-04T11:45:55.347Z</time></trkpt><trkpt lat="43.3344932" lon="11.5724449"><ele>280.0</ele><time>2026-04-04T11:45:56.346Z</time></trkpt><trkpt lat="43.3347268" lon="11.5725441"><ele>281.0</ele><time>2026-04-04T11:45:57.346Z</time></trkpt><trkpt lat="43.3349469" lon="11.5726701"><ele>281.0</ele><time>2026-04-04T11:45:58.347Z</time></trkpt><trkpt lat="43.3351467" lon="11.5728078"><ele>281.0</ele><time>2026-04-04T11:45:59.346Z</time></trkpt><trkpt lat="43.3353111" lon="11.5729391"><ele>281.0</ele><time>2026-04-04T11:46:00.347Z</time></trkpt><trkpt lat="43.3354442" lon="11.5730654"><ele>279.6666666666667</ele><time>2026-04-04T11:46:01.348Z</time></trkpt><trkpt lat="43.3355446" lon="11.5732113"><ele>278.3333333333333</ele><time>2026-04-04T11:46:02.347Z</time></trkpt><trkpt lat="43.335599" lon="11.5733944"><ele>277.0</ele><time>2026-04-04T11:46:03.347Z</time></trkpt><trkpt lat="43.335604" lon="11.5736173"><ele>275.66666666666663</ele><time>2026-04-04T11:46:04.347Z</time></trkpt><trkpt lat="43.3355745" lon="11.5738484"><ele>274.3333333333333</ele><time>2026-04-04T11:46:05.347Z</time></trkpt><trkpt lat="43.3355445" lon="11.5740721"><ele>273.0</ele><time>2026-04-04T11:46:06.348Z</time></trkpt><trkpt lat="43.3355414" lon="11.5742736"><ele>273.0</ele><time>2026-04-04T11:46:07.348Z</time></trkpt><trkpt lat="43.3355774" lon="11.5744655"><ele>273.0</ele><time>2026-04-04T11:46:08.347Z</time></trkpt><trkpt lat="43.3356634" lon="11.5746422"><ele>273.0</ele><time>2026-04-04T11:46:09.347Z</time></trkpt><trkpt lat="43.3357854" lon="11.5747977"><ele>272.3333333333333</ele><time>2026-04-04T11:46:10.346Z</time></trkpt><trkpt lat="43.3358929" lon="11.5749727"><ele>271.66666666666663</ele><time>2026-04-04T11:46:11.348Z</time></trkpt><trkpt lat="43.335965" lon="11.5751883"><ele>271.0</ele><time>2026-04-04T11:46:12.347Z</time></trkpt><trkpt lat="43.335995" lon="11.5754324"><ele>271.0</ele><time>2026-04-04T11:46:13.347Z</time></trkpt><trkpt lat="43.3360007" lon="11.5756988"><ele>271.0</ele><time>2026-04-04T11:46:14.347Z</time></trkpt><trkpt lat="43.335989" lon="11.5759832"><ele>271.0</ele><time>2026-04-04T11:46:15.347Z</time></trkpt><trkpt lat="43.335966" lon="11.5762813"><ele>270.66666666666663</ele><time>2026-04-04T11:46:16.347Z</time></trkpt><trkpt lat="43.3359406" lon="11.57658"><ele>270.3333333333333</ele><time>2026-04-04T11:46:17.347Z</time></trkpt><trkpt lat="43.335925" lon="11.5768598"><ele>270.0</ele><time>2026-04-04T11:46:18.347Z</time></trkpt><trkpt lat="43.3359259" lon="11.5771251"><ele>270.6666666666667</ele><time>2026-04-04T11:46:19.348Z</time></trkpt><trkpt lat="43.3359654" lon="11.5773625"><ele>271.33333333333337</ele><time>2026-04-04T11:46:20.346Z</time></trkpt><trkpt lat="43.3360512" lon="11.5775976"><ele>272.0</ele><time>2026-04-04T11:46:21.346Z</time></trkpt><trkpt lat="43.3361694" lon="11.5778013"><ele>273.6666666666667</ele><time>2026-04-04T11:46:22.348Z</time></trkpt><trkpt lat="43.3363241" lon="11.5779578"><ele>275.3333333333333</ele><time>2026-04-04T11:46:23.347Z</time></trkpt><trkpt lat="43.3364831" lon="11.5781007"><ele>277.0</ele><time>2026-04-04T11:46:24.347Z</time></trkpt><trkpt lat="43.3366196" lon="11.5782751"><ele>278.3333333333333</ele><time>2026-04-04T11:46:25.347Z</time></trkpt><trkpt lat="43.3367357" lon="11.5784835"><ele>279.6666666666667</ele><time>2026-04-04T11:46:26.347Z</time></trkpt><trkpt lat="43.3368401" lon="11.5787026"><ele>281.0</ele><time>2026-04-04T11:46:27.346Z</time></trkpt><trkpt lat="43.336929" lon="11.5789088"><ele>282.75</ele><time>2026-04-04T11:46:28.347Z</time></trkpt><trkpt lat="43.3369924" lon="11.5791025"><ele>284.5</ele><time>2026-04-04T11:46:29.348Z</time></trkpt><trkpt lat="43.3370118" lon="11.5792785"><ele>286.25</ele><time>2026-04-04T11:46:30.348Z</time></trkpt><trkpt lat="43.3370132" lon="11.5794412"><ele>288.0</ele><time>2026-04-04T11:46:31.348Z</time></trkpt><trkpt lat="43.3369127" lon="11.5795228"><ele>288.0</ele><time>2026-04-04T11:46:32.347Z</time></trkpt><trkpt lat="43.3368092" lon="11.5795799"><ele>288.0</ele><time>2026-04-04T11:46:33.347Z</time></trkpt><trkpt lat="43.3366883" lon="11.579643"><ele>288.0</ele><time>2026-04-04T11:46:34.347Z</time></trkpt><trkpt lat="43.3365721" lon="11.5797812"><ele>288.0</ele><time>2026-04-04T11:46:35.347Z</time></trkpt><trkpt lat="43.3364655" lon="11.5799595"><ele>291.3333333333333</ele><time>2026-04-04T11:46:36.348Z</time></trkpt><trkpt lat="43.3363672" lon="11.5801759"><ele>294.66666666666663</ele><time>2026-04-04T11:46:37.346Z</time></trkpt><trkpt lat="43.3362682" lon="11.5804077"><ele>298.0</ele><time>2026-04-04T11:46:38.347Z</time></trkpt><trkpt lat="43.3361743" lon="11.5806221"><ele>298.0</ele><time>2026-04-04T11:46:39.348Z</time></trkpt><trkpt lat="43.3361029" lon="11.5808325"><ele>298.0</ele><time>2026-04-04T11:46:40.348Z</time></trkpt><trkpt lat="43.3360702" lon="11.5810728"><ele>298.0</ele><time>2026-04-04T11:46:41.348Z</time></trkpt><trkpt lat="43.3360762" lon="11.5813384"><ele>298.0</ele><time>2026-04-04T11:46:42.348Z</time></trkpt><trkpt lat="43.3360899" lon="11.5816224"><ele>298.0</ele><time>2026-04-04T11:46:43.347Z</time></trkpt><trkpt lat="43.3361007" lon="11.5819257"><ele>298.0</ele><time>2026-04-04T11:46:44.347Z</time></trkpt><trkpt lat="43.336111" lon="11.5822377"><ele>299.0</ele><time>2026-04-04T11:46:45.347Z</time></trkpt><trkpt lat="43.3361238" lon="11.5825632"><ele>300.0</ele><time>2026-04-04T11:46:46.347Z</time></trkpt><trkpt lat="43.3361389" lon="11.5828967"><ele>301.0</ele><time>2026-04-04T11:46:47.347Z</time></trkpt><trkpt lat="43.3361516" lon="11.583224"><ele>302.0</ele><time>2026-04-04T11:46:48.347Z</time></trkpt><trkpt lat="43.3361656" lon="11.5835261"><ele>301.6666666666667</ele><time>2026-04-04T11:46:49.347Z</time></trkpt><trkpt lat="43.3361816" lon="11.5838114"><ele>301.3333333333333</ele><time>2026-04-04T11:46:50.347Z</time></trkpt><trkpt lat="43.3362083" lon="11.5840758"><ele>301.0</ele><time>2026-04-04T11:46:51.347Z</time></trkpt><trkpt lat="43.3362659" lon="11.5843135"><ele>300.66666666666663</ele><time>2026-04-04T11:46:52.348Z</time></trkpt><trkpt lat="43.3363759" lon="11.5845337"><ele>300.3333333333333</ele><time>2026-04-04T11:46:53.346Z</time></trkpt><trkpt lat="43.3365068" lon="11.5847384"><ele>300.0</ele><time>2026-04-04T11:46:54.348Z</time></trkpt><trkpt lat="43.3366186" lon="11.5849338"><ele>303.6666666666667</ele><time>2026-04-04T11:46:55.347Z</time></trkpt><trkpt lat="43.3367041" lon="11.585138"><ele>307.33333333333337</ele><time>2026-04-04T11:46:56.348Z</time></trkpt><trkpt lat="43.3367541" lon="11.585361"><ele>311.0</ele><time>2026-04-04T11:46:57.348Z</time></trkpt><trkpt lat="43.3367487" lon="11.5856152"><ele>311.6666666666667</ele><time>2026-04-04T11:46:58.347Z</time></trkpt><trkpt lat="43.3367246" lon="11.5858805"><ele>312.3333333333333</ele><time>2026-04-04T11:46:59.348Z</time></trkpt><trkpt lat="43.3366999" lon="11.5861638"><ele>313.0</ele><time>2026-04-04T11:47:00.347Z</time></trkpt><trkpt lat="43.3366714" lon="11.5864624"><ele>315.0</ele><time>2026-04-04T11:47:01.348Z</time></trkpt><trkpt lat="43.3366414" lon="11.5867554"><ele>317.0</ele><time>2026-04-04T11:47:02.347Z</time></trkpt><trkpt lat="43.3366138" lon="11.587023"><ele>319.0</ele><time>2026-04-04T11:47:03.347Z</time></trkpt><trkpt lat="43.3366129" lon="11.5872826"><ele>319.0</ele><time>2026-04-04T11:47:04.348Z</time></trkpt><trkpt lat="43.3366514" lon="11.5875565"><ele>319.0</ele><time>2026-04-04T11:47:05.347Z</time></trkpt><trkpt lat="43.3367113" lon="11.5878304"><ele>319.0</ele><time>2026-04-04T11:47:06.347Z</time></trkpt><trkpt lat="43.3367568" lon="11.5881165"><ele>320.0</ele><time>2026-04-04T11:47:07.347Z</time></trkpt><trkpt lat="43.3367739" lon="11.5884198"><ele>321.0</ele><time>2026-04-04T11:47:08.347Z</time></trkpt><trkpt lat="43.3367723" lon="11.5887215"><ele>322.0</ele><time>2026-04-04T11:47:09.346Z</time></trkpt><trkpt lat="43.3367576" lon="11.5889957"><ele>323.3333333333333</ele><time>2026-04-04T11:47:10.348Z</time></trkpt><trkpt lat="43.3367143" lon="11.5892506"><ele>324.6666666666667</ele><time>2026-04-04T11:47:11.348Z</time></trkpt><trkpt lat="43.3366224" lon="11.5894896"><ele>326.0</ele><time>2026-04-04T11:47:12.347Z</time></trkpt><trkpt lat="43.3364918" lon="11.5897062"><ele>327.0</ele><time>2026-04-04T11:47:13.347Z</time></trkpt><trkpt lat="43.3363412" lon="11.5899145"><ele>328.0</ele><time>2026-04-04T11:47:14.347Z</time></trkpt><trkpt lat="43.336197" lon="11.5901298"><ele>329.0</ele><time>2026-04-04T11:47:15.348Z</time></trkpt><trkpt lat="43.3360569" lon="11.5903543"><ele>331.0</ele><time>2026-04-04T11:47:16.346Z</time></trkpt><trkpt lat="43.3359263" lon="11.5906075"><ele>333.0</ele><time>2026-04-04T11:47:17.347Z</time></trkpt><trkpt lat="43.3358061" lon="11.5908802"><ele>333.0</ele><time>2026-04-04T11:47:18.346Z</time></trkpt><trkpt lat="43.3356901" lon="11.5911585"><ele>333.0</ele><time>2026-04-04T11:47:19.347Z</time></trkpt><trkpt lat="43.3355789" lon="11.5914167"><ele>332.3333333333333</ele><time>2026-04-04T11:47:20.346Z</time></trkpt><trkpt lat="43.3354786" lon="11.5916543"><ele>331.66666666666663</ele><time>2026-04-04T11:47:21.347Z</time></trkpt><trkpt lat="43.335397" lon="11.5918506"><ele>331.0</ele><time>2026-04-04T11:47:22.347Z</time></trkpt><trkpt lat="43.335339" lon="11.5920316"><ele>332.25</ele><time>2026-04-04T11:47:23.347Z</time></trkpt><trkpt lat="43.3353353" lon="11.5922037"><ele>333.5</ele><time>2026-04-04T11:47:24.348Z</time></trkpt><trkpt lat="43.335397" lon="11.5923757"><ele>334.75</ele><time>2026-04-04T11:47:25.348Z</time></trkpt><trkpt lat="43.3355123" lon="11.5925339"><ele>336.0</ele><time>2026-04-04T11:47:26.347Z</time></trkpt><trkpt lat="43.3356611" lon="11.592692"><ele>340.0</ele><time>2026-04-04T11:47:27.346Z</time></trkpt><trkpt lat="43.3358342" lon="11.5928672"><ele>344.0</ele><time>2026-04-04T11:47:28.348Z</time></trkpt><trkpt lat="43.3360104" lon="11.5930531"><ele>348.0</ele><time>2026-04-04T11:47:29.347Z</time></trkpt><trkpt lat="43.3361618" lon="11.593219"><ele>348.0</ele><time>2026-04-04T11:47:30.346Z</time></trkpt><trkpt lat="43.336295" lon="11.5933788"><ele>348.0</ele><time>2026-04-04T11:47:31.347Z</time></trkpt><trkpt lat="43.3363825" lon="11.5935427"><ele>348.0</ele><time>2026-04-04T11:47:32.347Z</time></trkpt><trkpt lat="43.3364101" lon="11.5937084"><ele>348.0</ele><time>2026-04-04T11:47:33.348Z</time></trkpt><trkpt lat="43.3363751" lon="11.5938349"><ele>349.75</ele><time>2026-04-04T11:47:34.348Z</time></trkpt><trkpt lat="43.3362903" lon="11.5939044"><ele>351.5</ele><time>2026-04-04T11:47:35.347Z</time></trkpt><trkpt lat="43.3361879" lon="11.5939294"><ele>353.25</ele><time>2026-04-04T11:47:36.347Z</time></trkpt><trkpt lat="43.336044" lon="11.5938036"><ele>355.0</ele><time>2026-04-04T11:47:37.348Z</time></trkpt><trkpt lat="43.3358904" lon="11.5937597"><ele>355.0</ele><time>2026-04-04T11:47:38.347Z</time></trkpt><trkpt lat="43.3357265" lon="11.5937574"><ele>355.0</ele><time>2026-04-04T11:47:39.347Z</time></trkpt><trkpt lat="43.3355944" lon="11.5938009"><ele>355.0</ele><time>2026-04-04T11:47:40.347Z</time></trkpt><trkpt lat="43.3355022" lon="11.593913"><ele>355.0</ele><time>2026-04-04T11:47:41.348Z</time></trkpt><trkpt lat="43.3354487" lon="11.5941067"><ele>355.66666666666663</ele><time>2026-04-04T11:47:42.347Z</time></trkpt><trkpt lat="43.3354616" lon="11.594332"><ele>356.3333333333333</ele><time>2026-04-04T11:47:43.347Z</time></trkpt><trkpt lat="43.3355371" lon="11.594545"><ele>357.0</ele><time>2026-04-04T11:47:44.347Z</time></trkpt><trkpt lat="43.3356603" lon="11.5947107"><ele>357.0</ele><time>2026-04-04T11:47:45.348Z</time></trkpt><trkpt lat="43.3358003" lon="11.5948128"><ele>357.0</ele><time>2026-04-04T11:47:46.348Z</time></trkpt><trkpt lat="43.3359254" lon="11.5949404"><ele>357.0</ele><time>2026-04-04T11:47:47.347Z</time></trkpt><trkpt lat="43.3360023" lon="11.5951334"><ele>358.3333333333333</ele><time>2026-04-04T11:47:48.347Z</time></trkpt><trkpt lat="43.336052" lon="11.5953728"><ele>359.66666666666663</ele><time>2026-04-04T11:47:49.347Z</time></trkpt><trkpt lat="43.3360773" lon="11.5956473"><ele>361.0</ele><time>2026-04-04T11:47:50.347Z</time></trkpt><trkpt lat="43.3360763" lon="11.5958908"><ele>361.0</ele><time>2026-04-04T11:47:51.346Z</time></trkpt><trkpt lat="43.3360936" lon="11.5961101"><ele>361.0</ele><time>2026-04-04T11:47:52.347Z</time></trkpt><trkpt lat="43.3361506" lon="11.5962965"><ele>361.0</ele><time>2026-04-04T11:47:53.348Z</time></trkpt><trkpt lat="43.3362614" lon="11.5964537"><ele>364.3333333333333</ele><time>2026-04-04T11:47:54.348Z</time></trkpt><trkpt lat="43.3364196" lon="11.5965801"><ele>367.6666666666667</ele><time>2026-04-04T11:47:55.347Z</time></trkpt><trkpt lat="43.3365886" lon="11.5966971"><ele>371.0</ele><time>2026-04-04T11:47:56.347Z</time></trkpt><trkpt lat="43.3367217" lon="11.596821"><ele>371.0</ele><time>2026-04-04T11:47:57.347Z</time></trkpt><trkpt lat="43.3368123" lon="11.596943"><ele>371.0</ele><time>2026-04-04T11:47:58.348Z</time></trkpt><trkpt lat="43.3368574" lon="11.5970982"><ele>371.0</ele><time>2026-04-04T11:47:59.348Z</time></trkpt><trkpt lat="43.3368342" lon="11.5972836"><ele>371.0</ele><time>2026-04-04T11:48:00.348Z</time></trkpt><trkpt lat="43.3367607" lon="11.5974585"><ele>370.75</ele><time>2026-04-04T11:48:01.347Z</time></trkpt><trkpt lat="43.3366616" lon="11.5975905"><ele>370.5</ele><time>2026-04-04T11:48:02.346Z</time></trkpt><trkpt lat="43.3365914" lon="11.5977122"><ele>370.25</ele><time>2026-04-04T11:48:03.346Z</time></trkpt><trkpt lat="43.3365648" lon="11.5978491"><ele>370.0</ele><time>2026-04-04T11:48:04.347Z</time></trkpt><trkpt lat="43.3366032" lon="11.5979812"><ele>370.5</ele><time>2026-04-04T11:48:05.347Z</time></trkpt><trkpt lat="43.336692" lon="11.5980828"><ele>371.0</ele><time>2026-04-04T11:48:06.347Z</time></trkpt><trkpt lat="43.3368132" lon="11.59814"><ele>371.5</ele><time>2026-04-04T11:48:07.347Z</time></trkpt><trkpt lat="43.3369377" lon="11.5981309"><ele>372.0</ele><time>2026-04-04T11:48:08.347Z</time></trkpt><trkpt lat="43.3370454" lon="11.5980409"><ele>372.0</ele><time>2026-04-04T11:48:09.348Z</time></trkpt><trkpt lat="43.3371384" lon="11.5978946"><ele>372.0</ele><time>2026-04-04T11:48:10.346Z</time></trkpt><trkpt lat="43.3372431" lon="11.5977094"><ele>372.0</ele><time>2026-04-04T11:48:11.347Z</time></trkpt><trkpt lat="43.337368" lon="11.5975153"><ele>375.3333333333333</ele><time>2026-04-04T11:48:12.348Z</time></trkpt><trkpt lat="43.3374841" lon="11.5973323"><ele>378.66666666666663</ele><time>2026-04-04T11:48:13.347Z</time></trkpt><trkpt lat="43.3375841" lon="11.5971619"><ele>382.0</ele><time>2026-04-04T11:48:14.348Z</time></trkpt><trkpt lat="43.3376559" lon="11.5970116"><ele>382.5</ele><time>2026-04-04T11:48:15.347Z</time></trkpt><trkpt lat="43.3376769" lon="11.5968627"><ele>383.0</ele><time>2026-04-04T11:48:16.347Z</time></trkpt><trkpt lat="43.337638" lon="11.5967103"><ele>383.5</ele><time>2026-04-04T11:48:17.347Z</time></trkpt><trkpt lat="43.33758" lon="11.5965434"><ele>384.0</ele><time>2026-04-04T11:48:18.346Z</time></trkpt><trkpt lat="43.3375556" lon="11.5963513"><ele>383.5</ele><time>2026-04-04T11:48:19.347Z</time></trkpt><trkpt lat="43.3375656" lon="11.5961617"><ele>383.0</ele><time>2026-04-04T11:48:20.347Z</time></trkpt><trkpt lat="43.3376229" lon="11.5960151"><ele>382.5</ele><time>2026-04-04T11:48:21.348Z</time></trkpt><trkpt lat="43.3377234" lon="11.5959288"><ele>382.0</ele><time>2026-04-04T11:48:22.348Z</time></trkpt><trkpt lat="43.3378339" lon="11.5959313"><ele>382.0</ele><time>2026-04-04T11:48:23.347Z</time></trkpt><trkpt lat="43.3379533" lon="11.5959879"><ele>382.0</ele><time>2026-04-04T11:48:24.347Z</time></trkpt><trkpt lat="43.3380833" lon="11.5961317"><ele>382.0</ele><time>2026-04-04T11:48:25.348Z</time></trkpt><trkpt lat="43.3382309" lon="11.5962666"><ele>385.3333333333333</ele><time>2026-04-04T11:48:26.348Z</time></trkpt><trkpt lat="43.3383799" lon="11.59642"><ele>388.66666666666663</ele><time>2026-04-04T11:48:27.347Z</time></trkpt><trkpt lat="43.33853" lon="11.5965805"><ele>392.0</ele><time>2026-04-04T11:48:28.347Z</time></trkpt><trkpt lat="43.3386709" lon="11.5967158"><ele>392.0</ele><time>2026-04-04T11:48:29.347Z</time></trkpt><trkpt lat="43.338811" lon="11.5968149"><ele>392.0</ele><time>2026-04-04T11:48:30.347Z</time></trkpt><trkpt lat="43.3389556" lon="11.5968478"><ele>392.0</ele><time>2026-04-04T11:48:31.347Z</time></trkpt><trkpt lat="43.3391008" lon="11.5968116"><ele>393.25</ele><time>2026-04-04T11:48:32.346Z</time></trkpt><trkpt lat="43.3392315" lon="11.5967921"><ele>394.5</ele><time>2026-04-04T11:48:33.347Z</time></trkpt><trkpt lat="43.3393482" lon="11.5968252"><ele>395.75</ele><time>2026-04-04T11:48:34.347Z</time></trkpt><trkpt lat="43.3394012" lon="11.5969737"><ele>397.0</ele><time>2026-04-04T11:48:35.347Z</time></trkpt><trkpt lat="43.3394306" lon="11.597148"><ele>399.33333333333337</ele><time>2026-04-04T11:48:36.347Z</time></trkpt><trkpt lat="43.339408" lon="11.5973535"><ele>401.66666666666663</ele><time>2026-04-04T11:48:37.347Z</time></trkpt><trkpt lat="43.3393673" lon="11.5975833"><ele>404.0</ele><time>2026-04-04T11:48:38.348Z</time></trkpt><trkpt lat="43.3393275" lon="11.5978413"><ele>405.66666666666663</ele><time>2026-04-04T11:48:39.347Z</time></trkpt><trkpt lat="43.3392806" lon="11.5981184"><ele>407.33333333333337</ele><time>2026-04-04T11:48:40.347Z</time></trkpt><trkpt lat="43.3392335" lon="11.5983706"><ele>409.0</ele><time>2026-04-04T11:48:41.347Z</time></trkpt><trkpt lat="43.3391983" lon="11.5985997"><ele>408.0</ele><time>2026-04-04T11:48:42.348Z</time></trkpt><trkpt lat="43.3391994" lon="11.5988049"><ele>407.0</ele><time>2026-04-04T11:48:43.347Z</time></trkpt><trkpt lat="43.3392558" lon="11.5989907"><ele>406.0</ele><time>2026-04-04T11:48:44.348Z</time></trkpt><trkpt lat="43.3393596" lon="11.5991556"><ele>406.0</ele><time>2026-04-04T11:48:45.347Z</time></trkpt><trkpt lat="43.3394948" lon="11.5992894"><ele>406.0</ele><time>2026-04-04T11:48:46.347Z</time></trkpt><trkpt lat="43.3396619" lon="11.5993732"><ele>406.0</ele><time>2026-04-04T11:48:47.347Z</time></trkpt><trkpt lat="43.3398562" lon="11.5994179"><ele>406.33333333333337</ele><time>2026-04-04T11:48:48.347Z</time></trkpt><trkpt lat="43.3400648" lon="11.5994516"><ele>406.66666666666663</ele><time>2026-04-04T11:48:49.348Z</time></trkpt><trkpt lat="43.3402833" lon="11.599491"><ele>407.0</ele><time>2026-04-04T11:48:50.345Z</time></trkpt><trkpt lat="43.340509" lon="11.5995326"><ele>412.0</ele><time>2026-04-04T11:48:51.346Z</time></trkpt><trkpt lat="43.3407351" lon="11.5995676"><ele>417.0</ele><time>2026-04-04T11:48:52.346Z</time></trkpt><trkpt lat="43.3409587" lon="11.5995983"><ele>417.0</ele><time>2026-04-04T11:48:53.346Z</time></trkpt><trkpt lat="43.3411654" lon="11.5996278"><ele>417.0</ele><time>2026-04-04T11:48:54.346Z</time></trkpt><trkpt lat="43.341354" lon="11.5996601"><ele>417.0</ele><time>2026-04-04T11:48:55.346Z</time></trkpt><trkpt lat="43.3415222" lon="11.5997062"><ele>419.33333333333337</ele><time>2026-04-04T11:48:56.347Z</time></trkpt><trkpt lat="43.3416806" lon="11.599799"><ele>421.6666666666667</ele><time>2026-04-04T11:48:57.345Z</time></trkpt><trkpt lat="43.3418151" lon="11.5999411"><ele>424.0</ele><time>2026-04-04T11:48:58.346Z</time></trkpt><trkpt lat="43.3419243" lon="11.6001186"><ele>425.33333333333337</ele><time>2026-04-04T11:48:59.346Z</time></trkpt><trkpt lat="43.3420012" lon="11.6003401"><ele>426.66666666666663</ele><time>2026-04-04T11:49:00.346Z</time></trkpt><trkpt lat="43.3420407" lon="11.6005944"><ele>428.0</ele><time>2026-04-04T11:49:01.346Z</time></trkpt><trkpt lat="43.34204" lon="11.6008642"><ele>428.0</ele><time>2026-04-04T11:49:02.346Z</time></trkpt><trkpt lat="43.3420118" lon="11.6011375"><ele>428.0</ele><time>2026-04-04T11:49:03.347Z</time></trkpt><trkpt lat="43.3420067" lon="11.6014265"><ele>428.0</ele><time>2026-04-04T11:49:04.345Z</time></trkpt><trkpt lat="43.3420328" lon="11.601733"><ele>427.0</ele><time>2026-04-04T11:49:05.346Z</time></trkpt><trkpt lat="43.3420686" lon="11.6020468"><ele>426.0</ele><time>2026-04-04T11:49:06.347Z</time></trkpt><trkpt lat="43.3421078" lon="11.6023448"><ele>426.0</ele><time>2026-04-04T11:49:07.346Z</time></trkpt><trkpt lat="43.3421514" lon="11.6026156"><ele>426.0</ele><time>2026-04-04T11:49:08.346Z</time></trkpt><trkpt lat="43.3422197" lon="11.602871"><ele>426.0</ele><time>2026-04-04T11:49:09.347Z</time></trkpt><trkpt lat="43.3423325" lon="11.6031172"><ele>428.66666666666663</ele><time>2026-04-04T11:49:10.346Z</time></trkpt><trkpt lat="43.3424591" lon="11.6033609"><ele>431.3333333333333</ele><time>2026-04-04T11:49:11.346Z</time></trkpt><trkpt lat="43.3425871" lon="11.6036169"><ele>434.0</ele><time>2026-04-04T11:49:12.346Z</time></trkpt><trkpt lat="43.3427185" lon="11.6038661"><ele>434.0</ele><time>2026-04-04T11:49:13.346Z</time></trkpt><trkpt lat="43.3428396" lon="11.6040906"><ele>434.0</ele><time>2026-04-04T11:49:14.347Z</time></trkpt><trkpt lat="43.3429574" lon="11.6042953"><ele>434.0</ele><time>2026-04-04T11:49:15.346Z</time></trkpt><trkpt lat="43.3430904" lon="11.6044693"><ele>437.0</ele><time>2026-04-04T11:49:16.347Z</time></trkpt><trkpt lat="43.3432605" lon="11.604609"><ele>440.0</ele><time>2026-04-04T11:49:17.347Z</time></trkpt><trkpt lat="43.3434543" lon="11.6047365"><ele>443.0</ele><time>2026-04-04T11:49:18.345Z</time></trkpt><trkpt lat="43.3436511" lon="11.6048889"><ele>443.0</ele><time>2026-04-04T11:49:19.346Z</time></trkpt><trkpt lat="43.3438449" lon="11.6050542"><ele>443.0</ele><time>2026-04-04T11:49:20.346Z</time></trkpt><trkpt lat="43.3440447" lon="11.6052101"><ele>444.0</ele><time>2026-04-04T11:49:21.347Z</time></trkpt><trkpt lat="43.3442539" lon="11.6053461"><ele>445.0</ele><time>2026-04-04T11:49:22.346Z</time></trkpt><trkpt lat="43.344458" lon="11.6054687"><ele>445.0</ele><time>2026-04-04T11:49:23.346Z</time></trkpt><trkpt lat="43.344655" lon="11.6055931"><ele>445.0</ele><time>2026-04-04T11:49:24.347Z</time></trkpt><trkpt lat="43.3448411" lon="11.6057272"><ele>445.0</ele><time>2026-04-04T11:49:25.346Z</time></trkpt><trkpt lat="43.3450138" lon="11.6058771"><ele>447.0</ele><time>2026-04-04T11:49:26.346Z</time></trkpt><trkpt lat="43.3451654" lon="11.6060449"><ele>449.0</ele><time>2026-04-04T11:49:27.347Z</time></trkpt><trkpt lat="43.3453024" lon="11.6062422"><ele>451.0</ele><time>2026-04-04T11:49:28.346Z</time></trkpt><trkpt lat="43.345418" lon="11.6064755"><ele>451.0</ele><time>2026-04-04T11:49:29.347Z</time></trkpt><trkpt lat="43.3455138" lon="11.6067326"><ele>451.0</ele><time>2026-04-04T11:49:30.346Z</time></trkpt><trkpt lat="43.3456088" lon="11.6070029"><ele>451.0</ele><time>2026-04-04T11:49:31.346Z</time></trkpt><trkpt lat="43.3457052" lon="11.6072799"><ele>455.5</ele><time>2026-04-04T11:49:32.347Z</time></trkpt><trkpt lat="43.3458031" lon="11.6075654"><ele>460.0</ele><time>2026-04-04T11:49:33.346Z</time></trkpt><trkpt lat="43.3459012" lon="11.6078522"><ele>461.5</ele><time>2026-04-04T11:49:34.347Z</time></trkpt><trkpt lat="43.3460002" lon="11.6081436"><ele>463.0</ele><time>2026-04-04T11:49:35.347Z</time></trkpt><trkpt lat="43.3461017" lon="11.6084369"><ele>464.5</ele><time>2026-04-04T11:49:36.346Z</time></trkpt><trkpt lat="43.3462023" lon="11.6087302"><ele>466.0</ele><time>2026-04-04T11:49:37.347Z</time></trkpt><trkpt lat="43.3463038" lon="11.6090232"><ele>468.5</ele><time>2026-04-04T11:49:38.347Z</time></trkpt><trkpt lat="43.3464056" lon="11.609314"><ele>471.0</ele><time>2026-04-04T11:49:39.347Z</time></trkpt><trkpt lat="43.3465071" lon="11.609604"><ele>474.5</ele><time>2026-04-04T11:49:40.346Z</time></trkpt><trkpt lat="43.3466094" lon="11.6098917"><ele>478.0</ele><time>2026-04-04T11:49:41.347Z</time></trkpt><trkpt lat="43.3467113" lon="11.6101728"><ele>479.6666666666667</ele><time>2026-04-04T11:49:42.346Z</time></trkpt><trkpt lat="43.3468053" lon="11.6104422"><ele>481.33333333333337</ele><time>2026-04-04T11:49:43.347Z</time></trkpt><trkpt lat="43.3468854" lon="11.6106925"><ele>483.0</ele><time>2026-04-04T11:49:44.345Z</time></trkpt><trkpt lat="43.3469399" lon="11.6109379"><ele>484.33333333333337</ele><time>2026-04-04T11:49:45.346Z</time></trkpt><trkpt lat="43.3469566" lon="11.6111905"><ele>485.6666666666667</ele><time>2026-04-04T11:49:46.345Z</time></trkpt><trkpt lat="43.346958" lon="11.6114445"><ele>487.0</ele><time>2026-04-04T11:49:47.346Z</time></trkpt><trkpt lat="43.3469708" lon="11.6116821"><ele>487.0</ele><time>2026-04-04T11:49:48.346Z</time></trkpt><trkpt lat="43.3470148" lon="11.6118927"><ele>487.0</ele><time>2026-04-04T11:49:49.346Z</time></trkpt><trkpt lat="43.3471013" lon="11.6120678"><ele>487.0</ele><time>2026-04-04T11:49:50.347Z</time></trkpt><trkpt lat="43.3472311" lon="11.6122034"><ele>486.33333333333337</ele><time>2026-04-04T11:49:51.346Z</time></trkpt><trkpt lat="43.3473861" lon="11.6123344"><ele>485.66666666666663</ele><time>2026-04-04T11:49:52.346Z</time></trkpt><trkpt lat="43.3475553" lon="11.6124786"><ele>485.0</ele><time>2026-04-04T11:49:53.346Z</time></trkpt><trkpt lat="43.3477348" lon="11.6126333"><ele>485.0</ele><time>2026-04-04T11:49:54.347Z</time></trkpt><trkpt lat="43.3479166" lon="11.6127897"><ele>485.0</ele><time>2026-04-04T11:49:55.347Z</time></trkpt><trkpt lat="43.348098" lon="11.6129475"><ele>485.0</ele><time>2026-04-04T11:49:56.346Z</time></trkpt><trkpt lat="43.3482786" lon="11.6131024"><ele>485.3333333333333</ele><time>2026-04-04T11:49:57.347Z</time></trkpt><trkpt lat="43.3484562" lon="11.6132584"><ele>485.66666666666663</ele><time>2026-04-04T11:49:58.346Z</time></trkpt><trkpt lat="43.3486332" lon="11.6134153"><ele>486.0</ele><time>2026-04-04T11:49:59.345Z</time></trkpt><trkpt lat="43.3488019" lon="11.6135831"><ele>487.33333333333337</ele><time>2026-04-04T11:50:00.346Z</time></trkpt><trkpt lat="43.348958" lon="11.6137728"><ele>488.6666666666667</ele><time>2026-04-04T11:50:01.347Z</time></trkpt><trkpt lat="43.3491011" lon="11.6139792"><ele>490.0</ele><time>2026-04-04T11:50:02.346Z</time></trkpt><trkpt lat="43.349242" lon="11.6141972"><ele>490.0</ele><time>2026-04-04T11:50:03.347Z</time></trkpt><trkpt lat="43.3493775" lon="11.614429"><ele>490.0</ele><time>2026-04-04T11:50:04.346Z</time></trkpt><trkpt lat="43.3495002" lon="11.6146829"><ele>490.0</ele><time>2026-04-04T11:50:05.346Z</time></trkpt><trkpt lat="43.3496171" lon="11.6149493"><ele>489.0</ele><time>2026-04-04T11:50:06.346Z</time></trkpt><trkpt lat="43.3497339" lon="11.6152216"><ele>488.0</ele><time>2026-04-04T11:50:07.346Z</time></trkpt><trkpt lat="43.3498456" lon="11.6154953"><ele>490.5</ele><time>2026-04-04T11:50:08.346Z</time></trkpt><trkpt lat="43.3499504" lon="11.6157739"><ele>493.0</ele><time>2026-04-04T11:50:09.347Z</time></trkpt><trkpt lat="43.3500432" lon="11.6160586"><ele>493.0</ele><time>2026-04-04T11:50:10.346Z</time></trkpt><trkpt lat="43.3501232" lon="11.616348"><ele>493.0</ele><time>2026-04-04T11:50:11.346Z</time></trkpt><trkpt lat="43.3501896" lon="11.6166402"><ele>493.0</ele><time>2026-04-04T11:50:12.346Z</time></trkpt><trkpt lat="43.3502308" lon="11.6169319"><ele>494.33333333333337</ele><time>2026-04-04T11:50:13.346Z</time></trkpt><trkpt lat="43.3502392" lon="11.6172308"><ele>495.66666666666663</ele><time>2026-04-04T11:50:14.347Z</time></trkpt><trkpt lat="43.3502113" lon="11.6175266"><ele>497.0</ele><time>2026-04-04T11:50:15.347Z</time></trkpt><trkpt lat="43.3501563" lon="11.6178126"><ele>496.66666666666663</ele><time>2026-04-04T11:50:16.346Z</time></trkpt><trkpt lat="43.350086" lon="11.6180951"><ele>496.33333333333337</ele><time>2026-04-04T11:50:17.347Z</time></trkpt><trkpt lat="43.3500027" lon="11.6183774"><ele>496.0</ele><time>2026-04-04T11:50:18.346Z</time></trkpt><trkpt lat="43.3499273" lon="11.6186713"><ele>493.5</ele><time>2026-04-04T11:50:19.345Z</time></trkpt><trkpt lat="43.3498608" lon="11.6189876"><ele>491.0</ele><time>2026-04-04T11:50:20.347Z</time></trkpt><trkpt lat="43.3498094" lon="11.6193229"><ele>490.0</ele><time>2026-04-04T11:50:21.346Z</time></trkpt><trkpt lat="43.349769" lon="11.6196763"><ele>489.0</ele><time>2026-04-04T11:50:22.347Z</time></trkpt><trkpt lat="43.3497305" lon="11.6200439"><ele>485.0</ele><time>2026-04-04T11:50:23.346Z</time></trkpt><trkpt lat="43.3496904" lon="11.6204232"><ele>481.0</ele><time>2026-04-04T11:50:24.346Z</time></trkpt><trkpt lat="43.3496508" lon="11.6208131"><ele>480.5</ele><time>2026-04-04T11:50:25.346Z</time></trkpt><trkpt lat="43.3496117" lon="11.6212113"><ele>480.0</ele><time>2026-04-04T11:50:26.347Z</time></trkpt><trkpt lat="43.3495727" lon="11.6216146"><ele>482.5</ele><time>2026-04-04T11:50:27.347Z</time></trkpt><trkpt lat="43.3495367" lon="11.6220082"><ele>485.0</ele><time>2026-04-04T11:50:28.346Z</time></trkpt><trkpt lat="43.3495027" lon="11.6223739"><ele>485.0</ele><time>2026-04-04T11:50:29.345Z</time></trkpt><trkpt lat="43.3494692" lon="11.6227174"><ele>485.0</ele><time>2026-04-04T11:50:30.347Z</time></trkpt><trkpt lat="43.3494355" lon="11.623026"><ele>487.3333333333333</ele><time>2026-04-04T11:50:31.346Z</time></trkpt><trkpt lat="43.3493992" lon="11.6232938"><ele>489.66666666666663</ele><time>2026-04-04T11:50:32.346Z</time></trkpt><trkpt lat="43.3493446" lon="11.6235229"><ele>492.0</ele><time>2026-04-04T11:50:33.346Z</time></trkpt><trkpt lat="43.3492605" lon="11.6237249"><ele>492.75</ele><time>2026-04-04T11:50:34.347Z</time></trkpt><trkpt lat="43.3491795" lon="11.6238528"><ele>493.5</ele><time>2026-04-04T11:50:35.345Z</time></trkpt><trkpt lat="43.3491031" lon="11.6239764"><ele>494.25</ele><time>2026-04-04T11:50:36.346Z</time></trkpt><trkpt lat="43.3490212" lon="11.6241118"><ele>495.0</ele><time>2026-04-04T11:50:37.346Z</time></trkpt><trkpt lat="43.3489474" lon="11.6242604"><ele>495.0</ele><time>2026-04-04T11:50:38.346Z</time></trkpt><trkpt lat="43.348904" lon="11.6244382"><ele>495.0</ele><time>2026-04-04T11:50:39.346Z</time></trkpt><trkpt lat="43.3488906" lon="11.6246297"><ele>495.0</ele><time>2026-04-04T11:50:40.346Z</time></trkpt><trkpt lat="43.348886" lon="11.6248292"><ele>495.0</ele><time>2026-04-04T11:50:41.346Z</time></trkpt><trkpt lat="43.3488589" lon="11.6250385"><ele>498.66666666666663</ele><time>2026-04-04T11:50:42.347Z</time></trkpt><trkpt lat="43.3487795" lon="11.6252323"><ele>502.3333333333333</ele><time>2026-04-04T11:50:43.347Z</time></trkpt><trkpt lat="43.3486522" lon="11.6253813"><ele>506.0</ele><time>2026-04-04T11:50:44.346Z</time></trkpt><trkpt lat="43.3484927" lon="11.6255059"><ele>506.0</ele><time>2026-04-04T11:50:45.346Z</time></trkpt><trkpt lat="43.3483144" lon="11.6256353"><ele>506.0</ele><time>2026-04-04T11:50:46.346Z</time></trkpt><trkpt lat="43.3481222" lon="11.6257747"><ele>506.0</ele><time>2026-04-04T11:50:47.345Z</time></trkpt><trkpt lat="43.3479248" lon="11.6259145"><ele>506.0</ele><time>2026-04-04T11:50:48.347Z</time></trkpt><trkpt lat="43.3477375" lon="11.6260435"><ele>506.0</ele><time>2026-04-04T11:50:49.346Z</time></trkpt><trkpt lat="43.3475645" lon="11.6261652"><ele>506.0</ele><time>2026-04-04T11:50:50.346Z</time></trkpt><trkpt lat="43.3474111" lon="11.6262908"><ele>506.66666666666663</ele><time>2026-04-04T11:50:51.345Z</time></trkpt><trkpt lat="43.347283" lon="11.6264337"><ele>507.33333333333337</ele><time>2026-04-04T11:50:52.347Z</time></trkpt><trkpt lat="43.3472104" lon="11.6266607"><ele>508.0</ele><time>2026-04-04T11:50:53.346Z</time></trkpt><trkpt lat="43.3471206" lon="11.6268909"><ele>510.0</ele><time>2026-04-04T11:50:54.347Z</time></trkpt><trkpt lat="43.3469788" lon="11.6271091"><ele>512.0</ele><time>2026-04-04T11:50:55.347Z</time></trkpt><trkpt lat="43.3468143" lon="11.6273197"><ele>514.0</ele><time>2026-04-04T11:50:56.346Z</time></trkpt><trkpt lat="43.3466357" lon="11.6275184"><ele>514.0</ele><time>2026-04-04T11:50:57.346Z</time></trkpt><trkpt lat="43.3464468" lon="11.6276786"><ele>514.0</ele><time>2026-04-04T11:50:58.346Z</time></trkpt><trkpt lat="43.3462592" lon="11.6278051"><ele>514.0</ele><time>2026-04-04T11:50:59.346Z</time></trkpt><trkpt lat="43.3461003" lon="11.6279205"><ele>516.3333333333334</ele><time>2026-04-04T11:51:00.345Z</time></trkpt><trkpt lat="43.3459668" lon="11.6280587"><ele>518.6666666666666</ele><time>2026-04-04T11:51:01.346Z</time></trkpt><trkpt lat="43.345875" lon="11.6282356"><ele>521.0</ele><time>2026-04-04T11:51:02.346Z</time></trkpt><trkpt lat="43.3458261" lon="11.6284366"><ele>519.3333333333333</ele><time>2026-04-04T11:51:03.346Z</time></trkpt><trkpt lat="43.3458085" lon="11.6286664"><ele>517.6666666666666</ele><time>2026-04-04T11:51:04.345Z</time></trkpt><trkpt lat="43.3457688" lon="11.628908"><ele>516.0</ele><time>2026-04-04T11:51:05.346Z</time></trkpt><trkpt lat="43.3456834" lon="11.6291469"><ele>516.0</ele><time>2026-04-04T11:51:06.346Z</time></trkpt><trkpt lat="43.3455716" lon="11.6293812"><ele>516.0</ele><time>2026-04-04T11:51:07.347Z</time></trkpt><trkpt lat="43.34544" lon="11.6296141"><ele>516.0</ele><time>2026-04-04T11:51:08.345Z</time></trkpt><trkpt lat="43.3452814" lon="11.6298374"><ele>516.0</ele><time>2026-04-04T11:51:09.346Z</time></trkpt><trkpt lat="43.3451191" lon="11.6300735"><ele>516.0</ele><time>2026-04-04T11:51:10.346Z</time></trkpt><trkpt lat="43.3449723" lon="11.6303036"><ele>517.0</ele><time>2026-04-04T11:51:11.347Z</time></trkpt><trkpt lat="43.3448374" lon="11.630518"><ele>518.0</ele><time>2026-04-04T11:51:12.346Z</time></trkpt><trkpt lat="43.344723" lon="11.6307534"><ele>519.0</ele><time>2026-04-04T11:51:13.346Z</time></trkpt><trkpt lat="43.3446377" lon="11.6310308"><ele>522.5</ele><time>2026-04-04T11:51:14.346Z</time></trkpt><trkpt lat="43.344573" lon="11.6313333"><ele>526.0</ele><time>2026-04-04T11:51:15.345Z</time></trkpt><trkpt lat="43.3445033" lon="11.6316491"><ele>526.5</ele><time>2026-04-04T11:51:16.345Z</time></trkpt><trkpt lat="43.3444335" lon="11.6319808"><ele>527.0</ele><time>2026-04-04T11:51:17.346Z</time></trkpt><trkpt lat="43.3443658" lon="11.6323171"><ele>527.0</ele><time>2026-04-04T11:51:18.346Z</time></trkpt><trkpt lat="43.3442974" lon="11.6326519"><ele>527.0</ele><time>2026-04-04T11:51:19.346Z</time></trkpt><trkpt lat="43.3442361" lon="11.6329675"><ele>527.6666666666666</ele><time>2026-04-04T11:51:20.347Z</time></trkpt><trkpt lat="43.3441881" lon="11.6332657"><ele>528.3333333333334</ele><time>2026-04-04T11:51:21.346Z</time></trkpt><trkpt lat="43.344166" lon="11.6335512"><ele>529.0</ele><time>2026-04-04T11:51:22.346Z</time></trkpt><trkpt lat="43.3441825" lon="11.6338448"><ele>531.0</ele><time>2026-04-04T11:51:23.347Z</time></trkpt><trkpt lat="43.3442371" lon="11.6341329"><ele>533.0</ele><time>2026-04-04T11:51:24.346Z</time></trkpt><trkpt lat="43.344318" lon="11.6343849"><ele>535.0</ele><time>2026-04-04T11:51:25.345Z</time></trkpt><trkpt lat="43.344405" lon="11.6346081"><ele>536.5</ele><time>2026-04-04T11:51:26.346Z</time></trkpt><trkpt lat="43.3444676" lon="11.6348214"><ele>538.0</ele><time>2026-04-04T11:51:27.345Z</time></trkpt><trkpt lat="43.3444875" lon="11.6350256"><ele>539.5</ele><time>2026-04-04T11:51:28.346Z</time></trkpt><trkpt lat="43.3444514" lon="11.6351983"><ele>541.0</ele><time>2026-04-04T11:51:29.346Z</time></trkpt><trkpt lat="43.344352" lon="11.6353565"><ele>543.3333333333334</ele><time>2026-04-04T11:51:30.345Z</time></trkpt><trkpt lat="43.3442274" lon="11.635512"><ele>545.6666666666666</ele><time>2026-04-04T11:51:31.346Z</time></trkpt><trkpt lat="43.3440957" lon="11.6356808"><ele>548.0</ele><time>2026-04-04T11:51:32.347Z</time></trkpt><trkpt lat="43.3439584" lon="11.6358562"><ele>545.5</ele><time>2026-04-04T11:51:33.346Z</time></trkpt><trkpt lat="43.3438371" lon="11.6360173"><ele>543.0</ele><time>2026-04-04T11:51:34.345Z</time></trkpt><trkpt lat="43.3436855" lon="11.6364178"><ele>543.0</ele><time>2026-04-04T11:51:36.347Z</time></trkpt><trkpt lat="43.3437508" lon="11.636859"><ele>543.0</ele><time>2026-04-04T11:51:38.347Z</time></trkpt><trkpt lat="43.3438415" lon="11.6370373"><ele>545.6666666666666</ele><time>2026-04-04T11:51:39.347Z</time></trkpt><trkpt lat="43.3439785" lon="11.6371699"><ele>548.3333333333333</ele><time>2026-04-04T11:51:40.347Z</time></trkpt><trkpt lat="43.3441538" lon="11.6372495"><ele>551.0</ele><time>2026-04-04T11:51:41.345Z</time></trkpt><trkpt lat="43.3443531" lon="11.6373024"><ele>551.0</ele><time>2026-04-04T11:51:42.346Z</time></trkpt><trkpt lat="43.3445654" lon="11.6373783"><ele>551.0</ele><time>2026-04-04T11:51:43.347Z</time></trkpt><trkpt lat="43.3447786" lon="11.6374988"><ele>553.0</ele><time>2026-04-04T11:51:44.346Z</time></trkpt><trkpt lat="43.344993" lon="11.6376406"><ele>555.0</ele><time>2026-04-04T11:51:45.347Z</time></trkpt><trkpt lat="43.3452106" lon="11.6377957"><ele>555.5</ele><time>2026-04-04T11:51:46.346Z</time></trkpt><trkpt lat="43.345427" lon="11.6379599"><ele>556.0</ele><time>2026-04-04T11:51:47.346Z</time></trkpt><trkpt lat="43.3456397" lon="11.6381259"><ele>558.0</ele><time>2026-04-04T11:51:48.346Z</time></trkpt><trkpt lat="43.3458409" lon="11.6382799"><ele>560.0</ele><time>2026-04-04T11:51:49.347Z</time></trkpt><trkpt lat="43.3460251" lon="11.6384264"><ele>562.0</ele><time>2026-04-04T11:51:50.347Z</time></trkpt><trkpt lat="43.3461883" lon="11.6385869"><ele>563.6666666666667</ele><time>2026-04-04T11:51:51.346Z</time></trkpt><trkpt lat="43.3463264" lon="11.6387877"><ele>565.3333333333334</ele><time>2026-04-04T11:51:52.347Z</time></trkpt><trkpt lat="43.3464469" lon="11.6390077"><ele>567.0</ele><time>2026-04-04T11:51:53.346Z</time></trkpt><trkpt lat="43.3465692" lon="11.6392259"><ele>567.0</ele><time>2026-04-04T11:51:54.346Z</time></trkpt><trkpt lat="43.3466986" lon="11.639435"><ele>567.0</ele><time>2026-04-04T11:51:55.346Z</time></trkpt><trkpt lat="43.3468461" lon="11.639617"><ele>567.0</ele><time>2026-04-04T11:51:56.346Z</time></trkpt><trkpt lat="43.3470158" lon="11.6397615"><ele>568.6666666666666</ele><time>2026-04-04T11:51:57.346Z</time></trkpt><trkpt lat="43.347213" lon="11.6398625"><ele>570.3333333333333</ele><time>2026-04-04T11:51:58.347Z</time></trkpt><trkpt lat="43.3474238" lon="11.6399451"><ele>572.0</ele><time>2026-04-04T11:51:59.346Z</time></trkpt><trkpt lat="43.347642" lon="11.6400296"><ele>572.0</ele><time>2026-04-04T11:52:00.347Z</time></trkpt><trkpt lat="43.3478602" lon="11.6401177"><ele>572.0</ele><time>2026-04-04T11:52:01.346Z</time></trkpt><trkpt lat="43.3480637" lon="11.6402001"><ele>572.0</ele><time>2026-04-04T11:52:02.346Z</time></trkpt><trkpt lat="43.3482573" lon="11.640286"><ele>574.6666666666666</ele><time>2026-04-04T11:52:03.345Z</time></trkpt><trkpt lat="43.3484342" lon="11.6403977"><ele>577.3333333333334</ele><time>2026-04-04T11:52:04.346Z</time></trkpt><trkpt lat="43.3486012" lon="11.6405483"><ele>580.0</ele><time>2026-04-04T11:52:05.346Z</time></trkpt><trkpt lat="43.3487622" lon="11.6407107"><ele>576.6666666666667</ele><time>2026-04-04T11:52:06.345Z</time></trkpt><trkpt lat="43.3489265" lon="11.640855"><ele>573.3333333333334</ele><time>2026-04-04T11:52:07.345Z</time></trkpt><trkpt lat="43.3490844" lon="11.64097"><ele>570.0</ele><time>2026-04-04T11:52:08.346Z</time></trkpt><trkpt lat="43.3492186" lon="11.641066"><ele>571.5</ele><time>2026-04-04T11:52:09.346Z</time></trkpt><trkpt lat="43.3493247" lon="11.6411837"><ele>573.0</ele><time>2026-04-04T11:52:10.346Z</time></trkpt><trkpt lat="43.3493843" lon="11.6413529"><ele>574.5</ele><time>2026-04-04T11:52:11.346Z</time></trkpt><trkpt lat="43.3493812" lon="11.6415348"><ele>576.0</ele><time>2026-04-04T11:52:12.347Z</time></trkpt><trkpt lat="43.3493478" lon="11.6417161"><ele>576.0</ele><time>2026-04-04T11:52:13.346Z</time></trkpt><trkpt lat="43.3493614" lon="11.6419152"><ele>576.0</ele><time>2026-04-04T11:52:14.346Z</time></trkpt><trkpt lat="43.3494263" lon="11.6420961"><ele>576.0</ele><time>2026-04-04T11:52:15.346Z</time></trkpt><trkpt lat="43.3495424" lon="11.6422452"><ele>575.6666666666666</ele><time>2026-04-04T11:52:16.346Z</time></trkpt><trkpt lat="43.3497037" lon="11.6423683"><ele>575.3333333333333</ele><time>2026-04-04T11:52:17.345Z</time></trkpt><trkpt lat="43.349889" lon="11.6425018"><ele>575.0</ele><time>2026-04-04T11:52:18.346Z</time></trkpt><trkpt lat="43.3500867" lon="11.6426454"><ele>565.5</ele><time>2026-04-04T11:52:19.346Z</time></trkpt><trkpt lat="43.3502897" lon="11.6428185"><ele>556.0</ele><time>2026-04-04T11:52:20.346Z</time></trkpt><trkpt lat="43.3504849" lon="11.6430305"><ele>555.5</ele><time>2026-04-04T11:52:21.346Z</time></trkpt><trkpt lat="43.3506594" lon="11.6432811"><ele>555.0</ele><time>2026-04-04T11:52:22.346Z</time></trkpt><trkpt lat="43.3508182" lon="11.6435323"><ele>552.5</ele><time>2026-04-04T11:52:23.346Z</time></trkpt><trkpt lat="43.3509719" lon="11.6437671"><ele>550.0</ele><time>2026-04-04T11:52:24.347Z</time></trkpt><trkpt lat="43.3511248" lon="11.6439862"><ele>550.0</ele><time>2026-04-04T11:52:25.346Z</time></trkpt><trkpt lat="43.3512839" lon="11.6441753"><ele>550.0</ele><time>2026-04-04T11:52:26.346Z</time></trkpt><trkpt lat="43.3514558" lon="11.6443134"><ele>550.0</ele><time>2026-04-04T11:52:27.347Z</time></trkpt><trkpt lat="43.3516355" lon="11.6443961"><ele>550.6666666666667</ele><time>2026-04-04T11:52:28.347Z</time></trkpt><trkpt lat="43.35182" lon="11.6444032"><ele>551.3333333333334</ele><time>2026-04-04T11:52:29.346Z</time></trkpt><trkpt lat="43.3520105" lon="11.6443253"><ele>552.0</ele><time>2026-04-04T11:52:30.347Z</time></trkpt><trkpt lat="43.3522063" lon="11.6442218"><ele>553.0</ele><time>2026-04-04T11:52:31.347Z</time></trkpt><trkpt lat="43.3524185" lon="11.6441511"><ele>554.0</ele><time>2026-04-04T11:52:32.347Z</time></trkpt><trkpt lat="43.352648" lon="11.644117"><ele>555.0</ele><time>2026-04-04T11:52:33.346Z</time></trkpt><trkpt lat="43.3528833" lon="11.6440835"><ele>554.6666666666666</ele><time>2026-04-04T11:52:34.346Z</time></trkpt><trkpt lat="43.3530986" lon="11.6440245"><ele>554.3333333333333</ele><time>2026-04-04T11:52:35.346Z</time></trkpt><trkpt lat="43.3532952" lon="11.6439301"><ele>554.0</ele><time>2026-04-04T11:52:36.346Z</time></trkpt><trkpt lat="43.3534607" lon="11.6437666"><ele>553.3333333333333</ele><time>2026-04-04T11:52:37.347Z</time></trkpt><trkpt lat="43.3535858" lon="11.6435701"><ele>552.6666666666666</ele><time>2026-04-04T11:52:38.346Z</time></trkpt><trkpt lat="43.3537101" lon="11.6433926"><ele>552.0</ele><time>2026-04-04T11:52:39.346Z</time></trkpt><trkpt lat="43.3538622" lon="11.6432659"><ele>555.6666666666666</ele><time>2026-04-04T11:52:40.346Z</time></trkpt><trkpt lat="43.3540368" lon="11.6431993"><ele>559.3333333333333</ele><time>2026-04-04T11:52:41.345Z</time></trkpt><trkpt lat="43.3542234" lon="11.643172"><ele>563.0</ele><time>2026-04-04T11:52:42.347Z</time></trkpt><trkpt lat="43.3544088" lon="11.6431885"><ele>563.0</ele><time>2026-04-04T11:52:43.346Z</time></trkpt><trkpt lat="43.3545771" lon="11.6432513"><ele>563.0</ele><time>2026-04-04T11:52:44.346Z</time></trkpt><trkpt lat="43.3547244" lon="11.6433694"><ele>563.0</ele><time>2026-04-04T11:52:45.346Z</time></trkpt><trkpt lat="43.3548617" lon="11.6435112"><ele>566.0</ele><time>2026-04-04T11:52:46.347Z</time></trkpt><trkpt lat="43.3549883" lon="11.6436373"><ele>569.0</ele><time>2026-04-04T11:52:47.347Z</time></trkpt><trkpt lat="43.3551048" lon="11.6437588"><ele>572.0</ele><time>2026-04-04T11:52:48.346Z</time></trkpt><trkpt lat="43.3552049" lon="11.6438844"><ele>575.0</ele><time>2026-04-04T11:52:49.347Z</time></trkpt><trkpt lat="43.355294" lon="11.644021"><ele>575.0</ele><time>2026-04-04T11:52:50.346Z</time></trkpt><trkpt lat="43.3553552" lon="11.6441809"><ele>575.0</ele><time>2026-04-04T11:52:51.347Z</time></trkpt><trkpt lat="43.3553657" lon="11.644366"><ele>575.0</ele><time>2026-04-04T11:52:52.346Z</time></trkpt><trkpt lat="43.3553293" lon="11.6445629"><ele>575.0</ele><time>2026-04-04T11:52:53.347Z</time></trkpt><trkpt lat="43.3552685" lon="11.6447693"><ele>575.3333333333333</ele><time>2026-04-04T11:52:54.346Z</time></trkpt><trkpt lat="43.3552029" lon="11.6449968"><ele>575.6666666666666</ele><time>2026-04-04T11:52:55.345Z</time></trkpt><trkpt lat="43.3551278" lon="11.6452368"><ele>576.0</ele><time>2026-04-04T11:52:56.347Z</time></trkpt><trkpt lat="43.3550401" lon="11.645484"><ele>577.0</ele><time>2026-04-04T11:52:57.346Z</time></trkpt><trkpt lat="43.3549376" lon="11.6457321"><ele>578.0</ele><time>2026-04-04T11:52:58.347Z</time></trkpt><trkpt lat="43.3548247" lon="11.6459682"><ele>579.0</ele><time>2026-04-04T11:52:59.346Z</time></trkpt><trkpt lat="43.3546982" lon="11.6461906"><ele>579.6666666666666</ele><time>2026-04-04T11:53:00.347Z</time></trkpt><trkpt lat="43.3545658" lon="11.646404"><ele>580.3333333333333</ele><time>2026-04-04T11:53:01.346Z</time></trkpt><trkpt lat="43.3544313" lon="11.6466075"><ele>581.0</ele><time>2026-04-04T11:53:02.346Z</time></trkpt><trkpt lat="43.3542874" lon="11.6468038"><ele>582.6666666666666</ele><time>2026-04-04T11:53:03.346Z</time></trkpt><trkpt lat="43.3541422" lon="11.6469999"><ele>584.3333333333334</ele><time>2026-04-04T11:53:04.345Z</time></trkpt><trkpt lat="43.3540058" lon="11.6472178"><ele>586.0</ele><time>2026-04-04T11:53:05.346Z</time></trkpt><trkpt lat="43.3538887" lon="11.6474524"><ele>581.3333333333334</ele><time>2026-04-04T11:53:06.346Z</time></trkpt><trkpt lat="43.3537905" lon="11.647676"><ele>576.6666666666666</ele><time>2026-04-04T11:53:07.347Z</time></trkpt><trkpt lat="43.3537154" lon="11.6478922"><ele>572.0</ele><time>2026-04-04T11:53:08.346Z</time></trkpt><trkpt lat="43.3536723" lon="11.6481211"><ele>572.0</ele><time>2026-04-04T11:53:09.346Z</time></trkpt><trkpt lat="43.353675" lon="11.648371"><ele>572.0</ele><time>2026-04-04T11:53:10.346Z</time></trkpt><trkpt lat="43.3537177" lon="11.6486238"><ele>572.0</ele><time>2026-04-04T11:53:11.346Z</time></trkpt><trkpt lat="43.3537974" lon="11.6488561"><ele>572.3333333333333</ele><time>2026-04-04T11:53:12.346Z</time></trkpt><trkpt lat="43.3538838" lon="11.6490677"><ele>572.6666666666666</ele><time>2026-04-04T11:53:13.347Z</time></trkpt><trkpt lat="43.3539483" lon="11.6492821"><ele>573.0</ele><time>2026-04-04T11:53:14.347Z</time></trkpt><trkpt lat="43.3539681" lon="11.6494872"><ele>573.0</ele><time>2026-04-04T11:53:15.346Z</time></trkpt><trkpt lat="43.3539245" lon="11.6497057"><ele>573.0</ele><time>2026-04-04T11:53:16.346Z</time></trkpt><trkpt lat="43.3538182" lon="11.6499018"><ele>573.0</ele><time>2026-04-04T11:53:17.347Z</time></trkpt><trkpt lat="43.3536748" lon="11.6500728"><ele>572.3333333333334</ele><time>2026-04-04T11:53:18.346Z</time></trkpt><trkpt lat="43.3535123" lon="11.6502427"><ele>571.6666666666667</ele><time>2026-04-04T11:53:19.347Z</time></trkpt><trkpt lat="43.3533378" lon="11.650418"><ele>571.0</ele><time>2026-04-04T11:53:20.346Z</time></trkpt><trkpt lat="43.3531545" lon="11.650588"><ele>573.6666666666667</ele><time>2026-04-04T11:53:21.346Z</time></trkpt><trkpt lat="43.3529683" lon="11.6507492"><ele>576.3333333333334</ele><time>2026-04-04T11:53:22.346Z</time></trkpt><trkpt lat="43.3527718" lon="11.6508897"><ele>579.0</ele><time>2026-04-04T11:53:23.346Z</time></trkpt><trkpt lat="43.3525669" lon="11.6510077"><ele>579.0</ele><time>2026-04-04T11:53:24.347Z</time></trkpt><trkpt lat="43.3523666" lon="11.6511036"><ele>579.0</ele><time>2026-04-04T11:53:25.346Z</time></trkpt><trkpt lat="43.3521719" lon="11.6511868"><ele>579.0</ele><time>2026-04-04T11:53:26.346Z</time></trkpt><trkpt lat="43.3519966" lon="11.6512705"><ele>576.3333333333334</ele><time>2026-04-04T11:53:27.347Z</time></trkpt><trkpt lat="43.3518527" lon="11.6513565"><ele>573.6666666666667</ele><time>2026-04-04T11:53:28.345Z</time></trkpt><trkpt lat="43.351733" lon="11.6514722"><ele>571.0</ele><time>2026-04-04T11:53:29.347Z</time></trkpt><trkpt lat="43.351652" lon="11.6516571"><ele>571.0</ele><time>2026-04-04T11:53:30.347Z</time></trkpt><trkpt lat="43.3516172" lon="11.6518765"><ele>571.0</ele><time>2026-04-04T11:53:31.346Z</time></trkpt><trkpt lat="43.3515696" lon="11.6520929"><ele>571.0</ele><time>2026-04-04T11:53:32.346Z</time></trkpt><trkpt lat="43.3514993" lon="11.6522659"><ele>571.75</ele><time>2026-04-04T11:53:33.346Z</time></trkpt><trkpt lat="43.3513874" lon="11.6523591"><ele>572.5</ele><time>2026-04-04T11:53:34.347Z</time></trkpt><trkpt lat="43.3512587" lon="11.6523775"><ele>573.25</ele><time>2026-04-04T11:53:35.346Z</time></trkpt><trkpt lat="43.3511289" lon="11.6523053"><ele>574.0</ele><time>2026-04-04T11:53:36.346Z</time></trkpt><trkpt lat="43.3510701" lon="11.6522729"><ele>577.0</ele><time>2026-04-04T11:53:37.311Z</time></trkpt><trkpt lat="43.3508469" lon="11.6520985"><ele>580.0</ele><time>2026-04-04T11:53:38.346Z</time></trkpt><trkpt lat="43.3506619" lon="11.6520785"><ele>583.0</ele><time>2026-04-04T11:53:39.347Z</time></trkpt><trkpt lat="43.3504939" lon="11.6521072"><ele>583.0</ele><time>2026-04-04T11:53:40.345Z</time></trkpt><trkpt lat="43.3503503" lon="11.6521967"><ele>583.0</ele><time>2026-04-04T11:53:41.347Z</time></trkpt><trkpt lat="43.3502197" lon="11.6523568"><ele>583.0</ele><time>2026-04-04T11:53:42.347Z</time></trkpt><trkpt lat="43.350102" lon="11.6525545"><ele>583.0</ele><time>2026-04-04T11:53:43.347Z</time></trkpt><trkpt lat="43.3499915" lon="11.6527379"><ele>583.0</ele><time>2026-04-04T11:53:44.347Z</time></trkpt><trkpt lat="43.3498724" lon="11.6528819"><ele>583.0</ele><time>2026-04-04T11:53:45.346Z</time></trkpt><trkpt lat="43.3497565" lon="11.6529627"><ele>585.75</ele><time>2026-04-04T11:53:46.346Z</time></trkpt><trkpt lat="43.349649" lon="11.6529561"><ele>588.5</ele><time>2026-04-04T11:53:47.346Z</time></trkpt><trkpt lat="43.3495702" lon="11.6528767"><ele>591.25</ele><time>2026-04-04T11:53:48.345Z</time></trkpt><trkpt lat="43.3495296" lon="11.6527215"><ele>594.0</ele><time>2026-04-04T11:53:49.345Z</time></trkpt><trkpt lat="43.3495109" lon="11.6525306"><ele>594.0</ele><time>2026-04-04T11:53:50.345Z</time></trkpt><trkpt lat="43.3494793" lon="11.6523154"><ele>594.0</ele><time>2026-04-04T11:53:51.344Z</time></trkpt><trkpt lat="43.3494233" lon="11.6521053"><ele>594.0</ele><time>2026-04-04T11:53:52.346Z</time></trkpt><trkpt lat="43.3493373" lon="11.6519419"><ele>590.6666666666666</ele><time>2026-04-04T11:53:53.345Z</time></trkpt><trkpt lat="43.3492133" lon="11.6518201"><ele>587.3333333333333</ele><time>2026-04-04T11:53:54.345Z</time></trkpt><trkpt lat="43.3490528" lon="11.6517497"><ele>584.0</ele><time>2026-04-04T11:53:55.345Z</time></trkpt><trkpt lat="43.3488668" lon="11.6517082"><ele>584.0</ele><time>2026-04-04T11:53:56.344Z</time></trkpt><trkpt lat="43.3486629" lon="11.6516637"><ele>584.0</ele><time>2026-04-04T11:53:57.346Z</time></trkpt><trkpt lat="43.3484598" lon="11.6516218"><ele>584.0</ele><time>2026-04-04T11:53:58.346Z</time></trkpt><trkpt lat="43.3482718" lon="11.6515894"><ele>584.0</ele><time>2026-04-04T11:53:59.345Z</time></trkpt><trkpt lat="43.3481017" lon="11.6515705"><ele>584.0</ele><time>2026-04-04T11:54:00.346Z</time></trkpt><trkpt lat="43.3479535" lon="11.6515859"><ele>584.0</ele><time>2026-04-04T11:54:01.346Z</time></trkpt><trkpt lat="43.3478187" lon="11.6516662"><ele>582.6666666666666</ele><time>2026-04-04T11:54:02.344Z</time></trkpt><trkpt lat="43.3477194" lon="11.6518092"><ele>581.3333333333334</ele><time>2026-04-04T11:54:03.346Z</time></trkpt><trkpt lat="43.3476646" lon="11.6520093"><ele>580.0</ele><time>2026-04-04T11:54:04.345Z</time></trkpt><trkpt lat="43.3476348" lon="11.6522412"><ele>580.0</ele><time>2026-04-04T11:54:05.345Z</time></trkpt><trkpt lat="43.3476106" lon="11.6524983"><ele>580.0</ele><time>2026-04-04T11:54:06.344Z</time></trkpt><trkpt lat="43.3475875" lon="11.6527741"><ele>580.0</ele><time>2026-04-04T11:54:07.345Z</time></trkpt><trkpt lat="43.3475622" lon="11.6530393"><ele>580.0</ele><time>2026-04-04T11:54:08.344Z</time></trkpt><trkpt lat="43.3475331" lon="11.6532892"><ele>580.0</ele><time>2026-04-04T11:54:09.346Z</time></trkpt><trkpt lat="43.347488" lon="11.6535223"><ele>580.0</ele><time>2026-04-04T11:54:10.345Z</time></trkpt><trkpt lat="43.3473937" lon="11.6537152"><ele>580.0</ele><time>2026-04-04T11:54:11.344Z</time></trkpt><trkpt lat="43.3472506" lon="11.6538468"><ele>580.0</ele><time>2026-04-04T11:54:12.345Z</time></trkpt><trkpt lat="43.3470807" lon="11.6539528"><ele>580.0</ele><time>2026-04-04T11:54:13.345Z</time></trkpt><trkpt lat="43.3468969" lon="11.6540537"><ele>580.0</ele><time>2026-04-04T11:54:14.345Z</time></trkpt><trkpt lat="43.3466976" lon="11.6541569"><ele>580.0</ele><time>2026-04-04T11:54:15.345Z</time></trkpt><trkpt lat="43.3464948" lon="11.6542576"><ele>580.0</ele><time>2026-04-04T11:54:16.345Z</time></trkpt><trkpt lat="43.3462959" lon="11.6543604"><ele>582.3333333333334</ele><time>2026-04-04T11:54:17.345Z</time></trkpt><trkpt lat="43.3461057" lon="11.6544876"><ele>584.6666666666666</ele><time>2026-04-04T11:54:18.345Z</time></trkpt><trkpt lat="43.3459229" lon="11.6546548"><ele>587.0</ele><time>2026-04-04T11:54:19.346Z</time></trkpt><trkpt lat="43.3457413" lon="11.6548416"><ele>587.0</ele><time>2026-04-04T11:54:20.345Z</time></trkpt><trkpt lat="43.3455536" lon="11.6550356"><ele>587.0</ele><time>2026-04-04T11:54:21.345Z</time></trkpt><trkpt lat="43.3453611" lon="11.6552317"><ele>588.3333333333333</ele><time>2026-04-04T11:54:22.346Z</time></trkpt><trkpt lat="43.3451775" lon="11.6554214"><ele>589.6666666666666</ele><time>2026-04-04T11:54:23.344Z</time></trkpt><trkpt lat="43.345006" lon="11.6555975"><ele>591.0</ele><time>2026-04-04T11:54:24.344Z</time></trkpt><trkpt lat="43.3448461" lon="11.6557657"><ele>588.3333333333334</ele><time>2026-04-04T11:54:25.345Z</time></trkpt><trkpt lat="43.3447009" lon="11.655944"><ele>585.6666666666667</ele><time>2026-04-04T11:54:26.346Z</time></trkpt><trkpt lat="43.344572" lon="11.6561496"><ele>583.0</ele><time>2026-04-04T11:54:27.346Z</time></trkpt><trkpt lat="43.3444649" lon="11.656364"><ele>583.0</ele><time>2026-04-04T11:54:28.345Z</time></trkpt><trkpt lat="43.3443759" lon="11.6565704"><ele>583.0</ele><time>2026-04-04T11:54:29.345Z</time></trkpt><trkpt lat="43.3443169" lon="11.6567681"><ele>583.0</ele><time>2026-04-04T11:54:30.346Z</time></trkpt><trkpt lat="43.3442973" lon="11.6569786"><ele>582.6666666666667</ele><time>2026-04-04T11:54:31.345Z</time></trkpt><trkpt lat="43.3443292" lon="11.6572037"><ele>582.3333333333334</ele><time>2026-04-04T11:54:32.346Z</time></trkpt><trkpt lat="43.344388" lon="11.6574419"><ele>582.0</ele><time>2026-04-04T11:54:33.346Z</time></trkpt><trkpt lat="43.3444507" lon="11.6576944"><ele>579.6666666666666</ele><time>2026-04-04T11:54:34.346Z</time></trkpt><trkpt lat="43.344518" lon="11.6579615"><ele>577.3333333333333</ele><time>2026-04-04T11:54:35.345Z</time></trkpt><trkpt lat="43.3445867" lon="11.6582391"><ele>575.0</ele><time>2026-04-04T11:54:36.344Z</time></trkpt><trkpt lat="43.3446528" lon="11.6585197"><ele>582.0</ele><time>2026-04-04T11:54:37.346Z</time></trkpt><trkpt lat="43.3447207" lon="11.6588023"><ele>589.0</ele><time>2026-04-04T11:54:38.344Z</time></trkpt><trkpt lat="43.3447885" lon="11.6590861"><ele>596.0</ele><time>2026-04-04T11:54:39.345Z</time></trkpt><trkpt lat="43.3448553" lon="11.6593673"><ele>594.0</ele><time>2026-04-04T11:54:40.345Z</time></trkpt><trkpt lat="43.3449201" lon="11.6596372"><ele>592.0</ele><time>2026-04-04T11:54:41.344Z</time></trkpt><trkpt lat="43.3449785" lon="11.6598957"><ele>590.0</ele><time>2026-04-04T11:54:42.346Z</time></trkpt><trkpt lat="43.3450241" lon="11.6601449"><ele>589.0</ele><time>2026-04-04T11:54:43.345Z</time></trkpt><trkpt lat="43.345043" lon="11.6603905"><ele>588.0</ele><time>2026-04-04T11:54:44.346Z</time></trkpt><trkpt lat="43.3450212" lon="11.6606373"><ele>587.0</ele><time>2026-04-04T11:54:45.345Z</time></trkpt><trkpt lat="43.3449565" lon="11.6608705"><ele>587.0</ele><time>2026-04-04T11:54:46.346Z</time></trkpt><trkpt lat="43.3448658" lon="11.6611074"><ele>587.0</ele><time>2026-04-04T11:54:47.345Z</time></trkpt><trkpt lat="43.3447594" lon="11.6613488"><ele>587.0</ele><time>2026-04-04T11:54:48.346Z</time></trkpt><trkpt lat="43.3446325" lon="11.661595"><ele>587.5</ele><time>2026-04-04T11:54:49.345Z</time></trkpt><trkpt lat="43.3444936" lon="11.661853"><ele>588.0</ele><time>2026-04-04T11:54:50.345Z</time></trkpt><trkpt lat="43.3443453" lon="11.6621192"><ele>588.0</ele><time>2026-04-04T11:54:51.345Z</time></trkpt><trkpt lat="43.344201" lon="11.6623864"><ele>588.0</ele><time>2026-04-04T11:54:52.346Z</time></trkpt><trkpt lat="43.344072" lon="11.6626411"><ele>587.3333333333334</ele><time>2026-04-04T11:54:53.346Z</time></trkpt><trkpt lat="43.3439517" lon="11.662878"><ele>586.6666666666667</ele><time>2026-04-04T11:54:54.344Z</time></trkpt><trkpt lat="43.3438478" lon="11.6630754"><ele>586.0</ele><time>2026-04-04T11:54:55.345Z</time></trkpt><trkpt lat="43.3437575" lon="11.6632393"><ele>587.0</ele><time>2026-04-04T11:54:56.344Z</time></trkpt><trkpt lat="43.3436555" lon="11.66336"><ele>588.0</ele><time>2026-04-04T11:54:57.345Z</time></trkpt><trkpt lat="43.3435239" lon="11.6634142"><ele>589.0</ele><time>2026-04-04T11:54:58.344Z</time></trkpt><trkpt lat="43.3433661" lon="11.6633915"><ele>590.0</ele><time>2026-04-04T11:54:59.346Z</time></trkpt><trkpt lat="43.3431969" lon="11.6633316"><ele>588.6666666666666</ele><time>2026-04-04T11:55:00.345Z</time></trkpt><trkpt lat="43.343033" lon="11.6632806"><ele>587.3333333333334</ele><time>2026-04-04T11:55:01.345Z</time></trkpt><trkpt lat="43.3428713" lon="11.6632621"><ele>586.0</ele><time>2026-04-04T11:55:02.345Z</time></trkpt><trkpt lat="43.3426994" lon="11.6632992"><ele>586.0</ele><time>2026-04-04T11:55:03.346Z</time></trkpt><trkpt lat="43.3425264" lon="11.6634097"><ele>586.0</ele><time>2026-04-04T11:55:04.346Z</time></trkpt><trkpt lat="43.3423631" lon="11.6635851"><ele>586.0</ele><time>2026-04-04T11:55:05.344Z</time></trkpt><trkpt lat="43.3421909" lon="11.663771"><ele>584.3333333333334</ele><time>2026-04-04T11:55:06.346Z</time></trkpt><trkpt lat="43.3419935" lon="11.6639067"><ele>582.6666666666666</ele><time>2026-04-04T11:55:07.346Z</time></trkpt><trkpt lat="43.3417856" lon="11.6639913"><ele>581.0</ele><time>2026-04-04T11:55:08.345Z</time></trkpt><trkpt lat="43.3415697" lon="11.6640273"><ele>582.0</ele><time>2026-04-04T11:55:09.346Z</time></trkpt><trkpt lat="43.3413511" lon="11.6640373"><ele>583.0</ele><time>2026-04-04T11:55:10.344Z</time></trkpt><trkpt lat="43.3411325" lon="11.6640375"><ele>584.0</ele><time>2026-04-04T11:55:11.344Z</time></trkpt><trkpt lat="43.3409286" lon="11.6640356"><ele>584.0</ele><time>2026-04-04T11:55:12.345Z</time></trkpt><trkpt lat="43.3407381" lon="11.6640343"><ele>584.0</ele><time>2026-04-04T11:55:13.345Z</time></trkpt><trkpt lat="43.3405708" lon="11.6640366"><ele>584.0</ele><time>2026-04-04T11:55:14.346Z</time></trkpt><trkpt lat="43.3404282" lon="11.6640523"><ele>582.75</ele><time>2026-04-04T11:55:15.346Z</time></trkpt><trkpt lat="43.3402989" lon="11.6641113"><ele>581.5</ele><time>2026-04-04T11:55:16.345Z</time></trkpt><trkpt lat="43.3401989" lon="11.6642353"><ele>580.25</ele><time>2026-04-04T11:55:17.345Z</time></trkpt><trkpt lat="43.3401344" lon="11.6644163"><ele>579.0</ele><time>2026-04-04T11:55:18.345Z</time></trkpt><trkpt lat="43.3400938" lon="11.6646345"><ele>579.0</ele><time>2026-04-04T11:55:19.346Z</time></trkpt><trkpt lat="43.3400541" lon="11.66487"><ele>579.0</ele><time>2026-04-04T11:55:20.345Z</time></trkpt><trkpt lat="43.3400183" lon="11.6651003"><ele>579.0</ele><time>2026-04-04T11:55:21.345Z</time></trkpt><trkpt lat="43.3399757" lon="11.6653037"><ele>579.6666666666666</ele><time>2026-04-04T11:55:22.345Z</time></trkpt><trkpt lat="43.3398987" lon="11.6654819"><ele>580.3333333333333</ele><time>2026-04-04T11:55:23.345Z</time></trkpt><trkpt lat="43.3397811" lon="11.6656387"><ele>581.0</ele><time>2026-04-04T11:55:24.346Z</time></trkpt><trkpt lat="43.339648" lon="11.6657873"><ele>578.6666666666666</ele><time>2026-04-04T11:55:25.345Z</time></trkpt><trkpt lat="43.3395115" lon="11.6659173"><ele>576.3333333333334</ele><time>2026-04-04T11:55:26.345Z</time></trkpt><trkpt lat="43.3393683" lon="11.6659992"><ele>574.0</ele><time>2026-04-04T11:55:27.346Z</time></trkpt><trkpt lat="43.3392212" lon="11.6660137"><ele>574.0</ele><time>2026-04-04T11:55:28.344Z</time></trkpt><trkpt lat="43.3390827" lon="11.6659449"><ele>574.0</ele><time>2026-04-04T11:55:29.345Z</time></trkpt><trkpt lat="43.3389621" lon="11.6658055"><ele>574.0</ele><time>2026-04-04T11:55:30.345Z</time></trkpt><trkpt lat="43.3388568" lon="11.6656158"><ele>573.3333333333334</ele><time>2026-04-04T11:55:31.346Z</time></trkpt><trkpt lat="43.3387462" lon="11.6654062"><ele>572.6666666666666</ele><time>2026-04-04T11:55:32.345Z</time></trkpt><trkpt lat="43.3386396" lon="11.6652043"><ele>572.0</ele><time>2026-04-04T11:55:33.346Z</time></trkpt><trkpt lat="43.3385396" lon="11.6650103"><ele>572.0</ele><time>2026-04-04T11:55:34.346Z</time></trkpt><trkpt lat="43.3384488" lon="11.6648321"><ele>572.0</ele><time>2026-04-04T11:55:35.345Z</time></trkpt><trkpt lat="43.3383497" lon="11.6646962"><ele>572.0</ele><time>2026-04-04T11:55:36.346Z</time></trkpt><trkpt lat="43.338222" lon="11.6646285"><ele>572.0</ele><time>2026-04-04T11:55:37.346Z</time></trkpt><trkpt lat="43.3380659" lon="11.6646207"><ele>568.6666666666666</ele><time>2026-04-04T11:55:38.345Z</time></trkpt><trkpt lat="43.3379023" lon="11.6646321"><ele>565.3333333333334</ele><time>2026-04-04T11:55:39.345Z</time></trkpt><trkpt lat="43.3377435" lon="11.664659"><ele>562.0</ele><time>2026-04-04T11:55:40.345Z</time></trkpt><trkpt lat="43.3376014" lon="11.6647356"><ele>562.0</ele><time>2026-04-04T11:55:41.345Z</time></trkpt><trkpt lat="43.3374834" lon="11.6648751"><ele>562.0</ele><time>2026-04-04T11:55:42.345Z</time></trkpt><trkpt lat="43.3374127" lon="11.6650622"><ele>562.0</ele><time>2026-04-04T11:55:43.345Z</time></trkpt><trkpt lat="43.3374016" lon="11.6652695"><ele>562.3333333333334</ele><time>2026-04-04T11:55:44.345Z</time></trkpt><trkpt lat="43.3374421" lon="11.6654723"><ele>562.6666666666666</ele><time>2026-04-04T11:55:45.345Z</time></trkpt><trkpt lat="43.3374945" lon="11.6656767"><ele>563.0</ele><time>2026-04-04T11:55:46.345Z</time></trkpt><trkpt lat="43.3375053" lon="11.6659069"><ele>562.3333333333333</ele><time>2026-04-04T11:55:47.345Z</time></trkpt><trkpt lat="43.337464" lon="11.6661471"><ele>561.6666666666666</ele><time>2026-04-04T11:55:48.346Z</time></trkpt><trkpt lat="43.3373703" lon="11.6663878"><ele>561.0</ele><time>2026-04-04T11:55:49.345Z</time></trkpt><trkpt lat="43.3372542" lon="11.6666337"><ele>559.0</ele><time>2026-04-04T11:55:50.344Z</time></trkpt><trkpt lat="43.3371324" lon="11.6669033"><ele>557.0</ele><time>2026-04-04T11:55:51.346Z</time></trkpt><trkpt lat="43.3370068" lon="11.6671857"><ele>557.0</ele><time>2026-04-04T11:55:52.345Z</time></trkpt><trkpt lat="43.3368774" lon="11.6674742"><ele>557.0</ele><time>2026-04-04T11:55:53.345Z</time></trkpt><trkpt lat="43.3367408" lon="11.6677628"><ele>556.0</ele><time>2026-04-04T11:55:54.346Z</time></trkpt><trkpt lat="43.3366045" lon="11.6680571"><ele>555.0</ele><time>2026-04-04T11:55:55.345Z</time></trkpt><trkpt lat="43.3364715" lon="11.6683535"><ele>556.0</ele><time>2026-04-04T11:55:56.345Z</time></trkpt><trkpt lat="43.3363398" lon="11.6686504"><ele>557.0</ele><time>2026-04-04T11:55:57.346Z</time></trkpt><trkpt lat="43.3362087" lon="11.668946"><ele>557.0</ele><time>2026-04-04T11:55:58.345Z</time></trkpt><trkpt lat="43.3360753" lon="11.6692391"><ele>557.0</ele><time>2026-04-04T11:55:59.345Z</time></trkpt><trkpt lat="43.3359436" lon="11.6695305"><ele>554.0</ele><time>2026-04-04T11:56:00.346Z</time></trkpt><trkpt lat="43.3358148" lon="11.6698096"><ele>551.0</ele><time>2026-04-04T11:56:01.345Z</time></trkpt><trkpt lat="43.3356904" lon="11.6700736"><ele>551.3333333333333</ele><time>2026-04-04T11:56:02.345Z</time></trkpt><trkpt lat="43.3355711" lon="11.6703275"><ele>551.6666666666666</ele><time>2026-04-04T11:56:03.345Z</time></trkpt><trkpt lat="43.335458" lon="11.6705755"><ele>552.0</ele><time>2026-04-04T11:56:04.345Z</time></trkpt><trkpt lat="43.3353533" lon="11.670829"><ele>552.0</ele><time>2026-04-04T11:56:05.346Z</time></trkpt><trkpt lat="43.335264" lon="11.6711006"><ele>552.0</ele><time>2026-04-04T11:56:06.346Z</time></trkpt><trkpt lat="43.335193" lon="11.6713903"><ele>552.0</ele><time>2026-04-04T11:56:07.345Z</time></trkpt><trkpt lat="43.3351346" lon="11.6716873"><ele>549.5</ele><time>2026-04-04T11:56:08.346Z</time></trkpt><trkpt lat="43.3350774" lon="11.6719882"><ele>547.0</ele><time>2026-04-04T11:56:09.345Z</time></trkpt><trkpt lat="43.3350234" lon="11.6722941"><ele>547.0</ele><time>2026-04-04T11:56:10.346Z</time></trkpt><trkpt lat="43.3349765" lon="11.6725932"><ele>547.0</ele><time>2026-04-04T11:56:11.345Z</time></trkpt><trkpt lat="43.3349322" lon="11.6728651"><ele>547.0</ele><time>2026-04-04T11:56:12.346Z</time></trkpt><trkpt lat="43.3348866" lon="11.6731263"><ele>546.0</ele><time>2026-04-04T11:56:13.344Z</time></trkpt><trkpt lat="43.3348227" lon="11.6733609"><ele>545.0</ele><time>2026-04-04T11:56:14.345Z</time></trkpt><trkpt lat="43.3347244" lon="11.6735648"><ele>544.0</ele><time>2026-04-04T11:56:15.346Z</time></trkpt><trkpt lat="43.3345869" lon="11.6737495"><ele>542.0</ele><time>2026-04-04T11:56:16.345Z</time></trkpt><trkpt lat="43.3344363" lon="11.6739387"><ele>540.0</ele><time>2026-04-04T11:56:17.345Z</time></trkpt><trkpt lat="43.3342776" lon="11.6741331"><ele>538.0</ele><time>2026-04-04T11:56:18.346Z</time></trkpt><trkpt lat="43.3341179" lon="11.6743215"><ele>539.3333333333334</ele><time>2026-04-04T11:56:19.346Z</time></trkpt><trkpt lat="43.3339681" lon="11.6744995"><ele>540.6666666666666</ele><time>2026-04-04T11:56:20.344Z</time></trkpt><trkpt lat="43.3338323" lon="11.6746669"><ele>542.0</ele><time>2026-04-04T11:56:21.344Z</time></trkpt><trkpt lat="43.3337092" lon="11.6748317"><ele>538.0</ele><time>2026-04-04T11:56:22.346Z</time></trkpt><trkpt lat="43.3336222" lon="11.6750299"><ele>534.0</ele><time>2026-04-04T11:56:23.346Z</time></trkpt><trkpt lat="43.3335795" lon="11.675271"><ele>530.0</ele><time>2026-04-04T11:56:24.346Z</time></trkpt><trkpt lat="43.3335692" lon="11.6755462"><ele>528.5</ele><time>2026-04-04T11:56:25.346Z</time></trkpt><trkpt lat="43.3335639" lon="11.6758452"><ele>527.0</ele><time>2026-04-04T11:56:26.345Z</time></trkpt><trkpt lat="43.3335598" lon="11.6761657"><ele>525.0</ele><time>2026-04-04T11:56:27.345Z</time></trkpt><trkpt lat="43.3335533" lon="11.6764987"><ele>523.0</ele><time>2026-04-04T11:56:28.345Z</time></trkpt><trkpt lat="43.3335472" lon="11.6768416"><ele>523.5</ele><time>2026-04-04T11:56:29.346Z</time></trkpt><trkpt lat="43.3335396" lon="11.6771903"><ele>524.0</ele><time>2026-04-04T11:56:30.346Z</time></trkpt><trkpt lat="43.3335311" lon="11.6775452"><ele>527.0</ele><time>2026-04-04T11:56:31.345Z</time></trkpt><trkpt lat="43.3335234" lon="11.6779033"><ele>530.0</ele><time>2026-04-04T11:56:32.345Z</time></trkpt><trkpt lat="43.3335182" lon="11.6782629"><ele>531.5</ele><time>2026-04-04T11:56:33.344Z</time></trkpt><trkpt lat="43.3335117" lon="11.6786237"><ele>533.0</ele><time>2026-04-04T11:56:34.345Z</time></trkpt><trkpt lat="43.3335052" lon="11.6789858"><ele>533.0</ele><time>2026-04-04T11:56:35.345Z</time></trkpt><trkpt lat="43.3334978" lon="11.679349"><ele>533.0</ele><time>2026-04-04T11:56:36.345Z</time></trkpt><trkpt lat="43.3334895" lon="11.6797161"><ele>533.5</ele><time>2026-04-04T11:56:37.345Z</time></trkpt><trkpt lat="43.3334816" lon="11.6800842"><ele>534.0</ele><time>2026-04-04T11:56:38.345Z</time></trkpt><trkpt lat="43.3334753" lon="11.6804516"><ele>535.5</ele><time>2026-04-04T11:56:39.346Z</time></trkpt><trkpt lat="43.3334704" lon="11.6808181"><ele>537.0</ele><time>2026-04-04T11:56:40.344Z</time></trkpt><trkpt lat="43.3334652" lon="11.6811781"><ele>537.0</ele><time>2026-04-04T11:56:41.345Z</time></trkpt><trkpt lat="43.3334624" lon="11.6815289"><ele>537.0</ele><time>2026-04-04T11:56:42.346Z</time></trkpt><trkpt lat="43.3334595" lon="11.681864"><ele>534.5</ele><time>2026-04-04T11:56:43.345Z</time></trkpt><trkpt lat="43.3334554" lon="11.6821877"><ele>532.0</ele><time>2026-04-04T11:56:44.346Z</time></trkpt><trkpt lat="43.3334427" lon="11.6825082"><ele>531.6666666666667</ele><time>2026-04-04T11:56:45.345Z</time></trkpt><trkpt lat="43.3334086" lon="11.6828082"><ele>531.3333333333334</ele><time>2026-04-04T11:56:46.346Z</time></trkpt><trkpt lat="43.3333579" lon="11.6830833"><ele>531.0</ele><time>2026-04-04T11:56:47.346Z</time></trkpt><trkpt lat="43.3333166" lon="11.6833254"><ele>531.0</ele><time>2026-04-04T11:56:48.345Z</time></trkpt><trkpt lat="43.333304" lon="11.6835721"><ele>531.0</ele><time>2026-04-04T11:56:49.345Z</time></trkpt><trkpt lat="43.3333333" lon="11.6838387"><ele>531.0</ele><time>2026-04-04T11:56:50.344Z</time></trkpt><trkpt lat="43.333386" lon="11.6841158"><ele>531.0</ele><time>2026-04-04T11:56:51.345Z</time></trkpt><trkpt lat="43.3334181" lon="11.6844213"><ele>531.0</ele><time>2026-04-04T11:56:52.344Z</time></trkpt><trkpt lat="43.333417" lon="11.6847456"><ele>528.0</ele><time>2026-04-04T11:56:53.345Z</time></trkpt><trkpt lat="43.3333929" lon="11.6850742"><ele>525.0</ele><time>2026-04-04T11:56:54.345Z</time></trkpt><trkpt lat="43.3333658" lon="11.6854082"><ele>525.0</ele><time>2026-04-04T11:56:55.346Z</time></trkpt><trkpt lat="43.3333423" lon="11.6857402"><ele>525.0</ele><time>2026-04-04T11:56:56.346Z</time></trkpt><trkpt lat="43.3333279" lon="11.6860578"><ele>524.3333333333334</ele><time>2026-04-04T11:56:57.345Z</time></trkpt><trkpt lat="43.3333375" lon="11.6863672"><ele>523.6666666666667</ele><time>2026-04-04T11:56:58.346Z</time></trkpt><trkpt lat="43.3333693" lon="11.6866657"><ele>523.0</ele><time>2026-04-04T11:56:59.345Z</time></trkpt><trkpt lat="43.3334122" lon="11.6869607"><ele>523.0</ele><time>2026-04-04T11:57:00.345Z</time></trkpt><trkpt lat="43.3334689" lon="11.6872472"><ele>523.0</ele><time>2026-04-04T11:57:01.346Z</time></trkpt><trkpt lat="43.3335452" lon="11.6875089"><ele>523.0</ele><time>2026-04-04T11:57:02.345Z</time></trkpt><trkpt lat="43.3336301" lon="11.6877467"><ele>524.0</ele><time>2026-04-04T11:57:03.346Z</time></trkpt><trkpt lat="43.3337042" lon="11.6879703"><ele>525.0</ele><time>2026-04-04T11:57:04.345Z</time></trkpt><trkpt lat="43.3337663" lon="11.6881851"><ele>526.0</ele><time>2026-04-04T11:57:05.345Z</time></trkpt><trkpt lat="43.3338003" lon="11.6883944"><ele>526.0</ele><time>2026-04-04T11:57:06.345Z</time></trkpt><trkpt lat="43.3338006" lon="11.6885858"><ele>526.0</ele><time>2026-04-04T11:57:07.346Z</time></trkpt><trkpt lat="43.3337562" lon="11.6887317"><ele>526.0</ele><time>2026-04-04T11:57:08.345Z</time></trkpt><trkpt lat="43.3336762" lon="11.6888394"><ele>526.0</ele><time>2026-04-04T11:57:09.345Z</time></trkpt><trkpt lat="43.3336054" lon="11.6889603"><ele>525.75</ele><time>2026-04-04T11:57:10.346Z</time></trkpt><trkpt lat="43.3335696" lon="11.6891314"><ele>525.5</ele><time>2026-04-04T11:57:11.346Z</time></trkpt><trkpt lat="43.3335658" lon="11.6893015"><ele>525.25</ele><time>2026-04-04T11:57:12.345Z</time></trkpt><trkpt lat="43.333572" lon="11.6894656"><ele>525.0</ele><time>2026-04-04T11:57:13.345Z</time></trkpt><trkpt lat="43.33356" lon="11.6896226"><ele>523.4</ele><time>2026-04-04T11:57:14.345Z</time></trkpt><trkpt lat="43.333532" lon="11.6897695"><ele>521.8</ele><time>2026-04-04T11:57:15.345Z</time></trkpt><trkpt lat="43.333497" lon="11.689917"><ele>520.2</ele><time>2026-04-04T11:57:16.346Z</time></trkpt><trkpt lat="43.3334561" lon="11.69006"><ele>518.6</ele><time>2026-04-04T11:57:17.344Z</time></trkpt><trkpt lat="43.3334094" lon="11.6901743"><ele>517.0</ele><time>2026-04-04T11:57:18.346Z</time></trkpt><trkpt lat="43.3333397" lon="11.6902612"><ele>516.6</ele><time>2026-04-04T11:57:19.345Z</time></trkpt><trkpt lat="43.3332382" lon="11.6903068"><ele>516.2</ele><time>2026-04-04T11:57:20.345Z</time></trkpt><trkpt lat="43.3331279" lon="11.6903092"><ele>515.8</ele><time>2026-04-04T11:57:21.346Z</time></trkpt><trkpt lat="43.3330282" lon="11.6902798"><ele>515.4</ele><time>2026-04-04T11:57:22.345Z</time></trkpt><trkpt lat="43.3329252" lon="11.6902401"><ele>515.0</ele><time>2026-04-04T11:57:23.345Z</time></trkpt><trkpt lat="43.3328123" lon="11.6901914"><ele>515.0</ele><time>2026-04-04T11:57:24.346Z</time></trkpt><trkpt lat="43.3327006" lon="11.6901405"><ele>515.0</ele><time>2026-04-04T11:57:25.345Z</time></trkpt><trkpt lat="43.3325885" lon="11.6900874"><ele>515.0</ele><time>2026-04-04T11:57:26.345Z</time></trkpt><trkpt lat="43.332476" lon="11.6900315"><ele>515.0</ele><time>2026-04-04T11:57:27.345Z</time></trkpt><trkpt lat="43.3323692" lon="11.6899813"><ele>515.0</ele><time>2026-04-04T11:57:28.345Z</time></trkpt><trkpt lat="43.3322661" lon="11.689941"><ele>515.0</ele><time>2026-04-04T11:57:29.345Z</time></trkpt><trkpt lat="43.3321666" lon="11.6899331"><ele>515.0</ele><time>2026-04-04T11:57:30.345Z</time></trkpt><trkpt lat="43.3320813" lon="11.68999"><ele>515.0</ele><time>2026-04-04T11:57:31.345Z</time></trkpt><trkpt lat="43.3320239" lon="11.6900965"><ele>515.0</ele><time>2026-04-04T11:57:32.346Z</time></trkpt><trkpt lat="43.332" lon="11.690235"><ele>514.75</ele><time>2026-04-04T11:57:33.346Z</time></trkpt><trkpt lat="43.3320017" lon="11.6903862"><ele>514.5</ele><time>2026-04-04T11:57:34.345Z</time></trkpt><trkpt lat="43.3319982" lon="11.6905357"><ele>514.25</ele><time>2026-04-04T11:57:35.345Z</time></trkpt><trkpt lat="43.331974" lon="11.6907015"><ele>514.0</ele><time>2026-04-04T11:57:36.346Z</time></trkpt><trkpt lat="43.3319174" lon="11.6909059"><ele>509.6666666666667</ele><time>2026-04-04T11:57:37.345Z</time></trkpt><trkpt lat="43.3318298" lon="11.6911333"><ele>505.33333333333337</ele><time>2026-04-04T11:57:38.346Z</time></trkpt><trkpt lat="43.3317224" lon="11.6913684"><ele>501.0</ele><time>2026-04-04T11:57:39.345Z</time></trkpt><trkpt lat="43.3316195" lon="11.6915901"><ele>501.0</ele><time>2026-04-04T11:57:40.344Z</time></trkpt><trkpt lat="43.3315189" lon="11.6918053"><ele>501.0</ele><time>2026-04-04T11:57:41.346Z</time></trkpt><trkpt lat="43.3314082" lon="11.6919944"><ele>501.0</ele><time>2026-04-04T11:57:42.345Z</time></trkpt><trkpt lat="43.3312865" lon="11.6921556"><ele>500.6</ele><time>2026-04-04T11:57:43.344Z</time></trkpt><trkpt lat="43.3311648" lon="11.6922775"><ele>500.20000000000005</ele><time>2026-04-04T11:57:44.346Z</time></trkpt><trkpt lat="43.3310669" lon="11.6923661"><ele>499.79999999999995</ele><time>2026-04-04T11:57:45.345Z</time></trkpt><trkpt lat="43.3310011" lon="11.6924543"><ele>499.4</ele><time>2026-04-04T11:57:46.345Z</time></trkpt><trkpt lat="43.3309786" lon="11.692557"><ele>499.0</ele><time>2026-04-04T11:57:47.345Z</time></trkpt><trkpt lat="43.3310106" lon="11.6926393"><ele>499.0</ele><time>2026-04-04T11:57:48.345Z</time></trkpt><trkpt lat="43.3310879" lon="11.6926693"><ele>499.0</ele><time>2026-04-04T11:57:49.345Z</time></trkpt><trkpt lat="43.331186" lon="11.6926129"><ele>499.0</ele><time>2026-04-04T11:57:50.345Z</time></trkpt><trkpt lat="43.3313087" lon="11.6925125"><ele>499.0</ele><time>2026-04-04T11:57:51.346Z</time></trkpt><trkpt lat="43.3314508" lon="11.6923827"><ele>495.6666666666667</ele><time>2026-04-04T11:57:52.345Z</time></trkpt><trkpt lat="43.3315981" lon="11.6922597"><ele>492.33333333333337</ele><time>2026-04-04T11:57:53.345Z</time></trkpt><trkpt lat="43.3317373" lon="11.6921522"><ele>489.0</ele><time>2026-04-04T11:57:54.344Z</time></trkpt><trkpt lat="43.3318537" lon="11.6920742"><ele>489.0</ele><time>2026-04-04T11:57:55.345Z</time></trkpt><trkpt lat="43.3319571" lon="11.692031"><ele>489.0</ele><time>2026-04-04T11:57:56.344Z</time></trkpt><trkpt lat="43.3320416" lon="11.6920551"><ele>489.0</ele><time>2026-04-04T11:57:57.346Z</time></trkpt><trkpt lat="43.3320986" lon="11.6921533"><ele>489.0</ele><time>2026-04-04T11:57:58.345Z</time></trkpt><trkpt lat="43.3321032" lon="11.6923008"><ele>489.0</ele><time>2026-04-04T11:57:59.346Z</time></trkpt><trkpt lat="43.332051" lon="11.6924921"><ele>489.0</ele><time>2026-04-04T11:58:00.346Z</time></trkpt><trkpt lat="43.3319689" lon="11.6927198"><ele>489.0</ele><time>2026-04-04T11:58:01.345Z</time></trkpt><trkpt lat="43.33188" lon="11.6929805"><ele>489.0</ele><time>2026-04-04T11:58:02.345Z</time></trkpt><trkpt lat="43.3317882" lon="11.6932551"><ele>487.0</ele><time>2026-04-04T11:58:03.345Z</time></trkpt><trkpt lat="43.3316769" lon="11.6935129"><ele>485.0</ele><time>2026-04-04T11:58:04.345Z</time></trkpt><trkpt lat="43.331524" lon="11.6937334"><ele>483.0</ele><time>2026-04-04T11:58:05.345Z</time></trkpt><trkpt lat="43.3313512" lon="11.6939242"><ele>481.0</ele><time>2026-04-04T11:58:06.345Z</time></trkpt><trkpt lat="43.3311771" lon="11.694093"><ele>479.0</ele><time>2026-04-04T11:58:07.345Z</time></trkpt><trkpt lat="43.3310086" lon="11.6942657"><ele>477.0</ele><time>2026-04-04T11:58:08.345Z</time></trkpt><trkpt lat="43.330845" lon="11.6944648"><ele>477.0</ele><time>2026-04-04T11:58:09.346Z</time></trkpt><trkpt lat="43.3306942" lon="11.6946992"><ele>477.0</ele><time>2026-04-04T11:58:10.345Z</time></trkpt><trkpt lat="43.3305616" lon="11.6949561"><ele>470.66666666666663</ele><time>2026-04-04T11:58:11.346Z</time></trkpt><trkpt lat="43.3304517" lon="11.6952202"><ele>464.3333333333333</ele><time>2026-04-04T11:58:12.345Z</time></trkpt><trkpt lat="43.3303671" lon="11.6954886"><ele>458.0</ele><time>2026-04-04T11:58:13.346Z</time></trkpt><trkpt lat="43.3303105" lon="11.6957582"><ele>457.3333333333333</ele><time>2026-04-04T11:58:14.345Z</time></trkpt><trkpt lat="43.3302929" lon="11.696051"><ele>456.66666666666663</ele><time>2026-04-04T11:58:15.344Z</time></trkpt><trkpt lat="43.3302891" lon="11.6963335"><ele>456.0</ele><time>2026-04-04T11:58:16.345Z</time></trkpt><trkpt lat="43.330259" lon="11.6966052"><ele>456.0</ele><time>2026-04-04T11:58:17.345Z</time></trkpt><trkpt lat="43.3302" lon="11.6968635"><ele>456.0</ele><time>2026-04-04T11:58:18.345Z</time></trkpt><trkpt lat="43.3301152" lon="11.6971192"><ele>456.0</ele><time>2026-04-04T11:58:19.346Z</time></trkpt><trkpt lat="43.3300214" lon="11.6973763"><ele>457.0</ele><time>2026-04-04T11:58:20.345Z</time></trkpt><trkpt lat="43.3299262" lon="11.6976424"><ele>458.0</ele><time>2026-04-04T11:58:21.346Z</time></trkpt><trkpt lat="43.3298383" lon="11.6979085"><ele>459.0</ele><time>2026-04-04T11:58:22.345Z</time></trkpt><trkpt lat="43.3297627" lon="11.6981696"><ele>452.0</ele><time>2026-04-04T11:58:23.346Z</time></trkpt><trkpt lat="43.3297148" lon="11.6984348"><ele>445.0</ele><time>2026-04-04T11:58:24.345Z</time></trkpt><trkpt lat="43.3297072" lon="11.6986976"><ele>438.0</ele><time>2026-04-04T11:58:25.345Z</time></trkpt><trkpt lat="43.3297024" lon="11.6989359"><ele>438.0</ele><time>2026-04-04T11:58:26.345Z</time></trkpt><trkpt lat="43.3296603" lon="11.6991518"><ele>438.0</ele><time>2026-04-04T11:58:27.345Z</time></trkpt><trkpt lat="43.3295713" lon="11.699345"><ele>438.0</ele><time>2026-04-04T11:58:28.344Z</time></trkpt><trkpt lat="43.3294356" lon="11.6995217"><ele>439.66666666666663</ele><time>2026-04-04T11:58:29.345Z</time></trkpt><trkpt lat="43.329281" lon="11.6997027"><ele>441.3333333333333</ele><time>2026-04-04T11:58:30.345Z</time></trkpt><trkpt lat="43.3291168" lon="11.6999012"><ele>443.0</ele><time>2026-04-04T11:58:31.346Z</time></trkpt><trkpt lat="43.3289423" lon="11.7001034"><ele>441.3333333333333</ele><time>2026-04-04T11:58:32.345Z</time></trkpt><trkpt lat="43.3287736" lon="11.7002835"><ele>439.66666666666663</ele><time>2026-04-04T11:58:33.346Z</time></trkpt><trkpt lat="43.3286151" lon="11.7004341"><ele>438.0</ele><time>2026-04-04T11:58:34.345Z</time></trkpt><trkpt lat="43.3284592" lon="11.7005656"><ele>438.0</ele><time>2026-04-04T11:58:35.344Z</time></trkpt><trkpt lat="43.3283195" lon="11.7007234"><ele>438.0</ele><time>2026-04-04T11:58:36.346Z</time></trkpt><trkpt lat="43.3281996" lon="11.7009353"><ele>438.0</ele><time>2026-04-04T11:58:37.345Z</time></trkpt><trkpt lat="43.3280841" lon="11.7011407"><ele>436.33333333333337</ele><time>2026-04-04T11:58:38.345Z</time></trkpt><trkpt lat="43.3279353" lon="11.7013066"><ele>434.6666666666667</ele><time>2026-04-04T11:58:39.345Z</time></trkpt><trkpt lat="43.3277492" lon="11.7014291"><ele>433.0</ele><time>2026-04-04T11:58:40.344Z</time></trkpt><trkpt lat="43.3275447" lon="11.7015318"><ele>433.0</ele><time>2026-04-04T11:58:41.345Z</time></trkpt><trkpt lat="43.327343" lon="11.7016268"><ele>433.0</ele><time>2026-04-04T11:58:42.346Z</time></trkpt><trkpt lat="43.3271482" lon="11.7017052"><ele>433.0</ele><time>2026-04-04T11:58:43.345Z</time></trkpt><trkpt lat="43.326956" lon="11.7017533"><ele>431.75</ele><time>2026-04-04T11:58:44.345Z</time></trkpt><trkpt lat="43.3267739" lon="11.7017548"><ele>430.5</ele><time>2026-04-04T11:58:45.344Z</time></trkpt><trkpt lat="43.3266301" lon="11.7017357"><ele>429.25</ele><time>2026-04-04T11:58:46.345Z</time></trkpt><trkpt lat="43.3265108" lon="11.7017308"><ele>428.0</ele><time>2026-04-04T11:58:47.345Z</time></trkpt><trkpt lat="43.326412" lon="11.7017754"><ele>427.4</ele><time>2026-04-04T11:58:48.345Z</time></trkpt><trkpt lat="43.3263612" lon="11.7018678"><ele>426.79999999999995</ele><time>2026-04-04T11:58:49.345Z</time></trkpt><trkpt lat="43.3263645" lon="11.7019822"><ele>426.2</ele><time>2026-04-04T11:58:50.345Z</time></trkpt><trkpt lat="43.3264301" lon="11.7021102"><ele>425.6</ele><time>2026-04-04T11:58:51.345Z</time></trkpt><trkpt lat="43.3265405" lon="11.7022367"><ele>425.0</ele><time>2026-04-04T11:58:52.345Z</time></trkpt><trkpt lat="43.3266808" lon="11.7023732"><ele>425.0</ele><time>2026-04-04T11:58:53.345Z</time></trkpt><trkpt lat="43.3268162" lon="11.7025348"><ele>425.0</ele><time>2026-04-04T11:58:54.346Z</time></trkpt><trkpt lat="43.3269057" lon="11.7027174"><ele>425.0</ele><time>2026-04-04T11:58:55.345Z</time></trkpt><trkpt lat="43.3269511" lon="11.7029242"><ele>423.0</ele><time>2026-04-04T11:58:56.345Z</time></trkpt><trkpt lat="43.3269386" lon="11.7031421"><ele>421.0</ele><time>2026-04-04T11:58:57.345Z</time></trkpt><trkpt lat="43.3268761" lon="11.7033564"><ele>419.0</ele><time>2026-04-04T11:58:58.346Z</time></trkpt><trkpt lat="43.3267626" lon="11.7035407"><ele>421.0</ele><time>2026-04-04T11:58:59.346Z</time></trkpt><trkpt lat="43.32662" lon="11.7036836"><ele>423.0</ele><time>2026-04-04T11:59:00.346Z</time></trkpt><trkpt lat="43.3264844" lon="11.7038218"><ele>425.0</ele><time>2026-04-04T11:59:01.346Z</time></trkpt><trkpt lat="43.3263827" lon="11.7039816"><ele>421.0</ele><time>2026-04-04T11:59:02.345Z</time></trkpt><trkpt lat="43.3263257" lon="11.7041667"><ele>417.0</ele><time>2026-04-04T11:59:03.346Z</time></trkpt><trkpt lat="43.3263099" lon="11.7043851"><ele>413.0</ele><time>2026-04-04T11:59:04.345Z</time></trkpt><trkpt lat="43.3262783" lon="11.7046127"><ele>413.0</ele><time>2026-04-04T11:59:05.345Z</time></trkpt><trkpt lat="43.3261867" lon="11.7048228"><ele>413.0</ele><time>2026-04-04T11:59:06.345Z</time></trkpt><trkpt lat="43.3260622" lon="11.7049922"><ele>413.0</ele><time>2026-04-04T11:59:07.344Z</time></trkpt><trkpt lat="43.3259019" lon="11.7050974"><ele>413.0</ele><time>2026-04-04T11:59:08.345Z</time></trkpt><trkpt lat="43.3257288" lon="11.705185"><ele>413.0</ele><time>2026-04-04T11:59:09.346Z</time></trkpt><trkpt lat="43.3255611" lon="11.7053315"><ele>413.0</ele><time>2026-04-04T11:59:10.344Z</time></trkpt><trkpt lat="43.3254212" lon="11.7055124"><ele>409.0</ele><time>2026-04-04T11:59:11.345Z</time></trkpt><trkpt lat="43.3253144" lon="11.7057349"><ele>405.0</ele><time>2026-04-04T11:59:12.345Z</time></trkpt><trkpt lat="43.3252513" lon="11.7059661"><ele>401.0</ele><time>2026-04-04T11:59:13.345Z</time></trkpt><trkpt lat="43.3252327" lon="11.7061959"><ele>400.0</ele><time>2026-04-04T11:59:14.345Z</time></trkpt><trkpt lat="43.3252695" lon="11.7064279"><ele>399.0</ele><time>2026-04-04T11:59:15.344Z</time></trkpt><trkpt lat="43.3253592" lon="11.706642"><ele>398.0</ele><time>2026-04-04T11:59:16.345Z</time></trkpt><trkpt lat="43.3254913" lon="11.7068312"><ele>396.66666666666663</ele><time>2026-04-04T11:59:17.346Z</time></trkpt><trkpt lat="43.3256483" lon="11.7069958"><ele>395.33333333333337</ele><time>2026-04-04T11:59:18.344Z</time></trkpt><trkpt lat="43.3258388" lon="11.7071205"><ele>394.0</ele><time>2026-04-04T11:59:19.345Z</time></trkpt><trkpt lat="43.326042" lon="11.7072185"><ele>394.0</ele><time>2026-04-04T11:59:20.345Z</time></trkpt><trkpt lat="43.3262322" lon="11.7073336"><ele>394.0</ele><time>2026-04-04T11:59:21.346Z</time></trkpt><trkpt lat="43.3264053" lon="11.7074716"><ele>394.0</ele><time>2026-04-04T11:59:22.345Z</time></trkpt><trkpt lat="43.3265598" lon="11.7076376"><ele>392.6666666666667</ele><time>2026-04-04T11:59:23.345Z</time></trkpt><trkpt lat="43.3266923" lon="11.7078184"><ele>391.33333333333337</ele><time>2026-04-04T11:59:24.345Z</time></trkpt><trkpt lat="43.326796" lon="11.708025"><ele>390.0</ele><time>2026-04-04T11:59:25.345Z</time></trkpt><trkpt lat="43.3268598" lon="11.7082673"><ele>390.0</ele><time>2026-04-04T11:59:26.346Z</time></trkpt><trkpt lat="43.3268935" lon="11.7085285"><ele>390.0</ele><time>2026-04-04T11:59:27.346Z</time></trkpt><trkpt lat="43.3269043" lon="11.708803"><ele>390.0</ele><time>2026-04-04T11:59:28.345Z</time></trkpt><trkpt lat="43.3269145" lon="11.709077"><ele>389.66666666666663</ele><time>2026-04-04T11:59:29.345Z</time></trkpt><trkpt lat="43.3269365" lon="11.7093342"><ele>389.3333333333333</ele><time>2026-04-04T11:59:30.345Z</time></trkpt><trkpt lat="43.32696" lon="11.7095811"><ele>389.0</ele><time>2026-04-04T11:59:31.345Z</time></trkpt><trkpt lat="43.3269661" lon="11.7098194"><ele>389.0</ele><time>2026-04-04T11:59:32.346Z</time></trkpt><trkpt lat="43.326938" lon="11.7100494"><ele>389.0</ele><time>2026-04-04T11:59:33.346Z</time></trkpt><trkpt lat="43.3268718" lon="11.7102753"><ele>389.0</ele><time>2026-04-04T11:59:34.345Z</time></trkpt><trkpt lat="43.3267665" lon="11.7104777"><ele>389.0</ele><time>2026-04-04T11:59:35.345Z</time></trkpt><trkpt lat="43.3266331" lon="11.7106612"><ele>389.0</ele><time>2026-04-04T11:59:36.346Z</time></trkpt><trkpt lat="43.3264837" lon="11.71083"><ele>389.0</ele><time>2026-04-04T11:59:37.345Z</time></trkpt><trkpt lat="43.3263385" lon="11.7109898"><ele>387.66666666666663</ele><time>2026-04-04T11:59:38.345Z</time></trkpt><trkpt lat="43.326198" lon="11.7111437"><ele>386.33333333333337</ele><time>2026-04-04T11:59:39.346Z</time></trkpt><trkpt lat="43.3260723" lon="11.7112851"><ele>385.0</ele><time>2026-04-04T11:59:40.345Z</time></trkpt><trkpt lat="43.3259777" lon="11.7114179"><ele>385.0</ele><time>2026-04-04T11:59:41.344Z</time></trkpt><trkpt lat="43.3259145" lon="11.7115482"><ele>385.0</ele><time>2026-04-04T11:59:42.345Z</time></trkpt><trkpt lat="43.3258942" lon="11.7116761"><ele>385.0</ele><time>2026-04-04T11:59:43.344Z</time></trkpt><trkpt lat="43.3259257" lon="11.7117949"><ele>385.0</ele><time>2026-04-04T11:59:44.346Z</time></trkpt><trkpt lat="43.326" lon="11.7118623"><ele>385.0</ele><time>2026-04-04T11:59:45.345Z</time></trkpt><trkpt lat="43.326108" lon="11.7118774"><ele>385.0</ele><time>2026-04-04T11:59:46.345Z</time></trkpt><trkpt lat="43.3262381" lon="11.7118415"><ele>385.0</ele><time>2026-04-04T11:59:47.344Z</time></trkpt><trkpt lat="43.326382" lon="11.7117693"><ele>385.0</ele><time>2026-04-04T11:59:48.344Z</time></trkpt><trkpt lat="43.3265411" lon="11.7116686"><ele>383.0</ele><time>2026-04-04T11:59:49.345Z</time></trkpt><trkpt lat="43.3266943" lon="11.7115641"><ele>381.0</ele><time>2026-04-04T11:59:50.345Z</time></trkpt><trkpt lat="43.3268398" lon="11.7114663"><ele>379.0</ele><time>2026-04-04T11:59:51.346Z</time></trkpt><trkpt lat="43.3269855" lon="11.7113944"><ele>379.0</ele><time>2026-04-04T11:59:52.345Z</time></trkpt><trkpt lat="43.3271316" lon="11.7113756"><ele>379.0</ele><time>2026-04-04T11:59:53.344Z</time></trkpt><trkpt lat="43.3272687" lon="11.7114247"><ele>379.0</ele><time>2026-04-04T11:59:54.346Z</time></trkpt><trkpt lat="43.3273978" lon="11.7115346"><ele>379.0</ele><time>2026-04-04T11:59:55.345Z</time></trkpt><trkpt lat="43.3275079" lon="11.7116939"><ele>376.3333333333333</ele><time>2026-04-04T11:59:56.345Z</time></trkpt><trkpt lat="43.3276181" lon="11.7118481"><ele>373.6666666666667</ele><time>2026-04-04T11:59:57.346Z</time></trkpt><trkpt lat="43.3277505" lon="11.7119653"><ele>371.0</ele><time>2026-04-04T11:59:58.345Z</time></trkpt><trkpt lat="43.3279069" lon="11.7120424"><ele>366.6666666666667</ele><time>2026-04-04T11:59:59.346Z</time></trkpt><trkpt lat="43.3280789" lon="11.7120795"><ele>362.3333333333333</ele><time>2026-04-04T12:00:00.345Z</time></trkpt><trkpt lat="43.3282612" lon="11.7121007"><ele>358.0</ele><time>2026-04-04T12:00:01.344Z</time></trkpt><trkpt lat="43.328442" lon="11.7121461"><ele>358.0</ele><time>2026-04-04T12:00:02.344Z</time></trkpt><trkpt lat="43.3286213" lon="11.7122372"><ele>358.0</ele><time>2026-04-04T12:00:03.346Z</time></trkpt><trkpt lat="43.3287947" lon="11.7123619"><ele>358.0</ele><time>2026-04-04T12:00:04.345Z</time></trkpt><trkpt lat="43.3289658" lon="11.7125024"><ele>357.0</ele><time>2026-04-04T12:00:05.345Z</time></trkpt><trkpt lat="43.3291262" lon="11.7126447"><ele>356.0</ele><time>2026-04-04T12:00:06.346Z</time></trkpt><trkpt lat="43.3292751" lon="11.7127969"><ele>355.0</ele><time>2026-04-04T12:00:07.346Z</time></trkpt><trkpt lat="43.3293979" lon="11.7129676"><ele>354.3333333333333</ele><time>2026-04-04T12:00:08.345Z</time></trkpt><trkpt lat="43.3294885" lon="11.7131515"><ele>353.6666666666667</ele><time>2026-04-04T12:00:09.345Z</time></trkpt><trkpt lat="43.3295379" lon="11.7133475"><ele>353.0</ele><time>2026-04-04T12:00:10.345Z</time></trkpt><trkpt lat="43.3295383" lon="11.7135639"><ele>351.33333333333337</ele><time>2026-04-04T12:00:11.345Z</time></trkpt><trkpt lat="43.3294975" lon="11.7137859"><ele>349.6666666666667</ele><time>2026-04-04T12:00:12.345Z</time></trkpt><trkpt lat="43.3294377" lon="11.7140096"><ele>348.0</ele><time>2026-04-04T12:00:13.345Z</time></trkpt><trkpt lat="43.3293805" lon="11.7142276"><ele>347.0</ele><time>2026-04-04T12:00:14.345Z</time></trkpt><trkpt lat="43.329331" lon="11.7144229"><ele>346.0</ele><time>2026-04-04T12:00:15.345Z</time></trkpt><trkpt lat="43.3292949" lon="11.7145848"><ele>345.0</ele><time>2026-04-04T12:00:16.346Z</time></trkpt><trkpt lat="43.3292892" lon="11.7147423"><ele>344.0</ele><time>2026-04-04T12:00:17.345Z</time></trkpt><trkpt lat="43.3293307" lon="11.7148776"><ele>344.0</ele><time>2026-04-04T12:00:18.345Z</time></trkpt><trkpt lat="43.329405" lon="11.7149779"><ele>344.0</ele><time>2026-04-04T12:00:19.345Z</time></trkpt><trkpt lat="43.3295102" lon="11.7150583"><ele>344.0</ele><time>2026-04-04T12:00:20.346Z</time></trkpt><trkpt lat="43.3296288" lon="11.715132"><ele>344.0</ele><time>2026-04-04T12:00:21.346Z</time></trkpt><trkpt lat="43.3297541" lon="11.7152007"><ele>343.25</ele><time>2026-04-04T12:00:22.345Z</time></trkpt><trkpt lat="43.3298863" lon="11.7152626"><ele>342.5</ele><time>2026-04-04T12:00:23.346Z</time></trkpt><trkpt lat="43.3300192" lon="11.7153278"><ele>341.75</ele><time>2026-04-04T12:00:24.344Z</time></trkpt><trkpt lat="43.3301486" lon="11.715403"><ele>341.0</ele><time>2026-04-04T12:00:25.346Z</time></trkpt><trkpt lat="43.3302735" lon="11.7154911"><ele>341.0</ele><time>2026-04-04T12:00:26.345Z</time></trkpt><trkpt lat="43.3303897" lon="11.7156009"><ele>341.0</ele><time>2026-04-04T12:00:27.345Z</time></trkpt><trkpt lat="43.3304922" lon="11.7157356"><ele>341.0</ele><time>2026-04-04T12:00:28.345Z</time></trkpt><trkpt lat="43.330577" lon="11.7158938"><ele>341.0</ele><time>2026-04-04T12:00:29.345Z</time></trkpt><trkpt lat="43.3306497" lon="11.7160656"><ele>340.0</ele><time>2026-04-04T12:00:30.346Z</time></trkpt><trkpt lat="43.3307247" lon="11.7162395"><ele>339.0</ele><time>2026-04-04T12:00:31.345Z</time></trkpt><trkpt lat="43.3308008" lon="11.7164163"><ele>338.0</ele><time>2026-04-04T12:00:32.346Z</time></trkpt><trkpt lat="43.3308791" lon="11.7165938"><ele>337.0</ele><time>2026-04-04T12:00:33.345Z</time></trkpt><trkpt lat="43.3309612" lon="11.716769"><ele>337.3333333333333</ele><time>2026-04-04T12:00:34.346Z</time></trkpt><trkpt lat="43.3310522" lon="11.7169378"><ele>337.6666666666667</ele><time>2026-04-04T12:00:35.344Z</time></trkpt><trkpt lat="43.3311513" lon="11.7170932"><ele>338.0</ele><time>2026-04-04T12:00:36.345Z</time></trkpt><trkpt lat="43.3312539" lon="11.7172408"><ele>338.0</ele><time>2026-04-04T12:00:37.346Z</time></trkpt><trkpt lat="43.3313605" lon="11.717382"><ele>338.0</ele><time>2026-04-04T12:00:38.344Z</time></trkpt><trkpt lat="43.3314676" lon="11.7175175"><ele>338.0</ele><time>2026-04-04T12:00:39.345Z</time></trkpt><trkpt lat="43.3315802" lon="11.7176499"><ele>338.0</ele><time>2026-04-04T12:00:40.344Z</time></trkpt><trkpt lat="43.331689" lon="11.7177703"><ele>338.0</ele><time>2026-04-04T12:00:41.345Z</time></trkpt><trkpt lat="43.3317809" lon="11.71787"><ele>338.0</ele><time>2026-04-04T12:00:42.346Z</time></trkpt><trkpt lat="43.3318749" lon="11.7179692"><ele>338.0</ele><time>2026-04-04T12:00:43.345Z</time></trkpt><trkpt lat="43.3319774" lon="11.7180724"><ele>338.0</ele><time>2026-04-04T12:00:44.345Z</time></trkpt><trkpt lat="43.3320811" lon="11.7181832"><ele>338.0</ele><time>2026-04-04T12:00:45.346Z</time></trkpt><trkpt lat="43.3321842" lon="11.7182983"><ele>338.0</ele><time>2026-04-04T12:00:46.345Z</time></trkpt><trkpt lat="43.3322821" lon="11.7184047"><ele>338.0</ele><time>2026-04-04T12:00:47.345Z</time></trkpt><trkpt lat="43.3323743" lon="11.7185116"><ele>338.0</ele><time>2026-04-04T12:00:48.346Z</time></trkpt><trkpt lat="43.3324599" lon="11.718617"><ele>337.2</ele><time>2026-04-04T12:00:49.346Z</time></trkpt><trkpt lat="43.3325368" lon="11.7187233"><ele>336.4</ele><time>2026-04-04T12:00:50.346Z</time></trkpt><trkpt lat="43.3326013" lon="11.7188391"><ele>335.59999999999997</ele><time>2026-04-04T12:00:51.346Z</time></trkpt><trkpt lat="43.3326545" lon="11.7189605"><ele>334.79999999999995</ele><time>2026-04-04T12:00:52.346Z</time></trkpt><trkpt lat="43.3326915" lon="11.7190913"><ele>334.0</ele><time>2026-04-04T12:00:53.345Z</time></trkpt><trkpt lat="43.3327199" lon="11.7192244"><ele>334.0</ele><time>2026-04-04T12:00:54.345Z</time></trkpt><trkpt lat="43.3327445" lon="11.7193644"><ele>334.0</ele><time>2026-04-04T12:00:55.345Z</time></trkpt><trkpt lat="43.3327657" lon="11.7195138"><ele>334.0</ele><time>2026-04-04T12:00:56.345Z</time></trkpt><trkpt lat="43.3327841" lon="11.7196693"><ele>334.0</ele><time>2026-04-04T12:00:57.346Z</time></trkpt><trkpt lat="43.3327952" lon="11.7198369"><ele>333.0</ele><time>2026-04-04T12:00:58.346Z</time></trkpt><trkpt lat="43.332805" lon="11.72001"><ele>332.0</ele><time>2026-04-04T12:00:59.346Z</time></trkpt><trkpt lat="43.3328084" lon="11.7201794"><ele>331.0</ele><time>2026-04-04T12:01:00.346Z</time></trkpt><trkpt lat="43.3328084" lon="11.7203389"><ele>330.0</ele><time>2026-04-04T12:01:01.346Z</time></trkpt><trkpt lat="43.3328084" lon="11.720496"><ele>329.0</ele><time>2026-04-04T12:01:02.345Z</time></trkpt><trkpt lat="43.3328101" lon="11.7206489"><ele>328.0</ele><time>2026-04-04T12:01:03.345Z</time></trkpt><trkpt lat="43.3328137" lon="11.7208038"><ele>327.0</ele><time>2026-04-04T12:01:04.346Z</time></trkpt><trkpt lat="43.3328179" lon="11.7209587"><ele>326.0</ele><time>2026-04-04T12:01:05.346Z</time></trkpt><trkpt lat="43.3328189" lon="11.7211135"><ele>325.0</ele><time>2026-04-04T12:01:06.345Z</time></trkpt><trkpt lat="43.3328173" lon="11.7212688"><ele>324.0</ele><time>2026-04-04T12:01:07.344Z</time></trkpt><trkpt lat="43.3328106" lon="11.7214247"><ele>323.0</ele><time>2026-04-04T12:01:08.345Z</time></trkpt><trkpt lat="43.3328004" lon="11.7215798"><ele>322.0</ele><time>2026-04-04T12:01:09.345Z</time></trkpt><trkpt lat="43.3327798" lon="11.7217336"><ele>321.0</ele><time>2026-04-04T12:01:10.346Z</time></trkpt><trkpt lat="43.3327467" lon="11.7218771"><ele>321.0</ele><time>2026-04-04T12:01:11.344Z</time></trkpt><trkpt lat="43.3327023" lon="11.7220107"><ele>321.0</ele><time>2026-04-04T12:01:12.346Z</time></trkpt><trkpt lat="43.3326465" lon="11.7221298"><ele>321.0</ele><time>2026-04-04T12:01:13.346Z</time></trkpt><trkpt lat="43.3325852" lon="11.7222393"><ele>321.0</ele><time>2026-04-04T12:01:14.346Z</time></trkpt><trkpt lat="43.3325232" lon="11.7223483"><ele>321.0</ele><time>2026-04-04T12:01:15.344Z</time></trkpt><trkpt lat="43.332461" lon="11.7224567"><ele>321.0</ele><time>2026-04-04T12:01:16.345Z</time></trkpt><trkpt lat="43.3324034" lon="11.7225669"><ele>321.0</ele><time>2026-04-04T12:01:17.346Z</time></trkpt><trkpt lat="43.3323507" lon="11.7226736"><ele>321.0</ele><time>2026-04-04T12:01:18.346Z</time></trkpt><trkpt lat="43.3322959" lon="11.7227692"><ele>321.0</ele><time>2026-04-04T12:01:19.346Z</time></trkpt><trkpt lat="43.3322437" lon="11.7228641"><ele>321.0</ele><time>2026-04-04T12:01:20.346Z</time></trkpt><trkpt lat="43.3321907" lon="11.7229622"><ele>321.4</ele><time>2026-04-04T12:01:21.345Z</time></trkpt><trkpt lat="43.3321297" lon="11.7230623"><ele>321.8</ele><time>2026-04-04T12:01:22.345Z</time></trkpt><trkpt lat="43.3320589" lon="11.723169"><ele>322.2</ele><time>2026-04-04T12:01:23.345Z</time></trkpt><trkpt lat="43.3319855" lon="11.7232832"><ele>322.59999999999997</ele><time>2026-04-04T12:01:24.345Z</time></trkpt><trkpt lat="43.3319073" lon="11.7233961"><ele>323.0</ele><time>2026-04-04T12:01:25.346Z</time></trkpt><trkpt lat="43.3318277" lon="11.7234755"><ele>323.0</ele><time>2026-04-04T12:01:26.346Z</time></trkpt><trkpt lat="43.3317368" lon="11.7235177"><ele>323.0</ele><time>2026-04-04T12:01:27.345Z</time></trkpt><trkpt lat="43.331639" lon="11.7235476"><ele>323.0</ele><time>2026-04-04T12:01:28.345Z</time></trkpt><trkpt lat="43.3315365" lon="11.7235806"><ele>323.0</ele><time>2026-04-04T12:01:29.345Z</time></trkpt><trkpt lat="43.331429" lon="11.7236131"><ele>323.0</ele><time>2026-04-04T12:01:30.345Z</time></trkpt><trkpt lat="43.3313228" lon="11.7236526"><ele>322.4</ele><time>2026-04-04T12:01:31.345Z</time></trkpt><trkpt lat="43.3312174" lon="11.7236905"><ele>321.79999999999995</ele><time>2026-04-04T12:01:32.346Z</time></trkpt><trkpt lat="43.3311132" lon="11.7237287"><ele>321.2</ele><time>2026-04-04T12:01:33.345Z</time></trkpt><trkpt lat="43.3310141" lon="11.7237665"><ele>320.6</ele><time>2026-04-04T12:01:34.346Z</time></trkpt><trkpt lat="43.3309223" lon="11.7238293"><ele>320.0</ele><time>2026-04-04T12:01:35.344Z</time></trkpt><trkpt lat="43.3308439" lon="11.7239266"><ele>320.0</ele><time>2026-04-04T12:01:36.345Z</time></trkpt><trkpt lat="43.3307754" lon="11.7240427"><ele>320.0</ele><time>2026-04-04T12:01:37.345Z</time></trkpt><trkpt lat="43.3307051" lon="11.7241732"><ele>320.0</ele><time>2026-04-04T12:01:38.345Z</time></trkpt><trkpt lat="43.3306307" lon="11.7243162"><ele>320.0</ele><time>2026-04-04T12:01:39.346Z</time></trkpt><trkpt lat="43.3305529" lon="11.7244688"><ele>317.33333333333337</ele><time>2026-04-04T12:01:40.345Z</time></trkpt><trkpt lat="43.3304693" lon="11.7246305"><ele>314.6666666666667</ele><time>2026-04-04T12:01:41.345Z</time></trkpt><trkpt lat="43.33038" lon="11.724798"><ele>312.0</ele><time>2026-04-04T12:01:42.346Z</time></trkpt><trkpt lat="43.3302844" lon="11.7249692"><ele>312.0</ele><time>2026-04-04T12:01:43.345Z</time></trkpt><trkpt lat="43.3301878" lon="11.7251488"><ele>312.0</ele><time>2026-04-04T12:01:44.345Z</time></trkpt><trkpt lat="43.3300962" lon="11.7253333"><ele>312.0</ele><time>2026-04-04T12:01:45.345Z</time></trkpt><trkpt lat="43.3300045" lon="11.725514"><ele>310.5</ele><time>2026-04-04T12:01:46.345Z</time></trkpt><trkpt lat="43.3299136" lon="11.7256896"><ele>309.0</ele><time>2026-04-04T12:01:47.346Z</time></trkpt><trkpt lat="43.3298322" lon="11.7258577"><ele>307.5</ele><time>2026-04-04T12:01:48.346Z</time></trkpt><trkpt lat="43.3297587" lon="11.7260211"><ele>306.0</ele><time>2026-04-04T12:01:49.346Z</time></trkpt><trkpt lat="43.3296936" lon="11.726185"><ele>306.0</ele><time>2026-04-04T12:01:50.345Z</time></trkpt><trkpt lat="43.3296367" lon="11.7263553"><ele>306.0</ele><time>2026-04-04T12:01:51.344Z</time></trkpt><trkpt lat="43.329589" lon="11.7265332"><ele>306.0</ele><time>2026-04-04T12:01:52.346Z</time></trkpt><trkpt lat="43.3295484" lon="11.7267113"><ele>306.0</ele><time>2026-04-04T12:01:53.345Z</time></trkpt><trkpt lat="43.3295155" lon="11.7268869"><ele>306.0</ele><time>2026-04-04T12:01:54.345Z</time></trkpt><trkpt lat="43.3294896" lon="11.7270545"><ele>306.0</ele><time>2026-04-04T12:01:55.345Z</time></trkpt><trkpt lat="43.3294694" lon="11.7272196"><ele>306.0</ele><time>2026-04-04T12:01:56.345Z</time></trkpt><trkpt lat="43.3294527" lon="11.7273791"><ele>306.0</ele><time>2026-04-04T12:01:57.344Z</time></trkpt><trkpt lat="43.3294431" lon="11.7275207"><ele>306.0</ele><time>2026-04-04T12:01:58.346Z</time></trkpt><trkpt lat="43.3294549" lon="11.7276478"><ele>306.0</ele><time>2026-04-04T12:01:59.346Z</time></trkpt><trkpt lat="43.3294969" lon="11.7277578"><ele>306.0</ele><time>2026-04-04T12:02:00.346Z</time></trkpt><trkpt lat="43.3295644" lon="11.7278426"><ele>306.0</ele><time>2026-04-04T12:02:01.346Z</time></trkpt><trkpt lat="43.3296484" lon="11.7279067"><ele>306.0</ele><time>2026-04-04T12:02:02.346Z</time></trkpt><trkpt lat="43.3297415" lon="11.7279599"><ele>305.5</ele><time>2026-04-04T12:02:03.345Z</time></trkpt><trkpt lat="43.3298423" lon="11.7280089"><ele>305.0</ele><time>2026-04-04T12:02:04.344Z</time></trkpt><trkpt lat="43.3299492" lon="11.7280569"><ele>304.5</ele><time>2026-04-04T12:02:05.344Z</time></trkpt><trkpt lat="43.3300584" lon="11.7281023"><ele>304.0</ele><time>2026-04-04T12:02:06.344Z</time></trkpt><trkpt lat="43.3301704" lon="11.7281478"><ele>304.0</ele><time>2026-04-04T12:02:07.344Z</time></trkpt><trkpt lat="43.3302827" lon="11.7281943"><ele>304.0</ele><time>2026-04-04T12:02:08.344Z</time></trkpt><trkpt lat="43.3303949" lon="11.7282413"><ele>304.0</ele><time>2026-04-04T12:02:09.345Z</time></trkpt><trkpt lat="43.3305063" lon="11.7282888"><ele>304.0</ele><time>2026-04-04T12:02:10.344Z</time></trkpt><trkpt lat="43.3306182" lon="11.728332"><ele>303.5</ele><time>2026-04-04T12:02:11.344Z</time></trkpt><trkpt lat="43.3307342" lon="11.7283611"><ele>303.0</ele><time>2026-04-04T12:02:12.345Z</time></trkpt><trkpt lat="43.3308521" lon="11.7283683"><ele>302.5</ele><time>2026-04-04T12:02:13.344Z</time></trkpt><trkpt lat="43.3309717" lon="11.7283611"><ele>302.0</ele><time>2026-04-04T12:02:14.345Z</time></trkpt><trkpt lat="43.3310927" lon="11.7283388"><ele>302.0</ele><time>2026-04-04T12:02:15.345Z</time></trkpt><trkpt lat="43.3312112" lon="11.7283035"><ele>302.0</ele><time>2026-04-04T12:02:16.344Z</time></trkpt><trkpt lat="43.3313288" lon="11.7282569"><ele>302.0</ele><time>2026-04-04T12:02:17.344Z</time></trkpt><trkpt lat="43.3314406" lon="11.7281867"><ele>302.0</ele><time>2026-04-04T12:02:18.344Z</time></trkpt><trkpt lat="43.3315468" lon="11.7280992"><ele>302.25</ele><time>2026-04-04T12:02:19.344Z</time></trkpt><trkpt lat="43.3316518" lon="11.7279998"><ele>302.5</ele><time>2026-04-04T12:02:20.344Z</time></trkpt><trkpt lat="43.3317454" lon="11.7278805"><ele>302.75</ele><time>2026-04-04T12:02:21.345Z</time></trkpt><trkpt lat="43.3318247" lon="11.7277396"><ele>303.0</ele><time>2026-04-04T12:02:22.345Z</time></trkpt><trkpt lat="43.3318979" lon="11.7275915"><ele>303.0</ele><time>2026-04-04T12:02:23.343Z</time></trkpt><trkpt lat="43.3319744" lon="11.7274519"><ele>303.0</ele><time>2026-04-04T12:02:24.344Z</time></trkpt><trkpt lat="43.332067" lon="11.7273387"><ele>303.0</ele><time>2026-04-04T12:02:25.345Z</time></trkpt><trkpt lat="43.3321861" lon="11.7272785"><ele>303.0</ele><time>2026-04-04T12:02:26.344Z</time></trkpt><trkpt lat="43.3323233" lon="11.7272703"><ele>297.6666666666667</ele><time>2026-04-04T12:02:27.344Z</time></trkpt><trkpt lat="43.3324725" lon="11.7272756"><ele>292.33333333333337</ele><time>2026-04-04T12:02:28.345Z</time></trkpt><trkpt lat="43.3326366" lon="11.7272623"><ele>287.0</ele><time>2026-04-04T12:02:29.344Z</time></trkpt><trkpt lat="43.3328144" lon="11.7272285"><ele>287.0</ele><time>2026-04-04T12:02:30.344Z</time></trkpt><trkpt lat="43.3329989" lon="11.7271797"><ele>287.0</ele><time>2026-04-04T12:02:31.345Z</time></trkpt><trkpt lat="43.3331884" lon="11.7271099"><ele>287.0</ele><time>2026-04-04T12:02:32.344Z</time></trkpt><trkpt lat="43.3333794" lon="11.7270181"><ele>288.0</ele><time>2026-04-04T12:02:33.344Z</time></trkpt><trkpt lat="43.3335656" lon="11.7269077"><ele>289.0</ele><time>2026-04-04T12:02:34.345Z</time></trkpt><trkpt lat="43.3337469" lon="11.7267947"><ele>290.0</ele><time>2026-04-04T12:02:35.343Z</time></trkpt><trkpt lat="43.3339184" lon="11.7266777"><ele>286.0</ele><time>2026-04-04T12:02:36.344Z</time></trkpt><trkpt lat="43.334077" lon="11.7265539"><ele>282.0</ele><time>2026-04-04T12:02:37.344Z</time></trkpt><trkpt lat="43.3342197" lon="11.7264165"><ele>278.0</ele><time>2026-04-04T12:02:38.343Z</time></trkpt><trkpt lat="43.334347" lon="11.726269"><ele>278.0</ele><time>2026-04-04T12:02:39.345Z</time></trkpt><trkpt lat="43.3344623" lon="11.7261173"><ele>278.0</ele><time>2026-04-04T12:02:40.344Z</time></trkpt><trkpt lat="43.3345715" lon="11.7259702"><ele>278.0</ele><time>2026-04-04T12:02:41.344Z</time></trkpt><trkpt lat="43.3346724" lon="11.7258254"><ele>277.25</ele><time>2026-04-04T12:02:42.344Z</time></trkpt><trkpt lat="43.3347703" lon="11.7256857"><ele>276.5</ele><time>2026-04-04T12:02:43.344Z</time></trkpt><trkpt lat="43.3348694" lon="11.7255599"><ele>275.75</ele><time>2026-04-04T12:02:44.344Z</time></trkpt><trkpt lat="43.3349789" lon="11.7254652"><ele>275.0</ele><time>2026-04-04T12:02:45.344Z</time></trkpt><trkpt lat="43.3350977" lon="11.7254214"><ele>275.0</ele><time>2026-04-04T12:02:46.343Z</time></trkpt><trkpt lat="43.3352221" lon="11.7254239"><ele>275.0</ele><time>2026-04-04T12:02:47.343Z</time></trkpt><trkpt lat="43.3353493" lon="11.7254481"><ele>275.0</ele><time>2026-04-04T12:02:48.345Z</time></trkpt><trkpt lat="43.3354726" lon="11.725476"><ele>275.0</ele><time>2026-04-04T12:02:49.344Z</time></trkpt><trkpt lat="43.3355861" lon="11.7255096"><ele>273.75</ele><time>2026-04-04T12:02:50.343Z</time></trkpt><trkpt lat="43.3356899" lon="11.7255648"><ele>272.5</ele><time>2026-04-04T12:02:51.345Z</time></trkpt><trkpt lat="43.3357794" lon="11.7256539"><ele>271.25</ele><time>2026-04-04T12:02:52.344Z</time></trkpt><trkpt lat="43.3358526" lon="11.7257707"><ele>270.0</ele><time>2026-04-04T12:02:53.344Z</time></trkpt><trkpt lat="43.3359136" lon="11.7259201"><ele>269.6666666666667</ele><time>2026-04-04T12:02:54.344Z</time></trkpt><trkpt lat="43.335964" lon="11.7260959"><ele>269.33333333333337</ele><time>2026-04-04T12:02:55.344Z</time></trkpt><trkpt lat="43.3360136" lon="11.7262908"><ele>269.0</ele><time>2026-04-04T12:02:56.345Z</time></trkpt><trkpt lat="43.33607" lon="11.7265007"><ele>269.0</ele><time>2026-04-04T12:02:57.344Z</time></trkpt><trkpt lat="43.336132" lon="11.7267285"><ele>269.0</ele><time>2026-04-04T12:02:58.345Z</time></trkpt><trkpt lat="43.3361975" lon="11.7269678"><ele>269.0</ele><time>2026-04-04T12:02:59.344Z</time></trkpt><trkpt lat="43.3362659" lon="11.7272186"><ele>268.33333333333337</ele><time>2026-04-04T12:03:00.344Z</time></trkpt><trkpt lat="43.3363355" lon="11.7274771"><ele>267.6666666666667</ele><time>2026-04-04T12:03:01.344Z</time></trkpt><trkpt lat="43.3364064" lon="11.7277432"><ele>267.0</ele><time>2026-04-04T12:03:02.344Z</time></trkpt><trkpt lat="43.3364783" lon="11.7280135"><ele>266.3333333333333</ele><time>2026-04-04T12:03:03.344Z</time></trkpt><trkpt lat="43.3365483" lon="11.7282841"><ele>265.66666666666663</ele><time>2026-04-04T12:03:04.344Z</time></trkpt><trkpt lat="43.3366202" lon="11.7285527"><ele>265.0</ele><time>2026-04-04T12:03:05.344Z</time></trkpt><trkpt lat="43.3367587" lon="11.7290735"><ele>265.0</ele><time>2026-04-04T12:03:07.346Z</time></trkpt><trkpt lat="43.3368226" lon="11.7293341"><ele>265.0</ele><time>2026-04-04T12:03:08.348Z</time></trkpt><trkpt lat="43.3369012" lon="11.7296027"><ele>265.0</ele><time>2026-04-04T12:03:09.345Z</time></trkpt><trkpt lat="43.3369714" lon="11.7298671"><ele>265.0</ele><time>2026-04-04T12:03:10.346Z</time></trkpt><trkpt lat="43.3370441" lon="11.7301332"><ele>265.0</ele><time>2026-04-04T12:03:11.346Z</time></trkpt><trkpt lat="43.3371159" lon="11.7304035"><ele>265.0</ele><time>2026-04-04T12:03:12.346Z</time></trkpt><trkpt lat="43.3371866" lon="11.7306767"><ele>265.0</ele><time>2026-04-04T12:03:13.346Z</time></trkpt><trkpt lat="43.3372587" lon="11.730952"><ele>265.0</ele><time>2026-04-04T12:03:14.345Z</time></trkpt><trkpt lat="43.3373309" lon="11.731231"><ele>265.0</ele><time>2026-04-04T12:03:15.346Z</time></trkpt><trkpt lat="43.337404" lon="11.7315116"><ele>265.0</ele><time>2026-04-04T12:03:16.345Z</time></trkpt><trkpt lat="43.3374775" lon="11.7317932"><ele>265.0</ele><time>2026-04-04T12:03:17.345Z</time></trkpt><trkpt lat="43.3375513" lon="11.7320729"><ele>265.0</ele><time>2026-04-04T12:03:18.346Z</time></trkpt><trkpt lat="43.3376258" lon="11.7323526"><ele>265.0</ele><time>2026-04-04T12:03:19.346Z</time></trkpt><trkpt lat="43.3376991" lon="11.7326305"><ele>265.0</ele><time>2026-04-04T12:03:20.345Z</time></trkpt><trkpt lat="43.3377754" lon="11.7329025"><ele>265.0</ele><time>2026-04-04T12:03:21.345Z</time></trkpt><trkpt lat="43.3378515" lon="11.7331705"><ele>265.0</ele><time>2026-04-04T12:03:22.345Z</time></trkpt><trkpt lat="43.337924" lon="11.7334365"><ele>265.0</ele><time>2026-04-04T12:03:23.345Z</time></trkpt><trkpt lat="43.337992" lon="11.7337038"><ele>265.0</ele><time>2026-04-04T12:03:24.344Z</time></trkpt><trkpt lat="43.338058" lon="11.7339585"><ele>265.0</ele><time>2026-04-04T12:03:25.346Z</time></trkpt><trkpt lat="43.3381227" lon="11.7342013"><ele>265.0</ele><time>2026-04-04T12:03:26.346Z</time></trkpt><trkpt lat="43.3381856" lon="11.734431"><ele>265.0</ele><time>2026-04-04T12:03:27.345Z</time></trkpt><trkpt lat="43.3382525" lon="11.7346433"><ele>265.66666666666663</ele><time>2026-04-04T12:03:28.345Z</time></trkpt><trkpt lat="43.338331" lon="11.7348375"><ele>266.3333333333333</ele><time>2026-04-04T12:03:29.345Z</time></trkpt><trkpt lat="43.3384249" lon="11.7350219"><ele>267.0</ele><time>2026-04-04T12:03:30.345Z</time></trkpt><trkpt lat="43.3385254" lon="11.7352038"><ele>266.3333333333333</ele><time>2026-04-04T12:03:31.345Z</time></trkpt><trkpt lat="43.3386272" lon="11.7353889"><ele>265.66666666666663</ele><time>2026-04-04T12:03:32.346Z</time></trkpt><trkpt lat="43.3387291" lon="11.7355785"><ele>265.0</ele><time>2026-04-04T12:03:33.346Z</time></trkpt><trkpt lat="43.3388322" lon="11.7357729"><ele>264.0</ele><time>2026-04-04T12:03:34.345Z</time></trkpt><trkpt lat="43.3389379" lon="11.7359681"><ele>263.0</ele><time>2026-04-04T12:03:35.345Z</time></trkpt><trkpt lat="43.3390407" lon="11.7361537"><ele>262.0</ele><time>2026-04-04T12:03:36.345Z</time></trkpt><trkpt lat="43.3391412" lon="11.7363352"><ele>262.0</ele><time>2026-04-04T12:03:37.345Z</time></trkpt><trkpt lat="43.3392341" lon="11.736504"><ele>262.0</ele><time>2026-04-04T12:03:38.344Z</time></trkpt><trkpt lat="43.3393173" lon="11.736658"><ele>262.0</ele><time>2026-04-04T12:03:39.346Z</time></trkpt><trkpt lat="43.3393836" lon="11.7367996"><ele>262.0</ele><time>2026-04-04T12:03:40.346Z</time></trkpt><trkpt lat="43.3394202" lon="11.736949"><ele>262.4</ele><time>2026-04-04T12:03:41.346Z</time></trkpt><trkpt lat="43.339443" lon="11.737091"><ele>262.79999999999995</ele><time>2026-04-04T12:03:42.346Z</time></trkpt><trkpt lat="43.3394912" lon="11.7372084"><ele>263.2</ele><time>2026-04-04T12:03:43.345Z</time></trkpt><trkpt lat="43.3395645" lon="11.7373093"><ele>263.59999999999997</ele><time>2026-04-04T12:03:44.346Z</time></trkpt><trkpt lat="43.3396602" lon="11.7373979"><ele>264.0</ele><time>2026-04-04T12:03:45.345Z</time></trkpt><trkpt lat="43.3397656" lon="11.737513"><ele>264.0</ele><time>2026-04-04T12:03:46.345Z</time></trkpt><trkpt lat="43.3398696" lon="11.737663"><ele>264.0</ele><time>2026-04-04T12:03:47.345Z</time></trkpt><trkpt lat="43.339971" lon="11.7378312"><ele>264.0</ele><time>2026-04-04T12:03:48.346Z</time></trkpt><trkpt lat="43.3400734" lon="11.7380109"><ele>263.6666666666667</ele><time>2026-04-04T12:03:49.345Z</time></trkpt><trkpt lat="43.3401825" lon="11.738198"><ele>263.33333333333337</ele><time>2026-04-04T12:03:50.344Z</time></trkpt><trkpt lat="43.3403019" lon="11.7383919"><ele>263.0</ele><time>2026-04-04T12:03:51.346Z</time></trkpt><trkpt lat="43.3404239" lon="11.7386085"><ele>263.0</ele><time>2026-04-04T12:03:52.344Z</time></trkpt><trkpt lat="43.340539" lon="11.738843"><ele>263.0</ele><time>2026-04-04T12:03:53.345Z</time></trkpt><trkpt lat="43.3406639" lon="11.7390829"><ele>263.0</ele><time>2026-04-04T12:03:54.345Z</time></trkpt><trkpt lat="43.3407985" lon="11.7393209"><ele>263.5</ele><time>2026-04-04T12:03:55.344Z</time></trkpt><trkpt lat="43.3409456" lon="11.7395514"><ele>264.0</ele><time>2026-04-04T12:03:56.345Z</time></trkpt><trkpt lat="43.341115" lon="11.7397585"><ele>264.0</ele><time>2026-04-04T12:03:57.345Z</time></trkpt><trkpt lat="43.3413026" lon="11.7399379"><ele>264.0</ele><time>2026-04-04T12:03:58.345Z</time></trkpt><trkpt lat="43.3414933" lon="11.740099"><ele>264.3333333333333</ele><time>2026-04-04T12:03:59.346Z</time></trkpt><trkpt lat="43.3416821" lon="11.7402587"><ele>264.66666666666663</ele><time>2026-04-04T12:04:00.345Z</time></trkpt><trkpt lat="43.3418709" lon="11.7404125"><ele>265.0</ele><time>2026-04-04T12:04:01.344Z</time></trkpt><trkpt lat="43.3420619" lon="11.7405574"><ele>266.0</ele><time>2026-04-04T12:04:02.345Z</time></trkpt><trkpt lat="43.3422533" lon="11.7406952"><ele>267.0</ele><time>2026-04-04T12:04:03.346Z</time></trkpt><trkpt lat="43.3424415" lon="11.7408255"><ele>268.0</ele><time>2026-04-04T12:04:04.345Z</time></trkpt><trkpt lat="43.3426286" lon="11.7409476"><ele>268.66666666666663</ele><time>2026-04-04T12:04:05.346Z</time></trkpt><trkpt lat="43.3428139" lon="11.7410677"><ele>269.3333333333333</ele><time>2026-04-04T12:04:06.345Z</time></trkpt><trkpt lat="43.3429961" lon="11.7411937"><ele>270.0</ele><time>2026-04-04T12:04:07.345Z</time></trkpt><trkpt lat="43.3431741" lon="11.7413246"><ele>270.6666666666667</ele><time>2026-04-04T12:04:08.346Z</time></trkpt><trkpt lat="43.3433456" lon="11.741449"><ele>271.33333333333337</ele><time>2026-04-04T12:04:09.345Z</time></trkpt><trkpt lat="43.3435066" lon="11.7415577"><ele>272.0</ele><time>2026-04-04T12:04:10.345Z</time></trkpt><trkpt lat="43.3436736" lon="11.7416606"><ele>272.0</ele><time>2026-04-04T12:04:11.346Z</time></trkpt><trkpt lat="43.343849" lon="11.741766"><ele>272.0</ele><time>2026-04-04T12:04:12.344Z</time></trkpt><trkpt lat="43.344035" lon="11.7418612"><ele>272.0</ele><time>2026-04-04T12:04:13.345Z</time></trkpt><trkpt lat="43.3442312" lon="11.7419478"><ele>273.0</ele><time>2026-04-04T12:04:14.345Z</time></trkpt><trkpt lat="43.3444319" lon="11.7420387"><ele>274.0</ele><time>2026-04-04T12:04:15.346Z</time></trkpt><trkpt lat="43.3446365" lon="11.7421318"><ele>275.0</ele><time>2026-04-04T12:04:16.345Z</time></trkpt><trkpt lat="43.3448464" lon="11.7422272"><ele>276.6666666666667</ele><time>2026-04-04T12:04:17.346Z</time></trkpt><trkpt lat="43.3450579" lon="11.742321"><ele>278.3333333333333</ele><time>2026-04-04T12:04:18.345Z</time></trkpt><trkpt lat="43.3452711" lon="11.7424111"><ele>280.0</ele><time>2026-04-04T12:04:19.345Z</time></trkpt><trkpt lat="43.3454847" lon="11.7424968"><ele>281.66666666666663</ele><time>2026-04-04T12:04:20.345Z</time></trkpt><trkpt lat="43.3456961" lon="11.7425853"><ele>283.3333333333333</ele><time>2026-04-04T12:04:21.345Z</time></trkpt><trkpt lat="43.3458995" lon="11.7426798"><ele>285.0</ele><time>2026-04-04T12:04:22.346Z</time></trkpt><trkpt lat="43.3461004" lon="11.7427655"><ele>286.6666666666667</ele><time>2026-04-04T12:04:23.345Z</time></trkpt><trkpt lat="43.3463017" lon="11.7428299"><ele>288.33333333333337</ele><time>2026-04-04T12:04:24.344Z</time></trkpt><trkpt lat="43.3465082" lon="11.7428813"><ele>290.0</ele><time>2026-04-04T12:04:25.346Z</time></trkpt><trkpt lat="43.3467162" lon="11.7429342"><ele>292.0</ele><time>2026-04-04T12:04:26.345Z</time></trkpt><trkpt lat="43.3469167" lon="11.743009"><ele>294.0</ele><time>2026-04-04T12:04:27.345Z</time></trkpt><trkpt lat="43.3471063" lon="11.7431107"><ele>296.0</ele><time>2026-04-04T12:04:28.344Z</time></trkpt><trkpt lat="43.3472821" lon="11.7432465"><ele>296.6666666666667</ele><time>2026-04-04T12:04:29.345Z</time></trkpt><trkpt lat="43.3474413" lon="11.7434121"><ele>297.3333333333333</ele><time>2026-04-04T12:04:30.345Z</time></trkpt><trkpt lat="43.3475803" lon="11.7435959"><ele>298.0</ele><time>2026-04-04T12:04:31.345Z</time></trkpt><trkpt lat="43.3476886" lon="11.7438107"><ele>299.3333333333333</ele><time>2026-04-04T12:04:32.345Z</time></trkpt><trkpt lat="43.3477715" lon="11.7440582"><ele>300.6666666666667</ele><time>2026-04-04T12:04:33.345Z</time></trkpt><trkpt lat="43.3478568" lon="11.7443143"><ele>302.0</ele><time>2026-04-04T12:04:34.345Z</time></trkpt><trkpt lat="43.3479625" lon="11.7445712"><ele>301.0</ele><time>2026-04-04T12:04:35.345Z</time></trkpt><trkpt lat="43.3480946" lon="11.7448179"><ele>300.0</ele><time>2026-04-04T12:04:36.345Z</time></trkpt><trkpt lat="43.3482454" lon="11.7450473"><ele>299.0</ele><time>2026-04-04T12:04:37.345Z</time></trkpt><trkpt lat="43.3484169" lon="11.7452615"><ele>299.0</ele><time>2026-04-04T12:04:38.345Z</time></trkpt><trkpt lat="43.3486034" lon="11.7454605"><ele>299.0</ele><time>2026-04-04T12:04:39.345Z</time></trkpt><trkpt lat="43.3487943" lon="11.7456575"><ele>299.0</ele><time>2026-04-04T12:04:40.345Z</time></trkpt><trkpt lat="43.3489845" lon="11.7458544"><ele>299.0</ele><time>2026-04-04T12:04:41.344Z</time></trkpt><trkpt lat="43.3491722" lon="11.7460496"><ele>301.0</ele><time>2026-04-04T12:04:42.344Z</time></trkpt><trkpt lat="43.3493576" lon="11.7462431"><ele>303.0</ele><time>2026-04-04T12:04:43.345Z</time></trkpt><trkpt lat="43.3495446" lon="11.7464298"><ele>302.5</ele><time>2026-04-04T12:04:44.346Z</time></trkpt><trkpt lat="43.3497339" lon="11.7466066"><ele>302.0</ele><time>2026-04-04T12:04:45.344Z</time></trkpt><trkpt lat="43.3499257" lon="11.7467687"><ele>302.0</ele><time>2026-04-04T12:04:46.345Z</time></trkpt><trkpt lat="43.3501219" lon="11.7469228"><ele>302.0</ele><time>2026-04-04T12:04:47.345Z</time></trkpt><trkpt lat="43.3503176" lon="11.7470808"><ele>302.0</ele><time>2026-04-04T12:04:48.346Z</time></trkpt><trkpt lat="43.3505118" lon="11.7472485"><ele>302.0</ele><time>2026-04-04T12:04:49.345Z</time></trkpt><trkpt lat="43.3507026" lon="11.7474227"><ele>302.33333333333337</ele><time>2026-04-04T12:04:50.345Z</time></trkpt><trkpt lat="43.3508805" lon="11.7475944"><ele>302.6666666666667</ele><time>2026-04-04T12:04:51.346Z</time></trkpt><trkpt lat="43.3510513" lon="11.747782"><ele>303.0</ele><time>2026-04-04T12:04:52.346Z</time></trkpt><trkpt lat="43.3512159" lon="11.7479872"><ele>303.0</ele><time>2026-04-04T12:04:53.345Z</time></trkpt><trkpt lat="43.3513691" lon="11.7482112"><ele>303.0</ele><time>2026-04-04T12:04:54.345Z</time></trkpt><trkpt lat="43.3515167" lon="11.7484458"><ele>303.0</ele><time>2026-04-04T12:04:55.345Z</time></trkpt><trkpt lat="43.3516667" lon="11.7486795"><ele>301.0</ele><time>2026-04-04T12:04:56.345Z</time></trkpt><trkpt lat="43.351821" lon="11.7489094"><ele>299.0</ele><time>2026-04-04T12:04:57.346Z</time></trkpt><trkpt lat="43.3519866" lon="11.7491233"><ele>299.0</ele><time>2026-04-04T12:04:58.345Z</time></trkpt><trkpt lat="43.3521689" lon="11.7493044"><ele>299.0</ele><time>2026-04-04T12:04:59.345Z</time></trkpt><trkpt lat="43.3523635" lon="11.7494447"><ele>299.0</ele><time>2026-04-04T12:05:00.346Z</time></trkpt><trkpt lat="43.3525696" lon="11.7495518"><ele>299.0</ele><time>2026-04-04T12:05:01.346Z</time></trkpt><trkpt lat="43.3527891" lon="11.7496116"><ele>299.0</ele><time>2026-04-04T12:05:02.345Z</time></trkpt><trkpt lat="43.3530199" lon="11.7496319"><ele>298.5</ele><time>2026-04-04T12:05:03.345Z</time></trkpt><trkpt lat="43.3532561" lon="11.7496138"><ele>298.0</ele><time>2026-04-04T12:05:04.346Z</time></trkpt><trkpt lat="43.3534923" lon="11.7495653"><ele>298.0</ele><time>2026-04-04T12:05:05.345Z</time></trkpt><trkpt lat="43.3537252" lon="11.7494897"><ele>298.0</ele><time>2026-04-04T12:05:06.344Z</time></trkpt><trkpt lat="43.3539511" lon="11.7493864"><ele>297.0</ele><time>2026-04-04T12:05:07.345Z</time></trkpt><trkpt lat="43.3541761" lon="11.7492831"><ele>296.0</ele><time>2026-04-04T12:05:08.344Z</time></trkpt><trkpt lat="43.3544014" lon="11.7491833"><ele>296.0</ele><time>2026-04-04T12:05:09.345Z</time></trkpt><trkpt lat="43.3546248" lon="11.7490805"><ele>296.0</ele><time>2026-04-04T12:05:10.346Z</time></trkpt><trkpt lat="43.3548469" lon="11.7489774"><ele>298.5</ele><time>2026-04-04T12:05:11.345Z</time></trkpt><trkpt lat="43.355069" lon="11.748873"><ele>301.0</ele><time>2026-04-04T12:05:12.345Z</time></trkpt><trkpt lat="43.3552949" lon="11.7487699"><ele>301.0</ele><time>2026-04-04T12:05:13.346Z</time></trkpt><trkpt lat="43.3555231" lon="11.7486697"><ele>301.0</ele><time>2026-04-04T12:05:14.345Z</time></trkpt><trkpt lat="43.3557528" lon="11.7485725"><ele>298.0</ele><time>2026-04-04T12:05:15.345Z</time></trkpt><trkpt lat="43.3559879" lon="11.748494"><ele>295.0</ele><time>2026-04-04T12:05:16.346Z</time></trkpt><trkpt lat="43.3562266" lon="11.7484526"><ele>296.0</ele><time>2026-04-04T12:05:17.345Z</time></trkpt><trkpt lat="43.3564647" lon="11.7484472"><ele>297.0</ele><time>2026-04-04T12:05:18.345Z</time></trkpt><trkpt lat="43.3566984" lon="11.7484682"><ele>297.0</ele><time>2026-04-04T12:05:19.344Z</time></trkpt><trkpt lat="43.3569285" lon="11.7485091"><ele>297.0</ele><time>2026-04-04T12:05:20.345Z</time></trkpt><trkpt lat="43.3571529" lon="11.7485605"><ele>295.0</ele><time>2026-04-04T12:05:21.344Z</time></trkpt><trkpt lat="43.3573752" lon="11.7486159"><ele>293.0</ele><time>2026-04-04T12:05:22.345Z</time></trkpt><trkpt lat="43.3575963" lon="11.748671"><ele>293.0</ele><time>2026-04-04T12:05:23.346Z</time></trkpt><trkpt lat="43.3578138" lon="11.7487291"><ele>293.0</ele><time>2026-04-04T12:05:24.345Z</time></trkpt><trkpt lat="43.3580287" lon="11.7487885"><ele>293.0</ele><time>2026-04-04T12:05:25.345Z</time></trkpt><trkpt lat="43.3582418" lon="11.7488514"><ele>294.6666666666667</ele><time>2026-04-04T12:05:26.344Z</time></trkpt><trkpt lat="43.3584555" lon="11.7489195"><ele>296.3333333333333</ele><time>2026-04-04T12:05:27.345Z</time></trkpt><trkpt lat="43.3586708" lon="11.7489896"><ele>298.0</ele><time>2026-04-04T12:05:28.346Z</time></trkpt><trkpt lat="43.3588868" lon="11.7490628"><ele>298.0</ele><time>2026-04-04T12:05:29.344Z</time></trkpt><trkpt lat="43.3591038" lon="11.7491352"><ele>298.0</ele><time>2026-04-04T12:05:30.344Z</time></trkpt><trkpt lat="43.3593216" lon="11.7492084"><ele>298.0</ele><time>2026-04-04T12:05:31.345Z</time></trkpt><trkpt lat="43.3595388" lon="11.7492814"><ele>297.66666666666663</ele><time>2026-04-04T12:05:32.346Z</time></trkpt><trkpt lat="43.3597558" lon="11.7493564"><ele>297.3333333333333</ele><time>2026-04-04T12:05:33.345Z</time></trkpt><trkpt lat="43.3599684" lon="11.7494481"><ele>297.0</ele><time>2026-04-04T12:05:34.345Z</time></trkpt><trkpt lat="43.3601741" lon="11.7495597"><ele>295.0</ele><time>2026-04-04T12:05:35.346Z</time></trkpt><trkpt lat="43.3603655" lon="11.7496894"><ele>293.0</ele><time>2026-04-04T12:05:36.345Z</time></trkpt><trkpt lat="43.360538" lon="11.749835"><ele>291.0</ele><time>2026-04-04T12:05:37.345Z</time></trkpt><trkpt lat="43.360682" lon="11.750004"><ele>289.0</ele><time>2026-04-04T12:05:38.346Z</time></trkpt><trkpt lat="43.360805" lon="11.7502145"><ele>287.0</ele><time>2026-04-04T12:05:39.344Z</time></trkpt><trkpt lat="43.3609035" lon="11.7504596"><ele>285.0</ele><time>2026-04-04T12:05:40.346Z</time></trkpt><trkpt lat="43.3609792" lon="11.7507304"><ele>285.0</ele><time>2026-04-04T12:05:41.346Z</time></trkpt><trkpt lat="43.361046" lon="11.7510226"><ele>285.0</ele><time>2026-04-04T12:05:42.344Z</time></trkpt><trkpt lat="43.361112" lon="11.7513268"><ele>283.0</ele><time>2026-04-04T12:05:43.346Z</time></trkpt><trkpt lat="43.3611831" lon="11.7516378"><ele>281.0</ele><time>2026-04-04T12:05:44.345Z</time></trkpt><trkpt lat="43.3612564" lon="11.751953"><ele>279.5</ele><time>2026-04-04T12:05:45.344Z</time></trkpt><trkpt lat="43.3613331" lon="11.7522702"><ele>278.0</ele><time>2026-04-04T12:05:46.345Z</time></trkpt><trkpt lat="43.3614096" lon="11.7525875"><ele>275.5</ele><time>2026-04-04T12:05:47.345Z</time></trkpt><trkpt lat="43.3614871" lon="11.7529057"><ele>273.0</ele><time>2026-04-04T12:05:48.345Z</time></trkpt><trkpt lat="43.3615605" lon="11.7532224"><ele>272.0</ele><time>2026-04-04T12:05:49.345Z</time></trkpt><trkpt lat="43.3616341" lon="11.7535398"><ele>271.0</ele><time>2026-04-04T12:05:50.346Z</time></trkpt><trkpt lat="43.3617108" lon="11.7538547"><ele>271.0</ele><time>2026-04-04T12:05:51.345Z</time></trkpt><trkpt lat="43.3617912" lon="11.7541654"><ele>271.0</ele><time>2026-04-04T12:05:52.345Z</time></trkpt><trkpt lat="43.3618792" lon="11.7544692"><ele>270.5</ele><time>2026-04-04T12:05:53.345Z</time></trkpt><trkpt lat="43.3619788" lon="11.7547631"><ele>270.0</ele><time>2026-04-04T12:05:54.346Z</time></trkpt><trkpt lat="43.3620906" lon="11.7550438"><ele>272.5</ele><time>2026-04-04T12:05:55.345Z</time></trkpt><trkpt lat="43.3622097" lon="11.7553127"><ele>275.0</ele><time>2026-04-04T12:05:56.346Z</time></trkpt><trkpt lat="43.3623346" lon="11.7555689"><ele>275.0</ele><time>2026-04-04T12:05:57.345Z</time></trkpt><trkpt lat="43.3624604" lon="11.7558177"><ele>275.0</ele><time>2026-04-04T12:05:58.345Z</time></trkpt><trkpt lat="43.3625848" lon="11.756065"><ele>275.0</ele><time>2026-04-04T12:05:59.344Z</time></trkpt><trkpt lat="43.3627114" lon="11.7563098"><ele>275.33333333333337</ele><time>2026-04-04T12:06:00.345Z</time></trkpt><trkpt lat="43.3628395" lon="11.7565519"><ele>275.6666666666667</ele><time>2026-04-04T12:06:01.345Z</time></trkpt><trkpt lat="43.3629662" lon="11.7567957"><ele>276.0</ele><time>2026-04-04T12:06:02.345Z</time></trkpt><trkpt lat="43.3630905" lon="11.7570401"><ele>278.6666666666667</ele><time>2026-04-04T12:06:03.345Z</time></trkpt><trkpt lat="43.3632139" lon="11.7572806"><ele>281.33333333333337</ele><time>2026-04-04T12:06:04.346Z</time></trkpt><trkpt lat="43.3633335" lon="11.7575109"><ele>284.0</ele><time>2026-04-04T12:06:05.344Z</time></trkpt><trkpt lat="43.3634491" lon="11.7577171"><ele>284.0</ele><time>2026-04-04T12:06:06.345Z</time></trkpt><trkpt lat="43.3635623" lon="11.7578942"><ele>284.0</ele><time>2026-04-04T12:06:07.345Z</time></trkpt><trkpt lat="43.3636679" lon="11.7580214"><ele>284.0</ele><time>2026-04-04T12:06:08.344Z</time></trkpt><trkpt lat="43.3637893" lon="11.7581043"><ele>284.0</ele><time>2026-04-04T12:06:09.345Z</time></trkpt><trkpt lat="43.3639377" lon="11.7581397"><ele>284.0</ele><time>2026-04-04T12:06:10.346Z</time></trkpt><trkpt lat="43.3641071" lon="11.7581451"><ele>284.0</ele><time>2026-04-04T12:06:11.344Z</time></trkpt><trkpt lat="43.3642927" lon="11.7581464"><ele>284.0</ele><time>2026-04-04T12:06:12.346Z</time></trkpt><trkpt lat="43.3644883" lon="11.7581487"><ele>284.0</ele><time>2026-04-04T12:06:13.345Z</time></trkpt><trkpt lat="43.3646935" lon="11.7581515"><ele>284.0</ele><time>2026-04-04T12:06:14.346Z</time></trkpt><trkpt lat="43.364902" lon="11.7581551"><ele>284.0</ele><time>2026-04-04T12:06:15.345Z</time></trkpt><trkpt lat="43.3651123" lon="11.7581572"><ele>282.33333333333337</ele><time>2026-04-04T12:06:16.346Z</time></trkpt><trkpt lat="43.3653245" lon="11.758157"><ele>280.6666666666667</ele><time>2026-04-04T12:06:17.344Z</time></trkpt><trkpt lat="43.3655363" lon="11.7581546"><ele>279.0</ele><time>2026-04-04T12:06:18.345Z</time></trkpt><trkpt lat="43.365749" lon="11.7581498"><ele>277.6666666666667</ele><time>2026-04-04T12:06:19.345Z</time></trkpt><trkpt lat="43.3659641" lon="11.7581435"><ele>276.33333333333337</ele><time>2026-04-04T12:06:20.346Z</time></trkpt><trkpt lat="43.3661776" lon="11.7581371"><ele>275.0</ele><time>2026-04-04T12:06:21.346Z</time></trkpt><trkpt lat="43.3663794" lon="11.7581368"><ele>274.33333333333337</ele><time>2026-04-04T12:06:22.345Z</time></trkpt><trkpt lat="43.3665733" lon="11.758145"><ele>273.6666666666667</ele><time>2026-04-04T12:06:23.346Z</time></trkpt><trkpt lat="43.3667627" lon="11.758174"><ele>273.0</ele><time>2026-04-04T12:06:24.345Z</time></trkpt><trkpt lat="43.3669496" lon="11.7582377"><ele>273.0</ele><time>2026-04-04T12:06:25.346Z</time></trkpt><trkpt lat="43.3671301" lon="11.7583414"><ele>273.0</ele><time>2026-04-04T12:06:26.345Z</time></trkpt><trkpt lat="43.3672932" lon="11.7585025"><ele>273.0</ele><time>2026-04-04T12:06:27.346Z</time></trkpt><trkpt lat="43.3674374" lon="11.7587082"><ele>272.3333333333333</ele><time>2026-04-04T12:06:28.345Z</time></trkpt><trkpt lat="43.3675651" lon="11.758944"><ele>271.66666666666663</ele><time>2026-04-04T12:06:29.344Z</time></trkpt><trkpt lat="43.3676904" lon="11.7591866"><ele>271.0</ele><time>2026-04-04T12:06:30.346Z</time></trkpt><trkpt lat="43.3678152" lon="11.7594431"><ele>270.0</ele><time>2026-04-04T12:06:31.346Z</time></trkpt><trkpt lat="43.3679414" lon="11.7597003"><ele>269.0</ele><time>2026-04-04T12:06:32.344Z</time></trkpt><trkpt lat="43.3680651" lon="11.7599619"><ele>267.5</ele><time>2026-04-04T12:06:33.345Z</time></trkpt><trkpt lat="43.3681899" lon="11.7602269"><ele>266.0</ele><time>2026-04-04T12:06:34.345Z</time></trkpt><trkpt lat="43.368316" lon="11.7604927"><ele>266.0</ele><time>2026-04-04T12:06:35.344Z</time></trkpt><trkpt lat="43.3684396" lon="11.76076"><ele>266.0</ele><time>2026-04-04T12:06:36.346Z</time></trkpt><trkpt lat="43.3685694" lon="11.7610378"><ele>266.0</ele><time>2026-04-04T12:06:37.346Z</time></trkpt><trkpt lat="43.3686975" lon="11.7613104"><ele>266.0</ele><time>2026-04-04T12:06:38.346Z</time></trkpt><trkpt lat="43.368827" lon="11.7615833"><ele>265.5</ele><time>2026-04-04T12:06:39.346Z</time></trkpt><trkpt lat="43.3689588" lon="11.7618576"><ele>265.0</ele><time>2026-04-04T12:06:40.346Z</time></trkpt><trkpt lat="43.3690883" lon="11.762133"><ele>265.0</ele><time>2026-04-04T12:06:41.346Z</time></trkpt><trkpt lat="43.369218" lon="11.7624115"><ele>265.0</ele><time>2026-04-04T12:06:42.346Z</time></trkpt><trkpt lat="43.3693465" lon="11.7626917"><ele>265.0</ele><time>2026-04-04T12:06:43.346Z</time></trkpt><trkpt lat="43.3694781" lon="11.7629729"><ele>265.0</ele><time>2026-04-04T12:06:44.345Z</time></trkpt><trkpt lat="43.3696104" lon="11.7632543"><ele>264.5</ele><time>2026-04-04T12:06:45.345Z</time></trkpt><trkpt lat="43.3697422" lon="11.7635366"><ele>264.0</ele><time>2026-04-04T12:06:46.345Z</time></trkpt><trkpt lat="43.3698739" lon="11.7638201"><ele>264.0</ele><time>2026-04-04T12:06:47.345Z</time></trkpt><trkpt lat="43.3700065" lon="11.7641051"><ele>264.0</ele><time>2026-04-04T12:06:48.345Z</time></trkpt><trkpt lat="43.3701391" lon="11.7643871"><ele>266.0</ele><time>2026-04-04T12:06:49.345Z</time></trkpt><trkpt lat="43.370271" lon="11.7646678"><ele>268.0</ele><time>2026-04-04T12:06:50.345Z</time></trkpt><trkpt lat="43.3704038" lon="11.7649488"><ele>269.0</ele><time>2026-04-04T12:06:51.345Z</time></trkpt><trkpt lat="43.3705355" lon="11.7652284"><ele>270.0</ele><time>2026-04-04T12:06:52.345Z</time></trkpt><trkpt lat="43.3706685" lon="11.7655055"><ele>270.0</ele><time>2026-04-04T12:06:53.345Z</time></trkpt><trkpt lat="43.3707995" lon="11.7657815"><ele>270.0</ele><time>2026-04-04T12:06:54.345Z</time></trkpt><trkpt lat="43.370927" lon="11.7660573"><ele>270.0</ele><time>2026-04-04T12:06:55.345Z</time></trkpt><trkpt lat="43.3710547" lon="11.7663264"><ele>270.0</ele><time>2026-04-04T12:06:56.346Z</time></trkpt><trkpt lat="43.3711764" lon="11.7665804"><ele>270.0</ele><time>2026-04-04T12:06:57.345Z</time></trkpt><trkpt lat="43.3712942" lon="11.7668253"><ele>270.0</ele><time>2026-04-04T12:06:58.346Z</time></trkpt><trkpt lat="43.3714149" lon="11.7670602"><ele>270.0</ele><time>2026-04-04T12:06:59.346Z</time></trkpt><trkpt lat="43.3715504" lon="11.7672746"><ele>271.6666666666667</ele><time>2026-04-04T12:07:00.346Z</time></trkpt><trkpt lat="43.3717142" lon="11.7674529"><ele>273.33333333333337</ele><time>2026-04-04T12:07:01.345Z</time></trkpt><trkpt lat="43.3719056" lon="11.7675992"><ele>275.0</ele><time>2026-04-04T12:07:02.346Z</time></trkpt><trkpt lat="43.3721072" lon="11.7677335"><ele>276.5</ele><time>2026-04-04T12:07:03.346Z</time></trkpt><trkpt lat="43.3723106" lon="11.7678699"><ele>278.0</ele><time>2026-04-04T12:07:04.345Z</time></trkpt><trkpt lat="43.3725176" lon="11.7680063"><ele>278.0</ele><time>2026-04-04T12:07:05.345Z</time></trkpt><trkpt lat="43.3727229" lon="11.7681431"><ele>278.0</ele><time>2026-04-04T12:07:06.345Z</time></trkpt><trkpt lat="43.3729199" lon="11.7682896"><ele>279.33333333333337</ele><time>2026-04-04T12:07:07.344Z</time></trkpt><trkpt lat="43.3731067" lon="11.7684534"><ele>280.6666666666667</ele><time>2026-04-04T12:07:08.345Z</time></trkpt><trkpt lat="43.3732787" lon="11.768638"><ele>282.0</ele><time>2026-04-04T12:07:09.345Z</time></trkpt><trkpt lat="43.3734444" lon="11.768837"><ele>282.0</ele><time>2026-04-04T12:07:10.346Z</time></trkpt><trkpt lat="43.3736098" lon="11.769038"><ele>282.0</ele><time>2026-04-04T12:07:11.346Z</time></trkpt><trkpt lat="43.3737714" lon="11.76923"><ele>282.0</ele><time>2026-04-04T12:07:12.346Z</time></trkpt><trkpt lat="43.3739199" lon="11.769414"><ele>282.3333333333333</ele><time>2026-04-04T12:07:13.346Z</time></trkpt><trkpt lat="43.3740537" lon="11.769596"><ele>282.66666666666663</ele><time>2026-04-04T12:07:14.345Z</time></trkpt><trkpt lat="43.374176" lon="11.7697697"><ele>283.0</ele><time>2026-04-04T12:07:15.346Z</time></trkpt><trkpt lat="43.3743013" lon="11.769916"><ele>283.0</ele><time>2026-04-04T12:07:16.345Z</time></trkpt><trkpt lat="43.3744391" lon="11.7700173"><ele>283.0</ele><time>2026-04-04T12:07:17.345Z</time></trkpt><trkpt lat="43.374598" lon="11.7700717"><ele>283.0</ele><time>2026-04-04T12:07:18.344Z</time></trkpt><trkpt lat="43.3747743" lon="11.7700652"><ele>281.3333333333333</ele><time>2026-04-04T12:07:19.345Z</time></trkpt><trkpt lat="43.3749642" lon="11.7700023"><ele>279.6666666666667</ele><time>2026-04-04T12:07:20.345Z</time></trkpt><trkpt lat="43.3751638" lon="11.7698981"><ele>278.0</ele><time>2026-04-04T12:07:21.345Z</time></trkpt><trkpt lat="43.3753504" lon="11.7697756"><ele>276.6666666666667</ele><time>2026-04-04T12:07:22.344Z</time></trkpt><trkpt lat="43.3755301" lon="11.7696729"><ele>275.3333333333333</ele><time>2026-04-04T12:07:23.344Z</time></trkpt><trkpt lat="43.3757065" lon="11.769618"><ele>274.0</ele><time>2026-04-04T12:07:24.345Z</time></trkpt><trkpt lat="43.3758777" lon="11.769629"><ele>274.0</ele><time>2026-04-04T12:07:25.345Z</time></trkpt><trkpt lat="43.3760453" lon="11.7697221"><ele>274.0</ele><time>2026-04-04T12:07:26.344Z</time></trkpt><trkpt lat="43.3762002" lon="11.7698719"><ele>274.0</ele><time>2026-04-04T12:07:27.345Z</time></trkpt><trkpt lat="43.3763525" lon="11.7700513"><ele>274.0</ele><time>2026-04-04T12:07:28.345Z</time></trkpt><trkpt lat="43.3765101" lon="11.7702429"><ele>274.0</ele><time>2026-04-04T12:07:29.344Z</time></trkpt><trkpt lat="43.3766696" lon="11.7704404"><ele>274.0</ele><time>2026-04-04T12:07:30.345Z</time></trkpt><trkpt lat="43.3768294" lon="11.7706366"><ele>274.0</ele><time>2026-04-04T12:07:31.345Z</time></trkpt><trkpt lat="43.3769851" lon="11.7708125"><ele>274.0</ele><time>2026-04-04T12:07:32.345Z</time></trkpt><trkpt lat="43.3771553" lon="11.7709727"><ele>274.0</ele><time>2026-04-04T12:07:33.345Z</time></trkpt><trkpt lat="43.3773419" lon="11.7711162"><ele>273.0</ele><time>2026-04-04T12:07:34.345Z</time></trkpt><trkpt lat="43.3775458" lon="11.7712353"><ele>272.0</ele><time>2026-04-04T12:07:35.345Z</time></trkpt><trkpt lat="43.3777646" lon="11.7713326"><ele>272.0</ele><time>2026-04-04T12:07:36.346Z</time></trkpt><trkpt lat="43.377989" lon="11.7714247"><ele>272.0</ele><time>2026-04-04T12:07:37.345Z</time></trkpt><trkpt lat="43.3782204" lon="11.7715122"><ele>272.0</ele><time>2026-04-04T12:07:38.346Z</time></trkpt><trkpt lat="43.3784548" lon="11.7715961"><ele>272.0</ele><time>2026-04-04T12:07:39.346Z</time></trkpt><trkpt lat="43.3786892" lon="11.7716771"><ele>273.5</ele><time>2026-04-04T12:07:40.346Z</time></trkpt><trkpt lat="43.3789245" lon="11.771748"><ele>275.0</ele><time>2026-04-04T12:07:41.346Z</time></trkpt><trkpt lat="43.3791552" lon="11.7718197"><ele>276.0</ele><time>2026-04-04T12:07:42.345Z</time></trkpt><trkpt lat="43.3793765" lon="11.7719028"><ele>277.0</ele><time>2026-04-04T12:07:43.345Z</time></trkpt><trkpt lat="43.3795867" lon="11.7720066"><ele>277.66666666666663</ele><time>2026-04-04T12:07:44.346Z</time></trkpt><trkpt lat="43.3797866" lon="11.7721367"><ele>278.3333333333333</ele><time>2026-04-04T12:07:45.345Z</time></trkpt><trkpt lat="43.3799723" lon="11.7722931"><ele>279.0</ele><time>2026-04-04T12:07:46.345Z</time></trkpt><trkpt lat="43.3801464" lon="11.7724673"><ele>279.0</ele><time>2026-04-04T12:07:47.345Z</time></trkpt><trkpt lat="43.3803132" lon="11.7726518"><ele>279.0</ele><time>2026-04-04T12:07:48.344Z</time></trkpt><trkpt lat="43.380478" lon="11.7728403"><ele>279.0</ele><time>2026-04-04T12:07:49.344Z</time></trkpt><trkpt lat="43.3806405" lon="11.7730315"><ele>279.0</ele><time>2026-04-04T12:07:50.343Z</time></trkpt><trkpt lat="43.3808005" lon="11.7732264"><ele>279.0</ele><time>2026-04-04T12:07:51.344Z</time></trkpt><trkpt lat="43.3809641" lon="11.773425"><ele>279.0</ele><time>2026-04-04T12:07:52.345Z</time></trkpt><trkpt lat="43.3811278" lon="11.7736268"><ele>279.0</ele><time>2026-04-04T12:07:53.345Z</time></trkpt><trkpt lat="43.3812916" lon="11.7738308"><ele>279.0</ele><time>2026-04-04T12:07:54.344Z</time></trkpt><trkpt lat="43.3814557" lon="11.7740366"><ele>279.0</ele><time>2026-04-04T12:07:55.344Z</time></trkpt><trkpt lat="43.3816226" lon="11.7742426"><ele>278.0</ele><time>2026-04-04T12:07:56.344Z</time></trkpt><trkpt lat="43.3817912" lon="11.7744508"><ele>277.0</ele><time>2026-04-04T12:07:57.343Z</time></trkpt><trkpt lat="43.3819556" lon="11.7746628"><ele>277.0</ele><time>2026-04-04T12:07:58.344Z</time></trkpt><trkpt lat="43.3821219" lon="11.7748717"><ele>277.0</ele><time>2026-04-04T12:07:59.343Z</time></trkpt><trkpt lat="43.3822953" lon="11.7750766"><ele>277.0</ele><time>2026-04-04T12:08:00.344Z</time></trkpt><trkpt lat="43.3824798" lon="11.7752772"><ele>277.0</ele><time>2026-04-04T12:08:01.345Z</time></trkpt><trkpt lat="43.3826733" lon="11.7754713"><ele>277.0</ele><time>2026-04-04T12:08:02.345Z</time></trkpt><trkpt lat="43.3828744" lon="11.775665"><ele>277.0</ele><time>2026-04-04T12:08:03.344Z</time></trkpt><trkpt lat="43.3830797" lon="11.7758599"><ele>275.5</ele><time>2026-04-04T12:08:04.344Z</time></trkpt><trkpt lat="43.3832866" lon="11.7760583"><ele>274.0</ele><time>2026-04-04T12:08:05.344Z</time></trkpt><trkpt lat="43.3834965" lon="11.7762577"><ele>274.0</ele><time>2026-04-04T12:08:06.344Z</time></trkpt><trkpt lat="43.3837078" lon="11.7764584"><ele>274.0</ele><time>2026-04-04T12:08:07.344Z</time></trkpt><trkpt lat="43.3839218" lon="11.7766608"><ele>271.0</ele><time>2026-04-04T12:08:08.345Z</time></trkpt><trkpt lat="43.3841347" lon="11.7768661"><ele>268.0</ele><time>2026-04-04T12:08:09.345Z</time></trkpt><trkpt lat="43.3843447" lon="11.7770682"><ele>268.0</ele><time>2026-04-04T12:08:10.344Z</time></trkpt><trkpt lat="43.3845542" lon="11.7772659"><ele>268.0</ele><time>2026-04-04T12:08:11.344Z</time></trkpt><trkpt lat="43.3847607" lon="11.7774627"><ele>268.5</ele><time>2026-04-04T12:08:12.343Z</time></trkpt><trkpt lat="43.3849652" lon="11.777657"><ele>269.0</ele><time>2026-04-04T12:08:13.344Z</time></trkpt><trkpt lat="43.3851651" lon="11.7778496"><ele>269.5</ele><time>2026-04-04T12:08:14.344Z</time></trkpt><trkpt lat="43.3853638" lon="11.7780372"><ele>270.0</ele><time>2026-04-04T12:08:15.344Z</time></trkpt><trkpt lat="43.3855595" lon="11.7782194"><ele>271.0</ele><time>2026-04-04T12:08:16.344Z</time></trkpt><trkpt lat="43.3857546" lon="11.7784005"><ele>272.0</ele><time>2026-04-04T12:08:17.344Z</time></trkpt><trkpt lat="43.3859495" lon="11.7785809"><ele>272.0</ele><time>2026-04-04T12:08:18.345Z</time></trkpt><trkpt lat="43.3861441" lon="11.778761"><ele>272.0</ele><time>2026-04-04T12:08:19.344Z</time></trkpt><trkpt lat="43.3863406" lon="11.7789417"><ele>272.0</ele><time>2026-04-04T12:08:20.343Z</time></trkpt><trkpt lat="43.386536" lon="11.779125"><ele>272.0</ele><time>2026-04-04T12:08:21.344Z</time></trkpt><trkpt lat="43.3867317" lon="11.7793107"><ele>271.0</ele><time>2026-04-04T12:08:22.344Z</time></trkpt><trkpt lat="43.3869276" lon="11.7794969"><ele>270.0</ele><time>2026-04-04T12:08:23.344Z</time></trkpt><trkpt lat="43.3871241" lon="11.7796796"><ele>270.5</ele><time>2026-04-04T12:08:24.344Z</time></trkpt><trkpt lat="43.3873191" lon="11.7798601"><ele>271.0</ele><time>2026-04-04T12:08:25.344Z</time></trkpt><trkpt lat="43.3875095" lon="11.7800425"><ele>271.5</ele><time>2026-04-04T12:08:26.345Z</time></trkpt><trkpt lat="43.3876989" lon="11.7802229"><ele>272.0</ele><time>2026-04-04T12:08:27.344Z</time></trkpt><trkpt lat="43.3878872" lon="11.7804017"><ele>272.0</ele><time>2026-04-04T12:08:28.344Z</time></trkpt><trkpt lat="43.3880761" lon="11.7805767"><ele>272.0</ele><time>2026-04-04T12:08:29.343Z</time></trkpt><trkpt lat="43.3882624" lon="11.7807535"><ele>272.0</ele><time>2026-04-04T12:08:30.344Z</time></trkpt><trkpt lat="43.3884472" lon="11.7809301"><ele>272.0</ele><time>2026-04-04T12:08:31.344Z</time></trkpt><trkpt lat="43.3886319" lon="11.7811042"><ele>272.0</ele><time>2026-04-04T12:08:32.344Z</time></trkpt><trkpt lat="43.3888168" lon="11.7812765"><ele>271.33333333333337</ele><time>2026-04-04T12:08:33.344Z</time></trkpt><trkpt lat="43.3890008" lon="11.7814469"><ele>270.6666666666667</ele><time>2026-04-04T12:08:34.343Z</time></trkpt><trkpt lat="43.38918" lon="11.7816178"><ele>270.0</ele><time>2026-04-04T12:08:35.344Z</time></trkpt><trkpt lat="43.3893544" lon="11.7817885"><ele>270.3333333333333</ele><time>2026-04-04T12:08:36.345Z</time></trkpt><trkpt lat="43.3895282" lon="11.7819549"><ele>270.66666666666663</ele><time>2026-04-04T12:08:37.344Z</time></trkpt><trkpt lat="43.3897021" lon="11.782121"><ele>271.0</ele><time>2026-04-04T12:08:38.345Z</time></trkpt><trkpt lat="43.3898716" lon="11.7822815"><ele>271.0</ele><time>2026-04-04T12:08:39.345Z</time></trkpt><trkpt lat="43.3900366" lon="11.7824405"><ele>271.0</ele><time>2026-04-04T12:08:40.344Z</time></trkpt><trkpt lat="43.3901984" lon="11.7825989"><ele>271.0</ele><time>2026-04-04T12:08:41.344Z</time></trkpt><trkpt lat="43.3903563" lon="11.7827551"><ele>270.3333333333333</ele><time>2026-04-04T12:08:42.345Z</time></trkpt><trkpt lat="43.3905106" lon="11.7829091"><ele>269.6666666666667</ele><time>2026-04-04T12:08:43.344Z</time></trkpt><trkpt lat="43.39066" lon="11.7830666"><ele>269.0</ele><time>2026-04-04T12:08:44.344Z</time></trkpt><trkpt lat="43.3908036" lon="11.7832317"><ele>269.0</ele><time>2026-04-04T12:08:45.343Z</time></trkpt><trkpt lat="43.3909442" lon="11.7834004"><ele>269.0</ele><time>2026-04-04T12:08:46.344Z</time></trkpt><trkpt lat="43.391085" lon="11.7835706"><ele>269.0</ele><time>2026-04-04T12:08:47.343Z</time></trkpt><trkpt lat="43.3912278" lon="11.7837408"><ele>267.6666666666667</ele><time>2026-04-04T12:08:48.344Z</time></trkpt><trkpt lat="43.3913694" lon="11.7839142"><ele>266.3333333333333</ele><time>2026-04-04T12:08:49.343Z</time></trkpt><trkpt lat="43.3915109" lon="11.7840911"><ele>265.0</ele><time>2026-04-04T12:08:50.344Z</time></trkpt><trkpt lat="43.3916507" lon="11.7842678"><ele>265.66666666666663</ele><time>2026-04-04T12:08:51.345Z</time></trkpt><trkpt lat="43.3917895" lon="11.7844461"><ele>266.3333333333333</ele><time>2026-04-04T12:08:52.345Z</time></trkpt><trkpt lat="43.3919242" lon="11.7846236"><ele>267.0</ele><time>2026-04-04T12:08:53.344Z</time></trkpt><trkpt lat="43.3920445" lon="11.7848055"><ele>267.0</ele><time>2026-04-04T12:08:54.344Z</time></trkpt><trkpt lat="43.3921488" lon="11.7850042"><ele>267.0</ele><time>2026-04-04T12:08:55.345Z</time></trkpt><trkpt lat="43.3922371" lon="11.7852165"><ele>267.0</ele><time>2026-04-04T12:08:56.345Z</time></trkpt><trkpt lat="43.3923057" lon="11.7854293"><ele>267.0</ele><time>2026-04-04T12:08:57.344Z</time></trkpt><trkpt lat="43.3923579" lon="11.7856075"><ele>267.0</ele><time>2026-04-04T12:08:58.344Z</time></trkpt><trkpt lat="43.3924095" lon="11.785756"><ele>267.0</ele><time>2026-04-04T12:08:59.344Z</time></trkpt><trkpt lat="43.3924745" lon="11.7858866"><ele>267.0</ele><time>2026-04-04T12:09:00.343Z</time></trkpt><trkpt lat="43.3925583" lon="11.7859948"><ele>266.5</ele><time>2026-04-04T12:09:01.344Z</time></trkpt><trkpt lat="43.3926529" lon="11.7860898"><ele>266.0</ele><time>2026-04-04T12:09:02.344Z</time></trkpt><trkpt lat="43.3927445" lon="11.7861986"><ele>265.5</ele><time>2026-04-04T12:09:03.344Z</time></trkpt><trkpt lat="43.3928242" lon="11.7863109"><ele>265.0</ele><time>2026-04-04T12:09:04.343Z</time></trkpt><trkpt lat="43.39288" lon="11.7864439"><ele>265.0</ele><time>2026-04-04T12:09:05.344Z</time></trkpt><trkpt lat="43.3929153" lon="11.7865862"><ele>265.0</ele><time>2026-04-04T12:09:06.343Z</time></trkpt><trkpt lat="43.3929732" lon="11.7867236"><ele>265.0</ele><time>2026-04-04T12:09:07.344Z</time></trkpt><trkpt lat="43.3930571" lon="11.7868495"><ele>265.0</ele><time>2026-04-04T12:09:08.343Z</time></trkpt><trkpt lat="43.393171" lon="11.7869631"><ele>262.3333333333333</ele><time>2026-04-04T12:09:09.344Z</time></trkpt><trkpt lat="43.3933126" lon="11.7870591"><ele>259.6666666666667</ele><time>2026-04-04T12:09:10.344Z</time></trkpt><trkpt lat="43.3934693" lon="11.7871498"><ele>257.0</ele><time>2026-04-04T12:09:11.344Z</time></trkpt><trkpt lat="43.3936408" lon="11.7872406"><ele>257.0</ele><time>2026-04-04T12:09:12.345Z</time></trkpt><trkpt lat="43.3938159" lon="11.7873336"><ele>257.0</ele><time>2026-04-04T12:09:13.345Z</time></trkpt><trkpt lat="43.3939848" lon="11.787417"><ele>257.0</ele><time>2026-04-04T12:09:14.345Z</time></trkpt><trkpt lat="43.3941579" lon="11.7875103"><ele>257.0</ele><time>2026-04-04T12:09:15.345Z</time></trkpt><trkpt lat="43.3943303" lon="11.7876022"><ele>257.0</ele><time>2026-04-04T12:09:16.344Z</time></trkpt><trkpt lat="43.3945046" lon="11.7876898"><ele>257.0</ele><time>2026-04-04T12:09:17.344Z</time></trkpt><trkpt lat="43.3946816" lon="11.7877807"><ele>257.33333333333337</ele><time>2026-04-04T12:09:18.344Z</time></trkpt><trkpt lat="43.3948569" lon="11.7878734"><ele>257.6666666666667</ele><time>2026-04-04T12:09:19.345Z</time></trkpt><trkpt lat="43.3950314" lon="11.7879691"><ele>258.0</ele><time>2026-04-04T12:09:20.344Z</time></trkpt><trkpt lat="43.3952073" lon="11.7880647"><ele>258.0</ele><time>2026-04-04T12:09:21.343Z</time></trkpt><trkpt lat="43.3953842" lon="11.7881604"><ele>258.0</ele><time>2026-04-04T12:09:22.344Z</time></trkpt><trkpt lat="43.3955622" lon="11.788255"><ele>258.0</ele><time>2026-04-04T12:09:23.344Z</time></trkpt><trkpt lat="43.3957409" lon="11.7883484"><ele>259.0</ele><time>2026-04-04T12:09:24.344Z</time></trkpt><trkpt lat="43.3959196" lon="11.7884387"><ele>260.0</ele><time>2026-04-04T12:09:25.344Z</time></trkpt><trkpt lat="43.3960964" lon="11.7885253"><ele>261.0</ele><time>2026-04-04T12:09:26.344Z</time></trkpt><trkpt lat="43.396269" lon="11.7886157"><ele>261.3333333333333</ele><time>2026-04-04T12:09:27.344Z</time></trkpt><trkpt lat="43.3964288" lon="11.7887118"><ele>261.66666666666663</ele><time>2026-04-04T12:09:28.344Z</time></trkpt><trkpt lat="43.3965748" lon="11.7888248"><ele>262.0</ele><time>2026-04-04T12:09:29.344Z</time></trkpt><trkpt lat="43.3967162" lon="11.7889625"><ele>262.0</ele><time>2026-04-04T12:09:30.344Z</time></trkpt><trkpt lat="43.3968532" lon="11.7891027"><ele>262.0</ele><time>2026-04-04T12:09:31.344Z</time></trkpt><trkpt lat="43.3969915" lon="11.7892479"><ele>262.0</ele><time>2026-04-04T12:09:32.344Z</time></trkpt><trkpt lat="43.3971337" lon="11.7893956"><ele>260.3333333333333</ele><time>2026-04-04T12:09:33.344Z</time></trkpt><trkpt lat="43.3972887" lon="11.7895475"><ele>258.6666666666667</ele><time>2026-04-04T12:09:34.344Z</time></trkpt><trkpt lat="43.3974553" lon="11.7897163"><ele>257.0</ele><time>2026-04-04T12:09:35.344Z</time></trkpt><trkpt lat="43.3976296" lon="11.7899019"><ele>257.0</ele><time>2026-04-04T12:09:36.345Z</time></trkpt><trkpt lat="43.3978098" lon="11.7900996"><ele>257.0</ele><time>2026-04-04T12:09:37.344Z</time></trkpt><trkpt lat="43.3979946" lon="11.7903108"><ele>256.5</ele><time>2026-04-04T12:09:38.344Z</time></trkpt><trkpt lat="43.3981829" lon="11.7905297"><ele>256.0</ele><time>2026-04-04T12:09:39.344Z</time></trkpt><trkpt lat="43.3983802" lon="11.7907443"><ele>256.0</ele><time>2026-04-04T12:09:40.345Z</time></trkpt><trkpt lat="43.3985801" lon="11.7909605"><ele>256.0</ele><time>2026-04-04T12:09:41.344Z</time></trkpt><trkpt lat="43.3987807" lon="11.7911808"><ele>257.5</ele><time>2026-04-04T12:09:42.343Z</time></trkpt><trkpt lat="43.3989817" lon="11.7914007"><ele>259.0</ele><time>2026-04-04T12:09:43.344Z</time></trkpt><trkpt lat="43.3991834" lon="11.7916171"><ele>259.0</ele><time>2026-04-04T12:09:44.343Z</time></trkpt><trkpt lat="43.3993832" lon="11.7918287"><ele>259.0</ele><time>2026-04-04T12:09:45.344Z</time></trkpt><trkpt lat="43.3995774" lon="11.7920358"><ele>260.0</ele><time>2026-04-04T12:09:46.345Z</time></trkpt><trkpt lat="43.3997649" lon="11.7922375"><ele>261.0</ele><time>2026-04-04T12:09:47.344Z</time></trkpt><trkpt lat="43.399952" lon="11.7924339"><ele>261.0</ele><time>2026-04-04T12:09:48.345Z</time></trkpt><trkpt lat="43.4001442" lon="11.7926214"><ele>261.0</ele><time>2026-04-04T12:09:49.344Z</time></trkpt><trkpt lat="43.4003371" lon="11.7928108"><ele>261.5</ele><time>2026-04-04T12:09:50.343Z</time></trkpt><trkpt lat="43.400529" lon="11.7930013"><ele>262.0</ele><time>2026-04-04T12:09:51.344Z</time></trkpt><trkpt lat="43.4007221" lon="11.7931911"><ele>262.0</ele><time>2026-04-04T12:09:52.344Z</time></trkpt><trkpt lat="43.400914" lon="11.7933818"><ele>262.0</ele><time>2026-04-04T12:09:53.343Z</time></trkpt><trkpt lat="43.4011051" lon="11.7935714"><ele>262.0</ele><time>2026-04-04T12:09:54.345Z</time></trkpt><trkpt lat="43.4012984" lon="11.7937569"><ele>262.0</ele><time>2026-04-04T12:09:55.344Z</time></trkpt><trkpt lat="43.4014959" lon="11.7939339"><ele>262.0</ele><time>2026-04-04T12:09:56.344Z</time></trkpt><trkpt lat="43.4016992" lon="11.7941005"><ele>262.0</ele><time>2026-04-04T12:09:57.344Z</time></trkpt><trkpt lat="43.4019061" lon="11.7942575"><ele>261.5</ele><time>2026-04-04T12:09:58.344Z</time></trkpt><trkpt lat="43.4021187" lon="11.7944092"><ele>261.0</ele><time>2026-04-04T12:09:59.343Z</time></trkpt><trkpt lat="43.4023317" lon="11.7945607"><ele>260.5</ele><time>2026-04-04T12:10:00.344Z</time></trkpt><trkpt lat="43.4025454" lon="11.794713"><ele>260.0</ele><time>2026-04-04T12:10:01.344Z</time></trkpt><trkpt lat="43.402756" lon="11.7948648"><ele>260.0</ele><time>2026-04-04T12:10:02.344Z</time></trkpt><trkpt lat="43.4029679" lon="11.7950136"><ele>260.0</ele><time>2026-04-04T12:10:03.344Z</time></trkpt><trkpt lat="43.4031796" lon="11.7951598"><ele>260.0</ele><time>2026-04-04T12:10:04.344Z</time></trkpt><trkpt lat="43.4033896" lon="11.795308"><ele>260.0</ele><time>2026-04-04T12:10:05.344Z</time></trkpt><trkpt lat="43.4035957" lon="11.7954566"><ele>260.0</ele><time>2026-04-04T12:10:06.343Z</time></trkpt><trkpt lat="43.4037953" lon="11.7956005"><ele>260.0</ele><time>2026-04-04T12:10:07.343Z</time></trkpt><trkpt lat="43.4039837" lon="11.7957352"><ele>260.0</ele><time>2026-04-04T12:10:08.344Z</time></trkpt><trkpt lat="43.4041639" lon="11.7958598"><ele>260.0</ele><time>2026-04-04T12:10:09.344Z</time></trkpt><trkpt lat="43.4043356" lon="11.795974"><ele>260.0</ele><time>2026-04-04T12:10:10.344Z</time></trkpt><trkpt lat="43.4044974" lon="11.7960833"><ele>260.0</ele><time>2026-04-04T12:10:11.343Z</time></trkpt><trkpt lat="43.4046465" lon="11.7961913"><ele>259.75</ele><time>2026-04-04T12:10:12.344Z</time></trkpt><trkpt lat="43.4047787" lon="11.7962992"><ele>259.5</ele><time>2026-04-04T12:10:13.343Z</time></trkpt><trkpt lat="43.4048859" lon="11.7963994"><ele>259.25</ele><time>2026-04-04T12:10:14.343Z</time></trkpt><trkpt lat="43.4049615" lon="11.7965085"><ele>259.0</ele><time>2026-04-04T12:10:15.344Z</time></trkpt><trkpt lat="43.4050121" lon="11.7966268"><ele>259.0</ele><time>2026-04-04T12:10:16.344Z</time></trkpt><trkpt lat="43.4050556" lon="11.7967286"><ele>259.0</ele><time>2026-04-04T12:10:17.344Z</time></trkpt><trkpt lat="43.405123" lon="11.7968033"><ele>259.0</ele><time>2026-04-04T12:10:18.343Z</time></trkpt><trkpt lat="43.4052062" lon="11.7968381"><ele>259.0</ele><time>2026-04-04T12:10:19.345Z</time></trkpt><trkpt lat="43.4052942" lon="11.7968233"><ele>259.0</ele><time>2026-04-04T12:10:20.344Z</time></trkpt><trkpt lat="43.4053913" lon="11.7967763"><ele>258.5</ele><time>2026-04-04T12:10:21.344Z</time></trkpt><trkpt lat="43.4055115" lon="11.7967535"><ele>258.0</ele><time>2026-04-04T12:10:22.344Z</time></trkpt><trkpt lat="43.405648" lon="11.7967791"><ele>257.5</ele><time>2026-04-04T12:10:23.345Z</time></trkpt><trkpt lat="43.405796" lon="11.796834"><ele>257.0</ele><time>2026-04-04T12:10:24.344Z</time></trkpt><trkpt lat="43.4059619" lon="11.7968997"><ele>257.0</ele><time>2026-04-04T12:10:25.345Z</time></trkpt><trkpt lat="43.4061431" lon="11.796974"><ele>257.0</ele><time>2026-04-04T12:10:26.345Z</time></trkpt><trkpt lat="43.4063323" lon="11.7970534"><ele>257.0</ele><time>2026-04-04T12:10:27.345Z</time></trkpt><trkpt lat="43.4065307" lon="11.7971358"><ele>255.66666666666669</ele><time>2026-04-04T12:10:28.344Z</time></trkpt><trkpt lat="43.4067358" lon="11.7972168"><ele>254.33333333333331</ele><time>2026-04-04T12:10:29.344Z</time></trkpt><trkpt lat="43.4069457" lon="11.7972952"><ele>253.0</ele><time>2026-04-04T12:10:30.344Z</time></trkpt><trkpt lat="43.4071524" lon="11.7973703"><ele>251.66666666666666</ele><time>2026-04-04T12:10:31.344Z</time></trkpt><trkpt lat="43.4073523" lon="11.7974423"><ele>250.33333333333331</ele><time>2026-04-04T12:10:32.344Z</time></trkpt><trkpt lat="43.407543" lon="11.7975135"><ele>249.0</ele><time>2026-04-04T12:10:33.344Z</time></trkpt><trkpt lat="43.4077269" lon="11.7975828"><ele>249.0</ele><time>2026-04-04T12:10:34.345Z</time></trkpt><trkpt lat="43.4079053" lon="11.7976467"><ele>249.0</ele><time>2026-04-04T12:10:35.344Z</time></trkpt><trkpt lat="43.408077" lon="11.7977089"><ele>249.0</ele><time>2026-04-04T12:10:36.345Z</time></trkpt><trkpt lat="43.4082477" lon="11.7977695"><ele>249.0</ele><time>2026-04-04T12:10:37.345Z</time></trkpt><trkpt lat="43.408412" lon="11.7978226"><ele>249.0</ele><time>2026-04-04T12:10:38.345Z</time></trkpt><trkpt lat="43.4085711" lon="11.7978745"><ele>249.0</ele><time>2026-04-04T12:10:39.344Z</time></trkpt><trkpt lat="43.408727" lon="11.7979298"><ele>249.0</ele><time>2026-04-04T12:10:40.344Z</time></trkpt><trkpt lat="43.4088781" lon="11.7979838"><ele>249.0</ele><time>2026-04-04T12:10:41.345Z</time></trkpt><trkpt lat="43.4090253" lon="11.7980359"><ele>249.0</ele><time>2026-04-04T12:10:42.344Z</time></trkpt><trkpt lat="43.4091687" lon="11.7980831"><ele>249.0</ele><time>2026-04-04T12:10:43.345Z</time></trkpt><trkpt lat="43.4093091" lon="11.7981306"><ele>249.0</ele><time>2026-04-04T12:10:44.343Z</time></trkpt><trkpt lat="43.4094469" lon="11.7981735"><ele>249.0</ele><time>2026-04-04T12:10:45.344Z</time></trkpt><trkpt lat="43.4095794" lon="11.7982139"><ele>249.0</ele><time>2026-04-04T12:10:46.344Z</time></trkpt><trkpt lat="43.409708" lon="11.7982587"><ele>248.75</ele><time>2026-04-04T12:10:47.345Z</time></trkpt><trkpt lat="43.40983" lon="11.7983197"><ele>248.5</ele><time>2026-04-04T12:10:48.344Z</time></trkpt><trkpt lat="43.409942" lon="11.7983972"><ele>248.25</ele><time>2026-04-04T12:10:49.345Z</time></trkpt><trkpt lat="43.4100432" lon="11.79849"><ele>248.0</ele><time>2026-04-04T12:10:50.345Z</time></trkpt><trkpt lat="43.4101315" lon="11.7985955"><ele>248.0</ele><time>2026-04-04T12:10:51.344Z</time></trkpt><trkpt lat="43.4102128" lon="11.7987096"><ele>248.0</ele><time>2026-04-04T12:10:52.344Z</time></trkpt><trkpt lat="43.410287" lon="11.7988268"><ele>248.0</ele><time>2026-04-04T12:10:53.344Z</time></trkpt><trkpt lat="43.4103587" lon="11.7989499"><ele>248.0</ele><time>2026-04-04T12:10:54.344Z</time></trkpt><trkpt lat="43.4104253" lon="11.7990802"><ele>248.0</ele><time>2026-04-04T12:10:55.344Z</time></trkpt><trkpt lat="43.4104896" lon="11.7992169"><ele>248.0</ele><time>2026-04-04T12:10:56.345Z</time></trkpt><trkpt lat="43.4105571" lon="11.7993562"><ele>248.0</ele><time>2026-04-04T12:10:57.344Z</time></trkpt><trkpt lat="43.4106267" lon="11.7994978"><ele>248.0</ele><time>2026-04-04T12:10:58.344Z</time></trkpt><trkpt lat="43.4106967" lon="11.799641"><ele>248.25</ele><time>2026-04-04T12:10:59.344Z</time></trkpt><trkpt lat="43.4107651" lon="11.7997826"><ele>248.5</ele><time>2026-04-04T12:11:00.344Z</time></trkpt><trkpt lat="43.4108341" lon="11.79992"><ele>248.75</ele><time>2026-04-04T12:11:01.344Z</time></trkpt><trkpt lat="43.4109016" lon="11.8000583"><ele>249.0</ele><time>2026-04-04T12:11:02.345Z</time></trkpt><trkpt lat="43.4109675" lon="11.8001967"><ele>249.0</ele><time>2026-04-04T12:11:03.344Z</time></trkpt><trkpt lat="43.4110318" lon="11.8003365"><ele>249.0</ele><time>2026-04-04T12:11:04.344Z</time></trkpt><trkpt lat="43.4110942" lon="11.8004723"><ele>249.0</ele><time>2026-04-04T12:11:05.345Z</time></trkpt><trkpt lat="43.411159" lon="11.8006058"><ele>249.0</ele><time>2026-04-04T12:11:06.344Z</time></trkpt><trkpt lat="43.4112296" lon="11.8007449"><ele>249.0</ele><time>2026-04-04T12:11:07.343Z</time></trkpt><trkpt lat="43.4113043" lon="11.8008947"><ele>249.0</ele><time>2026-04-04T12:11:08.344Z</time></trkpt><trkpt lat="43.4113843" lon="11.8010558"><ele>249.0</ele><time>2026-04-04T12:11:09.344Z</time></trkpt><trkpt lat="43.4114663" lon="11.8012283"><ele>249.0</ele><time>2026-04-04T12:11:10.343Z</time></trkpt><trkpt lat="43.4115516" lon="11.8014112"><ele>248.0</ele><time>2026-04-04T12:11:11.344Z</time></trkpt><trkpt lat="43.411643" lon="11.8015985"><ele>247.0</ele><time>2026-04-04T12:11:12.345Z</time></trkpt><trkpt lat="43.411739" lon="11.8017927"><ele>246.0</ele><time>2026-04-04T12:11:13.345Z</time></trkpt><trkpt lat="43.4118374" lon="11.8019926"><ele>246.0</ele><time>2026-04-04T12:11:14.344Z</time></trkpt><trkpt lat="43.4119385" lon="11.8021984"><ele>246.0</ele><time>2026-04-04T12:11:15.343Z</time></trkpt><trkpt lat="43.4120414" lon="11.8024082"><ele>246.0</ele><time>2026-04-04T12:11:16.345Z</time></trkpt><trkpt lat="43.4121445" lon="11.802625"><ele>246.33333333333331</ele><time>2026-04-04T12:11:17.343Z</time></trkpt><trkpt lat="43.4122494" lon="11.8028466"><ele>246.66666666666666</ele><time>2026-04-04T12:11:18.343Z</time></trkpt><trkpt lat="43.4123603" lon="11.8030713"><ele>247.0</ele><time>2026-04-04T12:11:19.344Z</time></trkpt><trkpt lat="43.4124709" lon="11.8032991"><ele>247.0</ele><time>2026-04-04T12:11:20.344Z</time></trkpt><trkpt lat="43.4125828" lon="11.8035303"><ele>247.0</ele><time>2026-04-04T12:11:21.343Z</time></trkpt><trkpt lat="43.412695" lon="11.8037637"><ele>247.0</ele><time>2026-04-04T12:11:22.345Z</time></trkpt><trkpt lat="43.412809" lon="11.8039975"><ele>247.0</ele><time>2026-04-04T12:11:23.343Z</time></trkpt><trkpt lat="43.412923" lon="11.8042346"><ele>247.0</ele><time>2026-04-04T12:11:24.344Z</time></trkpt><trkpt lat="43.4130368" lon="11.8044701"><ele>247.0</ele><time>2026-04-04T12:11:25.344Z</time></trkpt><trkpt lat="43.4131489" lon="11.8047074"><ele>246.66666666666666</ele><time>2026-04-04T12:11:26.344Z</time></trkpt><trkpt lat="43.4132594" lon="11.8049435"><ele>246.33333333333331</ele><time>2026-04-04T12:11:27.344Z</time></trkpt><trkpt lat="43.413372" lon="11.8051773"><ele>246.0</ele><time>2026-04-04T12:11:28.343Z</time></trkpt><trkpt lat="43.4134832" lon="11.8054123"><ele>245.66666666666669</ele><time>2026-04-04T12:11:29.344Z</time></trkpt><trkpt lat="43.4135939" lon="11.8056484"><ele>245.33333333333334</ele><time>2026-04-04T12:11:30.345Z</time></trkpt><trkpt lat="43.4137044" lon="11.8058868"><ele>245.0</ele><time>2026-04-04T12:11:31.344Z</time></trkpt><trkpt lat="43.4138133" lon="11.806125"><ele>245.33333333333334</ele><time>2026-04-04T12:11:32.345Z</time></trkpt><trkpt lat="43.4139232" lon="11.8063644"><ele>245.66666666666669</ele><time>2026-04-04T12:11:33.344Z</time></trkpt><trkpt lat="43.4140345" lon="11.8066017"><ele>246.0</ele><time>2026-04-04T12:11:34.344Z</time></trkpt><trkpt lat="43.414146" lon="11.8068395"><ele>245.33333333333331</ele><time>2026-04-04T12:11:35.344Z</time></trkpt><trkpt lat="43.4142584" lon="11.8070762"><ele>244.66666666666666</ele><time>2026-04-04T12:11:36.344Z</time></trkpt><trkpt lat="43.4143703" lon="11.8073121"><ele>244.0</ele><time>2026-04-04T12:11:37.345Z</time></trkpt><trkpt lat="43.4144826" lon="11.8075481"><ele>243.66666666666666</ele><time>2026-04-04T12:11:38.345Z</time></trkpt><trkpt lat="43.4145947" lon="11.8077826"><ele>243.33333333333331</ele><time>2026-04-04T12:11:39.345Z</time></trkpt><trkpt lat="43.4147061" lon="11.8080179"><ele>243.0</ele><time>2026-04-04T12:11:40.344Z</time></trkpt><trkpt lat="43.4148181" lon="11.8082521"><ele>243.0</ele><time>2026-04-04T12:11:41.344Z</time></trkpt><trkpt lat="43.4149288" lon="11.8084848"><ele>243.0</ele><time>2026-04-04T12:11:42.345Z</time></trkpt><trkpt lat="43.4150418" lon="11.8087156"><ele>243.0</ele><time>2026-04-04T12:11:43.345Z</time></trkpt><trkpt lat="43.4151574" lon="11.8089477"><ele>243.0</ele><time>2026-04-04T12:11:44.345Z</time></trkpt><trkpt lat="43.4152733" lon="11.8091829"><ele>243.0</ele><time>2026-04-04T12:11:45.344Z</time></trkpt><trkpt lat="43.4153888" lon="11.8094223"><ele>243.0</ele><time>2026-04-04T12:11:46.345Z</time></trkpt><trkpt lat="43.4155091" lon="11.8096675"><ele>242.66666666666669</ele><time>2026-04-04T12:11:47.344Z</time></trkpt><trkpt lat="43.4156334" lon="11.8099187"><ele>242.33333333333334</ele><time>2026-04-04T12:11:48.345Z</time></trkpt><trkpt lat="43.4157611" lon="11.8101756"><ele>242.0</ele><time>2026-04-04T12:11:49.345Z</time></trkpt><trkpt lat="43.4158909" lon="11.81044"><ele>243.0</ele><time>2026-04-04T12:11:50.343Z</time></trkpt><trkpt lat="43.4160213" lon="11.8107107"><ele>244.0</ele><time>2026-04-04T12:11:51.345Z</time></trkpt><trkpt lat="43.4161524" lon="11.8109879"><ele>243.5</ele><time>2026-04-04T12:11:52.344Z</time></trkpt><trkpt lat="43.4162854" lon="11.8112717"><ele>243.0</ele><time>2026-04-04T12:11:53.345Z</time></trkpt><trkpt lat="43.4164214" lon="11.8115597"><ele>244.0</ele><time>2026-04-04T12:11:54.344Z</time></trkpt><trkpt lat="43.4165507" lon="11.8118436"><ele>245.0</ele><time>2026-04-04T12:11:55.344Z</time></trkpt><trkpt lat="43.4166743" lon="11.8121224"><ele>245.0</ele><time>2026-04-04T12:11:56.343Z</time></trkpt><trkpt lat="43.4167999" lon="11.8123979"><ele>245.0</ele><time>2026-04-04T12:11:57.345Z</time></trkpt><trkpt lat="43.4169262" lon="11.8126697"><ele>245.5</ele><time>2026-04-04T12:11:58.344Z</time></trkpt><trkpt lat="43.4170534" lon="11.8129388"><ele>246.0</ele><time>2026-04-04T12:11:59.344Z</time></trkpt><trkpt lat="43.417179" lon="11.8132057"><ele>245.0</ele><time>2026-04-04T12:12:00.344Z</time></trkpt><trkpt lat="43.417304" lon="11.8134701"><ele>244.0</ele><time>2026-04-04T12:12:01.343Z</time></trkpt><trkpt lat="43.4174281" lon="11.8137304"><ele>244.0</ele><time>2026-04-04T12:12:02.344Z</time></trkpt><trkpt lat="43.417554" lon="11.8139893"><ele>244.0</ele><time>2026-04-04T12:12:03.344Z</time></trkpt><trkpt lat="43.4176807" lon="11.8142463"><ele>243.0</ele><time>2026-04-04T12:12:04.345Z</time></trkpt><trkpt lat="43.4178075" lon="11.8145001"><ele>242.0</ele><time>2026-04-04T12:12:05.344Z</time></trkpt><trkpt lat="43.417934" lon="11.8147535"><ele>241.0</ele><time>2026-04-04T12:12:06.345Z</time></trkpt><trkpt lat="43.4180585" lon="11.8150067"><ele>241.33333333333331</ele><time>2026-04-04T12:12:07.344Z</time></trkpt><trkpt lat="43.4181813" lon="11.8152616"><ele>241.66666666666669</ele><time>2026-04-04T12:12:08.344Z</time></trkpt><trkpt lat="43.4183038" lon="11.8155179"><ele>242.0</ele><time>2026-04-04T12:12:09.343Z</time></trkpt><trkpt lat="43.4184269" lon="11.815777"><ele>244.5</ele><time>2026-04-04T12:12:10.344Z</time></trkpt><trkpt lat="43.4185504" lon="11.8160367"><ele>247.0</ele><time>2026-04-04T12:12:11.345Z</time></trkpt><trkpt lat="43.4186741" lon="11.8162975"><ele>247.0</ele><time>2026-04-04T12:12:12.344Z</time></trkpt><trkpt lat="43.4187976" lon="11.8165607"><ele>247.0</ele><time>2026-04-04T12:12:13.344Z</time></trkpt><trkpt lat="43.4189205" lon="11.8168268"><ele>245.5</ele><time>2026-04-04T12:12:14.344Z</time></trkpt><trkpt lat="43.4190414" lon="11.8170939"><ele>244.0</ele><time>2026-04-04T12:12:15.345Z</time></trkpt><trkpt lat="43.4191647" lon="11.8173616"><ele>244.0</ele><time>2026-04-04T12:12:16.345Z</time></trkpt><trkpt lat="43.4192893" lon="11.8176246"><ele>244.0</ele><time>2026-04-04T12:12:17.344Z</time></trkpt><trkpt lat="43.4194146" lon="11.8178862"><ele>244.0</ele><time>2026-04-04T12:12:18.345Z</time></trkpt><trkpt lat="43.4195366" lon="11.8181441"><ele>244.0</ele><time>2026-04-04T12:12:19.345Z</time></trkpt><trkpt lat="43.4196524" lon="11.8183878"><ele>244.0</ele><time>2026-04-04T12:12:20.344Z</time></trkpt><trkpt lat="43.4197636" lon="11.8186244"><ele>244.33333333333331</ele><time>2026-04-04T12:12:21.345Z</time></trkpt><trkpt lat="43.4198732" lon="11.8188514"><ele>244.66666666666669</ele><time>2026-04-04T12:12:22.344Z</time></trkpt><trkpt lat="43.4199799" lon="11.8190678"><ele>245.0</ele><time>2026-04-04T12:12:23.345Z</time></trkpt><trkpt lat="43.4200851" lon="11.8192837"><ele>245.0</ele><time>2026-04-04T12:12:24.344Z</time></trkpt><trkpt lat="43.4201903" lon="11.8195066"><ele>245.0</ele><time>2026-04-04T12:12:25.344Z</time></trkpt><trkpt lat="43.420298" lon="11.819735"><ele>245.0</ele><time>2026-04-04T12:12:26.343Z</time></trkpt><trkpt lat="43.4204084" lon="11.8199661"><ele>245.0</ele><time>2026-04-04T12:12:27.345Z</time></trkpt><trkpt lat="43.4205168" lon="11.8202008"><ele>245.0</ele><time>2026-04-04T12:12:28.345Z</time></trkpt><trkpt lat="43.4206261" lon="11.8204387"><ele>245.0</ele><time>2026-04-04T12:12:29.345Z</time></trkpt><trkpt lat="43.4207355" lon="11.8206772"><ele>245.0</ele><time>2026-04-04T12:12:30.344Z</time></trkpt><trkpt lat="43.4208444" lon="11.8209155"><ele>245.0</ele><time>2026-04-04T12:12:31.345Z</time></trkpt><trkpt lat="43.4209554" lon="11.8211549"><ele>245.0</ele><time>2026-04-04T12:12:32.344Z</time></trkpt><trkpt lat="43.4210708" lon="11.8213958"><ele>245.0</ele><time>2026-04-04T12:12:33.344Z</time></trkpt><trkpt lat="43.4211842" lon="11.8216321"><ele>245.0</ele><time>2026-04-04T12:12:34.344Z</time></trkpt><trkpt lat="43.4212892" lon="11.8218563"><ele>245.0</ele><time>2026-04-04T12:12:35.344Z</time></trkpt><trkpt lat="43.4213888" lon="11.8220719"><ele>245.0</ele><time>2026-04-04T12:12:36.344Z</time></trkpt><trkpt lat="43.4214854" lon="11.8222792"><ele>245.0</ele><time>2026-04-04T12:12:37.345Z</time></trkpt><trkpt lat="43.4215826" lon="11.8224874"><ele>245.0</ele><time>2026-04-04T12:12:38.344Z</time></trkpt><trkpt lat="43.4216807" lon="11.8226958"><ele>244.0</ele><time>2026-04-04T12:12:39.345Z</time></trkpt><trkpt lat="43.4217773" lon="11.8228963"><ele>243.0</ele><time>2026-04-04T12:12:40.344Z</time></trkpt><trkpt lat="43.4218714" lon="11.8230944"><ele>242.0</ele><time>2026-04-04T12:12:41.344Z</time></trkpt><trkpt lat="43.4219631" lon="11.8232892"><ele>242.0</ele><time>2026-04-04T12:12:42.344Z</time></trkpt><trkpt lat="43.4220472" lon="11.8234775"><ele>242.0</ele><time>2026-04-04T12:12:43.345Z</time></trkpt><trkpt lat="43.4221266" lon="11.8236579"><ele>242.0</ele><time>2026-04-04T12:12:44.344Z</time></trkpt><trkpt lat="43.4222009" lon="11.8238216"><ele>242.5</ele><time>2026-04-04T12:12:45.345Z</time></trkpt><trkpt lat="43.4222722" lon="11.8239739"><ele>243.0</ele><time>2026-04-04T12:12:46.344Z</time></trkpt><trkpt lat="43.4223433" lon="11.8241284"><ele>243.5</ele><time>2026-04-04T12:12:47.345Z</time></trkpt><trkpt lat="43.4224214" lon="11.8242907"><ele>244.0</ele><time>2026-04-04T12:12:48.344Z</time></trkpt><trkpt lat="43.4225088" lon="11.8244618"><ele>244.0</ele><time>2026-04-04T12:12:49.345Z</time></trkpt><trkpt lat="43.4226013" lon="11.824645"><ele>244.0</ele><time>2026-04-04T12:12:50.344Z</time></trkpt><trkpt lat="43.4226964" lon="11.8248404"><ele>244.0</ele><time>2026-04-04T12:12:51.344Z</time></trkpt><trkpt lat="43.4227933" lon="11.8250459"><ele>245.0</ele><time>2026-04-04T12:12:52.343Z</time></trkpt><trkpt lat="43.4228934" lon="11.8252573"><ele>246.0</ele><time>2026-04-04T12:12:53.344Z</time></trkpt><trkpt lat="43.4229974" lon="11.8254745"><ele>247.0</ele><time>2026-04-04T12:12:54.345Z</time></trkpt><trkpt lat="43.4231022" lon="11.8256982"><ele>247.0</ele><time>2026-04-04T12:12:55.344Z</time></trkpt><trkpt lat="43.4232092" lon="11.8259247"><ele>247.0</ele><time>2026-04-04T12:12:56.344Z</time></trkpt><trkpt lat="43.4233208" lon="11.8261586"><ele>247.0</ele><time>2026-04-04T12:12:57.345Z</time></trkpt><trkpt lat="43.4234343" lon="11.8263926"><ele>247.33333333333331</ele><time>2026-04-04T12:12:58.344Z</time></trkpt><trkpt lat="43.4235448" lon="11.8266305"><ele>247.66666666666669</ele><time>2026-04-04T12:12:59.345Z</time></trkpt><trkpt lat="43.4236564" lon="11.8268715"><ele>248.0</ele><time>2026-04-04T12:13:00.344Z</time></trkpt><trkpt lat="43.4237693" lon="11.8271161"><ele>247.66666666666669</ele><time>2026-04-04T12:13:01.345Z</time></trkpt><trkpt lat="43.4238851" lon="11.8273601"><ele>247.33333333333331</ele><time>2026-04-04T12:13:02.345Z</time></trkpt><trkpt lat="43.4240028" lon="11.8276066"><ele>247.0</ele><time>2026-04-04T12:13:03.343Z</time></trkpt><trkpt lat="43.4241226" lon="11.8278551"><ele>247.0</ele><time>2026-04-04T12:13:04.344Z</time></trkpt><trkpt lat="43.4242463" lon="11.8281057"><ele>247.0</ele><time>2026-04-04T12:13:05.344Z</time></trkpt><trkpt lat="43.4243711" lon="11.8283636"><ele>247.0</ele><time>2026-04-04T12:13:06.345Z</time></trkpt><trkpt lat="43.4244959" lon="11.8286255"><ele>247.0</ele><time>2026-04-04T12:13:07.344Z</time></trkpt><trkpt lat="43.4246201" lon="11.8288843"><ele>247.0</ele><time>2026-04-04T12:13:08.345Z</time></trkpt><trkpt lat="43.4247465" lon="11.8291449"><ele>247.0</ele><time>2026-04-04T12:13:09.344Z</time></trkpt><trkpt lat="43.4248701" lon="11.829406"><ele>247.0</ele><time>2026-04-04T12:13:10.343Z</time></trkpt><trkpt lat="43.424994" lon="11.829666"><ele>247.0</ele><time>2026-04-04T12:13:11.344Z</time></trkpt><trkpt lat="43.4251179" lon="11.8299234"><ele>247.0</ele><time>2026-04-04T12:13:12.343Z</time></trkpt><trkpt lat="43.4252376" lon="11.8301689"><ele>247.0</ele><time>2026-04-04T12:13:13.343Z</time></trkpt><trkpt lat="43.4253513" lon="11.8303998"><ele>247.0</ele><time>2026-04-04T12:13:14.345Z</time></trkpt><trkpt lat="43.425462" lon="11.8306184"><ele>247.0</ele><time>2026-04-04T12:13:15.343Z</time></trkpt><trkpt lat="43.4255647" lon="11.8308253"><ele>247.0</ele><time>2026-04-04T12:13:16.344Z</time></trkpt><trkpt lat="43.4256627" lon="11.8310219"><ele>247.0</ele><time>2026-04-04T12:13:17.345Z</time></trkpt><trkpt lat="43.4257546" lon="11.8312078"><ele>247.0</ele><time>2026-04-04T12:13:18.344Z</time></trkpt><trkpt lat="43.4258436" lon="11.8313823"><ele>247.0</ele><time>2026-04-04T12:13:19.345Z</time></trkpt><trkpt lat="43.4259268" lon="11.8315479"><ele>247.0</ele><time>2026-04-04T12:13:20.344Z</time></trkpt><trkpt lat="43.4260035" lon="11.8317073"><ele>247.0</ele><time>2026-04-04T12:13:21.344Z</time></trkpt><trkpt lat="43.4260775" lon="11.8318602"><ele>247.0</ele><time>2026-04-04T12:13:22.344Z</time></trkpt><trkpt lat="43.4261479" lon="11.8320022"><ele>247.0</ele><time>2026-04-04T12:13:23.345Z</time></trkpt><trkpt lat="43.4262132" lon="11.8321357"><ele>246.99999999999997</ele><time>2026-04-04T12:13:24.344Z</time></trkpt><trkpt lat="43.426271" lon="11.8322547"><ele>247.0</ele><time>2026-04-04T12:13:25.344Z</time></trkpt><trkpt lat="43.4263197" lon="11.8323552"><ele>247.0</ele><time>2026-04-04T12:13:26.345Z</time></trkpt><trkpt lat="43.4263583" lon="11.8324363"><ele>247.0</ele><time>2026-04-04T12:13:27.344Z</time></trkpt><trkpt lat="43.4263946" lon="11.8325375"><ele>246.99999999999997</ele><time>2026-04-04T12:13:29.343Z</time></trkpt><trkpt lat="43.4264361" lon="11.8326304"><ele>247.0</ele><time>2026-04-04T12:13:32.344Z</time></trkpt><trkpt lat="43.4264991" lon="11.8327693"><ele>247.39999999999998</ele><time>2026-04-04T12:14:21.342Z</time></trkpt><trkpt lat="43.4265452" lon="11.8328532"><ele>247.79999999999998</ele><time>2026-04-04T12:14:22.344Z</time></trkpt><trkpt lat="43.4265989" lon="11.8329532"><ele>248.2</ele><time>2026-04-04T12:14:23.342Z</time></trkpt><trkpt lat="43.4266634" lon="11.8330701"><ele>248.6</ele><time>2026-04-04T12:14:24.343Z</time></trkpt><trkpt lat="43.4267287" lon="11.8331942"><ele>249.0</ele><time>2026-04-04T12:14:25.343Z</time></trkpt><trkpt lat="43.4268021" lon="11.8333371"><ele>248.33333333333331</ele><time>2026-04-04T12:14:26.342Z</time></trkpt><trkpt lat="43.4268813" lon="11.8334955"><ele>247.66666666666666</ele><time>2026-04-04T12:14:27.344Z</time></trkpt><trkpt lat="43.4269692" lon="11.8336669"><ele>247.0</ele><time>2026-04-04T12:14:28.344Z</time></trkpt><trkpt lat="43.4270621" lon="11.8338453"><ele>248.33333333333331</ele><time>2026-04-04T12:14:29.343Z</time></trkpt><trkpt lat="43.4271639" lon="11.8340455"><ele>249.66666666666669</ele><time>2026-04-04T12:14:30.343Z</time></trkpt><trkpt lat="43.427269" lon="11.8342523"><ele>251.0</ele><time>2026-04-04T12:14:31.343Z</time></trkpt><trkpt lat="43.4273761" lon="11.834469"><ele>251.0</ele><time>2026-04-04T12:14:32.342Z</time></trkpt><trkpt lat="43.4274849" lon="11.8346937"><ele>251.0</ele><time>2026-04-04T12:14:33.343Z</time></trkpt><trkpt lat="43.4275932" lon="11.8349195"><ele>251.0</ele><time>2026-04-04T12:14:34.342Z</time></trkpt><trkpt lat="43.427704" lon="11.8351449"><ele>251.0</ele><time>2026-04-04T12:14:35.343Z</time></trkpt><trkpt lat="43.4278158" lon="11.8353723"><ele>251.0</ele><time>2026-04-04T12:14:36.343Z</time></trkpt><trkpt lat="43.4279278" lon="11.8355972"><ele>251.0</ele><time>2026-04-04T12:14:37.343Z</time></trkpt><trkpt lat="43.4280398" lon="11.8358195"><ele>252.66666666666669</ele><time>2026-04-04T12:14:38.343Z</time></trkpt><trkpt lat="43.4281507" lon="11.8360417"><ele>254.33333333333331</ele><time>2026-04-04T12:14:39.343Z</time></trkpt><trkpt lat="43.4282597" lon="11.836263"><ele>256.0</ele><time>2026-04-04T12:14:40.343Z</time></trkpt><trkpt lat="43.4283665" lon="11.8364786"><ele>256.0</ele><time>2026-04-04T12:14:41.343Z</time></trkpt><trkpt lat="43.4284686" lon="11.8366825"><ele>256.0</ele><time>2026-04-04T12:14:42.343Z</time></trkpt><trkpt lat="43.4285658" lon="11.8368779"><ele>256.0</ele><time>2026-04-04T12:14:43.343Z</time></trkpt><trkpt lat="43.4286586" lon="11.8370655"><ele>256.3333333333333</ele><time>2026-04-04T12:14:44.344Z</time></trkpt><trkpt lat="43.4287484" lon="11.8372486"><ele>256.6666666666667</ele><time>2026-04-04T12:14:45.344Z</time></trkpt><trkpt lat="43.4288371" lon="11.83743"><ele>257.0</ele><time>2026-04-04T12:14:46.344Z</time></trkpt><trkpt lat="43.4289258" lon="11.837608"><ele>258.6666666666667</ele><time>2026-04-04T12:14:47.344Z</time></trkpt><trkpt lat="43.4290153" lon="11.8377863"><ele>260.3333333333333</ele><time>2026-04-04T12:14:48.343Z</time></trkpt><trkpt lat="43.4291061" lon="11.8379641"><ele>262.0</ele><time>2026-04-04T12:14:49.343Z</time></trkpt><trkpt lat="43.4291992" lon="11.8381422"><ele>262.0</ele><time>2026-04-04T12:14:50.343Z</time></trkpt><trkpt lat="43.4292934" lon="11.8383211"><ele>262.0</ele><time>2026-04-04T12:14:51.342Z</time></trkpt><trkpt lat="43.4293886" lon="11.8385"><ele>262.0</ele><time>2026-04-04T12:14:52.342Z</time></trkpt><trkpt lat="43.4294847" lon="11.8386809"><ele>261.3333333333333</ele><time>2026-04-04T12:14:53.343Z</time></trkpt><trkpt lat="43.4295815" lon="11.8388641"><ele>260.6666666666667</ele><time>2026-04-04T12:14:54.343Z</time></trkpt><trkpt lat="43.4296792" lon="11.8390488"><ele>260.0</ele><time>2026-04-04T12:14:55.343Z</time></trkpt><trkpt lat="43.4297775" lon="11.8392338"><ele>261.6666666666667</ele><time>2026-04-04T12:14:56.344Z</time></trkpt><trkpt lat="43.4298762" lon="11.8394169"><ele>263.3333333333333</ele><time>2026-04-04T12:14:57.344Z</time></trkpt><trkpt lat="43.4299748" lon="11.8396028"><ele>265.0</ele><time>2026-04-04T12:14:58.344Z</time></trkpt><trkpt lat="43.4300708" lon="11.8397832"><ele>265.0</ele><time>2026-04-04T12:14:59.343Z</time></trkpt><trkpt lat="43.430162" lon="11.8399555"><ele>265.0</ele><time>2026-04-04T12:15:00.343Z</time></trkpt><trkpt lat="43.4302489" lon="11.8401188"><ele>265.0</ele><time>2026-04-04T12:15:01.343Z</time></trkpt><trkpt lat="43.4303319" lon="11.8402737"><ele>265.0</ele><time>2026-04-04T12:15:02.344Z</time></trkpt><trkpt lat="43.4304058" lon="11.8404129"><ele>265.0</ele><time>2026-04-04T12:15:03.343Z</time></trkpt><trkpt lat="43.4304715" lon="11.8405341"><ele>265.0</ele><time>2026-04-04T12:15:04.343Z</time></trkpt><trkpt lat="43.430531" lon="11.8406433"><ele>265.0</ele><time>2026-04-04T12:15:05.344Z</time></trkpt><trkpt lat="43.4305872" lon="11.8407408"><ele>265.0</ele><time>2026-04-04T12:15:06.343Z</time></trkpt><trkpt lat="43.430638" lon="11.8408318"><ele>265.0</ele><time>2026-04-04T12:15:07.344Z</time></trkpt><trkpt lat="43.4306938" lon="11.8409301"><ele>264.6</ele><time>2026-04-04T12:15:08.343Z</time></trkpt><trkpt lat="43.4307651" lon="11.8410592"><ele>264.2</ele><time>2026-04-04T12:15:09.343Z</time></trkpt><trkpt lat="43.4308406" lon="11.8411939"><ele>263.8</ele><time>2026-04-04T12:15:10.344Z</time></trkpt><trkpt lat="43.4309071" lon="11.8413087"><ele>263.4</ele><time>2026-04-04T12:15:11.344Z</time></trkpt><trkpt lat="43.4309696" lon="11.8413951"><ele>263.0</ele><time>2026-04-04T12:15:12.344Z</time></trkpt><trkpt lat="43.4310573" lon="11.8414811"><ele>263.0</ele><time>2026-04-04T12:15:13.343Z</time></trkpt><trkpt lat="43.4311642" lon="11.8415939"><ele>263.0</ele><time>2026-04-04T12:15:14.343Z</time></trkpt><trkpt lat="43.4312849" lon="11.8417213"><ele>263.0</ele><time>2026-04-04T12:15:15.344Z</time></trkpt><trkpt lat="43.4314164" lon="11.8418595"><ele>263.6666666666667</ele><time>2026-04-04T12:15:16.344Z</time></trkpt><trkpt lat="43.4315666" lon="11.842013"><ele>264.3333333333333</ele><time>2026-04-04T12:15:17.342Z</time></trkpt><trkpt lat="43.4317302" lon="11.8421789"><ele>265.0</ele><time>2026-04-04T12:15:18.342Z</time></trkpt><trkpt lat="43.4319097" lon="11.8423665"><ele>265.0</ele><time>2026-04-04T12:15:19.343Z</time></trkpt><trkpt lat="43.4320999" lon="11.8425646"><ele>265.0</ele><time>2026-04-04T12:15:20.343Z</time></trkpt><trkpt lat="43.4322871" lon="11.8427552"><ele>266.0</ele><time>2026-04-04T12:15:21.344Z</time></trkpt><trkpt lat="43.432459" lon="11.8429352"><ele>267.0</ele><time>2026-04-04T12:15:22.343Z</time></trkpt><trkpt lat="43.4326144" lon="11.8431063"><ele>268.0</ele><time>2026-04-04T12:15:23.342Z</time></trkpt><trkpt lat="43.4327546" lon="11.8432586"><ele>268.0</ele><time>2026-04-04T12:15:24.342Z</time></trkpt><trkpt lat="43.4328877" lon="11.8434051"><ele>268.0</ele><time>2026-04-04T12:15:25.344Z</time></trkpt><trkpt lat="43.4330091" lon="11.8435499"><ele>268.0</ele><time>2026-04-04T12:15:26.342Z</time></trkpt><trkpt lat="43.433128" lon="11.8437019"><ele>268.66666666666663</ele><time>2026-04-04T12:15:27.343Z</time></trkpt><trkpt lat="43.433245" lon="11.8438702"><ele>269.3333333333333</ele><time>2026-04-04T12:15:28.343Z</time></trkpt><trkpt lat="43.4333504" lon="11.8440682"><ele>270.0</ele><time>2026-04-04T12:15:29.343Z</time></trkpt><trkpt lat="43.4334496" lon="11.84428"><ele>270.0</ele><time>2026-04-04T12:15:30.343Z</time></trkpt><trkpt lat="43.4335496" lon="11.8444931"><ele>270.0</ele><time>2026-04-04T12:15:31.344Z</time></trkpt><trkpt lat="43.4336491" lon="11.8447011"><ele>270.0</ele><time>2026-04-04T12:15:32.344Z</time></trkpt><trkpt lat="43.4337459" lon="11.8449017"><ele>271.0</ele><time>2026-04-04T12:15:33.344Z</time></trkpt><trkpt lat="43.4338396" lon="11.8451018"><ele>272.0</ele><time>2026-04-04T12:15:34.343Z</time></trkpt><trkpt lat="43.4339342" lon="11.8453021"><ele>273.0</ele><time>2026-04-04T12:15:35.344Z</time></trkpt><trkpt lat="43.4340301" lon="11.8454996"><ele>273.0</ele><time>2026-04-04T12:15:36.344Z</time></trkpt><trkpt lat="43.4341253" lon="11.8456911"><ele>273.0</ele><time>2026-04-04T12:15:37.344Z</time></trkpt><trkpt lat="43.4342151" lon="11.8458711"><ele>273.0</ele><time>2026-04-04T12:15:38.344Z</time></trkpt><trkpt lat="43.4342969" lon="11.8460403"><ele>273.0</ele><time>2026-04-04T12:15:39.344Z</time></trkpt><trkpt lat="43.4343734" lon="11.8462025"><ele>273.0</ele><time>2026-04-04T12:15:40.343Z</time></trkpt><trkpt lat="43.4344429" lon="11.8463531"><ele>273.0</ele><time>2026-04-04T12:15:41.343Z</time></trkpt><trkpt lat="43.4345105" lon="11.8464987"><ele>273.0</ele><time>2026-04-04T12:15:42.343Z</time></trkpt><trkpt lat="43.4345797" lon="11.8466445"><ele>274.0</ele><time>2026-04-04T12:15:43.342Z</time></trkpt><trkpt lat="43.4346503" lon="11.8467914"><ele>275.0</ele><time>2026-04-04T12:15:44.342Z</time></trkpt><trkpt lat="43.4347223" lon="11.8469407"><ele>276.0</ele><time>2026-04-04T12:15:45.342Z</time></trkpt><trkpt lat="43.4347945" lon="11.8470937"><ele>277.0</ele><time>2026-04-04T12:15:46.343Z</time></trkpt><trkpt lat="43.4348682" lon="11.8472489"><ele>277.0</ele><time>2026-04-04T12:15:47.343Z</time></trkpt><trkpt lat="43.4349439" lon="11.8474059"><ele>277.0</ele><time>2026-04-04T12:15:48.343Z</time></trkpt><trkpt lat="43.4350202" lon="11.8475649"><ele>277.0</ele><time>2026-04-04T12:15:49.343Z</time></trkpt><trkpt lat="43.4350973" lon="11.847724"><ele>277.0</ele><time>2026-04-04T12:15:50.343Z</time></trkpt><trkpt lat="43.4351738" lon="11.84788"><ele>276.75</ele><time>2026-04-04T12:15:51.344Z</time></trkpt><trkpt lat="43.4352479" lon="11.8480313"><ele>276.5</ele><time>2026-04-04T12:15:52.343Z</time></trkpt><trkpt lat="43.4353185" lon="11.8481761"><ele>276.25</ele><time>2026-04-04T12:15:53.343Z</time></trkpt><trkpt lat="43.435388" lon="11.8483233"><ele>276.0</ele><time>2026-04-04T12:15:54.344Z</time></trkpt><trkpt lat="43.4354538" lon="11.8484618"><ele>277.0</ele><time>2026-04-04T12:15:55.344Z</time></trkpt><trkpt lat="43.4355187" lon="11.8485978"><ele>278.0</ele><time>2026-04-04T12:15:56.344Z</time></trkpt><trkpt lat="43.4355821" lon="11.8487294"><ele>279.0</ele><time>2026-04-04T12:15:57.344Z</time></trkpt><trkpt lat="43.4356427" lon="11.8488589"><ele>280.0</ele><time>2026-04-04T12:15:58.344Z</time></trkpt><trkpt lat="43.4356999" lon="11.8489861"><ele>280.0</ele><time>2026-04-04T12:15:59.343Z</time></trkpt><trkpt lat="43.4357533" lon="11.8491099"><ele>280.0</ele><time>2026-04-04T12:16:00.343Z</time></trkpt><trkpt lat="43.4357985" lon="11.8492317"><ele>280.0</ele><time>2026-04-04T12:16:01.344Z</time></trkpt><trkpt lat="43.4358211" lon="11.8493327"><ele>280.0</ele><time>2026-04-04T12:16:02.343Z</time></trkpt><trkpt lat="43.4358241" lon="11.8494368"><ele>280.0</ele><time>2026-04-04T12:16:04.343Z</time></trkpt><trkpt lat="43.4357822" lon="11.8495604"><ele>280.16666666666663</ele><time>2026-04-04T12:16:06.343Z</time></trkpt><trkpt lat="43.43574" lon="11.8496337"><ele>280.3333333333333</ele><time>2026-04-04T12:16:07.342Z</time></trkpt><trkpt lat="43.435707" lon="11.8497221"><ele>280.5</ele><time>2026-04-04T12:16:08.343Z</time></trkpt><trkpt lat="43.4356995" lon="11.8498312"><ele>280.6666666666667</ele><time>2026-04-04T12:16:09.342Z</time></trkpt><trkpt lat="43.4357181" lon="11.8499486"><ele>280.83333333333337</ele><time>2026-04-04T12:16:10.342Z</time></trkpt><trkpt lat="43.435766" lon="11.8500685"><ele>281.0</ele><time>2026-04-04T12:16:11.344Z</time></trkpt><trkpt lat="43.4358328" lon="11.8501657"><ele>281.6</ele><time>2026-04-04T12:16:12.343Z</time></trkpt><trkpt lat="43.4358864" lon="11.850261"><ele>282.20000000000005</ele><time>2026-04-04T12:16:13.343Z</time></trkpt><trkpt lat="43.4359345" lon="11.850387"><ele>282.79999999999995</ele><time>2026-04-04T12:16:14.343Z</time></trkpt><trkpt lat="43.4359939" lon="11.8505223"><ele>283.4</ele><time>2026-04-04T12:16:15.343Z</time></trkpt><trkpt lat="43.4360841" lon="11.8506477"><ele>284.0</ele><time>2026-04-04T12:16:16.343Z</time></trkpt><trkpt lat="43.4361807" lon="11.8507792"><ele>284.0</ele><time>2026-04-04T12:16:17.342Z</time></trkpt><trkpt lat="43.4362752" lon="11.850903"><ele>284.0</ele><time>2026-04-04T12:16:18.343Z</time></trkpt><trkpt lat="43.4363758" lon="11.8510248"><ele>284.0</ele><time>2026-04-04T12:16:19.343Z</time></trkpt><trkpt lat="43.4364827" lon="11.8511476"><ele>284.0</ele><time>2026-04-04T12:16:20.344Z</time></trkpt><trkpt lat="43.4365815" lon="11.8512636"><ele>284.25</ele><time>2026-04-04T12:16:21.344Z</time></trkpt><trkpt lat="43.4366793" lon="11.8513775"><ele>284.5</ele><time>2026-04-04T12:16:22.344Z</time></trkpt><trkpt lat="43.4367745" lon="11.8514873"><ele>284.75</ele><time>2026-04-04T12:16:23.343Z</time></trkpt><trkpt lat="43.4368642" lon="11.8515896"><ele>285.0</ele><time>2026-04-04T12:16:24.344Z</time></trkpt><trkpt lat="43.4369436" lon="11.8516798"><ele>285.0</ele><time>2026-04-04T12:16:25.344Z</time></trkpt><trkpt lat="43.4370105" lon="11.8517589"><ele>285.0</ele><time>2026-04-04T12:16:26.344Z</time></trkpt><trkpt lat="43.4370689" lon="11.8518255"><ele>285.0</ele><time>2026-04-04T12:16:27.344Z</time></trkpt><trkpt lat="43.437123" lon="11.8518878"><ele>285.0</ele><time>2026-04-04T12:16:28.343Z</time></trkpt><trkpt lat="43.4371784" lon="11.8519464"><ele>285.0</ele><time>2026-04-04T12:16:29.343Z</time></trkpt><trkpt lat="43.4372453" lon="11.8520189"><ele>285.0</ele><time>2026-04-04T12:16:30.343Z</time></trkpt><trkpt lat="43.4373259" lon="11.8521074"><ele>284.0</ele><time>2026-04-04T12:16:31.343Z</time></trkpt><trkpt lat="43.4374204" lon="11.85221"><ele>283.0</ele><time>2026-04-04T12:16:32.342Z</time></trkpt><trkpt lat="43.4375273" lon="11.8523235"><ele>282.0</ele><time>2026-04-04T12:16:33.343Z</time></trkpt><trkpt lat="43.4376478" lon="11.852443"><ele>281.0</ele><time>2026-04-04T12:16:34.343Z</time></trkpt><trkpt lat="43.4377874" lon="11.852566"><ele>282.33333333333337</ele><time>2026-04-04T12:16:35.344Z</time></trkpt><trkpt lat="43.4379479" lon="11.8526838"><ele>283.6666666666667</ele><time>2026-04-04T12:16:36.344Z</time></trkpt><trkpt lat="43.4381262" lon="11.8527964"><ele>285.0</ele><time>2026-04-04T12:16:37.343Z</time></trkpt><trkpt lat="43.4383135" lon="11.8529084"><ele>285.0</ele><time>2026-04-04T12:16:38.344Z</time></trkpt><trkpt lat="43.4385115" lon="11.8530283"><ele>285.0</ele><time>2026-04-04T12:16:39.343Z</time></trkpt><trkpt lat="43.4387168" lon="11.8531526"><ele>285.0</ele><time>2026-04-04T12:16:40.343Z</time></trkpt><trkpt lat="43.4389285" lon="11.8532807"><ele>285.0</ele><time>2026-04-04T12:16:41.344Z</time></trkpt><trkpt lat="43.4391438" lon="11.853409"><ele>285.0</ele><time>2026-04-04T12:16:42.343Z</time></trkpt><trkpt lat="43.4393625" lon="11.8535402"><ele>285.0</ele><time>2026-04-04T12:16:43.343Z</time></trkpt><trkpt lat="43.4395839" lon="11.8536728"><ele>285.0</ele><time>2026-04-04T12:16:44.343Z</time></trkpt><trkpt lat="43.4398055" lon="11.8538072"><ele>279.5</ele><time>2026-04-04T12:16:45.343Z</time></trkpt><trkpt lat="43.4400268" lon="11.8539461"><ele>274.0</ele><time>2026-04-04T12:16:46.344Z</time></trkpt><trkpt lat="43.4402428" lon="11.8540924"><ele>274.0</ele><time>2026-04-04T12:16:47.343Z</time></trkpt><trkpt lat="43.4404521" lon="11.854254"><ele>274.0</ele><time>2026-04-04T12:16:48.343Z</time></trkpt><trkpt lat="43.4406538" lon="11.8544366"><ele>275.0</ele><time>2026-04-04T12:16:49.344Z</time></trkpt><trkpt lat="43.4408446" lon="11.8546355"><ele>276.0</ele><time>2026-04-04T12:16:50.342Z</time></trkpt><trkpt lat="43.4410263" lon="11.854851"><ele>276.0</ele><time>2026-04-04T12:16:51.343Z</time></trkpt><trkpt lat="43.4411978" lon="11.8550826"><ele>276.0</ele><time>2026-04-04T12:16:52.343Z</time></trkpt><trkpt lat="43.4413528" lon="11.8553278"><ele>270.0</ele><time>2026-04-04T12:16:53.343Z</time></trkpt><trkpt lat="43.441496" lon="11.8555847"><ele>264.0</ele><time>2026-04-04T12:16:54.344Z</time></trkpt><trkpt lat="43.4416284" lon="11.8558493"><ele>262.5</ele><time>2026-04-04T12:16:55.343Z</time></trkpt><trkpt lat="43.4417471" lon="11.8561187"><ele>261.0</ele><time>2026-04-04T12:16:56.343Z</time></trkpt><trkpt lat="43.4418578" lon="11.8563919"><ele>261.0</ele><time>2026-04-04T12:16:57.344Z</time></trkpt><trkpt lat="43.4419648" lon="11.8566664"><ele>261.0</ele><time>2026-04-04T12:16:58.343Z</time></trkpt><trkpt lat="43.44207" lon="11.8569379"><ele>259.3333333333333</ele><time>2026-04-04T12:16:59.343Z</time></trkpt><trkpt lat="43.4421743" lon="11.8572078"><ele>257.66666666666663</ele><time>2026-04-04T12:17:00.344Z</time></trkpt><trkpt lat="43.4422772" lon="11.8574743"><ele>256.0</ele><time>2026-04-04T12:17:01.342Z</time></trkpt><trkpt lat="43.4423799" lon="11.8577395"><ele>256.0</ele><time>2026-04-04T12:17:02.343Z</time></trkpt><trkpt lat="43.4424832" lon="11.8580044"><ele>256.0</ele><time>2026-04-04T12:17:03.344Z</time></trkpt><trkpt lat="43.4425871" lon="11.8582668"><ele>256.0</ele><time>2026-04-04T12:17:04.343Z</time></trkpt><trkpt lat="43.4426885" lon="11.8585177"><ele>255.66666666666666</ele><time>2026-04-04T12:17:05.343Z</time></trkpt><trkpt lat="43.4427786" lon="11.8587552"><ele>255.33333333333331</ele><time>2026-04-04T12:17:06.344Z</time></trkpt><trkpt lat="43.4428658" lon="11.8589829"><ele>255.0</ele><time>2026-04-04T12:17:07.343Z</time></trkpt><trkpt lat="43.4429502" lon="11.8592037"><ele>254.66666666666669</ele><time>2026-04-04T12:17:08.343Z</time></trkpt><trkpt lat="43.4430326" lon="11.8594205"><ele>254.33333333333334</ele><time>2026-04-04T12:17:09.342Z</time></trkpt><trkpt lat="43.4431158" lon="11.8596345"><ele>254.0</ele><time>2026-04-04T12:17:10.343Z</time></trkpt><trkpt lat="43.443199" lon="11.8598471"><ele>254.0</ele><time>2026-04-04T12:17:11.344Z</time></trkpt><trkpt lat="43.4432818" lon="11.8600596"><ele>254.0</ele><time>2026-04-04T12:17:12.342Z</time></trkpt><trkpt lat="43.4433656" lon="11.8602765"><ele>254.0</ele><time>2026-04-04T12:17:13.343Z</time></trkpt><trkpt lat="43.4434519" lon="11.860499"><ele>254.0</ele><time>2026-04-04T12:17:14.343Z</time></trkpt><trkpt lat="43.4435419" lon="11.860727"><ele>254.0</ele><time>2026-04-04T12:17:15.344Z</time></trkpt></trkseg></trk></gpx>